<?xml version="1.0" encoding="UTF-8" standalone="no" ?>
<gpx xmlns="http://www.topografix.com/GPX/1/1" xmlns:xsi="http://www.w3.org/2001/XMLSchema-instance" xsi:schemaLocation="http://www.topografix.com/GPX/1/1 http://www.topografix.com/GPX/1/1/gpx.xsd" version="1.1" creator="VisuGPX - https://www.visugpx.com">
  <metadata>
    <name>Brignais Sortie post Stage</name>
  </metadata>
  <trk>
    <name><![CDATA[Sortie à vélo l'après-midi]]></name>
    <extensions>
      <line xmlns="http://www.topografix.com/GPX/gpx_style/0/2">
        <color>0000FF</color>
        <width>4</width>
      </line>
    </extensions>
    <trkseg>
      <trkpt lat="45.67777" lon="4.7513">
        <ele>207.8</ele>
        <time>1970-01-01T00:00:00.000Z</time>
      </trkpt>
      <trkpt lat="45.67777" lon="4.75132">
        <ele>207.8</ele>
        <time>1970-01-01T00:00:01.000Z</time>
      </trkpt>
      <trkpt lat="45.67776" lon="4.75144">
        <ele>207.8</ele>
        <time>1970-01-01T00:00:06.000Z</time>
      </trkpt>
      <trkpt lat="45.67775" lon="4.75145">
        <ele>207.8</ele>
        <time>1970-01-01T00:00:07.000Z</time>
      </trkpt>
      <trkpt lat="45.67774" lon="4.75146">
        <ele>207.8</ele>
        <time>1970-01-01T00:00:10.000Z</time>
      </trkpt>
      <trkpt lat="45.67774" lon="4.75145">
        <ele>207.8</ele>
        <time>1970-01-01T00:00:13.000Z</time>
      </trkpt>
      <trkpt lat="45.67771" lon="4.75149">
        <ele>208.4</ele>
        <time>1970-01-01T00:00:18.000Z</time>
      </trkpt>
      <trkpt lat="45.67772" lon="4.7516">
        <ele>208.4</ele>
        <time>1970-01-01T00:00:20.000Z</time>
      </trkpt>
      <trkpt lat="45.67774" lon="4.75166">
        <ele>208.4</ele>
        <time>1970-01-01T00:00:21.000Z</time>
      </trkpt>
      <trkpt lat="45.67777" lon="4.75173">
        <ele>208.4</ele>
        <time>1970-01-01T00:00:22.000Z</time>
      </trkpt>
      <trkpt lat="45.67782" lon="4.75186">
        <ele>208.4</ele>
        <time>1970-01-01T00:00:24.000Z</time>
      </trkpt>
      <trkpt lat="45.67784" lon="4.75192">
        <ele>208.2</ele>
        <time>1970-01-01T00:00:25.000Z</time>
      </trkpt>
      <trkpt lat="45.67787" lon="4.75199">
        <ele>208</ele>
        <time>1970-01-01T00:00:26.000Z</time>
      </trkpt>
      <trkpt lat="45.6779" lon="4.75205">
        <ele>208</ele>
        <time>1970-01-01T00:00:27.000Z</time>
      </trkpt>
      <trkpt lat="45.678" lon="4.75229">
        <ele>207.4</ele>
        <time>1970-01-01T00:00:31.000Z</time>
      </trkpt>
      <trkpt lat="45.67803" lon="4.75235">
        <ele>207.4</ele>
        <time>1970-01-01T00:00:32.000Z</time>
      </trkpt>
      <trkpt lat="45.67811" lon="4.75253">
        <ele>207.2</ele>
        <time>1970-01-01T00:00:35.000Z</time>
      </trkpt>
      <trkpt lat="45.67816" lon="4.75269">
        <ele>207.2</ele>
        <time>1970-01-01T00:00:38.000Z</time>
      </trkpt>
      <trkpt lat="45.67816" lon="4.75275">
        <ele>207.2</ele>
        <time>1970-01-01T00:00:39.000Z</time>
      </trkpt>
      <trkpt lat="45.6782" lon="4.75293">
        <ele>207.2</ele>
        <time>1970-01-01T00:00:42.000Z</time>
      </trkpt>
      <trkpt lat="45.67835" lon="4.75333">
        <ele>207.2</ele>
        <time>1970-01-01T00:00:49.000Z</time>
      </trkpt>
      <trkpt lat="45.67838" lon="4.75353">
        <ele>207.2</ele>
        <time>1970-01-01T00:00:53.000Z</time>
      </trkpt>
      <trkpt lat="45.67836" lon="4.75357">
        <ele>207.2</ele>
        <time>1970-01-01T00:00:54.000Z</time>
      </trkpt>
      <trkpt lat="45.67831" lon="4.75362">
        <ele>207.2</ele>
        <time>1970-01-01T00:00:56.000Z</time>
      </trkpt>
      <trkpt lat="45.67824" lon="4.75368">
        <ele>207.4</ele>
        <time>1970-01-01T00:00:58.000Z</time>
      </trkpt>
      <trkpt lat="45.67821" lon="4.75371">
        <ele>207.6</ele>
        <time>1970-01-01T00:00:59.000Z</time>
      </trkpt>
      <trkpt lat="45.67799" lon="4.75389">
        <ele>208</ele>
        <time>1970-01-01T00:01:06.000Z</time>
      </trkpt>
      <trkpt lat="45.67793" lon="4.75394">
        <ele>208</ele>
        <time>1970-01-01T00:01:08.000Z</time>
      </trkpt>
      <trkpt lat="45.6778" lon="4.75405">
        <ele>208</ele>
        <time>1970-01-01T00:01:12.000Z</time>
      </trkpt>
      <trkpt lat="45.6777" lon="4.75412">
        <ele>208</ele>
        <time>1970-01-01T00:01:16.000Z</time>
      </trkpt>
      <trkpt lat="45.67758" lon="4.75418">
        <ele>208</ele>
        <time>1970-01-01T00:01:20.000Z</time>
      </trkpt>
      <trkpt lat="45.67753" lon="4.75422">
        <ele>207.8</ele>
        <time>1970-01-01T00:01:22.000Z</time>
      </trkpt>
      <trkpt lat="45.67743" lon="4.75429">
        <ele>207.8</ele>
        <time>1970-01-01T00:01:25.000Z</time>
      </trkpt>
      <trkpt lat="45.6774" lon="4.75432">
        <ele>207.8</ele>
        <time>1970-01-01T00:01:26.000Z</time>
      </trkpt>
      <trkpt lat="45.67713" lon="4.75452">
        <ele>207.2</ele>
        <time>1970-01-01T00:01:33.000Z</time>
      </trkpt>
      <trkpt lat="45.6769" lon="4.75472">
        <ele>207.2</ele>
        <time>1970-01-01T00:01:40.000Z</time>
      </trkpt>
      <trkpt lat="45.67665" lon="4.75487">
        <ele>207.2</ele>
        <time>1970-01-01T00:01:46.000Z</time>
      </trkpt>
      <trkpt lat="45.67657" lon="4.75492">
        <ele>207.2</ele>
        <time>1970-01-01T00:01:48.000Z</time>
      </trkpt>
      <trkpt lat="45.67625" lon="4.75515">
        <ele>207</ele>
        <time>1970-01-01T00:01:56.000Z</time>
      </trkpt>
      <trkpt lat="45.67598" lon="4.75528">
        <ele>206.8</ele>
        <time>1970-01-01T00:02:03.000Z</time>
      </trkpt>
      <trkpt lat="45.6759" lon="4.75531">
        <ele>206.8</ele>
        <time>1970-01-01T00:02:05.000Z</time>
      </trkpt>
      <trkpt lat="45.67574" lon="4.75534">
        <ele>206.8</ele>
        <time>1970-01-01T00:02:09.000Z</time>
      </trkpt>
      <trkpt lat="45.67566" lon="4.75538">
        <ele>206.8</ele>
        <time>1970-01-01T00:02:11.000Z</time>
      </trkpt>
      <trkpt lat="45.67558" lon="4.75541">
        <ele>206.8</ele>
        <time>1970-01-01T00:02:13.000Z</time>
      </trkpt>
      <trkpt lat="45.6755" lon="4.75544">
        <ele>207</ele>
        <time>1970-01-01T00:02:15.000Z</time>
      </trkpt>
      <trkpt lat="45.67543" lon="4.75548">
        <ele>207</ele>
        <time>1970-01-01T00:02:17.000Z</time>
      </trkpt>
      <trkpt lat="45.67534" lon="4.75551">
        <ele>207</ele>
        <time>1970-01-01T00:02:19.000Z</time>
      </trkpt>
      <trkpt lat="45.67522" lon="4.75558">
        <ele>207</ele>
        <time>1970-01-01T00:02:22.000Z</time>
      </trkpt>
      <trkpt lat="45.67511" lon="4.75565">
        <ele>207</ele>
        <time>1970-01-01T00:02:25.000Z</time>
      </trkpt>
      <trkpt lat="45.67492" lon="4.75578">
        <ele>207</ele>
        <time>1970-01-01T00:02:31.000Z</time>
      </trkpt>
      <trkpt lat="45.67475" lon="4.75589">
        <ele>207.2</ele>
        <time>1970-01-01T00:02:38.000Z</time>
      </trkpt>
      <trkpt lat="45.67473" lon="4.75589">
        <ele>207.2</ele>
        <time>1970-01-01T00:02:39.000Z</time>
      </trkpt>
      <trkpt lat="45.67471" lon="4.75583">
        <ele>207.4</ele>
        <time>1970-01-01T00:02:41.000Z</time>
      </trkpt>
      <trkpt lat="45.67464" lon="4.75556">
        <ele>207.4</ele>
        <time>1970-01-01T00:02:47.000Z</time>
      </trkpt>
      <trkpt lat="45.67453" lon="4.75511">
        <ele>207.8</ele>
        <time>1970-01-01T00:02:56.000Z</time>
      </trkpt>
      <trkpt lat="45.67443" lon="4.75476">
        <ele>207.8</ele>
        <time>1970-01-01T00:03:02.000Z</time>
      </trkpt>
      <trkpt lat="45.67442" lon="4.75469">
        <ele>207.8</ele>
        <time>1970-01-01T00:03:03.000Z</time>
      </trkpt>
      <trkpt lat="45.67436" lon="4.75447">
        <ele>207.8</ele>
        <time>1970-01-01T00:03:06.000Z</time>
      </trkpt>
      <trkpt lat="45.67429" lon="4.75425">
        <ele>207.6</ele>
        <time>1970-01-01T00:03:09.000Z</time>
      </trkpt>
      <trkpt lat="45.67419" lon="4.75398">
        <ele>206.8</ele>
        <time>1970-01-01T00:03:13.000Z</time>
      </trkpt>
      <trkpt lat="45.67415" lon="4.75393">
        <ele>206.6</ele>
        <time>1970-01-01T00:03:14.000Z</time>
      </trkpt>
      <trkpt lat="45.67412" lon="4.75388">
        <ele>206.4</ele>
        <time>1970-01-01T00:03:15.000Z</time>
      </trkpt>
      <trkpt lat="45.67405" lon="4.75378">
        <ele>206.4</ele>
        <time>1970-01-01T00:03:17.000Z</time>
      </trkpt>
      <trkpt lat="45.67392" lon="4.75366">
        <ele>206.2</ele>
        <time>1970-01-01T00:03:20.000Z</time>
      </trkpt>
      <trkpt lat="45.67368" lon="4.75357">
        <ele>205.8</ele>
        <time>1970-01-01T00:03:25.000Z</time>
      </trkpt>
      <trkpt lat="45.67364" lon="4.75356">
        <ele>205.8</ele>
        <time>1970-01-01T00:03:26.000Z</time>
      </trkpt>
      <trkpt lat="45.6732" lon="4.75351">
        <ele>205.2</ele>
        <time>1970-01-01T00:03:35.000Z</time>
      </trkpt>
      <trkpt lat="45.67282" lon="4.75346">
        <ele>205.2</ele>
        <time>1970-01-01T00:03:43.000Z</time>
      </trkpt>
      <trkpt lat="45.67268" lon="4.75344">
        <ele>205</ele>
        <time>1970-01-01T00:03:46.000Z</time>
      </trkpt>
      <trkpt lat="45.6724" lon="4.75339">
        <ele>204.8</ele>
        <time>1970-01-01T00:03:52.000Z</time>
      </trkpt>
      <trkpt lat="45.67215" lon="4.75335">
        <ele>204.8</ele>
        <time>1970-01-01T00:03:57.000Z</time>
      </trkpt>
      <trkpt lat="45.67195" lon="4.75332">
        <ele>204.8</ele>
        <time>1970-01-01T00:04:01.000Z</time>
      </trkpt>
      <trkpt lat="45.6718" lon="4.75328">
        <ele>205</ele>
        <time>1970-01-01T00:04:04.000Z</time>
      </trkpt>
      <trkpt lat="45.67149" lon="4.75325">
        <ele>205.2</ele>
        <time>1970-01-01T00:04:10.000Z</time>
      </trkpt>
      <trkpt lat="45.67112" lon="4.75317">
        <ele>205.4</ele>
        <time>1970-01-01T00:04:17.000Z</time>
      </trkpt>
      <trkpt lat="45.6708" lon="4.75314">
        <ele>205.8</ele>
        <time>1970-01-01T00:04:23.000Z</time>
      </trkpt>
      <trkpt lat="45.67075" lon="4.75313">
        <ele>205.8</ele>
        <time>1970-01-01T00:04:24.000Z</time>
      </trkpt>
      <trkpt lat="45.67041" lon="4.75308">
        <ele>206.2</ele>
        <time>1970-01-01T00:04:30.000Z</time>
      </trkpt>
      <trkpt lat="45.67023" lon="4.75305">
        <ele>206.4</ele>
        <time>1970-01-01T00:04:33.000Z</time>
      </trkpt>
      <trkpt lat="45.66965" lon="4.75298">
        <ele>206.4</ele>
        <time>1970-01-01T00:04:43.000Z</time>
      </trkpt>
      <trkpt lat="45.66954" lon="4.75296">
        <ele>206.6</ele>
        <time>1970-01-01T00:04:45.000Z</time>
      </trkpt>
      <trkpt lat="45.66947" lon="4.75288">
        <ele>206.6</ele>
        <time>1970-01-01T00:04:47.000Z</time>
      </trkpt>
      <trkpt lat="45.66945" lon="4.75268">
        <ele>206.6</ele>
        <time>1970-01-01T00:04:50.000Z</time>
      </trkpt>
      <trkpt lat="45.66944" lon="4.7526">
        <ele>206.8</ele>
        <time>1970-01-01T00:04:51.000Z</time>
      </trkpt>
      <trkpt lat="45.66939" lon="4.75248">
        <ele>206.8</ele>
        <time>1970-01-01T00:04:53.000Z</time>
      </trkpt>
      <trkpt lat="45.66936" lon="4.75243">
        <ele>206.8</ele>
        <time>1970-01-01T00:04:54.000Z</time>
      </trkpt>
      <trkpt lat="45.66932" lon="4.75238">
        <ele>206.8</ele>
        <time>1970-01-01T00:04:55.000Z</time>
      </trkpt>
      <trkpt lat="45.66929" lon="4.75233">
        <ele>206.8</ele>
        <time>1970-01-01T00:04:56.000Z</time>
      </trkpt>
      <trkpt lat="45.66925" lon="4.75228">
        <ele>206.8</ele>
        <time>1970-01-01T00:04:57.000Z</time>
      </trkpt>
      <trkpt lat="45.66922" lon="4.75222">
        <ele>207</ele>
        <time>1970-01-01T00:04:58.000Z</time>
      </trkpt>
      <trkpt lat="45.66919" lon="4.75217">
        <ele>207</ele>
        <time>1970-01-01T00:04:59.000Z</time>
      </trkpt>
      <trkpt lat="45.66916" lon="4.75212">
        <ele>207.2</ele>
        <time>1970-01-01T00:05:00.000Z</time>
      </trkpt>
      <trkpt lat="45.66912" lon="4.75206">
        <ele>207.2</ele>
        <time>1970-01-01T00:05:01.000Z</time>
      </trkpt>
      <trkpt lat="45.66899" lon="4.75185">
        <ele>207.6</ele>
        <time>1970-01-01T00:05:05.000Z</time>
      </trkpt>
      <trkpt lat="45.66882" lon="4.7516">
        <ele>207.8</ele>
        <time>1970-01-01T00:05:10.000Z</time>
      </trkpt>
      <trkpt lat="45.66868" lon="4.75139">
        <ele>207.8</ele>
        <time>1970-01-01T00:05:14.000Z</time>
      </trkpt>
      <trkpt lat="45.66853" lon="4.7511">
        <ele>208.4</ele>
        <time>1970-01-01T00:05:19.000Z</time>
      </trkpt>
      <trkpt lat="45.66833" lon="4.75077">
        <ele>208.6</ele>
        <time>1970-01-01T00:05:25.000Z</time>
      </trkpt>
      <trkpt lat="45.66826" lon="4.75067">
        <ele>208.8</ele>
        <time>1970-01-01T00:05:27.000Z</time>
      </trkpt>
      <trkpt lat="45.66813" lon="4.7505">
        <ele>209</ele>
        <time>1970-01-01T00:05:31.000Z</time>
      </trkpt>
      <trkpt lat="45.66803" lon="4.75038">
        <ele>209.2</ele>
        <time>1970-01-01T00:05:34.000Z</time>
      </trkpt>
      <trkpt lat="45.66799" lon="4.75034">
        <ele>209.2</ele>
        <time>1970-01-01T00:05:35.000Z</time>
      </trkpt>
      <trkpt lat="45.66796" lon="4.7503">
        <ele>209.4</ele>
        <time>1970-01-01T00:05:36.000Z</time>
      </trkpt>
      <trkpt lat="45.6679" lon="4.75019">
        <ele>209.8</ele>
        <time>1970-01-01T00:05:38.000Z</time>
      </trkpt>
      <trkpt lat="45.66785" lon="4.75009">
        <ele>210</ele>
        <time>1970-01-01T00:05:40.000Z</time>
      </trkpt>
      <trkpt lat="45.66782" lon="4.74998">
        <ele>210</ele>
        <time>1970-01-01T00:05:42.000Z</time>
      </trkpt>
      <trkpt lat="45.6678" lon="4.74986">
        <ele>210</ele>
        <time>1970-01-01T00:05:44.000Z</time>
      </trkpt>
      <trkpt lat="45.66779" lon="4.7498">
        <ele>210</ele>
        <time>1970-01-01T00:05:45.000Z</time>
      </trkpt>
      <trkpt lat="45.66777" lon="4.7497">
        <ele>210</ele>
        <time>1970-01-01T00:05:47.000Z</time>
      </trkpt>
      <trkpt lat="45.66776" lon="4.74966">
        <ele>210.2</ele>
        <time>1970-01-01T00:05:48.000Z</time>
      </trkpt>
      <trkpt lat="45.66775" lon="4.74962">
        <ele>210.2</ele>
        <time>1970-01-01T00:05:49.000Z</time>
      </trkpt>
      <trkpt lat="45.66774" lon="4.74953">
        <ele>210.6</ele>
        <time>1970-01-01T00:05:51.000Z</time>
      </trkpt>
      <trkpt lat="45.66773" lon="4.74949">
        <ele>210.8</ele>
        <time>1970-01-01T00:05:52.000Z</time>
      </trkpt>
      <trkpt lat="45.66767" lon="4.74916">
        <ele>212</ele>
        <time>1970-01-01T00:05:59.000Z</time>
      </trkpt>
      <trkpt lat="45.66766" lon="4.74911">
        <ele>212</ele>
        <time>1970-01-01T00:06:00.000Z</time>
      </trkpt>
      <trkpt lat="45.66765" lon="4.74902">
        <ele>212.2</ele>
        <time>1970-01-01T00:06:02.000Z</time>
      </trkpt>
      <trkpt lat="45.66768" lon="4.74893">
        <ele>212.2</ele>
        <time>1970-01-01T00:06:04.000Z</time>
      </trkpt>
      <trkpt lat="45.66778" lon="4.74883">
        <ele>212.8</ele>
        <time>1970-01-01T00:06:08.000Z</time>
      </trkpt>
      <trkpt lat="45.6678" lon="4.74881">
        <ele>212.8</ele>
        <time>1970-01-01T00:06:09.000Z</time>
      </trkpt>
      <trkpt lat="45.66784" lon="4.74877">
        <ele>213</ele>
        <time>1970-01-01T00:06:11.000Z</time>
      </trkpt>
      <trkpt lat="45.66792" lon="4.74872">
        <ele>213.6</ele>
        <time>1970-01-01T00:06:15.000Z</time>
      </trkpt>
      <trkpt lat="45.66793" lon="4.74871">
        <ele>213.8</ele>
        <time>1970-01-01T00:06:16.000Z</time>
      </trkpt>
      <trkpt lat="45.66795" lon="4.74869">
        <ele>214.2</ele>
        <time>1970-01-01T00:06:17.000Z</time>
      </trkpt>
      <trkpt lat="45.668" lon="4.74864">
        <ele>215</ele>
        <time>1970-01-01T00:06:20.000Z</time>
      </trkpt>
      <trkpt lat="45.66801" lon="4.74861">
        <ele>215.2</ele>
        <time>1970-01-01T00:06:21.000Z</time>
      </trkpt>
      <trkpt lat="45.66802" lon="4.74859">
        <ele>215.4</ele>
        <time>1970-01-01T00:06:22.000Z</time>
      </trkpt>
      <trkpt lat="45.66805" lon="4.74847">
        <ele>216.4</ele>
        <time>1970-01-01T00:06:27.000Z</time>
      </trkpt>
      <trkpt lat="45.66805" lon="4.74845">
        <ele>216.8</ele>
        <time>1970-01-01T00:06:28.000Z</time>
      </trkpt>
      <trkpt lat="45.66806" lon="4.74834">
        <ele>217.8</ele>
        <time>1970-01-01T00:06:32.000Z</time>
      </trkpt>
      <trkpt lat="45.66807" lon="4.74826">
        <ele>219</ele>
        <time>1970-01-01T00:06:36.000Z</time>
      </trkpt>
      <trkpt lat="45.66808" lon="4.74824">
        <ele>219</ele>
        <time>1970-01-01T00:06:37.000Z</time>
      </trkpt>
      <trkpt lat="45.66808" lon="4.74822">
        <ele>219.2</ele>
        <time>1970-01-01T00:06:38.000Z</time>
      </trkpt>
      <trkpt lat="45.66809" lon="4.74818">
        <ele>219.6</ele>
        <time>1970-01-01T00:06:40.000Z</time>
      </trkpt>
      <trkpt lat="45.6681" lon="4.74816">
        <ele>220</ele>
        <time>1970-01-01T00:06:41.000Z</time>
      </trkpt>
      <trkpt lat="45.6681" lon="4.74814">
        <ele>220</ele>
        <time>1970-01-01T00:06:42.000Z</time>
      </trkpt>
      <trkpt lat="45.66811" lon="4.74812">
        <ele>220.2</ele>
        <time>1970-01-01T00:06:43.000Z</time>
      </trkpt>
      <trkpt lat="45.66811" lon="4.7481">
        <ele>220.4</ele>
        <time>1970-01-01T00:06:44.000Z</time>
      </trkpt>
      <trkpt lat="45.66811" lon="4.74808">
        <ele>220.6</ele>
        <time>1970-01-01T00:06:45.000Z</time>
      </trkpt>
      <trkpt lat="45.66812" lon="4.74802">
        <ele>221</ele>
        <time>1970-01-01T00:06:48.000Z</time>
      </trkpt>
      <trkpt lat="45.66815" lon="4.74791">
        <ele>222.2</ele>
        <time>1970-01-01T00:06:53.000Z</time>
      </trkpt>
      <trkpt lat="45.66816" lon="4.74778">
        <ele>223.4</ele>
        <time>1970-01-01T00:06:59.000Z</time>
      </trkpt>
      <trkpt lat="45.66817" lon="4.74776">
        <ele>223.6</ele>
        <time>1970-01-01T00:07:00.000Z</time>
      </trkpt>
      <trkpt lat="45.66818" lon="4.74765">
        <ele>224.6</ele>
        <time>1970-01-01T00:07:05.000Z</time>
      </trkpt>
      <trkpt lat="45.66818" lon="4.74763">
        <ele>224.8</ele>
        <time>1970-01-01T00:07:06.000Z</time>
      </trkpt>
      <trkpt lat="45.66817" lon="4.74755">
        <ele>225.8</ele>
        <time>1970-01-01T00:07:10.000Z</time>
      </trkpt>
      <trkpt lat="45.66817" lon="4.74751">
        <ele>226.4</ele>
        <time>1970-01-01T00:07:12.000Z</time>
      </trkpt>
      <trkpt lat="45.66817" lon="4.74749">
        <ele>226.6</ele>
        <time>1970-01-01T00:07:13.000Z</time>
      </trkpt>
      <trkpt lat="45.66817" lon="4.74748">
        <ele>226.8</ele>
        <time>1970-01-01T00:07:14.000Z</time>
      </trkpt>
      <trkpt lat="45.66817" lon="4.74742">
        <ele>227.4</ele>
        <time>1970-01-01T00:07:17.000Z</time>
      </trkpt>
      <trkpt lat="45.66817" lon="4.7474">
        <ele>228</ele>
        <time>1970-01-01T00:07:19.000Z</time>
      </trkpt>
      <trkpt lat="45.66818" lon="4.74733">
        <ele>228.8</ele>
        <time>1970-01-01T00:07:23.000Z</time>
      </trkpt>
      <trkpt lat="45.66818" lon="4.74732">
        <ele>229.2</ele>
        <time>1970-01-01T00:07:24.000Z</time>
      </trkpt>
      <trkpt lat="45.66819" lon="4.7473">
        <ele>229.4</ele>
        <time>1970-01-01T00:07:25.000Z</time>
      </trkpt>
      <trkpt lat="45.66821" lon="4.74721">
        <ele>230.4</ele>
        <time>1970-01-01T00:07:30.000Z</time>
      </trkpt>
      <trkpt lat="45.66821" lon="4.7472">
        <ele>230.6</ele>
        <time>1970-01-01T00:07:31.000Z</time>
      </trkpt>
      <trkpt lat="45.66822" lon="4.74717">
        <ele>231</ele>
        <time>1970-01-01T00:07:33.000Z</time>
      </trkpt>
      <trkpt lat="45.66822" lon="4.74714">
        <ele>231.4</ele>
        <time>1970-01-01T00:07:35.000Z</time>
      </trkpt>
      <trkpt lat="45.66823" lon="4.7471">
        <ele>231.8</ele>
        <time>1970-01-01T00:07:38.000Z</time>
      </trkpt>
      <trkpt lat="45.66823" lon="4.74708">
        <ele>232.2</ele>
        <time>1970-01-01T00:07:40.000Z</time>
      </trkpt>
      <trkpt lat="45.66823" lon="4.74706">
        <ele>232.4</ele>
        <time>1970-01-01T00:07:41.000Z</time>
      </trkpt>
      <trkpt lat="45.66823" lon="4.74703">
        <ele>232.8</ele>
        <time>1970-01-01T00:07:43.000Z</time>
      </trkpt>
      <trkpt lat="45.66822" lon="4.747">
        <ele>233.4</ele>
        <time>1970-01-01T00:07:45.000Z</time>
      </trkpt>
      <trkpt lat="45.66819" lon="4.74697">
        <ele>234</ele>
        <time>1970-01-01T00:07:49.000Z</time>
      </trkpt>
      <trkpt lat="45.66818" lon="4.74697">
        <ele>234.2</ele>
        <time>1970-01-01T00:07:50.000Z</time>
      </trkpt>
      <trkpt lat="45.66816" lon="4.74696">
        <ele>234.6</ele>
        <time>1970-01-01T00:07:51.000Z</time>
      </trkpt>
      <trkpt lat="45.66812" lon="4.74697">
        <ele>235.2</ele>
        <time>1970-01-01T00:07:55.000Z</time>
      </trkpt>
      <trkpt lat="45.66811" lon="4.74697">
        <ele>235.6</ele>
        <time>1970-01-01T00:07:57.000Z</time>
      </trkpt>
      <trkpt lat="45.66808" lon="4.747">
        <ele>236</ele>
        <time>1970-01-01T00:08:00.000Z</time>
      </trkpt>
      <trkpt lat="45.66807" lon="4.74701">
        <ele>236.2</ele>
        <time>1970-01-01T00:08:01.000Z</time>
      </trkpt>
      <trkpt lat="45.66803" lon="4.74703">
        <ele>237</ele>
        <time>1970-01-01T00:08:05.000Z</time>
      </trkpt>
      <trkpt lat="45.66802" lon="4.74704">
        <ele>237.4</ele>
        <time>1970-01-01T00:08:06.000Z</time>
      </trkpt>
      <trkpt lat="45.66797" lon="4.74708">
        <ele>238.4</ele>
        <time>1970-01-01T00:08:12.000Z</time>
      </trkpt>
      <trkpt lat="45.66793" lon="4.74711">
        <ele>239.4</ele>
        <time>1970-01-01T00:08:16.000Z</time>
      </trkpt>
      <trkpt lat="45.6679" lon="4.74713">
        <ele>240.8</ele>
        <time>1970-01-01T00:08:20.000Z</time>
      </trkpt>
      <trkpt lat="45.66786" lon="4.74715">
        <ele>241.6</ele>
        <time>1970-01-01T00:08:23.000Z</time>
      </trkpt>
      <trkpt lat="45.66785" lon="4.74715">
        <ele>242</ele>
        <time>1970-01-01T00:08:24.000Z</time>
      </trkpt>
      <trkpt lat="45.66783" lon="4.74715">
        <ele>242.6</ele>
        <time>1970-01-01T00:08:26.000Z</time>
      </trkpt>
      <trkpt lat="45.66782" lon="4.74714">
        <ele>242.8</ele>
        <time>1970-01-01T00:08:27.000Z</time>
      </trkpt>
      <trkpt lat="45.66782" lon="4.7471">
        <ele>243.2</ele>
        <time>1970-01-01T00:08:29.000Z</time>
      </trkpt>
      <trkpt lat="45.66784" lon="4.74709">
        <ele>243.8</ele>
        <time>1970-01-01T00:08:31.000Z</time>
      </trkpt>
      <trkpt lat="45.66788" lon="4.74705">
        <ele>244.2</ele>
        <time>1970-01-01T00:08:34.000Z</time>
      </trkpt>
      <trkpt lat="45.66792" lon="4.74703">
        <ele>244.6</ele>
        <time>1970-01-01T00:08:37.000Z</time>
      </trkpt>
      <trkpt lat="45.66794" lon="4.74698">
        <ele>245.2</ele>
        <time>1970-01-01T00:08:39.000Z</time>
      </trkpt>
      <trkpt lat="45.66797" lon="4.74689">
        <ele>246</ele>
        <time>1970-01-01T00:08:43.000Z</time>
      </trkpt>
      <trkpt lat="45.66799" lon="4.74682">
        <ele>246.2</ele>
        <time>1970-01-01T00:08:46.000Z</time>
      </trkpt>
      <trkpt lat="45.66801" lon="4.74676">
        <ele>246.6</ele>
        <time>1970-01-01T00:08:49.000Z</time>
      </trkpt>
      <trkpt lat="45.66803" lon="4.74663">
        <ele>247.4</ele>
        <time>1970-01-01T00:08:56.000Z</time>
      </trkpt>
      <trkpt lat="45.66805" lon="4.74658">
        <ele>248.4</ele>
        <time>1970-01-01T00:09:00.000Z</time>
      </trkpt>
      <trkpt lat="45.66807" lon="4.74655">
        <ele>248.8</ele>
        <time>1970-01-01T00:09:02.000Z</time>
      </trkpt>
      <trkpt lat="45.66807" lon="4.7465">
        <ele>249.6</ele>
        <time>1970-01-01T00:09:05.000Z</time>
      </trkpt>
      <trkpt lat="45.66809" lon="4.7464">
        <ele>250.8</ele>
        <time>1970-01-01T00:09:11.000Z</time>
      </trkpt>
      <trkpt lat="45.66808" lon="4.74637">
        <ele>251.4</ele>
        <time>1970-01-01T00:09:13.000Z</time>
      </trkpt>
      <trkpt lat="45.66808" lon="4.74635">
        <ele>251.4</ele>
        <time>1970-01-01T00:09:14.000Z</time>
      </trkpt>
      <trkpt lat="45.66808" lon="4.74631">
        <ele>252</ele>
        <time>1970-01-01T00:09:16.000Z</time>
      </trkpt>
      <trkpt lat="45.66809" lon="4.74621">
        <ele>253.2</ele>
        <time>1970-01-01T00:09:22.000Z</time>
      </trkpt>
      <trkpt lat="45.66809" lon="4.74617">
        <ele>253.6</ele>
        <time>1970-01-01T00:09:24.000Z</time>
      </trkpt>
      <trkpt lat="45.66809" lon="4.74613">
        <ele>254.2</ele>
        <time>1970-01-01T00:09:26.000Z</time>
      </trkpt>
      <trkpt lat="45.6681" lon="4.7461">
        <ele>254.6</ele>
        <time>1970-01-01T00:09:28.000Z</time>
      </trkpt>
      <trkpt lat="45.66811" lon="4.74606">
        <ele>255.2</ele>
        <time>1970-01-01T00:09:31.000Z</time>
      </trkpt>
      <trkpt lat="45.66811" lon="4.74597">
        <ele>256.4</ele>
        <time>1970-01-01T00:09:36.000Z</time>
      </trkpt>
      <trkpt lat="45.66813" lon="4.74587">
        <ele>257.4</ele>
        <time>1970-01-01T00:09:42.000Z</time>
      </trkpt>
      <trkpt lat="45.66813" lon="4.74579">
        <ele>258.4</ele>
        <time>1970-01-01T00:09:47.000Z</time>
      </trkpt>
      <trkpt lat="45.66813" lon="4.74575">
        <ele>259</ele>
        <time>1970-01-01T00:09:50.000Z</time>
      </trkpt>
      <trkpt lat="45.66814" lon="4.7457">
        <ele>259.6</ele>
        <time>1970-01-01T00:09:53.000Z</time>
      </trkpt>
      <trkpt lat="45.66815" lon="4.74564">
        <ele>260.4</ele>
        <time>1970-01-01T00:09:57.000Z</time>
      </trkpt>
      <trkpt lat="45.66815" lon="4.74561">
        <ele>260.6</ele>
        <time>1970-01-01T00:09:59.000Z</time>
      </trkpt>
      <trkpt lat="45.66816" lon="4.74556">
        <ele>261</ele>
        <time>1970-01-01T00:10:02.000Z</time>
      </trkpt>
      <trkpt lat="45.66816" lon="4.74554">
        <ele>261.2</ele>
        <time>1970-01-01T00:10:03.000Z</time>
      </trkpt>
      <trkpt lat="45.66817" lon="4.74549">
        <ele>261.8</ele>
        <time>1970-01-01T00:10:06.000Z</time>
      </trkpt>
      <trkpt lat="45.66817" lon="4.74542">
        <ele>262.6</ele>
        <time>1970-01-01T00:10:10.000Z</time>
      </trkpt>
      <trkpt lat="45.66818" lon="4.7454">
        <ele>262.8</ele>
        <time>1970-01-01T00:10:11.000Z</time>
      </trkpt>
      <trkpt lat="45.66817" lon="4.74529">
        <ele>264</ele>
        <time>1970-01-01T00:10:17.000Z</time>
      </trkpt>
      <trkpt lat="45.66817" lon="4.74527">
        <ele>264.2</ele>
        <time>1970-01-01T00:10:18.000Z</time>
      </trkpt>
      <trkpt lat="45.66818" lon="4.74521">
        <ele>264.6</ele>
        <time>1970-01-01T00:10:21.000Z</time>
      </trkpt>
      <trkpt lat="45.66817" lon="4.74515">
        <ele>265</ele>
        <time>1970-01-01T00:10:24.000Z</time>
      </trkpt>
      <trkpt lat="45.66817" lon="4.74514">
        <ele>265.2</ele>
        <time>1970-01-01T00:10:25.000Z</time>
      </trkpt>
      <trkpt lat="45.66815" lon="4.74501">
        <ele>266</ele>
        <time>1970-01-01T00:10:32.000Z</time>
      </trkpt>
      <trkpt lat="45.66815" lon="4.74499">
        <ele>266.2</ele>
        <time>1970-01-01T00:10:33.000Z</time>
      </trkpt>
      <trkpt lat="45.66814" lon="4.74488">
        <ele>267</ele>
        <time>1970-01-01T00:10:38.000Z</time>
      </trkpt>
      <trkpt lat="45.66813" lon="4.74482">
        <ele>267.4</ele>
        <time>1970-01-01T00:10:41.000Z</time>
      </trkpt>
      <trkpt lat="45.66813" lon="4.74474">
        <ele>268</ele>
        <time>1970-01-01T00:10:45.000Z</time>
      </trkpt>
      <trkpt lat="45.66813" lon="4.74467">
        <ele>268.6</ele>
        <time>1970-01-01T00:10:48.000Z</time>
      </trkpt>
      <trkpt lat="45.66815" lon="4.74455">
        <ele>269.4</ele>
        <time>1970-01-01T00:10:53.000Z</time>
      </trkpt>
      <trkpt lat="45.66816" lon="4.74447">
        <ele>269.6</ele>
        <time>1970-01-01T00:10:56.000Z</time>
      </trkpt>
      <trkpt lat="45.6682" lon="4.74434">
        <ele>270.2</ele>
        <time>1970-01-01T00:11:00.000Z</time>
      </trkpt>
      <trkpt lat="45.66825" lon="4.74419">
        <ele>270.4</ele>
        <time>1970-01-01T00:11:04.000Z</time>
      </trkpt>
      <trkpt lat="45.66827" lon="4.7441">
        <ele>270.6</ele>
        <time>1970-01-01T00:11:06.000Z</time>
      </trkpt>
      <trkpt lat="45.66828" lon="4.74404">
        <ele>270.6</ele>
        <time>1970-01-01T00:11:07.000Z</time>
      </trkpt>
      <trkpt lat="45.66831" lon="4.74391">
        <ele>270.8</ele>
        <time>1970-01-01T00:11:09.000Z</time>
      </trkpt>
      <trkpt lat="45.66832" lon="4.74378">
        <ele>270.8</ele>
        <time>1970-01-01T00:11:11.000Z</time>
      </trkpt>
      <trkpt lat="45.66835" lon="4.74331">
        <ele>270.4</ele>
        <time>1970-01-01T00:11:17.000Z</time>
      </trkpt>
      <trkpt lat="45.66842" lon="4.74281">
        <ele>269.8</ele>
        <time>1970-01-01T00:11:23.000Z</time>
      </trkpt>
      <trkpt lat="45.66842" lon="4.74273">
        <ele>269.6</ele>
        <time>1970-01-01T00:11:24.000Z</time>
      </trkpt>
      <trkpt lat="45.66843" lon="4.74261">
        <ele>269.6</ele>
        <time>1970-01-01T00:11:26.000Z</time>
      </trkpt>
      <trkpt lat="45.66843" lon="4.74256">
        <ele>269.6</ele>
        <time>1970-01-01T00:11:27.000Z</time>
      </trkpt>
      <trkpt lat="45.66841" lon="4.74231">
        <ele>270.2</ele>
        <time>1970-01-01T00:11:33.000Z</time>
      </trkpt>
      <trkpt lat="45.6684" lon="4.74228">
        <ele>271</ele>
        <time>1970-01-01T00:11:34.000Z</time>
      </trkpt>
      <trkpt lat="45.66838" lon="4.7422">
        <ele>272</ele>
        <time>1970-01-01T00:11:36.000Z</time>
      </trkpt>
      <trkpt lat="45.66835" lon="4.74206">
        <ele>273.2</ele>
        <time>1970-01-01T00:11:40.000Z</time>
      </trkpt>
      <trkpt lat="45.66835" lon="4.74192">
        <ele>273.6</ele>
        <time>1970-01-01T00:11:44.000Z</time>
      </trkpt>
      <trkpt lat="45.66835" lon="4.74183">
        <ele>274</ele>
        <time>1970-01-01T00:11:47.000Z</time>
      </trkpt>
      <trkpt lat="45.66835" lon="4.7418">
        <ele>274</ele>
        <time>1970-01-01T00:11:48.000Z</time>
      </trkpt>
      <trkpt lat="45.66835" lon="4.74177">
        <ele>274.2</ele>
        <time>1970-01-01T00:11:49.000Z</time>
      </trkpt>
      <trkpt lat="45.66835" lon="4.74174">
        <ele>274.2</ele>
        <time>1970-01-01T00:11:50.000Z</time>
      </trkpt>
      <trkpt lat="45.66837" lon="4.74154">
        <ele>275</ele>
        <time>1970-01-01T00:11:56.000Z</time>
      </trkpt>
      <trkpt lat="45.66837" lon="4.74151">
        <ele>275.2</ele>
        <time>1970-01-01T00:11:57.000Z</time>
      </trkpt>
      <trkpt lat="45.66839" lon="4.74136">
        <ele>276.2</ele>
        <time>1970-01-01T00:12:03.000Z</time>
      </trkpt>
      <trkpt lat="45.66839" lon="4.74134">
        <ele>276.2</ele>
        <time>1970-01-01T00:12:04.000Z</time>
      </trkpt>
      <trkpt lat="45.66841" lon="4.74124">
        <ele>277.2</ele>
        <time>1970-01-01T00:12:09.000Z</time>
      </trkpt>
      <trkpt lat="45.66841" lon="4.74122">
        <ele>277.4</ele>
        <time>1970-01-01T00:12:10.000Z</time>
      </trkpt>
      <trkpt lat="45.66841" lon="4.7412">
        <ele>277.4</ele>
        <time>1970-01-01T00:12:11.000Z</time>
      </trkpt>
      <trkpt lat="45.66842" lon="4.74108">
        <ele>278.2</ele>
        <time>1970-01-01T00:12:17.000Z</time>
      </trkpt>
      <trkpt lat="45.66843" lon="4.74105">
        <ele>278.4</ele>
        <time>1970-01-01T00:12:18.000Z</time>
      </trkpt>
      <trkpt lat="45.66843" lon="4.74089">
        <ele>279.4</ele>
        <time>1970-01-01T00:12:26.000Z</time>
      </trkpt>
      <trkpt lat="45.66844" lon="4.74082">
        <ele>280.6</ele>
        <time>1970-01-01T00:12:30.000Z</time>
      </trkpt>
      <trkpt lat="45.66844" lon="4.74072">
        <ele>281.8</ele>
        <time>1970-01-01T00:12:36.000Z</time>
      </trkpt>
      <trkpt lat="45.66844" lon="4.74069">
        <ele>282.2</ele>
        <time>1970-01-01T00:12:38.000Z</time>
      </trkpt>
      <trkpt lat="45.66844" lon="4.74065">
        <ele>282.8</ele>
        <time>1970-01-01T00:12:40.000Z</time>
      </trkpt>
      <trkpt lat="45.66845" lon="4.74059">
        <ele>283.8</ele>
        <time>1970-01-01T00:12:44.000Z</time>
      </trkpt>
      <trkpt lat="45.66845" lon="4.74057">
        <ele>284</ele>
        <time>1970-01-01T00:12:45.000Z</time>
      </trkpt>
      <trkpt lat="45.66846" lon="4.74051">
        <ele>284.8</ele>
        <time>1970-01-01T00:12:49.000Z</time>
      </trkpt>
      <trkpt lat="45.66845" lon="4.74047">
        <ele>285.2</ele>
        <time>1970-01-01T00:12:51.000Z</time>
      </trkpt>
      <trkpt lat="45.66845" lon="4.7404">
        <ele>286</ele>
        <time>1970-01-01T00:12:54.000Z</time>
      </trkpt>
      <trkpt lat="45.66845" lon="4.74037">
        <ele>286.4</ele>
        <time>1970-01-01T00:12:56.000Z</time>
      </trkpt>
      <trkpt lat="45.66844" lon="4.74031">
        <ele>286.8</ele>
        <time>1970-01-01T00:12:59.000Z</time>
      </trkpt>
      <trkpt lat="45.66843" lon="4.74028">
        <ele>287.8</ele>
        <time>1970-01-01T00:13:01.000Z</time>
      </trkpt>
      <trkpt lat="45.66842" lon="4.74024">
        <ele>288.8</ele>
        <time>1970-01-01T00:13:04.000Z</time>
      </trkpt>
      <trkpt lat="45.66841" lon="4.74022">
        <ele>289</ele>
        <time>1970-01-01T00:13:05.000Z</time>
      </trkpt>
      <trkpt lat="45.66839" lon="4.74018">
        <ele>289.6</ele>
        <time>1970-01-01T00:13:07.000Z</time>
      </trkpt>
      <trkpt lat="45.66838" lon="4.74017">
        <ele>290</ele>
        <time>1970-01-01T00:13:08.000Z</time>
      </trkpt>
      <trkpt lat="45.66833" lon="4.74011">
        <ele>290.8</ele>
        <time>1970-01-01T00:13:12.000Z</time>
      </trkpt>
      <trkpt lat="45.66831" lon="4.74009">
        <ele>291</ele>
        <time>1970-01-01T00:13:14.000Z</time>
      </trkpt>
      <trkpt lat="45.66825" lon="4.74002">
        <ele>291.6</ele>
        <time>1970-01-01T00:13:19.000Z</time>
      </trkpt>
      <trkpt lat="45.66822" lon="4.74">
        <ele>292</ele>
        <time>1970-01-01T00:13:21.000Z</time>
      </trkpt>
      <trkpt lat="45.66821" lon="4.73999">
        <ele>292.2</ele>
        <time>1970-01-01T00:13:22.000Z</time>
      </trkpt>
      <trkpt lat="45.66812" lon="4.7399">
        <ele>293.2</ele>
        <time>1970-01-01T00:13:29.000Z</time>
      </trkpt>
      <trkpt lat="45.66805" lon="4.73983">
        <ele>293.6</ele>
        <time>1970-01-01T00:13:35.000Z</time>
      </trkpt>
      <trkpt lat="45.66799" lon="4.73975">
        <ele>294.4</ele>
        <time>1970-01-01T00:13:41.000Z</time>
      </trkpt>
      <trkpt lat="45.66797" lon="4.73971">
        <ele>295</ele>
        <time>1970-01-01T00:13:44.000Z</time>
      </trkpt>
      <trkpt lat="45.66795" lon="4.73966">
        <ele>295.6</ele>
        <time>1970-01-01T00:13:47.000Z</time>
      </trkpt>
      <trkpt lat="45.66793" lon="4.7396">
        <ele>296.4</ele>
        <time>1970-01-01T00:13:51.000Z</time>
      </trkpt>
      <trkpt lat="45.66792" lon="4.73957">
        <ele>296.6</ele>
        <time>1970-01-01T00:13:53.000Z</time>
      </trkpt>
      <trkpt lat="45.66792" lon="4.73951">
        <ele>297</ele>
        <time>1970-01-01T00:13:56.000Z</time>
      </trkpt>
      <trkpt lat="45.66792" lon="4.73946">
        <ele>297.6</ele>
        <time>1970-01-01T00:13:59.000Z</time>
      </trkpt>
      <trkpt lat="45.66793" lon="4.73943">
        <ele>297.8</ele>
        <time>1970-01-01T00:14:01.000Z</time>
      </trkpt>
      <trkpt lat="45.66794" lon="4.73938">
        <ele>298.4</ele>
        <time>1970-01-01T00:14:04.000Z</time>
      </trkpt>
      <trkpt lat="45.66795" lon="4.73935">
        <ele>298.6</ele>
        <time>1970-01-01T00:14:06.000Z</time>
      </trkpt>
      <trkpt lat="45.66795" lon="4.73931">
        <ele>299</ele>
        <time>1970-01-01T00:14:08.000Z</time>
      </trkpt>
      <trkpt lat="45.66797" lon="4.73927">
        <ele>299.6</ele>
        <time>1970-01-01T00:14:11.000Z</time>
      </trkpt>
      <trkpt lat="45.66797" lon="4.73924">
        <ele>300</ele>
        <time>1970-01-01T00:14:13.000Z</time>
      </trkpt>
      <trkpt lat="45.668" lon="4.73915">
        <ele>300.4</ele>
        <time>1970-01-01T00:14:18.000Z</time>
      </trkpt>
      <trkpt lat="45.66801" lon="4.73903">
        <ele>301</ele>
        <time>1970-01-01T00:14:23.000Z</time>
      </trkpt>
      <trkpt lat="45.66802" lon="4.73901">
        <ele>301.2</ele>
        <time>1970-01-01T00:14:24.000Z</time>
      </trkpt>
      <trkpt lat="45.66802" lon="4.739">
        <ele>301.2</ele>
        <time>1970-01-01T00:14:25.000Z</time>
      </trkpt>
      <trkpt lat="45.66804" lon="4.73894">
        <ele>302</ele>
        <time>1970-01-01T00:14:28.000Z</time>
      </trkpt>
      <trkpt lat="45.66804" lon="4.73892">
        <ele>302.2</ele>
        <time>1970-01-01T00:14:29.000Z</time>
      </trkpt>
      <trkpt lat="45.66806" lon="4.73882">
        <ele>303.4</ele>
        <time>1970-01-01T00:14:34.000Z</time>
      </trkpt>
      <trkpt lat="45.66806" lon="4.73879">
        <ele>303.6</ele>
        <time>1970-01-01T00:14:35.000Z</time>
      </trkpt>
      <trkpt lat="45.66808" lon="4.73866">
        <ele>304.4</ele>
        <time>1970-01-01T00:14:41.000Z</time>
      </trkpt>
      <trkpt lat="45.66808" lon="4.73863">
        <ele>304.4</ele>
        <time>1970-01-01T00:14:42.000Z</time>
      </trkpt>
      <trkpt lat="45.66808" lon="4.73842">
        <ele>305.4</ele>
        <time>1970-01-01T00:14:51.000Z</time>
      </trkpt>
      <trkpt lat="45.66807" lon="4.73841">
        <ele>306</ele>
        <time>1970-01-01T00:14:57.000Z</time>
      </trkpt>
      <trkpt lat="45.66807" lon="4.73841">
        <ele>306</ele>
        <time>1970-01-01T00:15:07.000Z</time>
      </trkpt>
      <trkpt lat="45.66807" lon="4.7384">
        <ele>306.2</ele>
        <time>1970-01-01T00:15:46.000Z</time>
      </trkpt>
      <trkpt lat="45.66801" lon="4.73831">
        <ele>306</ele>
        <time>1970-01-01T00:15:51.000Z</time>
      </trkpt>
      <trkpt lat="45.6679" lon="4.7381">
        <ele>306</ele>
        <time>1970-01-01T00:15:57.000Z</time>
      </trkpt>
      <trkpt lat="45.66769" lon="4.73776">
        <ele>305.4</ele>
        <time>1970-01-01T00:16:03.000Z</time>
      </trkpt>
      <trkpt lat="45.66765" lon="4.7377">
        <ele>305.4</ele>
        <time>1970-01-01T00:16:04.000Z</time>
      </trkpt>
      <trkpt lat="45.66762" lon="4.73764">
        <ele>305.2</ele>
        <time>1970-01-01T00:16:05.000Z</time>
      </trkpt>
      <trkpt lat="45.66758" lon="4.73757">
        <ele>305</ele>
        <time>1970-01-01T00:16:06.000Z</time>
      </trkpt>
      <trkpt lat="45.66754" lon="4.73751">
        <ele>304.8</ele>
        <time>1970-01-01T00:16:07.000Z</time>
      </trkpt>
      <trkpt lat="45.6675" lon="4.73744">
        <ele>304.4</ele>
        <time>1970-01-01T00:16:08.000Z</time>
      </trkpt>
      <trkpt lat="45.66741" lon="4.73731">
        <ele>304</ele>
        <time>1970-01-01T00:16:10.000Z</time>
      </trkpt>
      <trkpt lat="45.66726" lon="4.73706">
        <ele>303.8</ele>
        <time>1970-01-01T00:16:14.000Z</time>
      </trkpt>
      <trkpt lat="45.6671" lon="4.73685">
        <ele>303.8</ele>
        <time>1970-01-01T00:16:18.000Z</time>
      </trkpt>
      <trkpt lat="45.66693" lon="4.73664">
        <ele>304.4</ele>
        <time>1970-01-01T00:16:23.000Z</time>
      </trkpt>
      <trkpt lat="45.66689" lon="4.73661">
        <ele>304.6</ele>
        <time>1970-01-01T00:16:24.000Z</time>
      </trkpt>
      <trkpt lat="45.6668" lon="4.73649">
        <ele>305.2</ele>
        <time>1970-01-01T00:16:27.000Z</time>
      </trkpt>
      <trkpt lat="45.66674" lon="4.73642">
        <ele>305.2</ele>
        <time>1970-01-01T00:16:29.000Z</time>
      </trkpt>
      <trkpt lat="45.66657" lon="4.73621">
        <ele>305.2</ele>
        <time>1970-01-01T00:16:34.000Z</time>
      </trkpt>
      <trkpt lat="45.6663" lon="4.73589">
        <ele>304.8</ele>
        <time>1970-01-01T00:16:42.000Z</time>
      </trkpt>
      <trkpt lat="45.66627" lon="4.73584">
        <ele>304.8</ele>
        <time>1970-01-01T00:16:43.000Z</time>
      </trkpt>
      <trkpt lat="45.66624" lon="4.7358">
        <ele>304.6</ele>
        <time>1970-01-01T00:16:44.000Z</time>
      </trkpt>
      <trkpt lat="45.66621" lon="4.73574">
        <ele>304.6</ele>
        <time>1970-01-01T00:16:45.000Z</time>
      </trkpt>
      <trkpt lat="45.66616" lon="4.73564">
        <ele>304.4</ele>
        <time>1970-01-01T00:16:47.000Z</time>
      </trkpt>
      <trkpt lat="45.6661" lon="4.73553">
        <ele>304.2</ele>
        <time>1970-01-01T00:16:49.000Z</time>
      </trkpt>
      <trkpt lat="45.66588" lon="4.73513">
        <ele>303.6</ele>
        <time>1970-01-01T00:16:56.000Z</time>
      </trkpt>
      <trkpt lat="45.66585" lon="4.73508">
        <ele>303.6</ele>
        <time>1970-01-01T00:16:57.000Z</time>
      </trkpt>
      <trkpt lat="45.66559" lon="4.7347">
        <ele>303</ele>
        <time>1970-01-01T00:17:05.000Z</time>
      </trkpt>
      <trkpt lat="45.6655" lon="4.73456">
        <ele>303</ele>
        <time>1970-01-01T00:17:08.000Z</time>
      </trkpt>
      <trkpt lat="45.66547" lon="4.73451">
        <ele>303</ele>
        <time>1970-01-01T00:17:09.000Z</time>
      </trkpt>
      <trkpt lat="45.66544" lon="4.73447">
        <ele>303</ele>
        <time>1970-01-01T00:17:10.000Z</time>
      </trkpt>
      <trkpt lat="45.66534" lon="4.73432">
        <ele>303</ele>
        <time>1970-01-01T00:17:13.000Z</time>
      </trkpt>
      <trkpt lat="45.66531" lon="4.73427">
        <ele>303</ele>
        <time>1970-01-01T00:17:14.000Z</time>
      </trkpt>
      <trkpt lat="45.66528" lon="4.73423">
        <ele>303</ele>
        <time>1970-01-01T00:17:15.000Z</time>
      </trkpt>
      <trkpt lat="45.66524" lon="4.73418">
        <ele>303</ele>
        <time>1970-01-01T00:17:16.000Z</time>
      </trkpt>
      <trkpt lat="45.66501" lon="4.73385">
        <ele>303</ele>
        <time>1970-01-01T00:17:23.000Z</time>
      </trkpt>
      <trkpt lat="45.66487" lon="4.73367">
        <ele>303</ele>
        <time>1970-01-01T00:17:27.000Z</time>
      </trkpt>
      <trkpt lat="45.66474" lon="4.73349">
        <ele>303.2</ele>
        <time>1970-01-01T00:17:31.000Z</time>
      </trkpt>
      <trkpt lat="45.66471" lon="4.73344">
        <ele>303.2</ele>
        <time>1970-01-01T00:17:32.000Z</time>
      </trkpt>
      <trkpt lat="45.66454" lon="4.73319">
        <ele>303.8</ele>
        <time>1970-01-01T00:17:38.000Z</time>
      </trkpt>
      <trkpt lat="45.66448" lon="4.73308">
        <ele>304</ele>
        <time>1970-01-01T00:17:41.000Z</time>
      </trkpt>
      <trkpt lat="45.66443" lon="4.73297">
        <ele>304.6</ele>
        <time>1970-01-01T00:17:44.000Z</time>
      </trkpt>
      <trkpt lat="45.66441" lon="4.73293">
        <ele>305.2</ele>
        <time>1970-01-01T00:17:45.000Z</time>
      </trkpt>
      <trkpt lat="45.66437" lon="4.73283">
        <ele>305.8</ele>
        <time>1970-01-01T00:17:48.000Z</time>
      </trkpt>
      <trkpt lat="45.66432" lon="4.73269">
        <ele>306.4</ele>
        <time>1970-01-01T00:17:52.000Z</time>
      </trkpt>
      <trkpt lat="45.66428" lon="4.73261">
        <ele>306.6</ele>
        <time>1970-01-01T00:17:54.000Z</time>
      </trkpt>
      <trkpt lat="45.66425" lon="4.7325">
        <ele>307</ele>
        <time>1970-01-01T00:17:56.000Z</time>
      </trkpt>
      <trkpt lat="45.66422" lon="4.73238">
        <ele>307.2</ele>
        <time>1970-01-01T00:17:58.000Z</time>
      </trkpt>
      <trkpt lat="45.66419" lon="4.73217">
        <ele>307.4</ele>
        <time>1970-01-01T00:18:01.000Z</time>
      </trkpt>
      <trkpt lat="45.66414" lon="4.73182">
        <ele>307.4</ele>
        <time>1970-01-01T00:18:06.000Z</time>
      </trkpt>
      <trkpt lat="45.66409" lon="4.73155">
        <ele>307</ele>
        <time>1970-01-01T00:18:10.000Z</time>
      </trkpt>
      <trkpt lat="45.66405" lon="4.73144">
        <ele>307</ele>
        <time>1970-01-01T00:18:12.000Z</time>
      </trkpt>
      <trkpt lat="45.66391" lon="4.73131">
        <ele>307</ele>
        <time>1970-01-01T00:18:16.000Z</time>
      </trkpt>
      <trkpt lat="45.66368" lon="4.73123">
        <ele>307</ele>
        <time>1970-01-01T00:18:22.000Z</time>
      </trkpt>
      <trkpt lat="45.66343" lon="4.73115">
        <ele>307</ele>
        <time>1970-01-01T00:18:28.000Z</time>
      </trkpt>
      <trkpt lat="45.66325" lon="4.7311">
        <ele>306.8</ele>
        <time>1970-01-01T00:18:32.000Z</time>
      </trkpt>
      <trkpt lat="45.66308" lon="4.73104">
        <ele>306</ele>
        <time>1970-01-01T00:18:36.000Z</time>
      </trkpt>
      <trkpt lat="45.66298" lon="4.73101">
        <ele>305.8</ele>
        <time>1970-01-01T00:18:38.000Z</time>
      </trkpt>
      <trkpt lat="45.66274" lon="4.73091">
        <ele>305</ele>
        <time>1970-01-01T00:18:43.000Z</time>
      </trkpt>
      <trkpt lat="45.66264" lon="4.73088">
        <ele>304.6</ele>
        <time>1970-01-01T00:18:45.000Z</time>
      </trkpt>
      <trkpt lat="45.66259" lon="4.73086">
        <ele>304.6</ele>
        <time>1970-01-01T00:18:46.000Z</time>
      </trkpt>
      <trkpt lat="45.66255" lon="4.73085">
        <ele>304.2</ele>
        <time>1970-01-01T00:18:47.000Z</time>
      </trkpt>
      <trkpt lat="45.66252" lon="4.73082">
        <ele>303.8</ele>
        <time>1970-01-01T00:18:48.000Z</time>
      </trkpt>
      <trkpt lat="45.66249" lon="4.73079">
        <ele>303.2</ele>
        <time>1970-01-01T00:18:49.000Z</time>
      </trkpt>
      <trkpt lat="45.66249" lon="4.73074">
        <ele>303</ele>
        <time>1970-01-01T00:18:50.000Z</time>
      </trkpt>
      <trkpt lat="45.66249" lon="4.73068">
        <ele>302.8</ele>
        <time>1970-01-01T00:18:51.000Z</time>
      </trkpt>
      <trkpt lat="45.6625" lon="4.73062">
        <ele>302.8</ele>
        <time>1970-01-01T00:18:52.000Z</time>
      </trkpt>
      <trkpt lat="45.66251" lon="4.73055">
        <ele>302.6</ele>
        <time>1970-01-01T00:18:53.000Z</time>
      </trkpt>
      <trkpt lat="45.66252" lon="4.7304">
        <ele>302.6</ele>
        <time>1970-01-01T00:18:55.000Z</time>
      </trkpt>
      <trkpt lat="45.66249" lon="4.73027">
        <ele>302.4</ele>
        <time>1970-01-01T00:18:57.000Z</time>
      </trkpt>
      <trkpt lat="45.66247" lon="4.7302">
        <ele>302.2</ele>
        <time>1970-01-01T00:18:58.000Z</time>
      </trkpt>
      <trkpt lat="45.66244" lon="4.73015">
        <ele>301.8</ele>
        <time>1970-01-01T00:18:59.000Z</time>
      </trkpt>
      <trkpt lat="45.66241" lon="4.7301">
        <ele>301.6</ele>
        <time>1970-01-01T00:19:00.000Z</time>
      </trkpt>
      <trkpt lat="45.66237" lon="4.73005">
        <ele>301.2</ele>
        <time>1970-01-01T00:19:01.000Z</time>
      </trkpt>
      <trkpt lat="45.66232" lon="4.73002">
        <ele>300.4</ele>
        <time>1970-01-01T00:19:02.000Z</time>
      </trkpt>
      <trkpt lat="45.66221" lon="4.72995">
        <ele>299.4</ele>
        <time>1970-01-01T00:19:04.000Z</time>
      </trkpt>
      <trkpt lat="45.66215" lon="4.7299">
        <ele>299.2</ele>
        <time>1970-01-01T00:19:05.000Z</time>
      </trkpt>
      <trkpt lat="45.6621" lon="4.72986">
        <ele>299</ele>
        <time>1970-01-01T00:19:06.000Z</time>
      </trkpt>
      <trkpt lat="45.66205" lon="4.7298">
        <ele>299</ele>
        <time>1970-01-01T00:19:07.000Z</time>
      </trkpt>
      <trkpt lat="45.66202" lon="4.72974">
        <ele>298.8</ele>
        <time>1970-01-01T00:19:08.000Z</time>
      </trkpt>
      <trkpt lat="45.66193" lon="4.7295">
        <ele>298.2</ele>
        <time>1970-01-01T00:19:13.000Z</time>
      </trkpt>
      <trkpt lat="45.66189" lon="4.72941">
        <ele>298</ele>
        <time>1970-01-01T00:19:15.000Z</time>
      </trkpt>
      <trkpt lat="45.66188" lon="4.72936">
        <ele>298</ele>
        <time>1970-01-01T00:19:16.000Z</time>
      </trkpt>
      <trkpt lat="45.66184" lon="4.72925">
        <ele>298</ele>
        <time>1970-01-01T00:19:18.000Z</time>
      </trkpt>
      <trkpt lat="45.66182" lon="4.72919">
        <ele>298</ele>
        <time>1970-01-01T00:19:19.000Z</time>
      </trkpt>
      <trkpt lat="45.66176" lon="4.72907">
        <ele>298</ele>
        <time>1970-01-01T00:19:21.000Z</time>
      </trkpt>
      <trkpt lat="45.66161" lon="4.7288">
        <ele>298</ele>
        <time>1970-01-01T00:19:26.000Z</time>
      </trkpt>
      <trkpt lat="45.66149" lon="4.72859">
        <ele>298.2</ele>
        <time>1970-01-01T00:19:30.000Z</time>
      </trkpt>
      <trkpt lat="45.66147" lon="4.72854">
        <ele>298.2</ele>
        <time>1970-01-01T00:19:31.000Z</time>
      </trkpt>
      <trkpt lat="45.6614" lon="4.7284">
        <ele>298.2</ele>
        <time>1970-01-01T00:19:34.000Z</time>
      </trkpt>
      <trkpt lat="45.66136" lon="4.72831">
        <ele>298.2</ele>
        <time>1970-01-01T00:19:36.000Z</time>
      </trkpt>
      <trkpt lat="45.66132" lon="4.7282">
        <ele>299</ele>
        <time>1970-01-01T00:19:39.000Z</time>
      </trkpt>
      <trkpt lat="45.66131" lon="4.72817">
        <ele>299.4</ele>
        <time>1970-01-01T00:19:40.000Z</time>
      </trkpt>
      <trkpt lat="45.66128" lon="4.72808">
        <ele>300.4</ele>
        <time>1970-01-01T00:19:43.000Z</time>
      </trkpt>
      <trkpt lat="45.66125" lon="4.72799">
        <ele>301.4</ele>
        <time>1970-01-01T00:19:46.000Z</time>
      </trkpt>
      <trkpt lat="45.66122" lon="4.7279">
        <ele>302.6</ele>
        <time>1970-01-01T00:19:49.000Z</time>
      </trkpt>
      <trkpt lat="45.66119" lon="4.72782">
        <ele>304</ele>
        <time>1970-01-01T00:19:52.000Z</time>
      </trkpt>
      <trkpt lat="45.66119" lon="4.7278">
        <ele>304.2</ele>
        <time>1970-01-01T00:19:53.000Z</time>
      </trkpt>
      <trkpt lat="45.66117" lon="4.72771">
        <ele>305.2</ele>
        <time>1970-01-01T00:19:56.000Z</time>
      </trkpt>
      <trkpt lat="45.66116" lon="4.72762">
        <ele>305.8</ele>
        <time>1970-01-01T00:20:00.000Z</time>
      </trkpt>
      <trkpt lat="45.66116" lon="4.72751">
        <ele>306.2</ele>
        <time>1970-01-01T00:20:05.000Z</time>
      </trkpt>
      <trkpt lat="45.66117" lon="4.72749">
        <ele>306.8</ele>
        <time>1970-01-01T00:20:06.000Z</time>
      </trkpt>
      <trkpt lat="45.6612" lon="4.72744">
        <ele>307.4</ele>
        <time>1970-01-01T00:20:10.000Z</time>
      </trkpt>
      <trkpt lat="45.66122" lon="4.72741">
        <ele>307.8</ele>
        <time>1970-01-01T00:20:12.000Z</time>
      </trkpt>
      <trkpt lat="45.66125" lon="4.72737">
        <ele>308.4</ele>
        <time>1970-01-01T00:20:16.000Z</time>
      </trkpt>
      <trkpt lat="45.66126" lon="4.72736">
        <ele>308.6</ele>
        <time>1970-01-01T00:20:17.000Z</time>
      </trkpt>
      <trkpt lat="45.66125" lon="4.72735">
        <ele>309.6</ele>
        <time>1970-01-01T00:20:21.000Z</time>
      </trkpt>
      <trkpt lat="45.66126" lon="4.72735">
        <ele>310</ele>
        <time>1970-01-01T00:20:30.000Z</time>
      </trkpt>
      <trkpt lat="45.66124" lon="4.72733">
        <ele>310</ele>
        <time>1970-01-01T00:20:39.000Z</time>
      </trkpt>
      <trkpt lat="45.66121" lon="4.7273">
        <ele>310</ele>
        <time>1970-01-01T00:20:41.000Z</time>
      </trkpt>
      <trkpt lat="45.66119" lon="4.72726">
        <ele>310</ele>
        <time>1970-01-01T00:20:42.000Z</time>
      </trkpt>
      <trkpt lat="45.66116" lon="4.72704">
        <ele>310.2</ele>
        <time>1970-01-01T00:20:46.000Z</time>
      </trkpt>
      <trkpt lat="45.66115" lon="4.72698">
        <ele>310.2</ele>
        <time>1970-01-01T00:20:47.000Z</time>
      </trkpt>
      <trkpt lat="45.66114" lon="4.72691">
        <ele>310.2</ele>
        <time>1970-01-01T00:20:48.000Z</time>
      </trkpt>
      <trkpt lat="45.66116" lon="4.7267">
        <ele>309.2</ele>
        <time>1970-01-01T00:20:51.000Z</time>
      </trkpt>
      <trkpt lat="45.6612" lon="4.72654">
        <ele>308.8</ele>
        <time>1970-01-01T00:20:53.000Z</time>
      </trkpt>
      <trkpt lat="45.66127" lon="4.7263">
        <ele>307.2</ele>
        <time>1970-01-01T00:20:56.000Z</time>
      </trkpt>
      <trkpt lat="45.66134" lon="4.72615">
        <ele>305.8</ele>
        <time>1970-01-01T00:20:58.000Z</time>
      </trkpt>
      <trkpt lat="45.66148" lon="4.72595">
        <ele>304.8</ele>
        <time>1970-01-01T00:21:01.000Z</time>
      </trkpt>
      <trkpt lat="45.66152" lon="4.72589">
        <ele>303.4</ele>
        <time>1970-01-01T00:21:02.000Z</time>
      </trkpt>
      <trkpt lat="45.66155" lon="4.72582">
        <ele>302.6</ele>
        <time>1970-01-01T00:21:03.000Z</time>
      </trkpt>
      <trkpt lat="45.66158" lon="4.72576">
        <ele>302</ele>
        <time>1970-01-01T00:21:04.000Z</time>
      </trkpt>
      <trkpt lat="45.66159" lon="4.72569">
        <ele>301</ele>
        <time>1970-01-01T00:21:05.000Z</time>
      </trkpt>
      <trkpt lat="45.66158" lon="4.72559">
        <ele>299</ele>
        <time>1970-01-01T00:21:07.000Z</time>
      </trkpt>
      <trkpt lat="45.66153" lon="4.72551">
        <ele>297.6</ele>
        <time>1970-01-01T00:21:09.000Z</time>
      </trkpt>
      <trkpt lat="45.66147" lon="4.72544">
        <ele>297.2</ele>
        <time>1970-01-01T00:21:11.000Z</time>
      </trkpt>
      <trkpt lat="45.66142" lon="4.7254">
        <ele>297</ele>
        <time>1970-01-01T00:21:12.000Z</time>
      </trkpt>
      <trkpt lat="45.66136" lon="4.72531">
        <ele>296.6</ele>
        <time>1970-01-01T00:21:14.000Z</time>
      </trkpt>
      <trkpt lat="45.66133" lon="4.72525">
        <ele>296.6</ele>
        <time>1970-01-01T00:21:15.000Z</time>
      </trkpt>
      <trkpt lat="45.6613" lon="4.7252">
        <ele>296.2</ele>
        <time>1970-01-01T00:21:16.000Z</time>
      </trkpt>
      <trkpt lat="45.66129" lon="4.72507">
        <ele>295.4</ele>
        <time>1970-01-01T00:21:18.000Z</time>
      </trkpt>
      <trkpt lat="45.6613" lon="4.72494">
        <ele>294.8</ele>
        <time>1970-01-01T00:21:20.000Z</time>
      </trkpt>
      <trkpt lat="45.6613" lon="4.72487">
        <ele>294.4</ele>
        <time>1970-01-01T00:21:21.000Z</time>
      </trkpt>
      <trkpt lat="45.66131" lon="4.72481">
        <ele>293.8</ele>
        <time>1970-01-01T00:21:22.000Z</time>
      </trkpt>
      <trkpt lat="45.66132" lon="4.72476">
        <ele>292.8</ele>
        <time>1970-01-01T00:21:23.000Z</time>
      </trkpt>
      <trkpt lat="45.66133" lon="4.7247">
        <ele>292.2</ele>
        <time>1970-01-01T00:21:24.000Z</time>
      </trkpt>
      <trkpt lat="45.66136" lon="4.7246">
        <ele>290.8</ele>
        <time>1970-01-01T00:21:26.000Z</time>
      </trkpt>
      <trkpt lat="45.66138" lon="4.7245">
        <ele>289.4</ele>
        <time>1970-01-01T00:21:28.000Z</time>
      </trkpt>
      <trkpt lat="45.66139" lon="4.72439">
        <ele>286.8</ele>
        <time>1970-01-01T00:21:30.000Z</time>
      </trkpt>
      <trkpt lat="45.66132" lon="4.7242">
        <ele>285</ele>
        <time>1970-01-01T00:21:33.000Z</time>
      </trkpt>
      <trkpt lat="45.66129" lon="4.72414">
        <ele>284.6</ele>
        <time>1970-01-01T00:21:34.000Z</time>
      </trkpt>
      <trkpt lat="45.66127" lon="4.72409">
        <ele>283.8</ele>
        <time>1970-01-01T00:21:35.000Z</time>
      </trkpt>
      <trkpt lat="45.66126" lon="4.72389">
        <ele>282.4</ele>
        <time>1970-01-01T00:21:38.000Z</time>
      </trkpt>
      <trkpt lat="45.66129" lon="4.72375">
        <ele>281.2</ele>
        <time>1970-01-01T00:21:40.000Z</time>
      </trkpt>
      <trkpt lat="45.66133" lon="4.7236">
        <ele>280.2</ele>
        <time>1970-01-01T00:21:42.000Z</time>
      </trkpt>
      <trkpt lat="45.66136" lon="4.72345">
        <ele>278.8</ele>
        <time>1970-01-01T00:21:44.000Z</time>
      </trkpt>
      <trkpt lat="45.66139" lon="4.7233">
        <ele>277.4</ele>
        <time>1970-01-01T00:21:46.000Z</time>
      </trkpt>
      <trkpt lat="45.66142" lon="4.72315">
        <ele>276</ele>
        <time>1970-01-01T00:21:48.000Z</time>
      </trkpt>
      <trkpt lat="45.66143" lon="4.72307">
        <ele>275.6</ele>
        <time>1970-01-01T00:21:49.000Z</time>
      </trkpt>
      <trkpt lat="45.66144" lon="4.723">
        <ele>274.8</ele>
        <time>1970-01-01T00:21:50.000Z</time>
      </trkpt>
      <trkpt lat="45.66143" lon="4.72292">
        <ele>273.8</ele>
        <time>1970-01-01T00:21:51.000Z</time>
      </trkpt>
      <trkpt lat="45.66141" lon="4.72277">
        <ele>272.6</ele>
        <time>1970-01-01T00:21:53.000Z</time>
      </trkpt>
      <trkpt lat="45.66139" lon="4.7227">
        <ele>271.6</ele>
        <time>1970-01-01T00:21:54.000Z</time>
      </trkpt>
      <trkpt lat="45.66138" lon="4.72262">
        <ele>270.6</ele>
        <time>1970-01-01T00:21:55.000Z</time>
      </trkpt>
      <trkpt lat="45.66137" lon="4.72255">
        <ele>269.6</ele>
        <time>1970-01-01T00:21:56.000Z</time>
      </trkpt>
      <trkpt lat="45.66136" lon="4.72247">
        <ele>269.2</ele>
        <time>1970-01-01T00:21:57.000Z</time>
      </trkpt>
      <trkpt lat="45.66137" lon="4.7224">
        <ele>267.8</ele>
        <time>1970-01-01T00:21:58.000Z</time>
      </trkpt>
      <trkpt lat="45.66137" lon="4.72233">
        <ele>267.4</ele>
        <time>1970-01-01T00:21:59.000Z</time>
      </trkpt>
      <trkpt lat="45.66135" lon="4.7222">
        <ele>266.6</ele>
        <time>1970-01-01T00:22:01.000Z</time>
      </trkpt>
      <trkpt lat="45.66129" lon="4.72201">
        <ele>265.4</ele>
        <time>1970-01-01T00:22:04.000Z</time>
      </trkpt>
      <trkpt lat="45.66122" lon="4.72178">
        <ele>264.2</ele>
        <time>1970-01-01T00:22:09.000Z</time>
      </trkpt>
      <trkpt lat="45.66121" lon="4.72163">
        <ele>262.8</ele>
        <time>1970-01-01T00:22:14.000Z</time>
      </trkpt>
      <trkpt lat="45.6612" lon="4.72161">
        <ele>262.4</ele>
        <time>1970-01-01T00:22:15.000Z</time>
      </trkpt>
      <trkpt lat="45.66114" lon="4.72149">
        <ele>262</ele>
        <time>1970-01-01T00:22:21.000Z</time>
      </trkpt>
      <trkpt lat="45.66104" lon="4.7214">
        <ele>262</ele>
        <time>1970-01-01T00:22:28.000Z</time>
      </trkpt>
      <trkpt lat="45.66101" lon="4.72138">
        <ele>262.2</ele>
        <time>1970-01-01T00:22:31.000Z</time>
      </trkpt>
      <trkpt lat="45.66093" lon="4.72135">
        <ele>263.4</ele>
        <time>1970-01-01T00:22:37.000Z</time>
      </trkpt>
      <trkpt lat="45.66091" lon="4.72135">
        <ele>263.6</ele>
        <time>1970-01-01T00:22:38.000Z</time>
      </trkpt>
      <trkpt lat="45.66087" lon="4.72133">
        <ele>264.2</ele>
        <time>1970-01-01T00:22:41.000Z</time>
      </trkpt>
      <trkpt lat="45.66084" lon="4.72134">
        <ele>264.6</ele>
        <time>1970-01-01T00:22:42.000Z</time>
      </trkpt>
      <trkpt lat="45.66077" lon="4.72133">
        <ele>265.6</ele>
        <time>1970-01-01T00:22:46.000Z</time>
      </trkpt>
      <trkpt lat="45.66076" lon="4.72133">
        <ele>265.8</ele>
        <time>1970-01-01T00:22:47.000Z</time>
      </trkpt>
      <trkpt lat="45.66071" lon="4.72131">
        <ele>266.8</ele>
        <time>1970-01-01T00:22:50.000Z</time>
      </trkpt>
      <trkpt lat="45.66066" lon="4.7213">
        <ele>268</ele>
        <time>1970-01-01T00:22:54.000Z</time>
      </trkpt>
      <trkpt lat="45.66065" lon="4.7213">
        <ele>268.2</ele>
        <time>1970-01-01T00:22:55.000Z</time>
      </trkpt>
      <trkpt lat="45.66063" lon="4.72129">
        <ele>268.4</ele>
        <time>1970-01-01T00:22:56.000Z</time>
      </trkpt>
      <trkpt lat="45.66059" lon="4.72128">
        <ele>269</ele>
        <time>1970-01-01T00:22:59.000Z</time>
      </trkpt>
      <trkpt lat="45.66057" lon="4.72128">
        <ele>269.2</ele>
        <time>1970-01-01T00:23:00.000Z</time>
      </trkpt>
      <trkpt lat="45.66055" lon="4.72127">
        <ele>269.4</ele>
        <time>1970-01-01T00:23:01.000Z</time>
      </trkpt>
      <trkpt lat="45.66048" lon="4.72126">
        <ele>270.2</ele>
        <time>1970-01-01T00:23:06.000Z</time>
      </trkpt>
      <trkpt lat="45.66047" lon="4.72126">
        <ele>270.4</ele>
        <time>1970-01-01T00:23:07.000Z</time>
      </trkpt>
      <trkpt lat="45.66044" lon="4.72126">
        <ele>270.6</ele>
        <time>1970-01-01T00:23:09.000Z</time>
      </trkpt>
      <trkpt lat="45.6604" lon="4.72125">
        <ele>271.4</ele>
        <time>1970-01-01T00:23:12.000Z</time>
      </trkpt>
      <trkpt lat="45.66032" lon="4.72123">
        <ele>272.6</ele>
        <time>1970-01-01T00:23:18.000Z</time>
      </trkpt>
      <trkpt lat="45.6603" lon="4.72124">
        <ele>273.2</ele>
        <time>1970-01-01T00:23:20.000Z</time>
      </trkpt>
      <trkpt lat="45.66027" lon="4.72124">
        <ele>273.6</ele>
        <time>1970-01-01T00:23:22.000Z</time>
      </trkpt>
      <trkpt lat="45.66019" lon="4.72124">
        <ele>274.8</ele>
        <time>1970-01-01T00:23:29.000Z</time>
      </trkpt>
      <trkpt lat="45.66017" lon="4.72124">
        <ele>275</ele>
        <time>1970-01-01T00:23:30.000Z</time>
      </trkpt>
      <trkpt lat="45.66012" lon="4.72124">
        <ele>275.4</ele>
        <time>1970-01-01T00:23:35.000Z</time>
      </trkpt>
      <trkpt lat="45.66011" lon="4.72123">
        <ele>275.6</ele>
        <time>1970-01-01T00:23:36.000Z</time>
      </trkpt>
      <trkpt lat="45.66008" lon="4.72123">
        <ele>275.8</ele>
        <time>1970-01-01T00:23:38.000Z</time>
      </trkpt>
      <trkpt lat="45.66004" lon="4.72123">
        <ele>276.4</ele>
        <time>1970-01-01T00:23:41.000Z</time>
      </trkpt>
      <trkpt lat="45.66002" lon="4.72122">
        <ele>276.8</ele>
        <time>1970-01-01T00:23:43.000Z</time>
      </trkpt>
      <trkpt lat="45.66" lon="4.72122">
        <ele>277</ele>
        <time>1970-01-01T00:23:45.000Z</time>
      </trkpt>
      <trkpt lat="45.65997" lon="4.72122">
        <ele>277.4</ele>
        <time>1970-01-01T00:23:48.000Z</time>
      </trkpt>
      <trkpt lat="45.65995" lon="4.72121">
        <ele>277.8</ele>
        <time>1970-01-01T00:23:50.000Z</time>
      </trkpt>
      <trkpt lat="45.65993" lon="4.72121">
        <ele>278</ele>
        <time>1970-01-01T00:23:51.000Z</time>
      </trkpt>
      <trkpt lat="45.65989" lon="4.7212">
        <ele>278.8</ele>
        <time>1970-01-01T00:23:54.000Z</time>
      </trkpt>
      <trkpt lat="45.65987" lon="4.72119">
        <ele>279</ele>
        <time>1970-01-01T00:23:55.000Z</time>
      </trkpt>
      <trkpt lat="45.65986" lon="4.72119">
        <ele>279.2</ele>
        <time>1970-01-01T00:23:56.000Z</time>
      </trkpt>
      <trkpt lat="45.65984" lon="4.72119">
        <ele>279.4</ele>
        <time>1970-01-01T00:23:57.000Z</time>
      </trkpt>
      <trkpt lat="45.65977" lon="4.72117">
        <ele>280.2</ele>
        <time>1970-01-01T00:24:03.000Z</time>
      </trkpt>
      <trkpt lat="45.65976" lon="4.72117">
        <ele>280.4</ele>
        <time>1970-01-01T00:24:04.000Z</time>
      </trkpt>
      <trkpt lat="45.65969" lon="4.72115">
        <ele>281.2</ele>
        <time>1970-01-01T00:24:09.000Z</time>
      </trkpt>
      <trkpt lat="45.65964" lon="4.72115">
        <ele>281.4</ele>
        <time>1970-01-01T00:24:12.000Z</time>
      </trkpt>
      <trkpt lat="45.65963" lon="4.72114">
        <ele>281.6</ele>
        <time>1970-01-01T00:24:13.000Z</time>
      </trkpt>
      <trkpt lat="45.65961" lon="4.72114">
        <ele>281.8</ele>
        <time>1970-01-01T00:24:14.000Z</time>
      </trkpt>
      <trkpt lat="45.6596" lon="4.72114">
        <ele>281.8</ele>
        <time>1970-01-01T00:24:15.000Z</time>
      </trkpt>
      <trkpt lat="45.65959" lon="4.72114">
        <ele>282</ele>
        <time>1970-01-01T00:24:16.000Z</time>
      </trkpt>
      <trkpt lat="45.65958" lon="4.72114">
        <ele>282.2</ele>
        <time>1970-01-01T00:24:17.000Z</time>
      </trkpt>
      <trkpt lat="45.65957" lon="4.72114">
        <ele>282.2</ele>
        <time>1970-01-01T00:24:18.000Z</time>
      </trkpt>
      <trkpt lat="45.65953" lon="4.72114">
        <ele>282.6</ele>
        <time>1970-01-01T00:24:21.000Z</time>
      </trkpt>
      <trkpt lat="45.65943" lon="4.72112">
        <ele>283.2</ele>
        <time>1970-01-01T00:24:28.000Z</time>
      </trkpt>
      <trkpt lat="45.6594" lon="4.72112">
        <ele>283.4</ele>
        <time>1970-01-01T00:24:30.000Z</time>
      </trkpt>
      <trkpt lat="45.65932" lon="4.7211">
        <ele>284.2</ele>
        <time>1970-01-01T00:24:35.000Z</time>
      </trkpt>
      <trkpt lat="45.65931" lon="4.7211">
        <ele>284.2</ele>
        <time>1970-01-01T00:24:36.000Z</time>
      </trkpt>
      <trkpt lat="45.65924" lon="4.72108">
        <ele>285</ele>
        <time>1970-01-01T00:24:40.000Z</time>
      </trkpt>
      <trkpt lat="45.65923" lon="4.72107">
        <ele>285.4</ele>
        <time>1970-01-01T00:24:41.000Z</time>
      </trkpt>
      <trkpt lat="45.6592" lon="4.72106">
        <ele>285.8</ele>
        <time>1970-01-01T00:24:43.000Z</time>
      </trkpt>
      <trkpt lat="45.65914" lon="4.72102">
        <ele>286.6</ele>
        <time>1970-01-01T00:24:47.000Z</time>
      </trkpt>
      <trkpt lat="45.65909" lon="4.72098">
        <ele>287.2</ele>
        <time>1970-01-01T00:24:51.000Z</time>
      </trkpt>
      <trkpt lat="45.65905" lon="4.72096">
        <ele>287.6</ele>
        <time>1970-01-01T00:24:54.000Z</time>
      </trkpt>
      <trkpt lat="45.65899" lon="4.72093">
        <ele>288.4</ele>
        <time>1970-01-01T00:24:59.000Z</time>
      </trkpt>
      <trkpt lat="45.65897" lon="4.72092">
        <ele>288.6</ele>
        <time>1970-01-01T00:25:01.000Z</time>
      </trkpt>
      <trkpt lat="45.6589" lon="4.72087">
        <ele>289.6</ele>
        <time>1970-01-01T00:25:06.000Z</time>
      </trkpt>
      <trkpt lat="45.65889" lon="4.72086">
        <ele>289.6</ele>
        <time>1970-01-01T00:25:07.000Z</time>
      </trkpt>
      <trkpt lat="45.65883" lon="4.7208">
        <ele>290.6</ele>
        <time>1970-01-01T00:25:12.000Z</time>
      </trkpt>
      <trkpt lat="45.65882" lon="4.7208">
        <ele>290.8</ele>
        <time>1970-01-01T00:25:13.000Z</time>
      </trkpt>
      <trkpt lat="45.65876" lon="4.72078">
        <ele>292.2</ele>
        <time>1970-01-01T00:25:16.000Z</time>
      </trkpt>
      <trkpt lat="45.65871" lon="4.72075">
        <ele>292.8</ele>
        <time>1970-01-01T00:25:19.000Z</time>
      </trkpt>
      <trkpt lat="45.65864" lon="4.72072">
        <ele>293.2</ele>
        <time>1970-01-01T00:25:22.000Z</time>
      </trkpt>
      <trkpt lat="45.65857" lon="4.72069">
        <ele>293.4</ele>
        <time>1970-01-01T00:25:26.000Z</time>
      </trkpt>
      <trkpt lat="45.65853" lon="4.72069">
        <ele>294.2</ele>
        <time>1970-01-01T00:25:32.000Z</time>
      </trkpt>
      <trkpt lat="45.65853" lon="4.72069">
        <ele>295.4</ele>
        <time>1970-01-01T00:25:46.000Z</time>
      </trkpt>
      <trkpt lat="45.65853" lon="4.72069">
        <ele>295.4</ele>
        <time>1970-01-01T00:25:50.000Z</time>
      </trkpt>
      <trkpt lat="45.65853" lon="4.72069">
        <ele>295.4</ele>
        <time>1970-01-01T00:25:54.000Z</time>
      </trkpt>
      <trkpt lat="45.65853" lon="4.72069">
        <ele>295.4</ele>
        <time>1970-01-01T00:26:08.000Z</time>
      </trkpt>
      <trkpt lat="45.65853" lon="4.72069">
        <ele>295.4</ele>
        <time>1970-01-01T00:26:15.000Z</time>
      </trkpt>
      <trkpt lat="45.65853" lon="4.72069">
        <ele>295.4</ele>
        <time>1970-01-01T00:26:17.000Z</time>
      </trkpt>
      <trkpt lat="45.65851" lon="4.72068">
        <ele>295.4</ele>
        <time>1970-01-01T00:26:20.000Z</time>
      </trkpt>
      <trkpt lat="45.6585" lon="4.72064">
        <ele>295.4</ele>
        <time>1970-01-01T00:26:23.000Z</time>
      </trkpt>
      <trkpt lat="45.65851" lon="4.72057">
        <ele>295.6</ele>
        <time>1970-01-01T00:26:26.000Z</time>
      </trkpt>
      <trkpt lat="45.65855" lon="4.72044">
        <ele>296</ele>
        <time>1970-01-01T00:26:33.000Z</time>
      </trkpt>
      <trkpt lat="45.65856" lon="4.72042">
        <ele>296.4</ele>
        <time>1970-01-01T00:26:34.000Z</time>
      </trkpt>
      <trkpt lat="45.65857" lon="4.7204">
        <ele>296.6</ele>
        <time>1970-01-01T00:26:35.000Z</time>
      </trkpt>
      <trkpt lat="45.65858" lon="4.72036">
        <ele>296.6</ele>
        <time>1970-01-01T00:26:37.000Z</time>
      </trkpt>
      <trkpt lat="45.6586" lon="4.72026">
        <ele>297.4</ele>
        <time>1970-01-01T00:26:41.000Z</time>
      </trkpt>
      <trkpt lat="45.65861" lon="4.72024">
        <ele>297.6</ele>
        <time>1970-01-01T00:26:42.000Z</time>
      </trkpt>
      <trkpt lat="45.65863" lon="4.72007">
        <ele>298.4</ele>
        <time>1970-01-01T00:26:49.000Z</time>
      </trkpt>
      <trkpt lat="45.65864" lon="4.72004">
        <ele>298.6</ele>
        <time>1970-01-01T00:26:50.000Z</time>
      </trkpt>
      <trkpt lat="45.65865" lon="4.71989">
        <ele>299.4</ele>
        <time>1970-01-01T00:26:56.000Z</time>
      </trkpt>
      <trkpt lat="45.65866" lon="4.71984">
        <ele>299.6</ele>
        <time>1970-01-01T00:26:58.000Z</time>
      </trkpt>
      <trkpt lat="45.65867" lon="4.71975">
        <ele>300</ele>
        <time>1970-01-01T00:27:01.000Z</time>
      </trkpt>
      <trkpt lat="45.65867" lon="4.71969">
        <ele>300.2</ele>
        <time>1970-01-01T00:27:03.000Z</time>
      </trkpt>
      <trkpt lat="45.65865" lon="4.71953">
        <ele>300.8</ele>
        <time>1970-01-01T00:27:09.000Z</time>
      </trkpt>
      <trkpt lat="45.65866" lon="4.71945">
        <ele>301.6</ele>
        <time>1970-01-01T00:27:12.000Z</time>
      </trkpt>
      <trkpt lat="45.65866" lon="4.71942">
        <ele>302</ele>
        <time>1970-01-01T00:27:13.000Z</time>
      </trkpt>
      <trkpt lat="45.65867" lon="4.71927">
        <ele>303</ele>
        <time>1970-01-01T00:27:19.000Z</time>
      </trkpt>
      <trkpt lat="45.65867" lon="4.71924">
        <ele>303</ele>
        <time>1970-01-01T00:27:20.000Z</time>
      </trkpt>
      <trkpt lat="45.65868" lon="4.7191">
        <ele>303.8</ele>
        <time>1970-01-01T00:27:25.000Z</time>
      </trkpt>
      <trkpt lat="45.65869" lon="4.71901">
        <ele>304.2</ele>
        <time>1970-01-01T00:27:28.000Z</time>
      </trkpt>
      <trkpt lat="45.6587" lon="4.7189">
        <ele>304.6</ele>
        <time>1970-01-01T00:27:32.000Z</time>
      </trkpt>
      <trkpt lat="45.6587" lon="4.71885">
        <ele>305</ele>
        <time>1970-01-01T00:27:35.000Z</time>
      </trkpt>
      <trkpt lat="45.65869" lon="4.71879">
        <ele>305.4</ele>
        <time>1970-01-01T00:27:37.000Z</time>
      </trkpt>
      <trkpt lat="45.65869" lon="4.71876">
        <ele>305.4</ele>
        <time>1970-01-01T00:27:38.000Z</time>
      </trkpt>
      <trkpt lat="45.65868" lon="4.71874">
        <ele>305.6</ele>
        <time>1970-01-01T00:27:39.000Z</time>
      </trkpt>
      <trkpt lat="45.65862" lon="4.71873">
        <ele>306</ele>
        <time>1970-01-01T00:27:42.000Z</time>
      </trkpt>
      <trkpt lat="45.65859" lon="4.71873">
        <ele>306.4</ele>
        <time>1970-01-01T00:27:44.000Z</time>
      </trkpt>
      <trkpt lat="45.65849" lon="4.7187">
        <ele>306.8</ele>
        <time>1970-01-01T00:27:48.000Z</time>
      </trkpt>
      <trkpt lat="45.65842" lon="4.71867">
        <ele>307.2</ele>
        <time>1970-01-01T00:27:51.000Z</time>
      </trkpt>
      <trkpt lat="45.65832" lon="4.71863">
        <ele>307.4</ele>
        <time>1970-01-01T00:27:54.000Z</time>
      </trkpt>
      <trkpt lat="45.65819" lon="4.71859">
        <ele>307.4</ele>
        <time>1970-01-01T00:27:58.000Z</time>
      </trkpt>
      <trkpt lat="45.65811" lon="4.71858">
        <ele>307.6</ele>
        <time>1970-01-01T00:28:00.000Z</time>
      </trkpt>
      <trkpt lat="45.65806" lon="4.71858">
        <ele>307.6</ele>
        <time>1970-01-01T00:28:01.000Z</time>
      </trkpt>
      <trkpt lat="45.65789" lon="4.71849">
        <ele>307.6</ele>
        <time>1970-01-01T00:28:06.000Z</time>
      </trkpt>
      <trkpt lat="45.65758" lon="4.71839">
        <ele>308.6</ele>
        <time>1970-01-01T00:28:15.000Z</time>
      </trkpt>
      <trkpt lat="45.65755" lon="4.71838">
        <ele>309</ele>
        <time>1970-01-01T00:28:16.000Z</time>
      </trkpt>
      <trkpt lat="45.6574" lon="4.71833">
        <ele>309.8</ele>
        <time>1970-01-01T00:28:21.000Z</time>
      </trkpt>
      <trkpt lat="45.65732" lon="4.71829">
        <ele>310.2</ele>
        <time>1970-01-01T00:28:24.000Z</time>
      </trkpt>
      <trkpt lat="45.65717" lon="4.71823">
        <ele>310.8</ele>
        <time>1970-01-01T00:28:29.000Z</time>
      </trkpt>
      <trkpt lat="45.65712" lon="4.71821">
        <ele>311.2</ele>
        <time>1970-01-01T00:28:31.000Z</time>
      </trkpt>
      <trkpt lat="45.65698" lon="4.71817">
        <ele>311.8</ele>
        <time>1970-01-01T00:28:36.000Z</time>
      </trkpt>
      <trkpt lat="45.65693" lon="4.71816">
        <ele>312.2</ele>
        <time>1970-01-01T00:28:38.000Z</time>
      </trkpt>
      <trkpt lat="45.65679" lon="4.71811">
        <ele>312.8</ele>
        <time>1970-01-01T00:28:43.000Z</time>
      </trkpt>
      <trkpt lat="45.65677" lon="4.7181">
        <ele>313</ele>
        <time>1970-01-01T00:28:44.000Z</time>
      </trkpt>
      <trkpt lat="45.65672" lon="4.71809">
        <ele>313.4</ele>
        <time>1970-01-01T00:28:46.000Z</time>
      </trkpt>
      <trkpt lat="45.6566" lon="4.71808">
        <ele>314</ele>
        <time>1970-01-01T00:28:51.000Z</time>
      </trkpt>
      <trkpt lat="45.65658" lon="4.71807">
        <ele>314.2</ele>
        <time>1970-01-01T00:28:52.000Z</time>
      </trkpt>
      <trkpt lat="45.65653" lon="4.71805">
        <ele>315</ele>
        <time>1970-01-01T00:28:54.000Z</time>
      </trkpt>
      <trkpt lat="45.65648" lon="4.71802">
        <ele>315.4</ele>
        <time>1970-01-01T00:28:56.000Z</time>
      </trkpt>
      <trkpt lat="45.65645" lon="4.71801">
        <ele>315.4</ele>
        <time>1970-01-01T00:28:57.000Z</time>
      </trkpt>
      <trkpt lat="45.65638" lon="4.71797">
        <ele>315.8</ele>
        <time>1970-01-01T00:28:59.000Z</time>
      </trkpt>
      <trkpt lat="45.6563" lon="4.71789">
        <ele>316.4</ele>
        <time>1970-01-01T00:29:03.000Z</time>
      </trkpt>
      <trkpt lat="45.65628" lon="4.71786">
        <ele>316.4</ele>
        <time>1970-01-01T00:29:04.000Z</time>
      </trkpt>
      <trkpt lat="45.6562" lon="4.71778">
        <ele>316.6</ele>
        <time>1970-01-01T00:29:07.000Z</time>
      </trkpt>
      <trkpt lat="45.65616" lon="4.71775">
        <ele>316.8</ele>
        <time>1970-01-01T00:29:08.000Z</time>
      </trkpt>
      <trkpt lat="45.65605" lon="4.71767">
        <ele>317</ele>
        <time>1970-01-01T00:29:12.000Z</time>
      </trkpt>
      <trkpt lat="45.65597" lon="4.7176">
        <ele>317.2</ele>
        <time>1970-01-01T00:29:15.000Z</time>
      </trkpt>
      <trkpt lat="45.65594" lon="4.71758">
        <ele>317.2</ele>
        <time>1970-01-01T00:29:16.000Z</time>
      </trkpt>
      <trkpt lat="45.65577" lon="4.71744">
        <ele>317.2</ele>
        <time>1970-01-01T00:29:22.000Z</time>
      </trkpt>
      <trkpt lat="45.65563" lon="4.71732">
        <ele>316.4</ele>
        <time>1970-01-01T00:29:28.000Z</time>
      </trkpt>
      <trkpt lat="45.6556" lon="4.7173">
        <ele>316.2</ele>
        <time>1970-01-01T00:29:29.000Z</time>
      </trkpt>
      <trkpt lat="45.65549" lon="4.71722">
        <ele>316</ele>
        <time>1970-01-01T00:29:32.000Z</time>
      </trkpt>
      <trkpt lat="45.65544" lon="4.7172">
        <ele>315.8</ele>
        <time>1970-01-01T00:29:33.000Z</time>
      </trkpt>
      <trkpt lat="45.65539" lon="4.71717">
        <ele>315.8</ele>
        <time>1970-01-01T00:29:34.000Z</time>
      </trkpt>
      <trkpt lat="45.65528" lon="4.71714">
        <ele>315.4</ele>
        <time>1970-01-01T00:29:36.000Z</time>
      </trkpt>
      <trkpt lat="45.65517" lon="4.71713">
        <ele>314.8</ele>
        <time>1970-01-01T00:29:38.000Z</time>
      </trkpt>
      <trkpt lat="45.6551" lon="4.71712">
        <ele>314.2</ele>
        <time>1970-01-01T00:29:39.000Z</time>
      </trkpt>
      <trkpt lat="45.65503" lon="4.7171">
        <ele>313.8</ele>
        <time>1970-01-01T00:29:40.000Z</time>
      </trkpt>
      <trkpt lat="45.6549" lon="4.71702">
        <ele>312.8</ele>
        <time>1970-01-01T00:29:42.000Z</time>
      </trkpt>
      <trkpt lat="45.65477" lon="4.71693">
        <ele>311.8</ele>
        <time>1970-01-01T00:29:44.000Z</time>
      </trkpt>
      <trkpt lat="45.65467" lon="4.71687">
        <ele>311</ele>
        <time>1970-01-01T00:29:46.000Z</time>
      </trkpt>
      <trkpt lat="45.65461" lon="4.71686">
        <ele>310.4</ele>
        <time>1970-01-01T00:29:47.000Z</time>
      </trkpt>
      <trkpt lat="45.6545" lon="4.71691">
        <ele>309.4</ele>
        <time>1970-01-01T00:29:49.000Z</time>
      </trkpt>
      <trkpt lat="45.65445" lon="4.71694">
        <ele>308.6</ele>
        <time>1970-01-01T00:29:50.000Z</time>
      </trkpt>
      <trkpt lat="45.6544" lon="4.71697">
        <ele>307.8</ele>
        <time>1970-01-01T00:29:51.000Z</time>
      </trkpt>
      <trkpt lat="45.65435" lon="4.717">
        <ele>307.2</ele>
        <time>1970-01-01T00:29:52.000Z</time>
      </trkpt>
      <trkpt lat="45.6542" lon="4.7171">
        <ele>306.6</ele>
        <time>1970-01-01T00:29:55.000Z</time>
      </trkpt>
      <trkpt lat="45.65394" lon="4.71723">
        <ele>306.2</ele>
        <time>1970-01-01T00:30:00.000Z</time>
      </trkpt>
      <trkpt lat="45.65349" lon="4.71747">
        <ele>305.6</ele>
        <time>1970-01-01T00:30:09.000Z</time>
      </trkpt>
      <trkpt lat="45.65334" lon="4.71756">
        <ele>305.6</ele>
        <time>1970-01-01T00:30:12.000Z</time>
      </trkpt>
      <trkpt lat="45.65304" lon="4.71775">
        <ele>305.2</ele>
        <time>1970-01-01T00:30:18.000Z</time>
      </trkpt>
      <trkpt lat="45.65266" lon="4.71799">
        <ele>305.8</ele>
        <time>1970-01-01T00:30:26.000Z</time>
      </trkpt>
      <trkpt lat="45.65238" lon="4.71817">
        <ele>306.6</ele>
        <time>1970-01-01T00:30:33.000Z</time>
      </trkpt>
      <trkpt lat="45.65234" lon="4.7182">
        <ele>306.6</ele>
        <time>1970-01-01T00:30:34.000Z</time>
      </trkpt>
      <trkpt lat="45.65219" lon="4.7183">
        <ele>307.6</ele>
        <time>1970-01-01T00:30:39.000Z</time>
      </trkpt>
      <trkpt lat="45.65213" lon="4.71835">
        <ele>307.8</ele>
        <time>1970-01-01T00:30:41.000Z</time>
      </trkpt>
      <trkpt lat="45.6521" lon="4.71838">
        <ele>307.8</ele>
        <time>1970-01-01T00:30:42.000Z</time>
      </trkpt>
      <trkpt lat="45.65203" lon="4.71842">
        <ele>308.2</ele>
        <time>1970-01-01T00:30:44.000Z</time>
      </trkpt>
      <trkpt lat="45.65194" lon="4.71847">
        <ele>308.6</ele>
        <time>1970-01-01T00:30:47.000Z</time>
      </trkpt>
      <trkpt lat="45.65191" lon="4.71849">
        <ele>308.8</ele>
        <time>1970-01-01T00:30:48.000Z</time>
      </trkpt>
      <trkpt lat="45.65178" lon="4.71856">
        <ele>309.4</ele>
        <time>1970-01-01T00:30:52.000Z</time>
      </trkpt>
      <trkpt lat="45.65174" lon="4.71859">
        <ele>309.8</ele>
        <time>1970-01-01T00:30:53.000Z</time>
      </trkpt>
      <trkpt lat="45.65171" lon="4.7186">
        <ele>309.8</ele>
        <time>1970-01-01T00:30:54.000Z</time>
      </trkpt>
      <trkpt lat="45.65168" lon="4.71862">
        <ele>310</ele>
        <time>1970-01-01T00:30:55.000Z</time>
      </trkpt>
      <trkpt lat="45.65148" lon="4.71874">
        <ele>311</ele>
        <time>1970-01-01T00:31:01.000Z</time>
      </trkpt>
      <trkpt lat="45.65141" lon="4.71878">
        <ele>311.2</ele>
        <time>1970-01-01T00:31:03.000Z</time>
      </trkpt>
      <trkpt lat="45.65136" lon="4.71879">
        <ele>311.2</ele>
        <time>1970-01-01T00:31:04.000Z</time>
      </trkpt>
      <trkpt lat="45.6511" lon="4.71889">
        <ele>311.2</ele>
        <time>1970-01-01T00:31:09.000Z</time>
      </trkpt>
      <trkpt lat="45.65074" lon="4.71896">
        <ele>310.6</ele>
        <time>1970-01-01T00:31:15.000Z</time>
      </trkpt>
      <trkpt lat="45.65061" lon="4.71896">
        <ele>309.8</ele>
        <time>1970-01-01T00:31:17.000Z</time>
      </trkpt>
      <trkpt lat="45.65049" lon="4.71896">
        <ele>308.6</ele>
        <time>1970-01-01T00:31:19.000Z</time>
      </trkpt>
      <trkpt lat="45.65043" lon="4.71897">
        <ele>308.2</ele>
        <time>1970-01-01T00:31:20.000Z</time>
      </trkpt>
      <trkpt lat="45.65039" lon="4.71898">
        <ele>307.8</ele>
        <time>1970-01-01T00:31:21.000Z</time>
      </trkpt>
      <trkpt lat="45.65035" lon="4.71898">
        <ele>307.2</ele>
        <time>1970-01-01T00:31:22.000Z</time>
      </trkpt>
      <trkpt lat="45.65028" lon="4.71899">
        <ele>306.4</ele>
        <time>1970-01-01T00:31:24.000Z</time>
      </trkpt>
      <trkpt lat="45.65024" lon="4.719">
        <ele>306</ele>
        <time>1970-01-01T00:31:25.000Z</time>
      </trkpt>
      <trkpt lat="45.65019" lon="4.71901">
        <ele>305.8</ele>
        <time>1970-01-01T00:31:26.000Z</time>
      </trkpt>
      <trkpt lat="45.64999" lon="4.719">
        <ele>305</ele>
        <time>1970-01-01T00:31:30.000Z</time>
      </trkpt>
      <trkpt lat="45.6499" lon="4.71901">
        <ele>304.6</ele>
        <time>1970-01-01T00:31:32.000Z</time>
      </trkpt>
      <trkpt lat="45.64985" lon="4.71901">
        <ele>304.2</ele>
        <time>1970-01-01T00:31:33.000Z</time>
      </trkpt>
      <trkpt lat="45.64982" lon="4.71901">
        <ele>303.6</ele>
        <time>1970-01-01T00:31:34.000Z</time>
      </trkpt>
      <trkpt lat="45.64978" lon="4.71901">
        <ele>303</ele>
        <time>1970-01-01T00:31:35.000Z</time>
      </trkpt>
      <trkpt lat="45.64975" lon="4.71899">
        <ele>302.6</ele>
        <time>1970-01-01T00:31:36.000Z</time>
      </trkpt>
      <trkpt lat="45.64972" lon="4.71896">
        <ele>302.4</ele>
        <time>1970-01-01T00:31:37.000Z</time>
      </trkpt>
      <trkpt lat="45.64969" lon="4.71892">
        <ele>301.2</ele>
        <time>1970-01-01T00:31:38.000Z</time>
      </trkpt>
      <trkpt lat="45.64966" lon="4.71889">
        <ele>300</ele>
        <time>1970-01-01T00:31:39.000Z</time>
      </trkpt>
      <trkpt lat="45.64962" lon="4.71882">
        <ele>298.8</ele>
        <time>1970-01-01T00:31:41.000Z</time>
      </trkpt>
      <trkpt lat="45.64959" lon="4.71875">
        <ele>297.8</ele>
        <time>1970-01-01T00:31:43.000Z</time>
      </trkpt>
      <trkpt lat="45.64957" lon="4.71872">
        <ele>297.4</ele>
        <time>1970-01-01T00:31:44.000Z</time>
      </trkpt>
      <trkpt lat="45.64955" lon="4.71866">
        <ele>295.8</ele>
        <time>1970-01-01T00:31:46.000Z</time>
      </trkpt>
      <trkpt lat="45.64953" lon="4.7186">
        <ele>294.6</ele>
        <time>1970-01-01T00:31:48.000Z</time>
      </trkpt>
      <trkpt lat="45.64952" lon="4.71856">
        <ele>294.2</ele>
        <time>1970-01-01T00:31:49.000Z</time>
      </trkpt>
      <trkpt lat="45.64951" lon="4.71853">
        <ele>293.4</ele>
        <time>1970-01-01T00:31:50.000Z</time>
      </trkpt>
      <trkpt lat="45.64948" lon="4.71845">
        <ele>292.2</ele>
        <time>1970-01-01T00:31:52.000Z</time>
      </trkpt>
      <trkpt lat="45.64947" lon="4.71842">
        <ele>291.8</ele>
        <time>1970-01-01T00:31:53.000Z</time>
      </trkpt>
      <trkpt lat="45.64946" lon="4.71838">
        <ele>291</ele>
        <time>1970-01-01T00:31:54.000Z</time>
      </trkpt>
      <trkpt lat="45.64943" lon="4.71827">
        <ele>289.8</ele>
        <time>1970-01-01T00:31:57.000Z</time>
      </trkpt>
      <trkpt lat="45.64942" lon="4.7182">
        <ele>288.4</ele>
        <time>1970-01-01T00:31:59.000Z</time>
      </trkpt>
      <trkpt lat="45.64944" lon="4.7181">
        <ele>287.6</ele>
        <time>1970-01-01T00:32:01.000Z</time>
      </trkpt>
      <trkpt lat="45.64946" lon="4.71805">
        <ele>287.4</ele>
        <time>1970-01-01T00:32:02.000Z</time>
      </trkpt>
      <trkpt lat="45.64958" lon="4.71789">
        <ele>286.2</ele>
        <time>1970-01-01T00:32:06.000Z</time>
      </trkpt>
      <trkpt lat="45.64965" lon="4.7178">
        <ele>285.6</ele>
        <time>1970-01-01T00:32:08.000Z</time>
      </trkpt>
      <trkpt lat="45.64969" lon="4.71774">
        <ele>285</ele>
        <time>1970-01-01T00:32:09.000Z</time>
      </trkpt>
      <trkpt lat="45.64991" lon="4.71747">
        <ele>284</ele>
        <time>1970-01-01T00:32:14.000Z</time>
      </trkpt>
      <trkpt lat="45.65008" lon="4.71722">
        <ele>282.8</ele>
        <time>1970-01-01T00:32:18.000Z</time>
      </trkpt>
      <trkpt lat="45.65012" lon="4.71716">
        <ele>282.6</ele>
        <time>1970-01-01T00:32:19.000Z</time>
      </trkpt>
      <trkpt lat="45.65031" lon="4.71693">
        <ele>282.6</ele>
        <time>1970-01-01T00:32:24.000Z</time>
      </trkpt>
      <trkpt lat="45.65041" lon="4.7168">
        <ele>282.6</ele>
        <time>1970-01-01T00:32:27.000Z</time>
      </trkpt>
      <trkpt lat="45.65048" lon="4.71672">
        <ele>283</ele>
        <time>1970-01-01T00:32:29.000Z</time>
      </trkpt>
      <trkpt lat="45.65064" lon="4.71664">
        <ele>283</ele>
        <time>1970-01-01T00:32:32.000Z</time>
      </trkpt>
      <trkpt lat="45.6507" lon="4.71662">
        <ele>283</ele>
        <time>1970-01-01T00:32:33.000Z</time>
      </trkpt>
      <trkpt lat="45.65081" lon="4.71655">
        <ele>283</ele>
        <time>1970-01-01T00:32:35.000Z</time>
      </trkpt>
      <trkpt lat="45.65088" lon="4.71647">
        <ele>283</ele>
        <time>1970-01-01T00:32:37.000Z</time>
      </trkpt>
      <trkpt lat="45.65091" lon="4.71641">
        <ele>282.8</ele>
        <time>1970-01-01T00:32:39.000Z</time>
      </trkpt>
      <trkpt lat="45.6509" lon="4.71637">
        <ele>282.6</ele>
        <time>1970-01-01T00:32:41.000Z</time>
      </trkpt>
      <trkpt lat="45.65079" lon="4.71635">
        <ele>282.6</ele>
        <time>1970-01-01T00:32:44.000Z</time>
      </trkpt>
      <trkpt lat="45.65061" lon="4.71641">
        <ele>282.2</ele>
        <time>1970-01-01T00:32:49.000Z</time>
      </trkpt>
      <trkpt lat="45.65043" lon="4.71647">
        <ele>282.2</ele>
        <time>1970-01-01T00:32:53.000Z</time>
      </trkpt>
      <trkpt lat="45.65017" lon="4.71664">
        <ele>281.6</ele>
        <time>1970-01-01T00:32:59.000Z</time>
      </trkpt>
      <trkpt lat="45.64996" lon="4.7168">
        <ele>280.8</ele>
        <time>1970-01-01T00:33:04.000Z</time>
      </trkpt>
      <trkpt lat="45.64993" lon="4.71683">
        <ele>280.8</ele>
        <time>1970-01-01T00:33:05.000Z</time>
      </trkpt>
      <trkpt lat="45.64969" lon="4.71705">
        <ele>280.8</ele>
        <time>1970-01-01T00:33:12.000Z</time>
      </trkpt>
      <trkpt lat="45.64944" lon="4.71725">
        <ele>281.4</ele>
        <time>1970-01-01T00:33:17.000Z</time>
      </trkpt>
      <trkpt lat="45.64912" lon="4.71748">
        <ele>281.6</ele>
        <time>1970-01-01T00:33:23.000Z</time>
      </trkpt>
      <trkpt lat="45.64897" lon="4.7176">
        <ele>281.6</ele>
        <time>1970-01-01T00:33:26.000Z</time>
      </trkpt>
      <trkpt lat="45.64888" lon="4.71763">
        <ele>281.6</ele>
        <time>1970-01-01T00:33:28.000Z</time>
      </trkpt>
      <trkpt lat="45.64879" lon="4.71759">
        <ele>281.6</ele>
        <time>1970-01-01T00:33:31.000Z</time>
      </trkpt>
      <trkpt lat="45.64875" lon="4.71757">
        <ele>281.8</ele>
        <time>1970-01-01T00:33:33.000Z</time>
      </trkpt>
      <trkpt lat="45.64868" lon="4.71753">
        <ele>282.6</ele>
        <time>1970-01-01T00:33:37.000Z</time>
      </trkpt>
      <trkpt lat="45.64867" lon="4.71752">
        <ele>283</ele>
        <time>1970-01-01T00:33:38.000Z</time>
      </trkpt>
      <trkpt lat="45.64864" lon="4.7175">
        <ele>283.8</ele>
        <time>1970-01-01T00:33:40.000Z</time>
      </trkpt>
      <trkpt lat="45.64862" lon="4.71751">
        <ele>284</ele>
        <time>1970-01-01T00:33:41.000Z</time>
      </trkpt>
      <trkpt lat="45.64859" lon="4.71753">
        <ele>284.6</ele>
        <time>1970-01-01T00:33:43.000Z</time>
      </trkpt>
      <trkpt lat="45.64848" lon="4.71763">
        <ele>285.4</ele>
        <time>1970-01-01T00:33:48.000Z</time>
      </trkpt>
      <trkpt lat="45.64846" lon="4.71765">
        <ele>285.6</ele>
        <time>1970-01-01T00:33:49.000Z</time>
      </trkpt>
      <trkpt lat="45.64845" lon="4.71766">
        <ele>285.6</ele>
        <time>1970-01-01T00:33:50.000Z</time>
      </trkpt>
      <trkpt lat="45.64842" lon="4.71769">
        <ele>285.8</ele>
        <time>1970-01-01T00:33:53.000Z</time>
      </trkpt>
      <trkpt lat="45.64842" lon="4.71769">
        <ele>285.8</ele>
        <time>1970-01-01T00:33:54.000Z</time>
      </trkpt>
      <trkpt lat="45.64842" lon="4.7177">
        <ele>285.8</ele>
        <time>1970-01-01T00:33:57.000Z</time>
      </trkpt>
      <trkpt lat="45.64842" lon="4.7177">
        <ele>286</ele>
        <time>1970-01-01T00:34:02.000Z</time>
      </trkpt>
      <trkpt lat="45.64842" lon="4.7177">
        <ele>286</ele>
        <time>1970-01-01T00:34:05.000Z</time>
      </trkpt>
      <trkpt lat="45.64842" lon="4.7177">
        <ele>286.2</ele>
        <time>1970-01-01T00:34:08.000Z</time>
      </trkpt>
      <trkpt lat="45.64842" lon="4.7177">
        <ele>286.2</ele>
        <time>1970-01-01T00:34:14.000Z</time>
      </trkpt>
      <trkpt lat="45.64842" lon="4.7177">
        <ele>286</ele>
        <time>1970-01-01T00:34:23.000Z</time>
      </trkpt>
      <trkpt lat="45.64841" lon="4.71772">
        <ele>286</ele>
        <time>1970-01-01T00:34:34.000Z</time>
      </trkpt>
      <trkpt lat="45.6484" lon="4.71776">
        <ele>286</ele>
        <time>1970-01-01T00:34:36.000Z</time>
      </trkpt>
      <trkpt lat="45.64832" lon="4.71775">
        <ele>286</ele>
        <time>1970-01-01T00:34:40.000Z</time>
      </trkpt>
      <trkpt lat="45.6483" lon="4.71774">
        <ele>286</ele>
        <time>1970-01-01T00:34:41.000Z</time>
      </trkpt>
      <trkpt lat="45.64813" lon="4.71761">
        <ele>286.2</ele>
        <time>1970-01-01T00:34:49.000Z</time>
      </trkpt>
      <trkpt lat="45.64806" lon="4.71755">
        <ele>286.8</ele>
        <time>1970-01-01T00:34:53.000Z</time>
      </trkpt>
      <trkpt lat="45.64804" lon="4.71753">
        <ele>287.2</ele>
        <time>1970-01-01T00:34:54.000Z</time>
      </trkpt>
      <trkpt lat="45.64795" lon="4.71746">
        <ele>288</ele>
        <time>1970-01-01T00:34:59.000Z</time>
      </trkpt>
      <trkpt lat="45.64793" lon="4.71744">
        <ele>288.2</ele>
        <time>1970-01-01T00:35:00.000Z</time>
      </trkpt>
      <trkpt lat="45.64785" lon="4.71738">
        <ele>289</ele>
        <time>1970-01-01T00:35:04.000Z</time>
      </trkpt>
      <trkpt lat="45.64781" lon="4.71735">
        <ele>289.2</ele>
        <time>1970-01-01T00:35:06.000Z</time>
      </trkpt>
      <trkpt lat="45.64779" lon="4.71734">
        <ele>289.4</ele>
        <time>1970-01-01T00:35:07.000Z</time>
      </trkpt>
      <trkpt lat="45.64769" lon="4.71728">
        <ele>290.2</ele>
        <time>1970-01-01T00:35:12.000Z</time>
      </trkpt>
      <trkpt lat="45.64764" lon="4.71725">
        <ele>290.8</ele>
        <time>1970-01-01T00:35:14.000Z</time>
      </trkpt>
      <trkpt lat="45.64754" lon="4.71719">
        <ele>291.4</ele>
        <time>1970-01-01T00:35:19.000Z</time>
      </trkpt>
      <trkpt lat="45.64749" lon="4.71716">
        <ele>291.8</ele>
        <time>1970-01-01T00:35:21.000Z</time>
      </trkpt>
      <trkpt lat="45.64741" lon="4.71711">
        <ele>292.4</ele>
        <time>1970-01-01T00:35:25.000Z</time>
      </trkpt>
      <trkpt lat="45.64738" lon="4.7171">
        <ele>292.4</ele>
        <time>1970-01-01T00:35:26.000Z</time>
      </trkpt>
      <trkpt lat="45.64731" lon="4.71707">
        <ele>292.4</ele>
        <time>1970-01-01T00:35:29.000Z</time>
      </trkpt>
      <trkpt lat="45.6472" lon="4.71702">
        <ele>292.8</ele>
        <time>1970-01-01T00:35:34.000Z</time>
      </trkpt>
      <trkpt lat="45.64713" lon="4.71701">
        <ele>293.4</ele>
        <time>1970-01-01T00:35:37.000Z</time>
      </trkpt>
      <trkpt lat="45.64703" lon="4.71698">
        <ele>294.6</ele>
        <time>1970-01-01T00:35:41.000Z</time>
      </trkpt>
      <trkpt lat="45.64698" lon="4.71697">
        <ele>295</ele>
        <time>1970-01-01T00:35:43.000Z</time>
      </trkpt>
      <trkpt lat="45.64681" lon="4.71691">
        <ele>295.6</ele>
        <time>1970-01-01T00:35:49.000Z</time>
      </trkpt>
      <trkpt lat="45.64678" lon="4.7169">
        <ele>295.6</ele>
        <time>1970-01-01T00:35:50.000Z</time>
      </trkpt>
      <trkpt lat="45.64654" lon="4.71684">
        <ele>295.8</ele>
        <time>1970-01-01T00:35:56.000Z</time>
      </trkpt>
      <trkpt lat="45.6464" lon="4.7168">
        <ele>296</ele>
        <time>1970-01-01T00:36:01.000Z</time>
      </trkpt>
      <trkpt lat="45.64636" lon="4.71676">
        <ele>296.2</ele>
        <time>1970-01-01T00:36:03.000Z</time>
      </trkpt>
      <trkpt lat="45.64635" lon="4.71668">
        <ele>296.2</ele>
        <time>1970-01-01T00:36:06.000Z</time>
      </trkpt>
      <trkpt lat="45.64634" lon="4.7166">
        <ele>296.8</ele>
        <time>1970-01-01T00:36:09.000Z</time>
      </trkpt>
      <trkpt lat="45.64635" lon="4.71646">
        <ele>297.8</ele>
        <time>1970-01-01T00:36:15.000Z</time>
      </trkpt>
      <trkpt lat="45.64635" lon="4.71633">
        <ele>299.2</ele>
        <time>1970-01-01T00:36:20.000Z</time>
      </trkpt>
      <trkpt lat="45.64635" lon="4.71628">
        <ele>299.4</ele>
        <time>1970-01-01T00:36:22.000Z</time>
      </trkpt>
      <trkpt lat="45.64635" lon="4.71613">
        <ele>300.4</ele>
        <time>1970-01-01T00:36:27.000Z</time>
      </trkpt>
      <trkpt lat="45.64636" lon="4.71601">
        <ele>300.8</ele>
        <time>1970-01-01T00:36:31.000Z</time>
      </trkpt>
      <trkpt lat="45.64636" lon="4.71592">
        <ele>301.4</ele>
        <time>1970-01-01T00:36:34.000Z</time>
      </trkpt>
      <trkpt lat="45.64637" lon="4.71581">
        <ele>301.8</ele>
        <time>1970-01-01T00:36:38.000Z</time>
      </trkpt>
      <trkpt lat="45.64637" lon="4.71578">
        <ele>301.8</ele>
        <time>1970-01-01T00:36:39.000Z</time>
      </trkpt>
      <trkpt lat="45.64637" lon="4.7157">
        <ele>302.4</ele>
        <time>1970-01-01T00:36:42.000Z</time>
      </trkpt>
      <trkpt lat="45.64637" lon="4.71567">
        <ele>302.6</ele>
        <time>1970-01-01T00:36:43.000Z</time>
      </trkpt>
      <trkpt lat="45.64637" lon="4.71562">
        <ele>303</ele>
        <time>1970-01-01T00:36:45.000Z</time>
      </trkpt>
      <trkpt lat="45.64638" lon="4.71556">
        <ele>303.2</ele>
        <time>1970-01-01T00:36:48.000Z</time>
      </trkpt>
      <trkpt lat="45.64638" lon="4.71549">
        <ele>303.6</ele>
        <time>1970-01-01T00:36:51.000Z</time>
      </trkpt>
      <trkpt lat="45.64638" lon="4.71547">
        <ele>303.8</ele>
        <time>1970-01-01T00:36:52.000Z</time>
      </trkpt>
      <trkpt lat="45.64639" lon="4.71537">
        <ele>305</ele>
        <time>1970-01-01T00:36:57.000Z</time>
      </trkpt>
      <trkpt lat="45.6464" lon="4.71533">
        <ele>305.2</ele>
        <time>1970-01-01T00:36:59.000Z</time>
      </trkpt>
      <trkpt lat="45.6464" lon="4.71531">
        <ele>305.6</ele>
        <time>1970-01-01T00:37:00.000Z</time>
      </trkpt>
      <trkpt lat="45.6464" lon="4.71527">
        <ele>306</ele>
        <time>1970-01-01T00:37:02.000Z</time>
      </trkpt>
      <trkpt lat="45.6464" lon="4.71515">
        <ele>306.6</ele>
        <time>1970-01-01T00:37:07.000Z</time>
      </trkpt>
      <trkpt lat="45.6464" lon="4.71505">
        <ele>307</ele>
        <time>1970-01-01T00:37:11.000Z</time>
      </trkpt>
      <trkpt lat="45.64637" lon="4.71494">
        <ele>307.4</ele>
        <time>1970-01-01T00:37:15.000Z</time>
      </trkpt>
      <trkpt lat="45.64627" lon="4.71484">
        <ele>307.8</ele>
        <time>1970-01-01T00:37:20.000Z</time>
      </trkpt>
      <trkpt lat="45.64617" lon="4.7148">
        <ele>308</ele>
        <time>1970-01-01T00:37:23.000Z</time>
      </trkpt>
      <trkpt lat="45.64599" lon="4.71473">
        <ele>308.6</ele>
        <time>1970-01-01T00:37:28.000Z</time>
      </trkpt>
      <trkpt lat="45.64593" lon="4.71471">
        <ele>308.8</ele>
        <time>1970-01-01T00:37:30.000Z</time>
      </trkpt>
      <trkpt lat="45.64586" lon="4.71469">
        <ele>308.8</ele>
        <time>1970-01-01T00:37:32.000Z</time>
      </trkpt>
      <trkpt lat="45.64581" lon="4.71466">
        <ele>308.8</ele>
        <time>1970-01-01T00:37:34.000Z</time>
      </trkpt>
      <trkpt lat="45.64575" lon="4.71464">
        <ele>309</ele>
        <time>1970-01-01T00:37:36.000Z</time>
      </trkpt>
      <trkpt lat="45.64572" lon="4.71462">
        <ele>309.2</ele>
        <time>1970-01-01T00:37:37.000Z</time>
      </trkpt>
      <trkpt lat="45.64559" lon="4.71456">
        <ele>309.4</ele>
        <time>1970-01-01T00:37:42.000Z</time>
      </trkpt>
      <trkpt lat="45.6454" lon="4.71446">
        <ele>310.2</ele>
        <time>1970-01-01T00:37:50.000Z</time>
      </trkpt>
      <trkpt lat="45.64536" lon="4.71436">
        <ele>310.6</ele>
        <time>1970-01-01T00:37:54.000Z</time>
      </trkpt>
      <trkpt lat="45.64543" lon="4.71427">
        <ele>311.2</ele>
        <time>1970-01-01T00:37:58.000Z</time>
      </trkpt>
      <trkpt lat="45.64555" lon="4.71418">
        <ele>311.4</ele>
        <time>1970-01-01T00:38:02.000Z</time>
      </trkpt>
      <trkpt lat="45.64563" lon="4.7141">
        <ele>311.8</ele>
        <time>1970-01-01T00:38:05.000Z</time>
      </trkpt>
      <trkpt lat="45.64571" lon="4.71402">
        <ele>311.8</ele>
        <time>1970-01-01T00:38:08.000Z</time>
      </trkpt>
      <trkpt lat="45.64586" lon="4.71382">
        <ele>312.4</ele>
        <time>1970-01-01T00:38:15.000Z</time>
      </trkpt>
      <trkpt lat="45.64586" lon="4.71369">
        <ele>312.4</ele>
        <time>1970-01-01T00:38:20.000Z</time>
      </trkpt>
      <trkpt lat="45.64585" lon="4.71366">
        <ele>312.4</ele>
        <time>1970-01-01T00:38:22.000Z</time>
      </trkpt>
      <trkpt lat="45.64584" lon="4.71365">
        <ele>312.6</ele>
        <time>1970-01-01T00:38:23.000Z</time>
      </trkpt>
      <trkpt lat="45.64584" lon="4.71364">
        <ele>312.8</ele>
        <time>1970-01-01T00:38:26.000Z</time>
      </trkpt>
      <trkpt lat="45.64584" lon="4.71364">
        <ele>313</ele>
        <time>1970-01-01T00:38:32.000Z</time>
      </trkpt>
      <trkpt lat="45.64583" lon="4.71364">
        <ele>313.2</ele>
        <time>1970-01-01T00:38:43.000Z</time>
      </trkpt>
      <trkpt lat="45.64584" lon="4.71364">
        <ele>313.2</ele>
        <time>1970-01-01T00:39:01.000Z</time>
      </trkpt>
      <trkpt lat="45.64584" lon="4.71364">
        <ele>313.2</ele>
        <time>1970-01-01T00:39:03.000Z</time>
      </trkpt>
      <trkpt lat="45.64583" lon="4.71364">
        <ele>313.2</ele>
        <time>1970-01-01T00:39:05.000Z</time>
      </trkpt>
      <trkpt lat="45.64583" lon="4.71364">
        <ele>313</ele>
        <time>1970-01-01T00:39:20.000Z</time>
      </trkpt>
      <trkpt lat="45.64583" lon="4.71364">
        <ele>313</ele>
        <time>1970-01-01T00:39:23.000Z</time>
      </trkpt>
      <trkpt lat="45.64584" lon="4.71364">
        <ele>313</ele>
        <time>1970-01-01T00:39:37.000Z</time>
      </trkpt>
      <trkpt lat="45.64584" lon="4.71364">
        <ele>313.4</ele>
        <time>1970-01-01T00:39:44.000Z</time>
      </trkpt>
      <trkpt lat="45.64584" lon="4.71364">
        <ele>313.4</ele>
        <time>1970-01-01T00:39:46.000Z</time>
      </trkpt>
      <trkpt lat="45.64584" lon="4.71364">
        <ele>313.4</ele>
        <time>1970-01-01T00:40:04.000Z</time>
      </trkpt>
      <trkpt lat="45.64584" lon="4.71364">
        <ele>313.4</ele>
        <time>1970-01-01T00:40:08.000Z</time>
      </trkpt>
      <trkpt lat="45.64584" lon="4.71364">
        <ele>313.4</ele>
        <time>1970-01-01T00:40:23.000Z</time>
      </trkpt>
      <trkpt lat="45.64583" lon="4.71364">
        <ele>313.4</ele>
        <time>1970-01-01T00:40:25.000Z</time>
      </trkpt>
      <trkpt lat="45.64583" lon="4.71363">
        <ele>313.4</ele>
        <time>1970-01-01T00:40:26.000Z</time>
      </trkpt>
      <trkpt lat="45.64582" lon="4.71363">
        <ele>313.4</ele>
        <time>1970-01-01T00:40:28.000Z</time>
      </trkpt>
      <trkpt lat="45.64579" lon="4.71357">
        <ele>313.4</ele>
        <time>1970-01-01T00:40:32.000Z</time>
      </trkpt>
      <trkpt lat="45.64577" lon="4.71353">
        <ele>313.4</ele>
        <time>1970-01-01T00:40:34.000Z</time>
      </trkpt>
      <trkpt lat="45.64575" lon="4.71347">
        <ele>313.6</ele>
        <time>1970-01-01T00:40:36.000Z</time>
      </trkpt>
      <trkpt lat="45.6457" lon="4.71335">
        <ele>313.6</ele>
        <time>1970-01-01T00:40:40.000Z</time>
      </trkpt>
      <trkpt lat="45.64568" lon="4.71329">
        <ele>313.6</ele>
        <time>1970-01-01T00:40:42.000Z</time>
      </trkpt>
      <trkpt lat="45.64566" lon="4.71323">
        <ele>313.6</ele>
        <time>1970-01-01T00:40:44.000Z</time>
      </trkpt>
      <trkpt lat="45.64565" lon="4.71319">
        <ele>313.6</ele>
        <time>1970-01-01T00:40:45.000Z</time>
      </trkpt>
      <trkpt lat="45.64563" lon="4.71316">
        <ele>313.8</ele>
        <time>1970-01-01T00:40:46.000Z</time>
      </trkpt>
      <trkpt lat="45.64561" lon="4.7131">
        <ele>314</ele>
        <time>1970-01-01T00:40:48.000Z</time>
      </trkpt>
      <trkpt lat="45.64551" lon="4.71287">
        <ele>315</ele>
        <time>1970-01-01T00:40:55.000Z</time>
      </trkpt>
      <trkpt lat="45.64549" lon="4.71281">
        <ele>315.2</ele>
        <time>1970-01-01T00:40:57.000Z</time>
      </trkpt>
      <trkpt lat="45.64545" lon="4.71271">
        <ele>315.4</ele>
        <time>1970-01-01T00:41:00.000Z</time>
      </trkpt>
      <trkpt lat="45.64541" lon="4.71255">
        <ele>316</ele>
        <time>1970-01-01T00:41:05.000Z</time>
      </trkpt>
      <trkpt lat="45.6454" lon="4.71253">
        <ele>316</ele>
        <time>1970-01-01T00:41:06.000Z</time>
      </trkpt>
      <trkpt lat="45.64539" lon="4.71247">
        <ele>316.4</ele>
        <time>1970-01-01T00:41:08.000Z</time>
      </trkpt>
      <trkpt lat="45.64538" lon="4.71245">
        <ele>316.6</ele>
        <time>1970-01-01T00:41:09.000Z</time>
      </trkpt>
      <trkpt lat="45.64536" lon="4.71237">
        <ele>317</ele>
        <time>1970-01-01T00:41:12.000Z</time>
      </trkpt>
      <trkpt lat="45.64535" lon="4.71234">
        <ele>317.2</ele>
        <time>1970-01-01T00:41:13.000Z</time>
      </trkpt>
      <trkpt lat="45.64531" lon="4.71222">
        <ele>318</ele>
        <time>1970-01-01T00:41:17.000Z</time>
      </trkpt>
      <trkpt lat="45.64528" lon="4.71214">
        <ele>318.6</ele>
        <time>1970-01-01T00:41:20.000Z</time>
      </trkpt>
      <trkpt lat="45.64528" lon="4.71211">
        <ele>318.8</ele>
        <time>1970-01-01T00:41:21.000Z</time>
      </trkpt>
      <trkpt lat="45.64526" lon="4.71207">
        <ele>319.2</ele>
        <time>1970-01-01T00:41:23.000Z</time>
      </trkpt>
      <trkpt lat="45.64517" lon="4.71188">
        <ele>320</ele>
        <time>1970-01-01T00:41:30.000Z</time>
      </trkpt>
      <trkpt lat="45.64516" lon="4.71185">
        <ele>320.2</ele>
        <time>1970-01-01T00:41:31.000Z</time>
      </trkpt>
      <trkpt lat="45.64515" lon="4.71182">
        <ele>320.4</ele>
        <time>1970-01-01T00:41:32.000Z</time>
      </trkpt>
      <trkpt lat="45.64507" lon="4.71168">
        <ele>321.2</ele>
        <time>1970-01-01T00:41:38.000Z</time>
      </trkpt>
      <trkpt lat="45.64501" lon="4.71158">
        <ele>322.2</ele>
        <time>1970-01-01T00:41:43.000Z</time>
      </trkpt>
      <trkpt lat="45.64498" lon="4.71151">
        <ele>322.6</ele>
        <time>1970-01-01T00:41:46.000Z</time>
      </trkpt>
      <trkpt lat="45.64492" lon="4.7114">
        <ele>323.2</ele>
        <time>1970-01-01T00:41:51.000Z</time>
      </trkpt>
      <trkpt lat="45.64491" lon="4.71138">
        <ele>323.4</ele>
        <time>1970-01-01T00:41:52.000Z</time>
      </trkpt>
      <trkpt lat="45.64483" lon="4.71125">
        <ele>324.4</ele>
        <time>1970-01-01T00:41:59.000Z</time>
      </trkpt>
      <trkpt lat="45.64478" lon="4.71113">
        <ele>325.2</ele>
        <time>1970-01-01T00:42:05.000Z</time>
      </trkpt>
      <trkpt lat="45.64476" lon="4.71113">
        <ele>325.4</ele>
        <time>1970-01-01T00:42:06.000Z</time>
      </trkpt>
      <trkpt lat="45.6447" lon="4.7112">
        <ele>325.8</ele>
        <time>1970-01-01T00:42:09.000Z</time>
      </trkpt>
      <trkpt lat="45.64464" lon="4.71127">
        <ele>326</ele>
        <time>1970-01-01T00:42:11.000Z</time>
      </trkpt>
      <trkpt lat="45.64459" lon="4.71133">
        <ele>326.6</ele>
        <time>1970-01-01T00:42:13.000Z</time>
      </trkpt>
      <trkpt lat="45.64454" lon="4.71138">
        <ele>326.8</ele>
        <time>1970-01-01T00:42:15.000Z</time>
      </trkpt>
      <trkpt lat="45.64442" lon="4.7115">
        <ele>327</ele>
        <time>1970-01-01T00:42:20.000Z</time>
      </trkpt>
      <trkpt lat="45.64434" lon="4.71157">
        <ele>326.8</ele>
        <time>1970-01-01T00:42:23.000Z</time>
      </trkpt>
      <trkpt lat="45.64423" lon="4.71163">
        <ele>326.8</ele>
        <time>1970-01-01T00:42:27.000Z</time>
      </trkpt>
      <trkpt lat="45.64415" lon="4.71163">
        <ele>326.8</ele>
        <time>1970-01-01T00:42:30.000Z</time>
      </trkpt>
      <trkpt lat="45.644" lon="4.71152">
        <ele>326.8</ele>
        <time>1970-01-01T00:42:37.000Z</time>
      </trkpt>
      <trkpt lat="45.64395" lon="4.71144">
        <ele>327.2</ele>
        <time>1970-01-01T00:42:40.000Z</time>
      </trkpt>
      <trkpt lat="45.64393" lon="4.71142">
        <ele>327.2</ele>
        <time>1970-01-01T00:42:41.000Z</time>
      </trkpt>
      <trkpt lat="45.64391" lon="4.71139">
        <ele>327.4</ele>
        <time>1970-01-01T00:42:42.000Z</time>
      </trkpt>
      <trkpt lat="45.64387" lon="4.71135">
        <ele>327.6</ele>
        <time>1970-01-01T00:42:44.000Z</time>
      </trkpt>
      <trkpt lat="45.64385" lon="4.71131">
        <ele>327.8</ele>
        <time>1970-01-01T00:42:46.000Z</time>
      </trkpt>
      <trkpt lat="45.64382" lon="4.71127">
        <ele>327.8</ele>
        <time>1970-01-01T00:42:48.000Z</time>
      </trkpt>
      <trkpt lat="45.64375" lon="4.71123">
        <ele>328.4</ele>
        <time>1970-01-01T00:42:51.000Z</time>
      </trkpt>
      <trkpt lat="45.64369" lon="4.71119">
        <ele>328.8</ele>
        <time>1970-01-01T00:42:54.000Z</time>
      </trkpt>
      <trkpt lat="45.64364" lon="4.71117">
        <ele>329.2</ele>
        <time>1970-01-01T00:42:56.000Z</time>
      </trkpt>
      <trkpt lat="45.6435" lon="4.71114">
        <ele>329.8</ele>
        <time>1970-01-01T00:43:02.000Z</time>
      </trkpt>
      <trkpt lat="45.64345" lon="4.71113">
        <ele>330</ele>
        <time>1970-01-01T00:43:04.000Z</time>
      </trkpt>
      <trkpt lat="45.64326" lon="4.71109">
        <ele>330.6</ele>
        <time>1970-01-01T00:43:11.000Z</time>
      </trkpt>
      <trkpt lat="45.64323" lon="4.71108">
        <ele>330.8</ele>
        <time>1970-01-01T00:43:12.000Z</time>
      </trkpt>
      <trkpt lat="45.64316" lon="4.71106">
        <ele>331</ele>
        <time>1970-01-01T00:43:15.000Z</time>
      </trkpt>
      <trkpt lat="45.64306" lon="4.71104">
        <ele>331.6</ele>
        <time>1970-01-01T00:43:19.000Z</time>
      </trkpt>
      <trkpt lat="45.64299" lon="4.71102">
        <ele>332.2</ele>
        <time>1970-01-01T00:43:22.000Z</time>
      </trkpt>
      <trkpt lat="45.64288" lon="4.711">
        <ele>333</ele>
        <time>1970-01-01T00:43:27.000Z</time>
      </trkpt>
      <trkpt lat="45.64284" lon="4.711">
        <ele>333.4</ele>
        <time>1970-01-01T00:43:29.000Z</time>
      </trkpt>
      <trkpt lat="45.64271" lon="4.71101">
        <ele>334</ele>
        <time>1970-01-01T00:43:33.000Z</time>
      </trkpt>
      <trkpt lat="45.64259" lon="4.71102">
        <ele>334.6</ele>
        <time>1970-01-01T00:43:36.000Z</time>
      </trkpt>
      <trkpt lat="45.64241" lon="4.71104">
        <ele>334.8</ele>
        <time>1970-01-01T00:43:41.000Z</time>
      </trkpt>
      <trkpt lat="45.64209" lon="4.711">
        <ele>335</ele>
        <time>1970-01-01T00:43:50.000Z</time>
      </trkpt>
      <trkpt lat="45.64184" lon="4.71092">
        <ele>335.4</ele>
        <time>1970-01-01T00:43:58.000Z</time>
      </trkpt>
      <trkpt lat="45.64175" lon="4.7109">
        <ele>335.6</ele>
        <time>1970-01-01T00:44:01.000Z</time>
      </trkpt>
      <trkpt lat="45.64159" lon="4.71087">
        <ele>336.2</ele>
        <time>1970-01-01T00:44:06.000Z</time>
      </trkpt>
      <trkpt lat="45.64152" lon="4.71086">
        <ele>336.6</ele>
        <time>1970-01-01T00:44:08.000Z</time>
      </trkpt>
      <trkpt lat="45.64148" lon="4.71085">
        <ele>336.6</ele>
        <time>1970-01-01T00:44:09.000Z</time>
      </trkpt>
      <trkpt lat="45.64133" lon="4.71082">
        <ele>336.8</ele>
        <time>1970-01-01T00:44:13.000Z</time>
      </trkpt>
      <trkpt lat="45.64119" lon="4.71077">
        <ele>337.4</ele>
        <time>1970-01-01T00:44:17.000Z</time>
      </trkpt>
      <trkpt lat="45.64116" lon="4.71076">
        <ele>337.8</ele>
        <time>1970-01-01T00:44:18.000Z</time>
      </trkpt>
      <trkpt lat="45.64107" lon="4.71072">
        <ele>338.4</ele>
        <time>1970-01-01T00:44:21.000Z</time>
      </trkpt>
      <trkpt lat="45.64104" lon="4.71071">
        <ele>338.8</ele>
        <time>1970-01-01T00:44:22.000Z</time>
      </trkpt>
      <trkpt lat="45.64086" lon="4.71065">
        <ele>339.6</ele>
        <time>1970-01-01T00:44:26.000Z</time>
      </trkpt>
      <trkpt lat="45.64068" lon="4.71059">
        <ele>339.8</ele>
        <time>1970-01-01T00:44:29.000Z</time>
      </trkpt>
      <trkpt lat="45.64049" lon="4.71053">
        <ele>339.8</ele>
        <time>1970-01-01T00:44:32.000Z</time>
      </trkpt>
      <trkpt lat="45.64031" lon="4.71044">
        <ele>338.8</ele>
        <time>1970-01-01T00:44:35.000Z</time>
      </trkpt>
      <trkpt lat="45.64025" lon="4.71041">
        <ele>338</ele>
        <time>1970-01-01T00:44:36.000Z</time>
      </trkpt>
      <trkpt lat="45.64019" lon="4.71038">
        <ele>337.4</ele>
        <time>1970-01-01T00:44:37.000Z</time>
      </trkpt>
      <trkpt lat="45.64008" lon="4.71032">
        <ele>337</ele>
        <time>1970-01-01T00:44:39.000Z</time>
      </trkpt>
      <trkpt lat="45.63986" lon="4.71022">
        <ele>336.8</ele>
        <time>1970-01-01T00:44:43.000Z</time>
      </trkpt>
      <trkpt lat="45.63981" lon="4.71024">
        <ele>336.8</ele>
        <time>1970-01-01T00:44:44.000Z</time>
      </trkpt>
      <trkpt lat="45.6397" lon="4.7104">
        <ele>336.6</ele>
        <time>1970-01-01T00:44:47.000Z</time>
      </trkpt>
      <trkpt lat="45.63967" lon="4.71046">
        <ele>336.6</ele>
        <time>1970-01-01T00:44:48.000Z</time>
      </trkpt>
      <trkpt lat="45.63958" lon="4.71073">
        <ele>336.6</ele>
        <time>1970-01-01T00:44:52.000Z</time>
      </trkpt>
      <trkpt lat="45.63954" lon="4.71084">
        <ele>336.8</ele>
        <time>1970-01-01T00:44:54.000Z</time>
      </trkpt>
      <trkpt lat="45.63951" lon="4.71089">
        <ele>336.8</ele>
        <time>1970-01-01T00:44:57.000Z</time>
      </trkpt>
      <trkpt lat="45.63952" lon="4.7109">
        <ele>337</ele>
        <time>1970-01-01T00:44:59.000Z</time>
      </trkpt>
      <trkpt lat="45.63952" lon="4.71091">
        <ele>337.6</ele>
        <time>1970-01-01T00:45:05.000Z</time>
      </trkpt>
      <trkpt lat="45.63952" lon="4.71091">
        <ele>337.8</ele>
        <time>1970-01-01T00:45:08.000Z</time>
      </trkpt>
      <trkpt lat="45.63952" lon="4.71091">
        <ele>337.8</ele>
        <time>1970-01-01T00:45:13.000Z</time>
      </trkpt>
      <trkpt lat="45.63952" lon="4.71091">
        <ele>337.8</ele>
        <time>1970-01-01T00:45:18.000Z</time>
      </trkpt>
      <trkpt lat="45.63952" lon="4.71091">
        <ele>337.8</ele>
        <time>1970-01-01T00:45:28.000Z</time>
      </trkpt>
      <trkpt lat="45.63952" lon="4.71091">
        <ele>337.8</ele>
        <time>1970-01-01T00:45:30.000Z</time>
      </trkpt>
      <trkpt lat="45.63952" lon="4.71091">
        <ele>337.6</ele>
        <time>1970-01-01T00:45:35.000Z</time>
      </trkpt>
      <trkpt lat="45.63946" lon="4.71096">
        <ele>337.4</ele>
        <time>1970-01-01T00:45:42.000Z</time>
      </trkpt>
      <trkpt lat="45.63945" lon="4.71099">
        <ele>337.4</ele>
        <time>1970-01-01T00:45:43.000Z</time>
      </trkpt>
      <trkpt lat="45.63944" lon="4.71111">
        <ele>337.4</ele>
        <time>1970-01-01T00:45:46.000Z</time>
      </trkpt>
      <trkpt lat="45.63945" lon="4.71116">
        <ele>337.4</ele>
        <time>1970-01-01T00:45:47.000Z</time>
      </trkpt>
      <trkpt lat="45.63944" lon="4.71135">
        <ele>337.2</ele>
        <time>1970-01-01T00:45:51.000Z</time>
      </trkpt>
      <trkpt lat="45.63943" lon="4.71145">
        <ele>337</ele>
        <time>1970-01-01T00:45:53.000Z</time>
      </trkpt>
      <trkpt lat="45.63942" lon="4.7116">
        <ele>336.8</ele>
        <time>1970-01-01T00:45:56.000Z</time>
      </trkpt>
      <trkpt lat="45.63941" lon="4.71183">
        <ele>336.8</ele>
        <time>1970-01-01T00:46:01.000Z</time>
      </trkpt>
      <trkpt lat="45.6394" lon="4.71192">
        <ele>336.8</ele>
        <time>1970-01-01T00:46:03.000Z</time>
      </trkpt>
      <trkpt lat="45.63942" lon="4.71229">
        <ele>337</ele>
        <time>1970-01-01T00:46:11.000Z</time>
      </trkpt>
      <trkpt lat="45.63941" lon="4.71254">
        <ele>337.4</ele>
        <time>1970-01-01T00:46:17.000Z</time>
      </trkpt>
      <trkpt lat="45.63939" lon="4.71257">
        <ele>337.4</ele>
        <time>1970-01-01T00:46:18.000Z</time>
      </trkpt>
      <trkpt lat="45.63934" lon="4.71256">
        <ele>337.8</ele>
        <time>1970-01-01T00:46:21.000Z</time>
      </trkpt>
      <trkpt lat="45.6393" lon="4.71252">
        <ele>337.8</ele>
        <time>1970-01-01T00:46:23.000Z</time>
      </trkpt>
      <trkpt lat="45.63922" lon="4.71243">
        <ele>338.2</ele>
        <time>1970-01-01T00:46:27.000Z</time>
      </trkpt>
      <trkpt lat="45.6392" lon="4.7124">
        <ele>338.4</ele>
        <time>1970-01-01T00:46:28.000Z</time>
      </trkpt>
      <trkpt lat="45.63906" lon="4.71223">
        <ele>338.8</ele>
        <time>1970-01-01T00:46:34.000Z</time>
      </trkpt>
      <trkpt lat="45.63886" lon="4.71203">
        <ele>338.8</ele>
        <time>1970-01-01T00:46:41.000Z</time>
      </trkpt>
      <trkpt lat="45.63863" lon="4.71181">
        <ele>339.2</ele>
        <time>1970-01-01T00:46:48.000Z</time>
      </trkpt>
      <trkpt lat="45.6386" lon="4.71178">
        <ele>339.2</ele>
        <time>1970-01-01T00:46:49.000Z</time>
      </trkpt>
      <trkpt lat="45.63853" lon="4.71171">
        <ele>339.4</ele>
        <time>1970-01-01T00:46:51.000Z</time>
      </trkpt>
      <trkpt lat="45.63845" lon="4.71162">
        <ele>339.4</ele>
        <time>1970-01-01T00:46:54.000Z</time>
      </trkpt>
      <trkpt lat="45.63839" lon="4.71156">
        <ele>339.4</ele>
        <time>1970-01-01T00:46:56.000Z</time>
      </trkpt>
      <trkpt lat="45.63823" lon="4.71142">
        <ele>339.6</ele>
        <time>1970-01-01T00:47:01.000Z</time>
      </trkpt>
      <trkpt lat="45.6382" lon="4.7114">
        <ele>339.8</ele>
        <time>1970-01-01T00:47:02.000Z</time>
      </trkpt>
      <trkpt lat="45.63797" lon="4.71125">
        <ele>340.2</ele>
        <time>1970-01-01T00:47:09.000Z</time>
      </trkpt>
      <trkpt lat="45.63778" lon="4.71115">
        <ele>340.4</ele>
        <time>1970-01-01T00:47:15.000Z</time>
      </trkpt>
      <trkpt lat="45.63774" lon="4.71114">
        <ele>340.4</ele>
        <time>1970-01-01T00:47:16.000Z</time>
      </trkpt>
      <trkpt lat="45.63768" lon="4.71111">
        <ele>340.6</ele>
        <time>1970-01-01T00:47:18.000Z</time>
      </trkpt>
      <trkpt lat="45.63747" lon="4.71102">
        <ele>341.2</ele>
        <time>1970-01-01T00:47:24.000Z</time>
      </trkpt>
      <trkpt lat="45.63736" lon="4.71096">
        <ele>341.4</ele>
        <time>1970-01-01T00:47:27.000Z</time>
      </trkpt>
      <trkpt lat="45.63726" lon="4.71085">
        <ele>341.4</ele>
        <time>1970-01-01T00:47:30.000Z</time>
      </trkpt>
      <trkpt lat="45.63705" lon="4.71055">
        <ele>341.6</ele>
        <time>1970-01-01T00:47:37.000Z</time>
      </trkpt>
      <trkpt lat="45.63697" lon="4.71041">
        <ele>341.6</ele>
        <time>1970-01-01T00:47:40.000Z</time>
      </trkpt>
      <trkpt lat="45.63693" lon="4.71025">
        <ele>341.6</ele>
        <time>1970-01-01T00:47:43.000Z</time>
      </trkpt>
      <trkpt lat="45.63693" lon="4.71019">
        <ele>341.6</ele>
        <time>1970-01-01T00:47:44.000Z</time>
      </trkpt>
      <trkpt lat="45.63691" lon="4.70985">
        <ele>341.6</ele>
        <time>1970-01-01T00:47:50.000Z</time>
      </trkpt>
      <trkpt lat="45.6369" lon="4.70974">
        <ele>341.8</ele>
        <time>1970-01-01T00:47:52.000Z</time>
      </trkpt>
      <trkpt lat="45.63687" lon="4.70953">
        <ele>342</ele>
        <time>1970-01-01T00:47:56.000Z</time>
      </trkpt>
      <trkpt lat="45.63683" lon="4.70919">
        <ele>342</ele>
        <time>1970-01-01T00:48:02.000Z</time>
      </trkpt>
      <trkpt lat="45.63674" lon="4.70871">
        <ele>342</ele>
        <time>1970-01-01T00:48:10.000Z</time>
      </trkpt>
      <trkpt lat="45.63662" lon="4.70814">
        <ele>341.4</ele>
        <time>1970-01-01T00:48:19.000Z</time>
      </trkpt>
      <trkpt lat="45.6365" lon="4.7076">
        <ele>340.6</ele>
        <time>1970-01-01T00:48:27.000Z</time>
      </trkpt>
      <trkpt lat="45.63649" lon="4.70753">
        <ele>340.6</ele>
        <time>1970-01-01T00:48:28.000Z</time>
      </trkpt>
      <trkpt lat="45.6364" lon="4.70705">
        <ele>339.6</ele>
        <time>1970-01-01T00:48:35.000Z</time>
      </trkpt>
      <trkpt lat="45.63639" lon="4.70699">
        <ele>339.6</ele>
        <time>1970-01-01T00:48:36.000Z</time>
      </trkpt>
      <trkpt lat="45.63626" lon="4.70647">
        <ele>339.2</ele>
        <time>1970-01-01T00:48:44.000Z</time>
      </trkpt>
      <trkpt lat="45.63613" lon="4.70605">
        <ele>339.2</ele>
        <time>1970-01-01T00:48:51.000Z</time>
      </trkpt>
      <trkpt lat="45.63608" lon="4.70594">
        <ele>339.2</ele>
        <time>1970-01-01T00:48:53.000Z</time>
      </trkpt>
      <trkpt lat="45.63591" lon="4.70551">
        <ele>339.4</ele>
        <time>1970-01-01T00:49:01.000Z</time>
      </trkpt>
      <trkpt lat="45.63582" lon="4.70522">
        <ele>339.4</ele>
        <time>1970-01-01T00:49:06.000Z</time>
      </trkpt>
      <trkpt lat="45.63576" lon="4.70503">
        <ele>339.4</ele>
        <time>1970-01-01T00:49:09.000Z</time>
      </trkpt>
      <trkpt lat="45.63566" lon="4.70463">
        <ele>339.6</ele>
        <time>1970-01-01T00:49:15.000Z</time>
      </trkpt>
      <trkpt lat="45.63564" lon="4.70456">
        <ele>339.6</ele>
        <time>1970-01-01T00:49:16.000Z</time>
      </trkpt>
      <trkpt lat="45.63562" lon="4.70448">
        <ele>339.6</ele>
        <time>1970-01-01T00:49:17.000Z</time>
      </trkpt>
      <trkpt lat="45.6356" lon="4.70441">
        <ele>339.6</ele>
        <time>1970-01-01T00:49:18.000Z</time>
      </trkpt>
      <trkpt lat="45.63554" lon="4.70409">
        <ele>339.6</ele>
        <time>1970-01-01T00:49:22.000Z</time>
      </trkpt>
      <trkpt lat="45.63548" lon="4.70369">
        <ele>340</ele>
        <time>1970-01-01T00:49:27.000Z</time>
      </trkpt>
      <trkpt lat="45.63545" lon="4.70347">
        <ele>340</ele>
        <time>1970-01-01T00:49:30.000Z</time>
      </trkpt>
      <trkpt lat="45.63541" lon="4.70321">
        <ele>340.2</ele>
        <time>1970-01-01T00:49:34.000Z</time>
      </trkpt>
      <trkpt lat="45.63537" lon="4.70297">
        <ele>341</ele>
        <time>1970-01-01T00:49:38.000Z</time>
      </trkpt>
      <trkpt lat="45.63537" lon="4.70291">
        <ele>341.2</ele>
        <time>1970-01-01T00:49:39.000Z</time>
      </trkpt>
      <trkpt lat="45.63535" lon="4.70273">
        <ele>342</ele>
        <time>1970-01-01T00:49:42.000Z</time>
      </trkpt>
      <trkpt lat="45.63534" lon="4.7026">
        <ele>342.4</ele>
        <time>1970-01-01T00:49:44.000Z</time>
      </trkpt>
      <trkpt lat="45.63533" lon="4.7024">
        <ele>342.8</ele>
        <time>1970-01-01T00:49:47.000Z</time>
      </trkpt>
      <trkpt lat="45.63527" lon="4.70192">
        <ele>343.2</ele>
        <time>1970-01-01T00:49:54.000Z</time>
      </trkpt>
      <trkpt lat="45.63526" lon="4.70185">
        <ele>343.2</ele>
        <time>1970-01-01T00:49:55.000Z</time>
      </trkpt>
      <trkpt lat="45.63524" lon="4.70166">
        <ele>343.2</ele>
        <time>1970-01-01T00:49:58.000Z</time>
      </trkpt>
      <trkpt lat="45.6352" lon="4.70136">
        <ele>343.6</ele>
        <time>1970-01-01T00:50:03.000Z</time>
      </trkpt>
      <trkpt lat="45.63511" lon="4.70095">
        <ele>344.2</ele>
        <time>1970-01-01T00:50:10.000Z</time>
      </trkpt>
      <trkpt lat="45.6351" lon="4.70089">
        <ele>344.4</ele>
        <time>1970-01-01T00:50:11.000Z</time>
      </trkpt>
      <trkpt lat="45.63495" lon="4.70036">
        <ele>344.8</ele>
        <time>1970-01-01T00:50:20.000Z</time>
      </trkpt>
      <trkpt lat="45.63488" lon="4.70016">
        <ele>345</ele>
        <time>1970-01-01T00:50:24.000Z</time>
      </trkpt>
      <trkpt lat="45.63483" lon="4.70001">
        <ele>345.4</ele>
        <time>1970-01-01T00:50:27.000Z</time>
      </trkpt>
      <trkpt lat="45.63481" lon="4.69996">
        <ele>345.6</ele>
        <time>1970-01-01T00:50:28.000Z</time>
      </trkpt>
      <trkpt lat="45.63472" lon="4.6996">
        <ele>346.2</ele>
        <time>1970-01-01T00:50:35.000Z</time>
      </trkpt>
      <trkpt lat="45.63469" lon="4.69934">
        <ele>346.4</ele>
        <time>1970-01-01T00:50:40.000Z</time>
      </trkpt>
      <trkpt lat="45.63468" lon="4.69918">
        <ele>346.6</ele>
        <time>1970-01-01T00:50:43.000Z</time>
      </trkpt>
      <trkpt lat="45.63465" lon="4.69877">
        <ele>347.4</ele>
        <time>1970-01-01T00:50:51.000Z</time>
      </trkpt>
      <trkpt lat="45.63463" lon="4.69839">
        <ele>347.8</ele>
        <time>1970-01-01T00:50:58.000Z</time>
      </trkpt>
      <trkpt lat="45.6346" lon="4.69807">
        <ele>348.2</ele>
        <time>1970-01-01T00:51:04.000Z</time>
      </trkpt>
      <trkpt lat="45.63458" lon="4.6978">
        <ele>348.4</ele>
        <time>1970-01-01T00:51:09.000Z</time>
      </trkpt>
      <trkpt lat="45.63457" lon="4.69775">
        <ele>348.6</ele>
        <time>1970-01-01T00:51:10.000Z</time>
      </trkpt>
      <trkpt lat="45.63456" lon="4.69759">
        <ele>348.6</ele>
        <time>1970-01-01T00:51:13.000Z</time>
      </trkpt>
      <trkpt lat="45.63452" lon="4.69721">
        <ele>349.8</ele>
        <time>1970-01-01T00:51:20.000Z</time>
      </trkpt>
      <trkpt lat="45.63451" lon="4.6971">
        <ele>350</ele>
        <time>1970-01-01T00:51:22.000Z</time>
      </trkpt>
      <trkpt lat="45.63446" lon="4.69669">
        <ele>350.6</ele>
        <time>1970-01-01T00:51:30.000Z</time>
      </trkpt>
      <trkpt lat="45.63444" lon="4.6966">
        <ele>350.8</ele>
        <time>1970-01-01T00:51:32.000Z</time>
      </trkpt>
      <trkpt lat="45.63439" lon="4.69641">
        <ele>351.4</ele>
        <time>1970-01-01T00:51:36.000Z</time>
      </trkpt>
      <trkpt lat="45.63432" lon="4.69623">
        <ele>351.8</ele>
        <time>1970-01-01T00:51:40.000Z</time>
      </trkpt>
      <trkpt lat="45.63431" lon="4.69619">
        <ele>351.8</ele>
        <time>1970-01-01T00:51:41.000Z</time>
      </trkpt>
      <trkpt lat="45.63429" lon="4.69614">
        <ele>352</ele>
        <time>1970-01-01T00:51:42.000Z</time>
      </trkpt>
      <trkpt lat="45.63428" lon="4.69609">
        <ele>352.2</ele>
        <time>1970-01-01T00:51:43.000Z</time>
      </trkpt>
      <trkpt lat="45.63425" lon="4.69595">
        <ele>352.6</ele>
        <time>1970-01-01T00:51:46.000Z</time>
      </trkpt>
      <trkpt lat="45.63424" lon="4.6958">
        <ele>352.6</ele>
        <time>1970-01-01T00:51:49.000Z</time>
      </trkpt>
      <trkpt lat="45.63423" lon="4.69567">
        <ele>352.8</ele>
        <time>1970-01-01T00:51:52.000Z</time>
      </trkpt>
      <trkpt lat="45.63423" lon="4.69562">
        <ele>352.8</ele>
        <time>1970-01-01T00:51:53.000Z</time>
      </trkpt>
      <trkpt lat="45.63425" lon="4.69543">
        <ele>353</ele>
        <time>1970-01-01T00:51:57.000Z</time>
      </trkpt>
      <trkpt lat="45.63426" lon="4.69512">
        <ele>353.6</ele>
        <time>1970-01-01T00:52:04.000Z</time>
      </trkpt>
      <trkpt lat="45.63423" lon="4.69483">
        <ele>354</ele>
        <time>1970-01-01T00:52:10.000Z</time>
      </trkpt>
      <trkpt lat="45.63422" lon="4.69473">
        <ele>354.4</ele>
        <time>1970-01-01T00:52:12.000Z</time>
      </trkpt>
      <trkpt lat="45.6342" lon="4.69444">
        <ele>355</ele>
        <time>1970-01-01T00:52:18.000Z</time>
      </trkpt>
      <trkpt lat="45.63417" lon="4.69425">
        <ele>355.4</ele>
        <time>1970-01-01T00:52:22.000Z</time>
      </trkpt>
      <trkpt lat="45.63417" lon="4.69421">
        <ele>355.6</ele>
        <time>1970-01-01T00:52:23.000Z</time>
      </trkpt>
      <trkpt lat="45.63415" lon="4.69407">
        <ele>355.8</ele>
        <time>1970-01-01T00:52:26.000Z</time>
      </trkpt>
      <trkpt lat="45.63414" lon="4.69389">
        <ele>356</ele>
        <time>1970-01-01T00:52:30.000Z</time>
      </trkpt>
      <trkpt lat="45.63413" lon="4.69381">
        <ele>356.2</ele>
        <time>1970-01-01T00:52:32.000Z</time>
      </trkpt>
      <trkpt lat="45.63411" lon="4.69364">
        <ele>357</ele>
        <time>1970-01-01T00:52:36.000Z</time>
      </trkpt>
      <trkpt lat="45.6341" lon="4.69353">
        <ele>357.6</ele>
        <time>1970-01-01T00:52:39.000Z</time>
      </trkpt>
      <trkpt lat="45.63408" lon="4.6933">
        <ele>358</ele>
        <time>1970-01-01T00:52:45.000Z</time>
      </trkpt>
      <trkpt lat="45.63408" lon="4.69326">
        <ele>358.2</ele>
        <time>1970-01-01T00:52:46.000Z</time>
      </trkpt>
      <trkpt lat="45.63406" lon="4.69307">
        <ele>359</ele>
        <time>1970-01-01T00:52:51.000Z</time>
      </trkpt>
      <trkpt lat="45.63406" lon="4.69303">
        <ele>359</ele>
        <time>1970-01-01T00:52:52.000Z</time>
      </trkpt>
      <trkpt lat="45.63405" lon="4.69295">
        <ele>359.4</ele>
        <time>1970-01-01T00:52:55.000Z</time>
      </trkpt>
      <trkpt lat="45.63404" lon="4.69286">
        <ele>359.8</ele>
        <time>1970-01-01T00:52:59.000Z</time>
      </trkpt>
      <trkpt lat="45.63403" lon="4.6928">
        <ele>360.4</ele>
        <time>1970-01-01T00:53:02.000Z</time>
      </trkpt>
      <trkpt lat="45.63401" lon="4.69279">
        <ele>360.4</ele>
        <time>1970-01-01T00:53:03.000Z</time>
      </trkpt>
      <trkpt lat="45.63401" lon="4.69279">
        <ele>360.6</ele>
        <time>1970-01-01T00:53:04.000Z</time>
      </trkpt>
      <trkpt lat="45.634" lon="4.6928">
        <ele>361.4</ele>
        <time>1970-01-01T00:53:11.000Z</time>
      </trkpt>
      <trkpt lat="45.634" lon="4.69279">
        <ele>361.8</ele>
        <time>1970-01-01T00:53:23.000Z</time>
      </trkpt>
      <trkpt lat="45.634" lon="4.69279">
        <ele>361.8</ele>
        <time>1970-01-01T00:53:34.000Z</time>
      </trkpt>
      <trkpt lat="45.63401" lon="4.69279">
        <ele>361.8</ele>
        <time>1970-01-01T00:53:36.000Z</time>
      </trkpt>
      <trkpt lat="45.634" lon="4.69279">
        <ele>361.8</ele>
        <time>1970-01-01T00:53:40.000Z</time>
      </trkpt>
      <trkpt lat="45.63401" lon="4.69279">
        <ele>361.8</ele>
        <time>1970-01-01T00:53:44.000Z</time>
      </trkpt>
      <trkpt lat="45.63401" lon="4.69279">
        <ele>361.8</ele>
        <time>1970-01-01T00:53:47.000Z</time>
      </trkpt>
      <trkpt lat="45.63401" lon="4.69279">
        <ele>361.6</ele>
        <time>1970-01-01T00:53:52.000Z</time>
      </trkpt>
      <trkpt lat="45.63401" lon="4.69279">
        <ele>361.6</ele>
        <time>1970-01-01T00:54:03.000Z</time>
      </trkpt>
      <trkpt lat="45.63401" lon="4.69279">
        <ele>361.6</ele>
        <time>1970-01-01T00:54:11.000Z</time>
      </trkpt>
      <trkpt lat="45.634" lon="4.6928">
        <ele>361.6</ele>
        <time>1970-01-01T00:54:18.000Z</time>
      </trkpt>
      <trkpt lat="45.63401" lon="4.69281">
        <ele>361.8</ele>
        <time>1970-01-01T00:54:19.000Z</time>
      </trkpt>
      <trkpt lat="45.63401" lon="4.69283">
        <ele>361.6</ele>
        <time>1970-01-01T00:54:20.000Z</time>
      </trkpt>
      <trkpt lat="45.634" lon="4.69285">
        <ele>361.6</ele>
        <time>1970-01-01T00:54:21.000Z</time>
      </trkpt>
      <trkpt lat="45.63399" lon="4.69288">
        <ele>361.6</ele>
        <time>1970-01-01T00:54:22.000Z</time>
      </trkpt>
      <trkpt lat="45.63396" lon="4.6929">
        <ele>361.6</ele>
        <time>1970-01-01T00:54:23.000Z</time>
      </trkpt>
      <trkpt lat="45.63388" lon="4.69294">
        <ele>361.4</ele>
        <time>1970-01-01T00:54:25.000Z</time>
      </trkpt>
      <trkpt lat="45.63383" lon="4.69297">
        <ele>361.4</ele>
        <time>1970-01-01T00:54:26.000Z</time>
      </trkpt>
      <trkpt lat="45.63379" lon="4.69299">
        <ele>361.4</ele>
        <time>1970-01-01T00:54:27.000Z</time>
      </trkpt>
      <trkpt lat="45.63373" lon="4.69301">
        <ele>361.2</ele>
        <time>1970-01-01T00:54:28.000Z</time>
      </trkpt>
      <trkpt lat="45.63368" lon="4.69303">
        <ele>361.2</ele>
        <time>1970-01-01T00:54:29.000Z</time>
      </trkpt>
      <trkpt lat="45.63363" lon="4.69305">
        <ele>361</ele>
        <time>1970-01-01T00:54:30.000Z</time>
      </trkpt>
      <trkpt lat="45.63358" lon="4.69308">
        <ele>360.8</ele>
        <time>1970-01-01T00:54:31.000Z</time>
      </trkpt>
      <trkpt lat="45.63352" lon="4.6931">
        <ele>360.4</ele>
        <time>1970-01-01T00:54:32.000Z</time>
      </trkpt>
      <trkpt lat="45.63342" lon="4.69314">
        <ele>359.8</ele>
        <time>1970-01-01T00:54:34.000Z</time>
      </trkpt>
      <trkpt lat="45.63332" lon="4.69318">
        <ele>359.4</ele>
        <time>1970-01-01T00:54:36.000Z</time>
      </trkpt>
      <trkpt lat="45.63322" lon="4.69322">
        <ele>358.6</ele>
        <time>1970-01-01T00:54:38.000Z</time>
      </trkpt>
      <trkpt lat="45.63316" lon="4.69324">
        <ele>358.4</ele>
        <time>1970-01-01T00:54:39.000Z</time>
      </trkpt>
      <trkpt lat="45.63311" lon="4.69326">
        <ele>358.2</ele>
        <time>1970-01-01T00:54:40.000Z</time>
      </trkpt>
      <trkpt lat="45.63305" lon="4.69327">
        <ele>358.2</ele>
        <time>1970-01-01T00:54:41.000Z</time>
      </trkpt>
      <trkpt lat="45.633" lon="4.69329">
        <ele>358</ele>
        <time>1970-01-01T00:54:42.000Z</time>
      </trkpt>
      <trkpt lat="45.63294" lon="4.69332">
        <ele>358</ele>
        <time>1970-01-01T00:54:43.000Z</time>
      </trkpt>
      <trkpt lat="45.63289" lon="4.69334">
        <ele>357.8</ele>
        <time>1970-01-01T00:54:44.000Z</time>
      </trkpt>
      <trkpt lat="45.63273" lon="4.69342">
        <ele>357.6</ele>
        <time>1970-01-01T00:54:47.000Z</time>
      </trkpt>
      <trkpt lat="45.63245" lon="4.69352">
        <ele>356.6</ele>
        <time>1970-01-01T00:54:52.000Z</time>
      </trkpt>
      <trkpt lat="45.63229" lon="4.69358">
        <ele>355.6</ele>
        <time>1970-01-01T00:54:55.000Z</time>
      </trkpt>
      <trkpt lat="45.63209" lon="4.69362">
        <ele>354.6</ele>
        <time>1970-01-01T00:54:59.000Z</time>
      </trkpt>
      <trkpt lat="45.63205" lon="4.6936">
        <ele>354.4</ele>
        <time>1970-01-01T00:55:00.000Z</time>
      </trkpt>
      <trkpt lat="45.63199" lon="4.69354">
        <ele>354.2</ele>
        <time>1970-01-01T00:55:02.000Z</time>
      </trkpt>
      <trkpt lat="45.63195" lon="4.69344">
        <ele>354.2</ele>
        <time>1970-01-01T00:55:04.000Z</time>
      </trkpt>
      <trkpt lat="45.63187" lon="4.69323">
        <ele>354.4</ele>
        <time>1970-01-01T00:55:08.000Z</time>
      </trkpt>
      <trkpt lat="45.63182" lon="4.69313">
        <ele>354.4</ele>
        <time>1970-01-01T00:55:10.000Z</time>
      </trkpt>
      <trkpt lat="45.63171" lon="4.69281">
        <ele>355</ele>
        <time>1970-01-01T00:55:16.000Z</time>
      </trkpt>
      <trkpt lat="45.63169" lon="4.69276">
        <ele>355</ele>
        <time>1970-01-01T00:55:17.000Z</time>
      </trkpt>
      <trkpt lat="45.63156" lon="4.69237">
        <ele>355.4</ele>
        <time>1970-01-01T00:55:25.000Z</time>
      </trkpt>
      <trkpt lat="45.63155" lon="4.69233">
        <ele>355.4</ele>
        <time>1970-01-01T00:55:26.000Z</time>
      </trkpt>
      <trkpt lat="45.63144" lon="4.692">
        <ele>355.4</ele>
        <time>1970-01-01T00:55:34.000Z</time>
      </trkpt>
      <trkpt lat="45.63132" lon="4.69179">
        <ele>355.4</ele>
        <time>1970-01-01T00:55:40.000Z</time>
      </trkpt>
      <trkpt lat="45.63128" lon="4.69179">
        <ele>355.4</ele>
        <time>1970-01-01T00:55:41.000Z</time>
      </trkpt>
      <trkpt lat="45.6312" lon="4.69183">
        <ele>355.2</ele>
        <time>1970-01-01T00:55:43.000Z</time>
      </trkpt>
      <trkpt lat="45.63113" lon="4.6919">
        <ele>355.2</ele>
        <time>1970-01-01T00:55:45.000Z</time>
      </trkpt>
      <trkpt lat="45.63109" lon="4.69193">
        <ele>355</ele>
        <time>1970-01-01T00:55:46.000Z</time>
      </trkpt>
      <trkpt lat="45.631" lon="4.69203">
        <ele>354.8</ele>
        <time>1970-01-01T00:55:49.000Z</time>
      </trkpt>
      <trkpt lat="45.63096" lon="4.69207">
        <ele>354.8</ele>
        <time>1970-01-01T00:55:50.000Z</time>
      </trkpt>
      <trkpt lat="45.63075" lon="4.69227">
        <ele>354.6</ele>
        <time>1970-01-01T00:55:57.000Z</time>
      </trkpt>
      <trkpt lat="45.6307" lon="4.69223">
        <ele>354.6</ele>
        <time>1970-01-01T00:55:59.000Z</time>
      </trkpt>
      <trkpt lat="45.63069" lon="4.69219">
        <ele>354.6</ele>
        <time>1970-01-01T00:56:00.000Z</time>
      </trkpt>
      <trkpt lat="45.63067" lon="4.69214">
        <ele>354.6</ele>
        <time>1970-01-01T00:56:01.000Z</time>
      </trkpt>
      <trkpt lat="45.63062" lon="4.69194">
        <ele>354.4</ele>
        <time>1970-01-01T00:56:05.000Z</time>
      </trkpt>
      <trkpt lat="45.63059" lon="4.69184">
        <ele>354.4</ele>
        <time>1970-01-01T00:56:07.000Z</time>
      </trkpt>
      <trkpt lat="45.63054" lon="4.69169">
        <ele>354.4</ele>
        <time>1970-01-01T00:56:10.000Z</time>
      </trkpt>
      <trkpt lat="45.63043" lon="4.69158">
        <ele>354.2</ele>
        <time>1970-01-01T00:56:13.000Z</time>
      </trkpt>
      <trkpt lat="45.6303" lon="4.69159">
        <ele>353.8</ele>
        <time>1970-01-01T00:56:16.000Z</time>
      </trkpt>
      <trkpt lat="45.63026" lon="4.6916">
        <ele>353.8</ele>
        <time>1970-01-01T00:56:17.000Z</time>
      </trkpt>
      <trkpt lat="45.63022" lon="4.69162">
        <ele>353.8</ele>
        <time>1970-01-01T00:56:18.000Z</time>
      </trkpt>
      <trkpt lat="45.63009" lon="4.69167">
        <ele>353.6</ele>
        <time>1970-01-01T00:56:21.000Z</time>
      </trkpt>
      <trkpt lat="45.62984" lon="4.69177">
        <ele>353.6</ele>
        <time>1970-01-01T00:56:27.000Z</time>
      </trkpt>
      <trkpt lat="45.62947" lon="4.6919">
        <ele>353.8</ele>
        <time>1970-01-01T00:56:36.000Z</time>
      </trkpt>
      <trkpt lat="45.62931" lon="4.69195">
        <ele>354</ele>
        <time>1970-01-01T00:56:40.000Z</time>
      </trkpt>
      <trkpt lat="45.62914" lon="4.69204">
        <ele>354</ele>
        <time>1970-01-01T00:56:44.000Z</time>
      </trkpt>
      <trkpt lat="45.6288" lon="4.69225">
        <ele>354</ele>
        <time>1970-01-01T00:56:52.000Z</time>
      </trkpt>
      <trkpt lat="45.6285" lon="4.69245">
        <ele>353.8</ele>
        <time>1970-01-01T00:56:59.000Z</time>
      </trkpt>
      <trkpt lat="45.62846" lon="4.69248">
        <ele>353.8</ele>
        <time>1970-01-01T00:57:00.000Z</time>
      </trkpt>
      <trkpt lat="45.62833" lon="4.69256">
        <ele>353.8</ele>
        <time>1970-01-01T00:57:03.000Z</time>
      </trkpt>
      <trkpt lat="45.62808" lon="4.69273">
        <ele>353.8</ele>
        <time>1970-01-01T00:57:09.000Z</time>
      </trkpt>
      <trkpt lat="45.62781" lon="4.69292">
        <ele>353.6</ele>
        <time>1970-01-01T00:57:15.000Z</time>
      </trkpt>
      <trkpt lat="45.62771" lon="4.69299">
        <ele>353.2</ele>
        <time>1970-01-01T00:57:17.000Z</time>
      </trkpt>
      <trkpt lat="45.62744" lon="4.69317">
        <ele>352.6</ele>
        <time>1970-01-01T00:57:23.000Z</time>
      </trkpt>
      <trkpt lat="45.6274" lon="4.69319">
        <ele>352.4</ele>
        <time>1970-01-01T00:57:24.000Z</time>
      </trkpt>
      <trkpt lat="45.62735" lon="4.6932">
        <ele>352.4</ele>
        <time>1970-01-01T00:57:25.000Z</time>
      </trkpt>
      <trkpt lat="45.62693" lon="4.69324">
        <ele>351.6</ele>
        <time>1970-01-01T00:57:33.000Z</time>
      </trkpt>
      <trkpt lat="45.62688" lon="4.69325">
        <ele>351.6</ele>
        <time>1970-01-01T00:57:34.000Z</time>
      </trkpt>
      <trkpt lat="45.62669" lon="4.69332">
        <ele>351.2</ele>
        <time>1970-01-01T00:57:38.000Z</time>
      </trkpt>
      <trkpt lat="45.62664" lon="4.69336">
        <ele>351</ele>
        <time>1970-01-01T00:57:39.000Z</time>
      </trkpt>
      <trkpt lat="45.62649" lon="4.69347">
        <ele>350.6</ele>
        <time>1970-01-01T00:57:42.000Z</time>
      </trkpt>
      <trkpt lat="45.62623" lon="4.69368">
        <ele>350</ele>
        <time>1970-01-01T00:57:47.000Z</time>
      </trkpt>
      <trkpt lat="45.62618" lon="4.69373">
        <ele>349.8</ele>
        <time>1970-01-01T00:57:48.000Z</time>
      </trkpt>
      <trkpt lat="45.62613" lon="4.69377">
        <ele>349.6</ele>
        <time>1970-01-01T00:57:49.000Z</time>
      </trkpt>
      <trkpt lat="45.62594" lon="4.69385">
        <ele>348.6</ele>
        <time>1970-01-01T00:57:52.000Z</time>
      </trkpt>
      <trkpt lat="45.62587" lon="4.69386">
        <ele>348.2</ele>
        <time>1970-01-01T00:57:53.000Z</time>
      </trkpt>
      <trkpt lat="45.62566" lon="4.69384">
        <ele>347.2</ele>
        <time>1970-01-01T00:57:56.000Z</time>
      </trkpt>
      <trkpt lat="45.62559" lon="4.69381">
        <ele>347</ele>
        <time>1970-01-01T00:57:57.000Z</time>
      </trkpt>
      <trkpt lat="45.62545" lon="4.69375">
        <ele>346.4</ele>
        <time>1970-01-01T00:57:59.000Z</time>
      </trkpt>
      <trkpt lat="45.62525" lon="4.69365">
        <ele>345.6</ele>
        <time>1970-01-01T00:58:02.000Z</time>
      </trkpt>
      <trkpt lat="45.62519" lon="4.69362">
        <ele>345.2</ele>
        <time>1970-01-01T00:58:03.000Z</time>
      </trkpt>
      <trkpt lat="45.62513" lon="4.69359">
        <ele>345</ele>
        <time>1970-01-01T00:58:04.000Z</time>
      </trkpt>
      <trkpt lat="45.62501" lon="4.69352">
        <ele>344.4</ele>
        <time>1970-01-01T00:58:06.000Z</time>
      </trkpt>
      <trkpt lat="45.62479" lon="4.6934">
        <ele>344</ele>
        <time>1970-01-01T00:58:10.000Z</time>
      </trkpt>
      <trkpt lat="45.62436" lon="4.69317">
        <ele>343.8</ele>
        <time>1970-01-01T00:58:18.000Z</time>
      </trkpt>
      <trkpt lat="45.62416" lon="4.69303">
        <ele>343.6</ele>
        <time>1970-01-01T00:58:22.000Z</time>
      </trkpt>
      <trkpt lat="45.62412" lon="4.69301">
        <ele>343.4</ele>
        <time>1970-01-01T00:58:23.000Z</time>
      </trkpt>
      <trkpt lat="45.62408" lon="4.69299">
        <ele>343.2</ele>
        <time>1970-01-01T00:58:24.000Z</time>
      </trkpt>
      <trkpt lat="45.62404" lon="4.69297">
        <ele>342.4</ele>
        <time>1970-01-01T00:58:26.000Z</time>
      </trkpt>
      <trkpt lat="45.62403" lon="4.69296">
        <ele>342.2</ele>
        <time>1970-01-01T00:58:27.000Z</time>
      </trkpt>
      <trkpt lat="45.62401" lon="4.69295">
        <ele>341.8</ele>
        <time>1970-01-01T00:58:28.000Z</time>
      </trkpt>
      <trkpt lat="45.62399" lon="4.69289">
        <ele>341.6</ele>
        <time>1970-01-01T00:58:30.000Z</time>
      </trkpt>
      <trkpt lat="45.62386" lon="4.69277">
        <ele>340.8</ele>
        <time>1970-01-01T00:58:34.000Z</time>
      </trkpt>
      <trkpt lat="45.62381" lon="4.69276">
        <ele>340.8</ele>
        <time>1970-01-01T00:58:35.000Z</time>
      </trkpt>
      <trkpt lat="45.62356" lon="4.69264">
        <ele>339.2</ele>
        <time>1970-01-01T00:58:41.000Z</time>
      </trkpt>
      <trkpt lat="45.62341" lon="4.69257">
        <ele>337.6</ele>
        <time>1970-01-01T00:58:44.000Z</time>
      </trkpt>
      <trkpt lat="45.62333" lon="4.69253">
        <ele>336.4</ele>
        <time>1970-01-01T00:58:46.000Z</time>
      </trkpt>
      <trkpt lat="45.62329" lon="4.69251">
        <ele>336</ele>
        <time>1970-01-01T00:58:47.000Z</time>
      </trkpt>
      <trkpt lat="45.62321" lon="4.69247">
        <ele>335</ele>
        <time>1970-01-01T00:58:49.000Z</time>
      </trkpt>
      <trkpt lat="45.62309" lon="4.69242">
        <ele>333.6</ele>
        <time>1970-01-01T00:58:52.000Z</time>
      </trkpt>
      <trkpt lat="45.62306" lon="4.6924">
        <ele>333.2</ele>
        <time>1970-01-01T00:58:53.000Z</time>
      </trkpt>
      <trkpt lat="45.62301" lon="4.69236">
        <ele>332.2</ele>
        <time>1970-01-01T00:58:55.000Z</time>
      </trkpt>
      <trkpt lat="45.62296" lon="4.69233">
        <ele>330.6</ele>
        <time>1970-01-01T00:58:57.000Z</time>
      </trkpt>
      <trkpt lat="45.62292" lon="4.69233">
        <ele>329.4</ele>
        <time>1970-01-01T00:58:59.000Z</time>
      </trkpt>
      <trkpt lat="45.62291" lon="4.69233">
        <ele>327.8</ele>
        <time>1970-01-01T00:59:02.000Z</time>
      </trkpt>
      <trkpt lat="45.62291" lon="4.69232">
        <ele>326.8</ele>
        <time>1970-01-01T00:59:04.000Z</time>
      </trkpt>
      <trkpt lat="45.62291" lon="4.69232">
        <ele>325.4</ele>
        <time>1970-01-01T00:59:09.000Z</time>
      </trkpt>
      <trkpt lat="45.62289" lon="4.69232">
        <ele>325.2</ele>
        <time>1970-01-01T00:59:34.000Z</time>
      </trkpt>
      <trkpt lat="45.62288" lon="4.69231">
        <ele>325.2</ele>
        <time>1970-01-01T00:59:35.000Z</time>
      </trkpt>
      <trkpt lat="45.62284" lon="4.69221">
        <ele>325</ele>
        <time>1970-01-01T00:59:38.000Z</time>
      </trkpt>
      <trkpt lat="45.62279" lon="4.69203">
        <ele>324.6</ele>
        <time>1970-01-01T00:59:42.000Z</time>
      </trkpt>
      <trkpt lat="45.62274" lon="4.69187">
        <ele>324</ele>
        <time>1970-01-01T00:59:45.000Z</time>
      </trkpt>
      <trkpt lat="45.62269" lon="4.69176">
        <ele>323.6</ele>
        <time>1970-01-01T00:59:47.000Z</time>
      </trkpt>
      <trkpt lat="45.62262" lon="4.69166">
        <ele>323.4</ele>
        <time>1970-01-01T00:59:49.000Z</time>
      </trkpt>
      <trkpt lat="45.62255" lon="4.69157">
        <ele>323.2</ele>
        <time>1970-01-01T00:59:51.000Z</time>
      </trkpt>
      <trkpt lat="45.62235" lon="4.69131">
        <ele>323.2</ele>
        <time>1970-01-01T00:59:57.000Z</time>
      </trkpt>
      <trkpt lat="45.62229" lon="4.69123">
        <ele>323.2</ele>
        <time>1970-01-01T00:59:59.000Z</time>
      </trkpt>
      <trkpt lat="45.62215" lon="4.69102">
        <ele>323.6</ele>
        <time>1970-01-01T01:00:05.000Z</time>
      </trkpt>
      <trkpt lat="45.62207" lon="4.69085">
        <ele>324.4</ele>
        <time>1970-01-01T01:00:10.000Z</time>
      </trkpt>
      <trkpt lat="45.62205" lon="4.69081">
        <ele>324.6</ele>
        <time>1970-01-01T01:00:11.000Z</time>
      </trkpt>
      <trkpt lat="45.62204" lon="4.69071">
        <ele>325</ele>
        <time>1970-01-01T01:00:15.000Z</time>
      </trkpt>
      <trkpt lat="45.62204" lon="4.6907">
        <ele>325</ele>
        <time>1970-01-01T01:00:16.000Z</time>
      </trkpt>
      <trkpt lat="45.62205" lon="4.69061">
        <ele>325.6</ele>
        <time>1970-01-01T01:00:21.000Z</time>
      </trkpt>
      <trkpt lat="45.62206" lon="4.6906">
        <ele>325.8</ele>
        <time>1970-01-01T01:00:22.000Z</time>
      </trkpt>
      <trkpt lat="45.62206" lon="4.69059">
        <ele>326</ele>
        <time>1970-01-01T01:00:23.000Z</time>
      </trkpt>
      <trkpt lat="45.62205" lon="4.69058">
        <ele>326.6</ele>
        <time>1970-01-01T01:00:27.000Z</time>
      </trkpt>
      <trkpt lat="45.62205" lon="4.69058">
        <ele>326.6</ele>
        <time>1970-01-01T01:00:28.000Z</time>
      </trkpt>
      <trkpt lat="45.62205" lon="4.69058">
        <ele>327</ele>
        <time>1970-01-01T01:00:30.000Z</time>
      </trkpt>
      <trkpt lat="45.62205" lon="4.69058">
        <ele>326.8</ele>
        <time>1970-01-01T01:00:31.000Z</time>
      </trkpt>
      <trkpt lat="45.62205" lon="4.69058">
        <ele>326.8</ele>
        <time>1970-01-01T01:00:37.000Z</time>
      </trkpt>
      <trkpt lat="45.62204" lon="4.69057">
        <ele>327</ele>
        <time>1970-01-01T01:00:41.000Z</time>
      </trkpt>
      <trkpt lat="45.62205" lon="4.69058">
        <ele>326.8</ele>
        <time>1970-01-01T01:00:44.000Z</time>
      </trkpt>
      <trkpt lat="45.62205" lon="4.69058">
        <ele>327</ele>
        <time>1970-01-01T01:00:48.000Z</time>
      </trkpt>
      <trkpt lat="45.62205" lon="4.69057">
        <ele>327</ele>
        <time>1970-01-01T01:00:51.000Z</time>
      </trkpt>
      <trkpt lat="45.62205" lon="4.69057">
        <ele>326.8</ele>
        <time>1970-01-01T01:01:07.000Z</time>
      </trkpt>
      <trkpt lat="45.62205" lon="4.69057">
        <ele>326.8</ele>
        <time>1970-01-01T01:01:21.000Z</time>
      </trkpt>
      <trkpt lat="45.62205" lon="4.69057">
        <ele>326.8</ele>
        <time>1970-01-01T01:01:26.000Z</time>
      </trkpt>
      <trkpt lat="45.62205" lon="4.69057">
        <ele>326.8</ele>
        <time>1970-01-01T01:01:30.000Z</time>
      </trkpt>
      <trkpt lat="45.62204" lon="4.69057">
        <ele>327</ele>
        <time>1970-01-01T01:01:45.000Z</time>
      </trkpt>
      <trkpt lat="45.62205" lon="4.69056">
        <ele>327</ele>
        <time>1970-01-01T01:01:48.000Z</time>
      </trkpt>
      <trkpt lat="45.62209" lon="4.69044">
        <ele>327</ele>
        <time>1970-01-01T01:01:53.000Z</time>
      </trkpt>
      <trkpt lat="45.62219" lon="4.69017">
        <ele>327.4</ele>
        <time>1970-01-01T01:02:02.000Z</time>
      </trkpt>
      <trkpt lat="45.62223" lon="4.69008">
        <ele>327.8</ele>
        <time>1970-01-01T01:02:05.000Z</time>
      </trkpt>
      <trkpt lat="45.62224" lon="4.69005">
        <ele>327.8</ele>
        <time>1970-01-01T01:02:06.000Z</time>
      </trkpt>
      <trkpt lat="45.62228" lon="4.68995">
        <ele>328.2</ele>
        <time>1970-01-01T01:02:09.000Z</time>
      </trkpt>
      <trkpt lat="45.62229" lon="4.68991">
        <ele>328.2</ele>
        <time>1970-01-01T01:02:10.000Z</time>
      </trkpt>
      <trkpt lat="45.62229" lon="4.68988">
        <ele>328.4</ele>
        <time>1970-01-01T01:02:11.000Z</time>
      </trkpt>
      <trkpt lat="45.6223" lon="4.68984">
        <ele>328.4</ele>
        <time>1970-01-01T01:02:12.000Z</time>
      </trkpt>
      <trkpt lat="45.62231" lon="4.68969">
        <ele>328.6</ele>
        <time>1970-01-01T01:02:16.000Z</time>
      </trkpt>
      <trkpt lat="45.62231" lon="4.68965">
        <ele>328.6</ele>
        <time>1970-01-01T01:02:17.000Z</time>
      </trkpt>
      <trkpt lat="45.6223" lon="4.68953">
        <ele>329</ele>
        <time>1970-01-01T01:02:20.000Z</time>
      </trkpt>
      <trkpt lat="45.62228" lon="4.68939">
        <ele>329.4</ele>
        <time>1970-01-01T01:02:24.000Z</time>
      </trkpt>
      <trkpt lat="45.62226" lon="4.68928">
        <ele>330</ele>
        <time>1970-01-01T01:02:27.000Z</time>
      </trkpt>
      <trkpt lat="45.62225" lon="4.68924">
        <ele>330.2</ele>
        <time>1970-01-01T01:02:28.000Z</time>
      </trkpt>
      <trkpt lat="45.62223" lon="4.68916">
        <ele>330.4</ele>
        <time>1970-01-01T01:02:30.000Z</time>
      </trkpt>
      <trkpt lat="45.62221" lon="4.68907">
        <ele>330.6</ele>
        <time>1970-01-01T01:02:32.000Z</time>
      </trkpt>
      <trkpt lat="45.6222" lon="4.68903">
        <ele>330.6</ele>
        <time>1970-01-01T01:02:33.000Z</time>
      </trkpt>
      <trkpt lat="45.62214" lon="4.68876">
        <ele>330.6</ele>
        <time>1970-01-01T01:02:39.000Z</time>
      </trkpt>
      <trkpt lat="45.62213" lon="4.68871">
        <ele>330.6</ele>
        <time>1970-01-01T01:02:40.000Z</time>
      </trkpt>
      <trkpt lat="45.62209" lon="4.68851">
        <ele>330.6</ele>
        <time>1970-01-01T01:02:44.000Z</time>
      </trkpt>
      <trkpt lat="45.62205" lon="4.68832">
        <ele>330.8</ele>
        <time>1970-01-01T01:02:48.000Z</time>
      </trkpt>
      <trkpt lat="45.62201" lon="4.68811">
        <ele>331.2</ele>
        <time>1970-01-01T01:02:52.000Z</time>
      </trkpt>
      <trkpt lat="45.62199" lon="4.68801">
        <ele>331.2</ele>
        <time>1970-01-01T01:02:54.000Z</time>
      </trkpt>
      <trkpt lat="45.62197" lon="4.6879">
        <ele>331.4</ele>
        <time>1970-01-01T01:02:56.000Z</time>
      </trkpt>
      <trkpt lat="45.62196" lon="4.68785">
        <ele>331.4</ele>
        <time>1970-01-01T01:02:57.000Z</time>
      </trkpt>
      <trkpt lat="45.62196" lon="4.6878">
        <ele>331.4</ele>
        <time>1970-01-01T01:02:58.000Z</time>
      </trkpt>
      <trkpt lat="45.62195" lon="4.68775">
        <ele>331.4</ele>
        <time>1970-01-01T01:02:59.000Z</time>
      </trkpt>
      <trkpt lat="45.62194" lon="4.6877">
        <ele>331.6</ele>
        <time>1970-01-01T01:03:00.000Z</time>
      </trkpt>
      <trkpt lat="45.62194" lon="4.68765">
        <ele>331.6</ele>
        <time>1970-01-01T01:03:01.000Z</time>
      </trkpt>
      <trkpt lat="45.62193" lon="4.68759">
        <ele>331.6</ele>
        <time>1970-01-01T01:03:02.000Z</time>
      </trkpt>
      <trkpt lat="45.62193" lon="4.68754">
        <ele>331.6</ele>
        <time>1970-01-01T01:03:03.000Z</time>
      </trkpt>
      <trkpt lat="45.62192" lon="4.68743">
        <ele>331.8</ele>
        <time>1970-01-01T01:03:05.000Z</time>
      </trkpt>
      <trkpt lat="45.6219" lon="4.68727">
        <ele>332</ele>
        <time>1970-01-01T01:03:08.000Z</time>
      </trkpt>
      <trkpt lat="45.6219" lon="4.68716">
        <ele>332.2</ele>
        <time>1970-01-01T01:03:10.000Z</time>
      </trkpt>
      <trkpt lat="45.62189" lon="4.68697">
        <ele>332.4</ele>
        <time>1970-01-01T01:03:14.000Z</time>
      </trkpt>
      <trkpt lat="45.62193" lon="4.68684">
        <ele>332.6</ele>
        <time>1970-01-01T01:03:17.000Z</time>
      </trkpt>
      <trkpt lat="45.62197" lon="4.68675">
        <ele>332.6</ele>
        <time>1970-01-01T01:03:19.000Z</time>
      </trkpt>
      <trkpt lat="45.62204" lon="4.68663">
        <ele>332.8</ele>
        <time>1970-01-01T01:03:22.000Z</time>
      </trkpt>
      <trkpt lat="45.62212" lon="4.6864">
        <ele>333.2</ele>
        <time>1970-01-01T01:03:27.000Z</time>
      </trkpt>
      <trkpt lat="45.62214" lon="4.6863">
        <ele>333.2</ele>
        <time>1970-01-01T01:03:29.000Z</time>
      </trkpt>
      <trkpt lat="45.62215" lon="4.68605">
        <ele>333.6</ele>
        <time>1970-01-01T01:03:34.000Z</time>
      </trkpt>
      <trkpt lat="45.62209" lon="4.6858">
        <ele>334</ele>
        <time>1970-01-01T01:03:40.000Z</time>
      </trkpt>
      <trkpt lat="45.62202" lon="4.68569">
        <ele>334.4</ele>
        <time>1970-01-01T01:03:46.000Z</time>
      </trkpt>
      <trkpt lat="45.622" lon="4.68566">
        <ele>335.6</ele>
        <time>1970-01-01T01:03:52.000Z</time>
      </trkpt>
      <trkpt lat="45.62197" lon="4.68566">
        <ele>335.8</ele>
        <time>1970-01-01T01:03:54.000Z</time>
      </trkpt>
      <trkpt lat="45.62189" lon="4.6857">
        <ele>336</ele>
        <time>1970-01-01T01:03:59.000Z</time>
      </trkpt>
      <trkpt lat="45.62188" lon="4.68571">
        <ele>336.2</ele>
        <time>1970-01-01T01:04:03.000Z</time>
      </trkpt>
      <trkpt lat="45.62188" lon="4.68571">
        <ele>336.2</ele>
        <time>1970-01-01T01:04:04.000Z</time>
      </trkpt>
      <trkpt lat="45.62187" lon="4.6857">
        <ele>336.4</ele>
        <time>1970-01-01T01:04:05.000Z</time>
      </trkpt>
      <trkpt lat="45.62181" lon="4.68575">
        <ele>336.6</ele>
        <time>1970-01-01T01:04:09.000Z</time>
      </trkpt>
      <trkpt lat="45.62179" lon="4.68577">
        <ele>336.8</ele>
        <time>1970-01-01T01:04:10.000Z</time>
      </trkpt>
      <trkpt lat="45.62167" lon="4.68584">
        <ele>337</ele>
        <time>1970-01-01T01:04:15.000Z</time>
      </trkpt>
      <trkpt lat="45.62164" lon="4.68586">
        <ele>337.2</ele>
        <time>1970-01-01T01:04:16.000Z</time>
      </trkpt>
      <trkpt lat="45.62159" lon="4.68589">
        <ele>337.4</ele>
        <time>1970-01-01T01:04:18.000Z</time>
      </trkpt>
      <trkpt lat="45.62156" lon="4.68589">
        <ele>337.4</ele>
        <time>1970-01-01T01:04:19.000Z</time>
      </trkpt>
      <trkpt lat="45.62154" lon="4.68588">
        <ele>337.6</ele>
        <time>1970-01-01T01:04:20.000Z</time>
      </trkpt>
      <trkpt lat="45.62151" lon="4.68588">
        <ele>337.6</ele>
        <time>1970-01-01T01:04:21.000Z</time>
      </trkpt>
      <trkpt lat="45.62143" lon="4.68586">
        <ele>337.8</ele>
        <time>1970-01-01T01:04:24.000Z</time>
      </trkpt>
      <trkpt lat="45.62132" lon="4.68583">
        <ele>338</ele>
        <time>1970-01-01T01:04:28.000Z</time>
      </trkpt>
      <trkpt lat="45.62126" lon="4.68581">
        <ele>338.2</ele>
        <time>1970-01-01T01:04:30.000Z</time>
      </trkpt>
      <trkpt lat="45.62111" lon="4.68575">
        <ele>338.8</ele>
        <time>1970-01-01T01:04:36.000Z</time>
      </trkpt>
      <trkpt lat="45.62109" lon="4.68574">
        <ele>339</ele>
        <time>1970-01-01T01:04:37.000Z</time>
      </trkpt>
      <trkpt lat="45.62104" lon="4.68573">
        <ele>339</ele>
        <time>1970-01-01T01:04:39.000Z</time>
      </trkpt>
      <trkpt lat="45.62088" lon="4.68568">
        <ele>339.6</ele>
        <time>1970-01-01T01:04:46.000Z</time>
      </trkpt>
      <trkpt lat="45.62076" lon="4.68563">
        <ele>339.8</ele>
        <time>1970-01-01T01:04:52.000Z</time>
      </trkpt>
      <trkpt lat="45.62073" lon="4.68561">
        <ele>340</ele>
        <time>1970-01-01T01:04:53.000Z</time>
      </trkpt>
      <trkpt lat="45.62055" lon="4.68554">
        <ele>340.6</ele>
        <time>1970-01-01T01:05:01.000Z</time>
      </trkpt>
      <trkpt lat="45.62044" lon="4.68551">
        <ele>341</ele>
        <time>1970-01-01T01:05:06.000Z</time>
      </trkpt>
      <trkpt lat="45.6204" lon="4.68549">
        <ele>341</ele>
        <time>1970-01-01T01:05:08.000Z</time>
      </trkpt>
      <trkpt lat="45.62028" lon="4.68544">
        <ele>342.2</ele>
        <time>1970-01-01T01:05:14.000Z</time>
      </trkpt>
      <trkpt lat="45.62027" lon="4.68544">
        <ele>342.2</ele>
        <time>1970-01-01T01:05:15.000Z</time>
      </trkpt>
      <trkpt lat="45.62019" lon="4.68541">
        <ele>342.6</ele>
        <time>1970-01-01T01:05:19.000Z</time>
      </trkpt>
      <trkpt lat="45.62014" lon="4.6854">
        <ele>343</ele>
        <time>1970-01-01T01:05:22.000Z</time>
      </trkpt>
      <trkpt lat="45.62012" lon="4.68539">
        <ele>343.2</ele>
        <time>1970-01-01T01:05:23.000Z</time>
      </trkpt>
      <trkpt lat="45.62" lon="4.68534">
        <ele>344</ele>
        <time>1970-01-01T01:05:31.000Z</time>
      </trkpt>
      <trkpt lat="45.61997" lon="4.68533">
        <ele>344.4</ele>
        <time>1970-01-01T01:05:33.000Z</time>
      </trkpt>
      <trkpt lat="45.61993" lon="4.68531">
        <ele>344.8</ele>
        <time>1970-01-01T01:05:36.000Z</time>
      </trkpt>
      <trkpt lat="45.61989" lon="4.68529">
        <ele>345.4</ele>
        <time>1970-01-01T01:05:39.000Z</time>
      </trkpt>
      <trkpt lat="45.61986" lon="4.68528">
        <ele>345.8</ele>
        <time>1970-01-01T01:05:41.000Z</time>
      </trkpt>
      <trkpt lat="45.61983" lon="4.68527">
        <ele>346.2</ele>
        <time>1970-01-01T01:05:43.000Z</time>
      </trkpt>
      <trkpt lat="45.61977" lon="4.68521">
        <ele>346.4</ele>
        <time>1970-01-01T01:05:47.000Z</time>
      </trkpt>
      <trkpt lat="45.61975" lon="4.68519">
        <ele>347</ele>
        <time>1970-01-01T01:05:49.000Z</time>
      </trkpt>
      <trkpt lat="45.61969" lon="4.68518">
        <ele>347.6</ele>
        <time>1970-01-01T01:05:53.000Z</time>
      </trkpt>
      <trkpt lat="45.61964" lon="4.68518">
        <ele>348</ele>
        <time>1970-01-01T01:05:56.000Z</time>
      </trkpt>
      <trkpt lat="45.61958" lon="4.68518">
        <ele>348.4</ele>
        <time>1970-01-01T01:05:59.000Z</time>
      </trkpt>
      <trkpt lat="45.61955" lon="4.68518">
        <ele>348.6</ele>
        <time>1970-01-01T01:06:01.000Z</time>
      </trkpt>
      <trkpt lat="45.61952" lon="4.68519">
        <ele>348.8</ele>
        <time>1970-01-01T01:06:03.000Z</time>
      </trkpt>
      <trkpt lat="45.61948" lon="4.68521">
        <ele>349</ele>
        <time>1970-01-01T01:06:05.000Z</time>
      </trkpt>
      <trkpt lat="45.61942" lon="4.68526">
        <ele>349.6</ele>
        <time>1970-01-01T01:06:09.000Z</time>
      </trkpt>
      <trkpt lat="45.6194" lon="4.68528">
        <ele>349.8</ele>
        <time>1970-01-01T01:06:10.000Z</time>
      </trkpt>
      <trkpt lat="45.61937" lon="4.68533">
        <ele>350.2</ele>
        <time>1970-01-01T01:06:12.000Z</time>
      </trkpt>
      <trkpt lat="45.61931" lon="4.6854">
        <ele>350.8</ele>
        <time>1970-01-01T01:06:16.000Z</time>
      </trkpt>
      <trkpt lat="45.61927" lon="4.68542">
        <ele>351.2</ele>
        <time>1970-01-01T01:06:18.000Z</time>
      </trkpt>
      <trkpt lat="45.61923" lon="4.68543">
        <ele>351.4</ele>
        <time>1970-01-01T01:06:20.000Z</time>
      </trkpt>
      <trkpt lat="45.61919" lon="4.68543">
        <ele>351.6</ele>
        <time>1970-01-01T01:06:22.000Z</time>
      </trkpt>
      <trkpt lat="45.61915" lon="4.68544">
        <ele>351.8</ele>
        <time>1970-01-01T01:06:24.000Z</time>
      </trkpt>
      <trkpt lat="45.6191" lon="4.68544">
        <ele>352</ele>
        <time>1970-01-01T01:06:27.000Z</time>
      </trkpt>
      <trkpt lat="45.61901" lon="4.68541">
        <ele>352.8</ele>
        <time>1970-01-01T01:06:33.000Z</time>
      </trkpt>
      <trkpt lat="45.619" lon="4.68539">
        <ele>353</ele>
        <time>1970-01-01T01:06:34.000Z</time>
      </trkpt>
      <trkpt lat="45.619" lon="4.68531">
        <ele>353.6</ele>
        <time>1970-01-01T01:06:37.000Z</time>
      </trkpt>
      <trkpt lat="45.619" lon="4.68527">
        <ele>353.8</ele>
        <time>1970-01-01T01:06:38.000Z</time>
      </trkpt>
      <trkpt lat="45.61901" lon="4.68524">
        <ele>354</ele>
        <time>1970-01-01T01:06:39.000Z</time>
      </trkpt>
      <trkpt lat="45.61901" lon="4.68521">
        <ele>354.2</ele>
        <time>1970-01-01T01:06:40.000Z</time>
      </trkpt>
      <trkpt lat="45.61902" lon="4.68482">
        <ele>355</ele>
        <time>1970-01-01T01:06:49.000Z</time>
      </trkpt>
      <trkpt lat="45.61903" lon="4.68465">
        <ele>355.2</ele>
        <time>1970-01-01T01:06:53.000Z</time>
      </trkpt>
      <trkpt lat="45.61904" lon="4.68452">
        <ele>356</ele>
        <time>1970-01-01T01:06:57.000Z</time>
      </trkpt>
      <trkpt lat="45.61904" lon="4.68448">
        <ele>356.2</ele>
        <time>1970-01-01T01:06:59.000Z</time>
      </trkpt>
      <trkpt lat="45.61905" lon="4.6844">
        <ele>357</ele>
        <time>1970-01-01T01:07:04.000Z</time>
      </trkpt>
      <trkpt lat="45.61905" lon="4.68437">
        <ele>357.2</ele>
        <time>1970-01-01T01:07:05.000Z</time>
      </trkpt>
      <trkpt lat="45.61903" lon="4.68433">
        <ele>357.6</ele>
        <time>1970-01-01T01:07:07.000Z</time>
      </trkpt>
      <trkpt lat="45.61899" lon="4.68429">
        <ele>357.6</ele>
        <time>1970-01-01T01:07:09.000Z</time>
      </trkpt>
      <trkpt lat="45.61892" lon="4.68427">
        <ele>357.8</ele>
        <time>1970-01-01T01:07:13.000Z</time>
      </trkpt>
      <trkpt lat="45.6189" lon="4.68427">
        <ele>358</ele>
        <time>1970-01-01T01:07:14.000Z</time>
      </trkpt>
      <trkpt lat="45.61887" lon="4.68425">
        <ele>358</ele>
        <time>1970-01-01T01:07:16.000Z</time>
      </trkpt>
      <trkpt lat="45.61883" lon="4.68424">
        <ele>358.6</ele>
        <time>1970-01-01T01:07:18.000Z</time>
      </trkpt>
      <trkpt lat="45.61878" lon="4.68423">
        <ele>359.6</ele>
        <time>1970-01-01T01:07:21.000Z</time>
      </trkpt>
      <trkpt lat="45.61875" lon="4.68422">
        <ele>360</ele>
        <time>1970-01-01T01:07:23.000Z</time>
      </trkpt>
      <trkpt lat="45.61874" lon="4.68421">
        <ele>360.4</ele>
        <time>1970-01-01T01:07:24.000Z</time>
      </trkpt>
      <trkpt lat="45.61873" lon="4.68422">
        <ele>360.6</ele>
        <time>1970-01-01T01:07:25.000Z</time>
      </trkpt>
      <trkpt lat="45.6187" lon="4.68428">
        <ele>361.4</ele>
        <time>1970-01-01T01:07:28.000Z</time>
      </trkpt>
      <trkpt lat="45.61869" lon="4.68435">
        <ele>361.8</ele>
        <time>1970-01-01T01:07:30.000Z</time>
      </trkpt>
      <trkpt lat="45.61867" lon="4.68441">
        <ele>362.2</ele>
        <time>1970-01-01T01:07:32.000Z</time>
      </trkpt>
      <trkpt lat="45.61866" lon="4.68445">
        <ele>362.8</ele>
        <time>1970-01-01T01:07:34.000Z</time>
      </trkpt>
      <trkpt lat="45.61861" lon="4.6846">
        <ele>363.2</ele>
        <time>1970-01-01T01:07:39.000Z</time>
      </trkpt>
      <trkpt lat="45.61855" lon="4.68474">
        <ele>363.2</ele>
        <time>1970-01-01T01:07:44.000Z</time>
      </trkpt>
      <trkpt lat="45.6185" lon="4.68485">
        <ele>363.8</ele>
        <time>1970-01-01T01:07:48.000Z</time>
      </trkpt>
      <trkpt lat="45.61847" lon="4.68491">
        <ele>364.4</ele>
        <time>1970-01-01T01:07:51.000Z</time>
      </trkpt>
      <trkpt lat="45.61844" lon="4.68497">
        <ele>364.4</ele>
        <time>1970-01-01T01:07:54.000Z</time>
      </trkpt>
      <trkpt lat="45.61841" lon="4.68503">
        <ele>364.4</ele>
        <time>1970-01-01T01:07:56.000Z</time>
      </trkpt>
      <trkpt lat="45.61829" lon="4.6852">
        <ele>364.8</ele>
        <time>1970-01-01T01:08:03.000Z</time>
      </trkpt>
      <trkpt lat="45.61816" lon="4.68526">
        <ele>364.8</ele>
        <time>1970-01-01T01:08:09.000Z</time>
      </trkpt>
      <trkpt lat="45.61804" lon="4.68528">
        <ele>365.2</ele>
        <time>1970-01-01T01:08:16.000Z</time>
      </trkpt>
      <trkpt lat="45.61795" lon="4.68533">
        <ele>366</ele>
        <time>1970-01-01T01:08:22.000Z</time>
      </trkpt>
      <trkpt lat="45.61792" lon="4.68534">
        <ele>366.4</ele>
        <time>1970-01-01T01:08:24.000Z</time>
      </trkpt>
      <trkpt lat="45.61787" lon="4.68538">
        <ele>367</ele>
        <time>1970-01-01T01:08:27.000Z</time>
      </trkpt>
      <trkpt lat="45.61779" lon="4.68545">
        <ele>367.8</ele>
        <time>1970-01-01T01:08:33.000Z</time>
      </trkpt>
      <trkpt lat="45.61772" lon="4.68549">
        <ele>368.4</ele>
        <time>1970-01-01T01:08:37.000Z</time>
      </trkpt>
      <trkpt lat="45.61765" lon="4.68553">
        <ele>369</ele>
        <time>1970-01-01T01:08:41.000Z</time>
      </trkpt>
      <trkpt lat="45.61757" lon="4.68557">
        <ele>369.2</ele>
        <time>1970-01-01T01:08:46.000Z</time>
      </trkpt>
      <trkpt lat="45.61755" lon="4.68557">
        <ele>369.6</ele>
        <time>1970-01-01T01:08:47.000Z</time>
      </trkpt>
      <trkpt lat="45.6175" lon="4.6856">
        <ele>369.8</ele>
        <time>1970-01-01T01:08:50.000Z</time>
      </trkpt>
      <trkpt lat="45.61749" lon="4.6856">
        <ele>369.8</ele>
        <time>1970-01-01T01:08:51.000Z</time>
      </trkpt>
      <trkpt lat="45.6174" lon="4.68565">
        <ele>370.4</ele>
        <time>1970-01-01T01:08:56.000Z</time>
      </trkpt>
      <trkpt lat="45.61738" lon="4.68566">
        <ele>370.8</ele>
        <time>1970-01-01T01:08:57.000Z</time>
      </trkpt>
      <trkpt lat="45.61727" lon="4.68569">
        <ele>371.6</ele>
        <time>1970-01-01T01:09:03.000Z</time>
      </trkpt>
      <trkpt lat="45.61726" lon="4.68569">
        <ele>371.8</ele>
        <time>1970-01-01T01:09:04.000Z</time>
      </trkpt>
      <trkpt lat="45.6172" lon="4.68569">
        <ele>372</ele>
        <time>1970-01-01T01:09:08.000Z</time>
      </trkpt>
      <trkpt lat="45.61716" lon="4.68569">
        <ele>372.6</ele>
        <time>1970-01-01T01:09:11.000Z</time>
      </trkpt>
      <trkpt lat="45.61714" lon="4.68569">
        <ele>372.8</ele>
        <time>1970-01-01T01:09:12.000Z</time>
      </trkpt>
      <trkpt lat="45.61701" lon="4.6857">
        <ele>373.6</ele>
        <time>1970-01-01T01:09:18.000Z</time>
      </trkpt>
      <trkpt lat="45.61698" lon="4.68571">
        <ele>373.8</ele>
        <time>1970-01-01T01:09:19.000Z</time>
      </trkpt>
      <trkpt lat="45.61686" lon="4.68571">
        <ele>374.6</ele>
        <time>1970-01-01T01:09:24.000Z</time>
      </trkpt>
      <trkpt lat="45.61681" lon="4.68571">
        <ele>375</ele>
        <time>1970-01-01T01:09:26.000Z</time>
      </trkpt>
      <trkpt lat="45.61675" lon="4.68571">
        <ele>375.6</ele>
        <time>1970-01-01T01:09:29.000Z</time>
      </trkpt>
      <trkpt lat="45.61666" lon="4.6857">
        <ele>376</ele>
        <time>1970-01-01T01:09:32.000Z</time>
      </trkpt>
      <trkpt lat="45.61664" lon="4.6857">
        <ele>376.2</ele>
        <time>1970-01-01T01:09:33.000Z</time>
      </trkpt>
      <trkpt lat="45.61654" lon="4.68568">
        <ele>376.8</ele>
        <time>1970-01-01T01:09:37.000Z</time>
      </trkpt>
      <trkpt lat="45.61649" lon="4.68566">
        <ele>377.2</ele>
        <time>1970-01-01T01:09:39.000Z</time>
      </trkpt>
      <trkpt lat="45.61647" lon="4.68566">
        <ele>377.2</ele>
        <time>1970-01-01T01:09:40.000Z</time>
      </trkpt>
      <trkpt lat="45.61645" lon="4.68565">
        <ele>377.4</ele>
        <time>1970-01-01T01:09:41.000Z</time>
      </trkpt>
      <trkpt lat="45.61633" lon="4.6856">
        <ele>377.8</ele>
        <time>1970-01-01T01:09:46.000Z</time>
      </trkpt>
      <trkpt lat="45.61625" lon="4.68554">
        <ele>378.2</ele>
        <time>1970-01-01T01:09:49.000Z</time>
      </trkpt>
      <trkpt lat="45.61617" lon="4.68545">
        <ele>378.2</ele>
        <time>1970-01-01T01:09:52.000Z</time>
      </trkpt>
      <trkpt lat="45.61597" lon="4.68521">
        <ele>378.6</ele>
        <time>1970-01-01T01:10:00.000Z</time>
      </trkpt>
      <trkpt lat="45.61582" lon="4.68505">
        <ele>378.8</ele>
        <time>1970-01-01T01:10:05.000Z</time>
      </trkpt>
      <trkpt lat="45.61577" lon="4.68498">
        <ele>378.8</ele>
        <time>1970-01-01T01:10:07.000Z</time>
      </trkpt>
      <trkpt lat="45.61571" lon="4.6849">
        <ele>378.8</ele>
        <time>1970-01-01T01:10:11.000Z</time>
      </trkpt>
      <trkpt lat="45.6157" lon="4.68489">
        <ele>378.8</ele>
        <time>1970-01-01T01:10:17.000Z</time>
      </trkpt>
      <trkpt lat="45.6157" lon="4.68489">
        <ele>379</ele>
        <time>1970-01-01T01:10:22.000Z</time>
      </trkpt>
      <trkpt lat="45.6157" lon="4.68488">
        <ele>379</ele>
        <time>1970-01-01T01:10:26.000Z</time>
      </trkpt>
      <trkpt lat="45.6157" lon="4.68488">
        <ele>379</ele>
        <time>1970-01-01T01:10:30.000Z</time>
      </trkpt>
      <trkpt lat="45.6157" lon="4.68488">
        <ele>379</ele>
        <time>1970-01-01T01:10:33.000Z</time>
      </trkpt>
      <trkpt lat="45.6157" lon="4.68488">
        <ele>379</ele>
        <time>1970-01-01T01:10:48.000Z</time>
      </trkpt>
      <trkpt lat="45.6157" lon="4.68488">
        <ele>379</ele>
        <time>1970-01-01T01:10:51.000Z</time>
      </trkpt>
      <trkpt lat="45.6157" lon="4.68488">
        <ele>379</ele>
        <time>1970-01-01T01:10:52.000Z</time>
      </trkpt>
      <trkpt lat="45.6157" lon="4.68488">
        <ele>379</ele>
        <time>1970-01-01T01:11:03.000Z</time>
      </trkpt>
      <trkpt lat="45.6157" lon="4.68488">
        <ele>379</ele>
        <time>1970-01-01T01:11:05.000Z</time>
      </trkpt>
      <trkpt lat="45.6157" lon="4.68488">
        <ele>378.8</ele>
        <time>1970-01-01T01:11:34.000Z</time>
      </trkpt>
      <trkpt lat="45.6157" lon="4.68488">
        <ele>378.8</ele>
        <time>1970-01-01T01:11:36.000Z</time>
      </trkpt>
      <trkpt lat="45.6157" lon="4.68488">
        <ele>378.8</ele>
        <time>1970-01-01T01:11:40.000Z</time>
      </trkpt>
      <trkpt lat="45.6157" lon="4.68488">
        <ele>379</ele>
        <time>1970-01-01T01:12:03.000Z</time>
      </trkpt>
      <trkpt lat="45.6157" lon="4.68488">
        <ele>379</ele>
        <time>1970-01-01T01:12:11.000Z</time>
      </trkpt>
      <trkpt lat="45.61569" lon="4.68488">
        <ele>379</ele>
        <time>1970-01-01T01:12:13.000Z</time>
      </trkpt>
      <trkpt lat="45.61566" lon="4.68489">
        <ele>379</ele>
        <time>1970-01-01T01:12:15.000Z</time>
      </trkpt>
      <trkpt lat="45.61554" lon="4.68502">
        <ele>378.8</ele>
        <time>1970-01-01T01:12:19.000Z</time>
      </trkpt>
      <trkpt lat="45.61542" lon="4.68517">
        <ele>378.6</ele>
        <time>1970-01-01T01:12:22.000Z</time>
      </trkpt>
      <trkpt lat="45.6153" lon="4.68533">
        <ele>378</ele>
        <time>1970-01-01T01:12:25.000Z</time>
      </trkpt>
      <trkpt lat="45.61522" lon="4.68544">
        <ele>377.2</ele>
        <time>1970-01-01T01:12:27.000Z</time>
      </trkpt>
      <trkpt lat="45.61507" lon="4.68561">
        <ele>376.2</ele>
        <time>1970-01-01T01:12:30.000Z</time>
      </trkpt>
      <trkpt lat="45.61502" lon="4.68567">
        <ele>375.6</ele>
        <time>1970-01-01T01:12:31.000Z</time>
      </trkpt>
      <trkpt lat="45.61498" lon="4.68573">
        <ele>375</ele>
        <time>1970-01-01T01:12:32.000Z</time>
      </trkpt>
      <trkpt lat="45.61494" lon="4.6858">
        <ele>374.6</ele>
        <time>1970-01-01T01:12:33.000Z</time>
      </trkpt>
      <trkpt lat="45.61491" lon="4.68592">
        <ele>373.6</ele>
        <time>1970-01-01T01:12:35.000Z</time>
      </trkpt>
      <trkpt lat="45.61494" lon="4.68606">
        <ele>372</ele>
        <time>1970-01-01T01:12:37.000Z</time>
      </trkpt>
      <trkpt lat="45.61496" lon="4.68613">
        <ele>371.4</ele>
        <time>1970-01-01T01:12:38.000Z</time>
      </trkpt>
      <trkpt lat="45.61497" lon="4.6862">
        <ele>370.8</ele>
        <time>1970-01-01T01:12:39.000Z</time>
      </trkpt>
      <trkpt lat="45.61495" lon="4.68628">
        <ele>370.2</ele>
        <time>1970-01-01T01:12:40.000Z</time>
      </trkpt>
      <trkpt lat="45.61491" lon="4.68635">
        <ele>369.4</ele>
        <time>1970-01-01T01:12:41.000Z</time>
      </trkpt>
      <trkpt lat="45.61486" lon="4.68641">
        <ele>368.6</ele>
        <time>1970-01-01T01:12:42.000Z</time>
      </trkpt>
      <trkpt lat="45.61481" lon="4.68647">
        <ele>368.2</ele>
        <time>1970-01-01T01:12:43.000Z</time>
      </trkpt>
      <trkpt lat="45.61477" lon="4.68653">
        <ele>366.8</ele>
        <time>1970-01-01T01:12:44.000Z</time>
      </trkpt>
      <trkpt lat="45.6147" lon="4.68662">
        <ele>366</ele>
        <time>1970-01-01T01:12:46.000Z</time>
      </trkpt>
      <trkpt lat="45.61468" lon="4.68665">
        <ele>365.6</ele>
        <time>1970-01-01T01:12:47.000Z</time>
      </trkpt>
      <trkpt lat="45.61463" lon="4.68672">
        <ele>364.4</ele>
        <time>1970-01-01T01:12:49.000Z</time>
      </trkpt>
      <trkpt lat="45.61461" lon="4.68677">
        <ele>362.8</ele>
        <time>1970-01-01T01:12:51.000Z</time>
      </trkpt>
      <trkpt lat="45.61457" lon="4.68684">
        <ele>362.2</ele>
        <time>1970-01-01T01:12:53.000Z</time>
      </trkpt>
      <trkpt lat="45.61456" lon="4.68689">
        <ele>361.8</ele>
        <time>1970-01-01T01:12:54.000Z</time>
      </trkpt>
      <trkpt lat="45.61451" lon="4.68698">
        <ele>361.2</ele>
        <time>1970-01-01T01:12:56.000Z</time>
      </trkpt>
      <trkpt lat="45.61447" lon="4.68708">
        <ele>360.6</ele>
        <time>1970-01-01T01:12:58.000Z</time>
      </trkpt>
      <trkpt lat="45.61437" lon="4.68726">
        <ele>359.8</ele>
        <time>1970-01-01T01:13:01.000Z</time>
      </trkpt>
      <trkpt lat="45.61432" lon="4.68732">
        <ele>359.6</ele>
        <time>1970-01-01T01:13:02.000Z</time>
      </trkpt>
      <trkpt lat="45.61416" lon="4.68754">
        <ele>358.2</ele>
        <time>1970-01-01T01:13:06.000Z</time>
      </trkpt>
      <trkpt lat="45.61412" lon="4.68758">
        <ele>357.8</ele>
        <time>1970-01-01T01:13:07.000Z</time>
      </trkpt>
      <trkpt lat="45.61402" lon="4.68759">
        <ele>357.2</ele>
        <time>1970-01-01T01:13:09.000Z</time>
      </trkpt>
      <trkpt lat="45.61397" lon="4.68756">
        <ele>356.6</ele>
        <time>1970-01-01T01:13:10.000Z</time>
      </trkpt>
      <trkpt lat="45.61392" lon="4.68752">
        <ele>355.8</ele>
        <time>1970-01-01T01:13:11.000Z</time>
      </trkpt>
      <trkpt lat="45.61387" lon="4.68749">
        <ele>354.4</ele>
        <time>1970-01-01T01:13:12.000Z</time>
      </trkpt>
      <trkpt lat="45.61382" lon="4.68745">
        <ele>353.8</ele>
        <time>1970-01-01T01:13:13.000Z</time>
      </trkpt>
      <trkpt lat="45.61376" lon="4.6874">
        <ele>353.2</ele>
        <time>1970-01-01T01:13:14.000Z</time>
      </trkpt>
      <trkpt lat="45.61364" lon="4.68731">
        <ele>351.8</ele>
        <time>1970-01-01T01:13:16.000Z</time>
      </trkpt>
      <trkpt lat="45.61352" lon="4.6872">
        <ele>350.6</ele>
        <time>1970-01-01T01:13:18.000Z</time>
      </trkpt>
      <trkpt lat="45.61332" lon="4.68702">
        <ele>349.4</ele>
        <time>1970-01-01T01:13:21.000Z</time>
      </trkpt>
      <trkpt lat="45.61319" lon="4.6869">
        <ele>348.6</ele>
        <time>1970-01-01T01:13:23.000Z</time>
      </trkpt>
      <trkpt lat="45.61312" lon="4.68683">
        <ele>348.2</ele>
        <time>1970-01-01T01:13:24.000Z</time>
      </trkpt>
      <trkpt lat="45.61306" lon="4.68677">
        <ele>348</ele>
        <time>1970-01-01T01:13:25.000Z</time>
      </trkpt>
      <trkpt lat="45.61292" lon="4.68664">
        <ele>347.2</ele>
        <time>1970-01-01T01:13:27.000Z</time>
      </trkpt>
      <trkpt lat="45.61271" lon="4.68642">
        <ele>346</ele>
        <time>1970-01-01T01:13:30.000Z</time>
      </trkpt>
      <trkpt lat="45.61264" lon="4.68635">
        <ele>345.6</ele>
        <time>1970-01-01T01:13:31.000Z</time>
      </trkpt>
      <trkpt lat="45.61247" lon="4.68625">
        <ele>345</ele>
        <time>1970-01-01T01:13:33.000Z</time>
      </trkpt>
      <trkpt lat="45.61229" lon="4.68618">
        <ele>343.8</ele>
        <time>1970-01-01T01:13:35.000Z</time>
      </trkpt>
      <trkpt lat="45.61197" lon="4.68606">
        <ele>342.2</ele>
        <time>1970-01-01T01:13:39.000Z</time>
      </trkpt>
      <trkpt lat="45.6119" lon="4.68608">
        <ele>341.6</ele>
        <time>1970-01-01T01:13:40.000Z</time>
      </trkpt>
      <trkpt lat="45.61183" lon="4.68611">
        <ele>340.6</ele>
        <time>1970-01-01T01:13:41.000Z</time>
      </trkpt>
      <trkpt lat="45.61176" lon="4.68617">
        <ele>340.2</ele>
        <time>1970-01-01T01:13:42.000Z</time>
      </trkpt>
      <trkpt lat="45.61169" lon="4.68622">
        <ele>339.6</ele>
        <time>1970-01-01T01:13:43.000Z</time>
      </trkpt>
      <trkpt lat="45.61139" lon="4.68646">
        <ele>338.6</ele>
        <time>1970-01-01T01:13:47.000Z</time>
      </trkpt>
      <trkpt lat="45.61132" lon="4.68653">
        <ele>337.8</ele>
        <time>1970-01-01T01:13:48.000Z</time>
      </trkpt>
      <trkpt lat="45.61125" lon="4.68662">
        <ele>337</ele>
        <time>1970-01-01T01:13:49.000Z</time>
      </trkpt>
      <trkpt lat="45.61119" lon="4.68671">
        <ele>336.2</ele>
        <time>1970-01-01T01:13:50.000Z</time>
      </trkpt>
      <trkpt lat="45.61115" lon="4.68683">
        <ele>335.6</ele>
        <time>1970-01-01T01:13:51.000Z</time>
      </trkpt>
      <trkpt lat="45.61112" lon="4.68695">
        <ele>335.2</ele>
        <time>1970-01-01T01:13:52.000Z</time>
      </trkpt>
      <trkpt lat="45.61107" lon="4.6872">
        <ele>334.2</ele>
        <time>1970-01-01T01:13:54.000Z</time>
      </trkpt>
      <trkpt lat="45.61106" lon="4.68733">
        <ele>333.6</ele>
        <time>1970-01-01T01:13:55.000Z</time>
      </trkpt>
      <trkpt lat="45.61105" lon="4.68746">
        <ele>333.2</ele>
        <time>1970-01-01T01:13:56.000Z</time>
      </trkpt>
      <trkpt lat="45.61103" lon="4.68759">
        <ele>332.6</ele>
        <time>1970-01-01T01:13:57.000Z</time>
      </trkpt>
      <trkpt lat="45.61101" lon="4.68784">
        <ele>331</ele>
        <time>1970-01-01T01:13:59.000Z</time>
      </trkpt>
      <trkpt lat="45.61099" lon="4.68808">
        <ele>329.6</ele>
        <time>1970-01-01T01:14:01.000Z</time>
      </trkpt>
      <trkpt lat="45.61098" lon="4.6882">
        <ele>329.2</ele>
        <time>1970-01-01T01:14:02.000Z</time>
      </trkpt>
      <trkpt lat="45.61097" lon="4.68831">
        <ele>328.6</ele>
        <time>1970-01-01T01:14:03.000Z</time>
      </trkpt>
      <trkpt lat="45.61091" lon="4.68863">
        <ele>327.6</ele>
        <time>1970-01-01T01:14:06.000Z</time>
      </trkpt>
      <trkpt lat="45.61088" lon="4.68872">
        <ele>327.4</ele>
        <time>1970-01-01T01:14:07.000Z</time>
      </trkpt>
      <trkpt lat="45.61072" lon="4.68925">
        <ele>326.8</ele>
        <time>1970-01-01T01:14:13.000Z</time>
      </trkpt>
      <trkpt lat="45.61061" lon="4.68967">
        <ele>326.6</ele>
        <time>1970-01-01T01:14:18.000Z</time>
      </trkpt>
      <trkpt lat="45.61052" lon="4.69041">
        <ele>326.4</ele>
        <time>1970-01-01T01:14:26.000Z</time>
      </trkpt>
      <trkpt lat="45.61051" lon="4.6906">
        <ele>326.2</ele>
        <time>1970-01-01T01:14:28.000Z</time>
      </trkpt>
      <trkpt lat="45.61049" lon="4.69079">
        <ele>326</ele>
        <time>1970-01-01T01:14:30.000Z</time>
      </trkpt>
      <trkpt lat="45.61045" lon="4.69096">
        <ele>325.6</ele>
        <time>1970-01-01T01:14:32.000Z</time>
      </trkpt>
      <trkpt lat="45.61038" lon="4.69111">
        <ele>325.4</ele>
        <time>1970-01-01T01:14:34.000Z</time>
      </trkpt>
      <trkpt lat="45.61035" lon="4.69117">
        <ele>325.2</ele>
        <time>1970-01-01T01:14:35.000Z</time>
      </trkpt>
      <trkpt lat="45.61032" lon="4.69122">
        <ele>325</ele>
        <time>1970-01-01T01:14:36.000Z</time>
      </trkpt>
      <trkpt lat="45.61028" lon="4.69127">
        <ele>324.6</ele>
        <time>1970-01-01T01:14:37.000Z</time>
      </trkpt>
      <trkpt lat="45.61017" lon="4.69131">
        <ele>324.2</ele>
        <time>1970-01-01T01:14:40.000Z</time>
      </trkpt>
      <trkpt lat="45.60989" lon="4.69134">
        <ele>323.8</ele>
        <time>1970-01-01T01:14:46.000Z</time>
      </trkpt>
      <trkpt lat="45.60984" lon="4.69134">
        <ele>323.6</ele>
        <time>1970-01-01T01:14:47.000Z</time>
      </trkpt>
      <trkpt lat="45.60943" lon="4.69136">
        <ele>322.6</ele>
        <time>1970-01-01T01:14:54.000Z</time>
      </trkpt>
      <trkpt lat="45.60931" lon="4.69136">
        <ele>322.2</ele>
        <time>1970-01-01T01:14:56.000Z</time>
      </trkpt>
      <trkpt lat="45.60901" lon="4.69134">
        <ele>321.8</ele>
        <time>1970-01-01T01:15:01.000Z</time>
      </trkpt>
      <trkpt lat="45.60889" lon="4.69132">
        <ele>321.2</ele>
        <time>1970-01-01T01:15:03.000Z</time>
      </trkpt>
      <trkpt lat="45.60883" lon="4.69132">
        <ele>320.8</ele>
        <time>1970-01-01T01:15:04.000Z</time>
      </trkpt>
      <trkpt lat="45.60866" lon="4.69132">
        <ele>319.4</ele>
        <time>1970-01-01T01:15:07.000Z</time>
      </trkpt>
      <trkpt lat="45.60849" lon="4.69132">
        <ele>318.6</ele>
        <time>1970-01-01T01:15:10.000Z</time>
      </trkpt>
      <trkpt lat="45.60844" lon="4.69132">
        <ele>318.4</ele>
        <time>1970-01-01T01:15:11.000Z</time>
      </trkpt>
      <trkpt lat="45.6084" lon="4.6913">
        <ele>318.2</ele>
        <time>1970-01-01T01:15:12.000Z</time>
      </trkpt>
      <trkpt lat="45.60837" lon="4.69128">
        <ele>318</ele>
        <time>1970-01-01T01:15:13.000Z</time>
      </trkpt>
      <trkpt lat="45.60832" lon="4.69126">
        <ele>317.8</ele>
        <time>1970-01-01T01:15:15.000Z</time>
      </trkpt>
      <trkpt lat="45.60829" lon="4.69124">
        <ele>317.4</ele>
        <time>1970-01-01T01:15:18.000Z</time>
      </trkpt>
      <trkpt lat="45.60829" lon="4.69124">
        <ele>317.4</ele>
        <time>1970-01-01T01:15:23.000Z</time>
      </trkpt>
      <trkpt lat="45.60829" lon="4.69124">
        <ele>317.4</ele>
        <time>1970-01-01T01:15:29.000Z</time>
      </trkpt>
      <trkpt lat="45.60829" lon="4.69123">
        <ele>317.4</ele>
        <time>1970-01-01T01:15:36.000Z</time>
      </trkpt>
      <trkpt lat="45.60828" lon="4.69124">
        <ele>317.4</ele>
        <time>1970-01-01T01:15:38.000Z</time>
      </trkpt>
      <trkpt lat="45.60828" lon="4.69123">
        <ele>317.4</ele>
        <time>1970-01-01T01:15:40.000Z</time>
      </trkpt>
      <trkpt lat="45.60829" lon="4.69123">
        <ele>317.4</ele>
        <time>1970-01-01T01:15:44.000Z</time>
      </trkpt>
      <trkpt lat="45.60828" lon="4.69123">
        <ele>317.4</ele>
        <time>1970-01-01T01:15:46.000Z</time>
      </trkpt>
      <trkpt lat="45.60826" lon="4.69122">
        <ele>317.4</ele>
        <time>1970-01-01T01:15:48.000Z</time>
      </trkpt>
      <trkpt lat="45.60825" lon="4.69121">
        <ele>317.4</ele>
        <time>1970-01-01T01:15:49.000Z</time>
      </trkpt>
      <trkpt lat="45.60823" lon="4.6912">
        <ele>317.4</ele>
        <time>1970-01-01T01:15:50.000Z</time>
      </trkpt>
      <trkpt lat="45.60817" lon="4.69118">
        <ele>317.4</ele>
        <time>1970-01-01T01:15:52.000Z</time>
      </trkpt>
      <trkpt lat="45.60811" lon="4.69115">
        <ele>317.4</ele>
        <time>1970-01-01T01:15:54.000Z</time>
      </trkpt>
      <trkpt lat="45.60802" lon="4.6911">
        <ele>317.2</ele>
        <time>1970-01-01T01:15:56.000Z</time>
      </trkpt>
      <trkpt lat="45.60791" lon="4.69103">
        <ele>317</ele>
        <time>1970-01-01T01:15:58.000Z</time>
      </trkpt>
      <trkpt lat="45.60779" lon="4.69096">
        <ele>316.8</ele>
        <time>1970-01-01T01:16:00.000Z</time>
      </trkpt>
      <trkpt lat="45.60772" lon="4.69092">
        <ele>316.6</ele>
        <time>1970-01-01T01:16:01.000Z</time>
      </trkpt>
      <trkpt lat="45.60765" lon="4.69088">
        <ele>316</ele>
        <time>1970-01-01T01:16:02.000Z</time>
      </trkpt>
      <trkpt lat="45.60758" lon="4.69084">
        <ele>315.4</ele>
        <time>1970-01-01T01:16:03.000Z</time>
      </trkpt>
      <trkpt lat="45.60752" lon="4.69079">
        <ele>314.6</ele>
        <time>1970-01-01T01:16:04.000Z</time>
      </trkpt>
      <trkpt lat="45.6074" lon="4.69067">
        <ele>313.2</ele>
        <time>1970-01-01T01:16:06.000Z</time>
      </trkpt>
      <trkpt lat="45.60735" lon="4.69061">
        <ele>312.8</ele>
        <time>1970-01-01T01:16:07.000Z</time>
      </trkpt>
      <trkpt lat="45.6073" lon="4.69054">
        <ele>312.4</ele>
        <time>1970-01-01T01:16:08.000Z</time>
      </trkpt>
      <trkpt lat="45.60725" lon="4.69046">
        <ele>311.6</ele>
        <time>1970-01-01T01:16:09.000Z</time>
      </trkpt>
      <trkpt lat="45.60719" lon="4.6904">
        <ele>311</ele>
        <time>1970-01-01T01:16:10.000Z</time>
      </trkpt>
      <trkpt lat="45.60714" lon="4.69033">
        <ele>310.4</ele>
        <time>1970-01-01T01:16:11.000Z</time>
      </trkpt>
      <trkpt lat="45.60709" lon="4.69026">
        <ele>310</ele>
        <time>1970-01-01T01:16:12.000Z</time>
      </trkpt>
      <trkpt lat="45.60704" lon="4.69019">
        <ele>309.6</ele>
        <time>1970-01-01T01:16:13.000Z</time>
      </trkpt>
      <trkpt lat="45.60698" lon="4.69013">
        <ele>309.4</ele>
        <time>1970-01-01T01:16:14.000Z</time>
      </trkpt>
      <trkpt lat="45.60687" lon="4.69002">
        <ele>309.2</ele>
        <time>1970-01-01T01:16:16.000Z</time>
      </trkpt>
      <trkpt lat="45.60674" lon="4.68995">
        <ele>308.6</ele>
        <time>1970-01-01T01:16:18.000Z</time>
      </trkpt>
      <trkpt lat="45.60667" lon="4.68994">
        <ele>308.2</ele>
        <time>1970-01-01T01:16:19.000Z</time>
      </trkpt>
      <trkpt lat="45.6066" lon="4.68993">
        <ele>307.8</ele>
        <time>1970-01-01T01:16:20.000Z</time>
      </trkpt>
      <trkpt lat="45.60653" lon="4.68993">
        <ele>307.4</ele>
        <time>1970-01-01T01:16:21.000Z</time>
      </trkpt>
      <trkpt lat="45.60646" lon="4.68994">
        <ele>307.4</ele>
        <time>1970-01-01T01:16:22.000Z</time>
      </trkpt>
      <trkpt lat="45.60639" lon="4.68996">
        <ele>307.2</ele>
        <time>1970-01-01T01:16:23.000Z</time>
      </trkpt>
      <trkpt lat="45.60632" lon="4.68999">
        <ele>307.2</ele>
        <time>1970-01-01T01:16:24.000Z</time>
      </trkpt>
      <trkpt lat="45.60619" lon="4.69009">
        <ele>306.6</ele>
        <time>1970-01-01T01:16:26.000Z</time>
      </trkpt>
      <trkpt lat="45.60609" lon="4.6902">
        <ele>306.2</ele>
        <time>1970-01-01T01:16:28.000Z</time>
      </trkpt>
      <trkpt lat="45.60605" lon="4.69026">
        <ele>305.8</ele>
        <time>1970-01-01T01:16:29.000Z</time>
      </trkpt>
      <trkpt lat="45.60601" lon="4.69032">
        <ele>304.8</ele>
        <time>1970-01-01T01:16:30.000Z</time>
      </trkpt>
      <trkpt lat="45.60597" lon="4.69039">
        <ele>304.4</ele>
        <time>1970-01-01T01:16:31.000Z</time>
      </trkpt>
      <trkpt lat="45.60594" lon="4.69045">
        <ele>304.2</ele>
        <time>1970-01-01T01:16:32.000Z</time>
      </trkpt>
      <trkpt lat="45.6059" lon="4.69051">
        <ele>304</ele>
        <time>1970-01-01T01:16:33.000Z</time>
      </trkpt>
      <trkpt lat="45.60587" lon="4.69057">
        <ele>304</ele>
        <time>1970-01-01T01:16:34.000Z</time>
      </trkpt>
      <trkpt lat="45.60581" lon="4.69068">
        <ele>304</ele>
        <time>1970-01-01T01:16:36.000Z</time>
      </trkpt>
      <trkpt lat="45.60578" lon="4.69073">
        <ele>303.8</ele>
        <time>1970-01-01T01:16:38.000Z</time>
      </trkpt>
      <trkpt lat="45.60576" lon="4.69075">
        <ele>303.8</ele>
        <time>1970-01-01T01:16:40.000Z</time>
      </trkpt>
      <trkpt lat="45.60574" lon="4.69074">
        <ele>304</ele>
        <time>1970-01-01T01:16:42.000Z</time>
      </trkpt>
      <trkpt lat="45.6057" lon="4.69072">
        <ele>304.6</ele>
        <time>1970-01-01T01:16:44.000Z</time>
      </trkpt>
      <trkpt lat="45.60565" lon="4.69072">
        <ele>305.6</ele>
        <time>1970-01-01T01:16:46.000Z</time>
      </trkpt>
      <trkpt lat="45.60564" lon="4.69071">
        <ele>305.8</ele>
        <time>1970-01-01T01:16:47.000Z</time>
      </trkpt>
      <trkpt lat="45.60563" lon="4.69071">
        <ele>306</ele>
        <time>1970-01-01T01:16:48.000Z</time>
      </trkpt>
      <trkpt lat="45.60563" lon="4.69072">
        <ele>306.2</ele>
        <time>1970-01-01T01:16:49.000Z</time>
      </trkpt>
      <trkpt lat="45.60563" lon="4.69072">
        <ele>306.2</ele>
        <time>1970-01-01T01:16:50.000Z</time>
      </trkpt>
      <trkpt lat="45.60563" lon="4.69073">
        <ele>306.4</ele>
        <time>1970-01-01T01:16:52.000Z</time>
      </trkpt>
      <trkpt lat="45.60562" lon="4.69073">
        <ele>306.4</ele>
        <time>1970-01-01T01:16:54.000Z</time>
      </trkpt>
      <trkpt lat="45.60562" lon="4.69074">
        <ele>306.4</ele>
        <time>1970-01-01T01:16:56.000Z</time>
      </trkpt>
      <trkpt lat="45.60562" lon="4.69074">
        <ele>306.4</ele>
        <time>1970-01-01T01:16:58.000Z</time>
      </trkpt>
      <trkpt lat="45.60562" lon="4.69074">
        <ele>306.4</ele>
        <time>1970-01-01T01:17:00.000Z</time>
      </trkpt>
      <trkpt lat="45.60561" lon="4.69075">
        <ele>306.4</ele>
        <time>1970-01-01T01:17:01.000Z</time>
      </trkpt>
      <trkpt lat="45.60561" lon="4.69076">
        <ele>306.4</ele>
        <time>1970-01-01T01:17:02.000Z</time>
      </trkpt>
      <trkpt lat="45.60559" lon="4.69081">
        <ele>306.4</ele>
        <time>1970-01-01T01:17:04.000Z</time>
      </trkpt>
      <trkpt lat="45.6056" lon="4.69084">
        <ele>306.4</ele>
        <time>1970-01-01T01:17:05.000Z</time>
      </trkpt>
      <trkpt lat="45.60561" lon="4.69086">
        <ele>306.4</ele>
        <time>1970-01-01T01:17:06.000Z</time>
      </trkpt>
      <trkpt lat="45.60564" lon="4.69091">
        <ele>306.2</ele>
        <time>1970-01-01T01:17:08.000Z</time>
      </trkpt>
      <trkpt lat="45.60565" lon="4.69097">
        <ele>306.4</ele>
        <time>1970-01-01T01:17:10.000Z</time>
      </trkpt>
      <trkpt lat="45.60566" lon="4.69101">
        <ele>306.2</ele>
        <time>1970-01-01T01:17:12.000Z</time>
      </trkpt>
      <trkpt lat="45.60566" lon="4.69104">
        <ele>306.2</ele>
        <time>1970-01-01T01:17:14.000Z</time>
      </trkpt>
      <trkpt lat="45.60566" lon="4.69106">
        <ele>306.2</ele>
        <time>1970-01-01T01:17:15.000Z</time>
      </trkpt>
      <trkpt lat="45.60567" lon="4.69107">
        <ele>306.2</ele>
        <time>1970-01-01T01:17:16.000Z</time>
      </trkpt>
      <trkpt lat="45.60567" lon="4.69109">
        <ele>306.2</ele>
        <time>1970-01-01T01:17:18.000Z</time>
      </trkpt>
      <trkpt lat="45.60567" lon="4.6911">
        <ele>306.2</ele>
        <time>1970-01-01T01:17:20.000Z</time>
      </trkpt>
      <trkpt lat="45.60568" lon="4.69112">
        <ele>306.4</ele>
        <time>1970-01-01T01:17:22.000Z</time>
      </trkpt>
      <trkpt lat="45.60568" lon="4.69113">
        <ele>306.4</ele>
        <time>1970-01-01T01:17:23.000Z</time>
      </trkpt>
      <trkpt lat="45.60567" lon="4.69114">
        <ele>306.4</ele>
        <time>1970-01-01T01:17:24.000Z</time>
      </trkpt>
      <trkpt lat="45.60567" lon="4.69116">
        <ele>306.4</ele>
        <time>1970-01-01T01:17:25.000Z</time>
      </trkpt>
      <trkpt lat="45.60568" lon="4.69117">
        <ele>306.4</ele>
        <time>1970-01-01T01:17:26.000Z</time>
      </trkpt>
      <trkpt lat="45.60568" lon="4.69121">
        <ele>306.4</ele>
        <time>1970-01-01T01:17:28.000Z</time>
      </trkpt>
      <trkpt lat="45.60571" lon="4.69125">
        <ele>306.4</ele>
        <time>1970-01-01T01:17:30.000Z</time>
      </trkpt>
      <trkpt lat="45.60572" lon="4.69127">
        <ele>306.4</ele>
        <time>1970-01-01T01:17:31.000Z</time>
      </trkpt>
      <trkpt lat="45.60574" lon="4.69129">
        <ele>306.4</ele>
        <time>1970-01-01T01:17:32.000Z</time>
      </trkpt>
      <trkpt lat="45.60577" lon="4.69133">
        <ele>306.4</ele>
        <time>1970-01-01T01:17:34.000Z</time>
      </trkpt>
      <trkpt lat="45.60581" lon="4.69137">
        <ele>306.4</ele>
        <time>1970-01-01T01:17:36.000Z</time>
      </trkpt>
      <trkpt lat="45.60584" lon="4.69141">
        <ele>306.4</ele>
        <time>1970-01-01T01:17:38.000Z</time>
      </trkpt>
      <trkpt lat="45.60588" lon="4.69145">
        <ele>306.4</ele>
        <time>1970-01-01T01:17:40.000Z</time>
      </trkpt>
      <trkpt lat="45.60591" lon="4.69149">
        <ele>306.6</ele>
        <time>1970-01-01T01:17:42.000Z</time>
      </trkpt>
      <trkpt lat="45.60593" lon="4.69151">
        <ele>306.8</ele>
        <time>1970-01-01T01:17:43.000Z</time>
      </trkpt>
      <trkpt lat="45.60595" lon="4.69153">
        <ele>306.8</ele>
        <time>1970-01-01T01:17:44.000Z</time>
      </trkpt>
      <trkpt lat="45.60598" lon="4.69157">
        <ele>307</ele>
        <time>1970-01-01T01:17:46.000Z</time>
      </trkpt>
      <trkpt lat="45.606" lon="4.69161">
        <ele>307.2</ele>
        <time>1970-01-01T01:17:48.000Z</time>
      </trkpt>
      <trkpt lat="45.60601" lon="4.69163">
        <ele>307.4</ele>
        <time>1970-01-01T01:17:49.000Z</time>
      </trkpt>
      <trkpt lat="45.60603" lon="4.69165">
        <ele>307.4</ele>
        <time>1970-01-01T01:17:50.000Z</time>
      </trkpt>
      <trkpt lat="45.60606" lon="4.6917">
        <ele>308</ele>
        <time>1970-01-01T01:17:52.000Z</time>
      </trkpt>
      <trkpt lat="45.60611" lon="4.69176">
        <ele>308.2</ele>
        <time>1970-01-01T01:17:54.000Z</time>
      </trkpt>
      <trkpt lat="45.60613" lon="4.69179">
        <ele>308.6</ele>
        <time>1970-01-01T01:17:55.000Z</time>
      </trkpt>
      <trkpt lat="45.60616" lon="4.69182">
        <ele>308.8</ele>
        <time>1970-01-01T01:17:56.000Z</time>
      </trkpt>
      <trkpt lat="45.60619" lon="4.69188">
        <ele>309</ele>
        <time>1970-01-01T01:17:58.000Z</time>
      </trkpt>
      <trkpt lat="45.60623" lon="4.69193">
        <ele>309.2</ele>
        <time>1970-01-01T01:18:00.000Z</time>
      </trkpt>
      <trkpt lat="45.60627" lon="4.69198">
        <ele>309.4</ele>
        <time>1970-01-01T01:18:02.000Z</time>
      </trkpt>
      <trkpt lat="45.60629" lon="4.69201">
        <ele>309.4</ele>
        <time>1970-01-01T01:18:03.000Z</time>
      </trkpt>
      <trkpt lat="45.60631" lon="4.69205">
        <ele>309.6</ele>
        <time>1970-01-01T01:18:04.000Z</time>
      </trkpt>
      <trkpt lat="45.60636" lon="4.69212">
        <ele>310</ele>
        <time>1970-01-01T01:18:06.000Z</time>
      </trkpt>
      <trkpt lat="45.60639" lon="4.69216">
        <ele>310.2</ele>
        <time>1970-01-01T01:18:07.000Z</time>
      </trkpt>
      <trkpt lat="45.60642" lon="4.6922">
        <ele>310.2</ele>
        <time>1970-01-01T01:18:08.000Z</time>
      </trkpt>
      <trkpt lat="45.60645" lon="4.69223">
        <ele>310.2</ele>
        <time>1970-01-01T01:18:09.000Z</time>
      </trkpt>
      <trkpt lat="45.60647" lon="4.69227">
        <ele>310.4</ele>
        <time>1970-01-01T01:18:10.000Z</time>
      </trkpt>
      <trkpt lat="45.60649" lon="4.6923">
        <ele>310.4</ele>
        <time>1970-01-01T01:18:11.000Z</time>
      </trkpt>
      <trkpt lat="45.60652" lon="4.69233">
        <ele>310.4</ele>
        <time>1970-01-01T01:18:12.000Z</time>
      </trkpt>
      <trkpt lat="45.60654" lon="4.69237">
        <ele>310.4</ele>
        <time>1970-01-01T01:18:13.000Z</time>
      </trkpt>
      <trkpt lat="45.60656" lon="4.6924">
        <ele>310.4</ele>
        <time>1970-01-01T01:18:14.000Z</time>
      </trkpt>
      <trkpt lat="45.60658" lon="4.69243">
        <ele>310.6</ele>
        <time>1970-01-01T01:18:15.000Z</time>
      </trkpt>
      <trkpt lat="45.6066" lon="4.69247">
        <ele>310.6</ele>
        <time>1970-01-01T01:18:16.000Z</time>
      </trkpt>
      <trkpt lat="45.60664" lon="4.69254">
        <ele>310.6</ele>
        <time>1970-01-01T01:18:18.000Z</time>
      </trkpt>
      <trkpt lat="45.60669" lon="4.69261">
        <ele>310.6</ele>
        <time>1970-01-01T01:18:20.000Z</time>
      </trkpt>
      <trkpt lat="45.60674" lon="4.69268">
        <ele>311</ele>
        <time>1970-01-01T01:18:22.000Z</time>
      </trkpt>
      <trkpt lat="45.60679" lon="4.69275">
        <ele>311.2</ele>
        <time>1970-01-01T01:18:24.000Z</time>
      </trkpt>
      <trkpt lat="45.60683" lon="4.69283">
        <ele>311.2</ele>
        <time>1970-01-01T01:18:26.000Z</time>
      </trkpt>
      <trkpt lat="45.60687" lon="4.6929">
        <ele>311.4</ele>
        <time>1970-01-01T01:18:28.000Z</time>
      </trkpt>
      <trkpt lat="45.60687" lon="4.69294">
        <ele>311.6</ele>
        <time>1970-01-01T01:18:29.000Z</time>
      </trkpt>
      <trkpt lat="45.60687" lon="4.69298">
        <ele>311.6</ele>
        <time>1970-01-01T01:18:30.000Z</time>
      </trkpt>
      <trkpt lat="45.60684" lon="4.69304">
        <ele>311.8</ele>
        <time>1970-01-01T01:18:32.000Z</time>
      </trkpt>
      <trkpt lat="45.60683" lon="4.69308">
        <ele>312</ele>
        <time>1970-01-01T01:18:33.000Z</time>
      </trkpt>
      <trkpt lat="45.60681" lon="4.69311">
        <ele>312</ele>
        <time>1970-01-01T01:18:34.000Z</time>
      </trkpt>
      <trkpt lat="45.60678" lon="4.69319">
        <ele>312</ele>
        <time>1970-01-01T01:18:36.000Z</time>
      </trkpt>
      <trkpt lat="45.60675" lon="4.69327">
        <ele>312.2</ele>
        <time>1970-01-01T01:18:38.000Z</time>
      </trkpt>
      <trkpt lat="45.60673" lon="4.69331">
        <ele>312.2</ele>
        <time>1970-01-01T01:18:39.000Z</time>
      </trkpt>
      <trkpt lat="45.60671" lon="4.69336">
        <ele>312.2</ele>
        <time>1970-01-01T01:18:40.000Z</time>
      </trkpt>
      <trkpt lat="45.60668" lon="4.69344">
        <ele>312.2</ele>
        <time>1970-01-01T01:18:42.000Z</time>
      </trkpt>
      <trkpt lat="45.60664" lon="4.69353">
        <ele>312.2</ele>
        <time>1970-01-01T01:18:44.000Z</time>
      </trkpt>
      <trkpt lat="45.60662" lon="4.69358">
        <ele>312.2</ele>
        <time>1970-01-01T01:18:45.000Z</time>
      </trkpt>
      <trkpt lat="45.60661" lon="4.69364">
        <ele>312.2</ele>
        <time>1970-01-01T01:18:46.000Z</time>
      </trkpt>
      <trkpt lat="45.60659" lon="4.6937">
        <ele>312.2</ele>
        <time>1970-01-01T01:18:47.000Z</time>
      </trkpt>
      <trkpt lat="45.60658" lon="4.69376">
        <ele>312</ele>
        <time>1970-01-01T01:18:48.000Z</time>
      </trkpt>
      <trkpt lat="45.60656" lon="4.69384">
        <ele>312</ele>
        <time>1970-01-01T01:18:49.000Z</time>
      </trkpt>
      <trkpt lat="45.60655" lon="4.69392">
        <ele>312</ele>
        <time>1970-01-01T01:18:50.000Z</time>
      </trkpt>
      <trkpt lat="45.60654" lon="4.69409">
        <ele>311.6</ele>
        <time>1970-01-01T01:18:52.000Z</time>
      </trkpt>
      <trkpt lat="45.60652" lon="4.69427">
        <ele>311</ele>
        <time>1970-01-01T01:18:54.000Z</time>
      </trkpt>
      <trkpt lat="45.60651" lon="4.69436">
        <ele>310.4</ele>
        <time>1970-01-01T01:18:55.000Z</time>
      </trkpt>
      <trkpt lat="45.6065" lon="4.69445">
        <ele>309.8</ele>
        <time>1970-01-01T01:18:56.000Z</time>
      </trkpt>
      <trkpt lat="45.60649" lon="4.69463">
        <ele>308.8</ele>
        <time>1970-01-01T01:18:58.000Z</time>
      </trkpt>
      <trkpt lat="45.60648" lon="4.69473">
        <ele>308.6</ele>
        <time>1970-01-01T01:18:59.000Z</time>
      </trkpt>
      <trkpt lat="45.60647" lon="4.69483">
        <ele>308.4</ele>
        <time>1970-01-01T01:19:00.000Z</time>
      </trkpt>
      <trkpt lat="45.60646" lon="4.69502">
        <ele>307.8</ele>
        <time>1970-01-01T01:19:02.000Z</time>
      </trkpt>
      <trkpt lat="45.60646" lon="4.69512">
        <ele>307.4</ele>
        <time>1970-01-01T01:19:03.000Z</time>
      </trkpt>
      <trkpt lat="45.60645" lon="4.69522">
        <ele>307.2</ele>
        <time>1970-01-01T01:19:04.000Z</time>
      </trkpt>
      <trkpt lat="45.60639" lon="4.69542">
        <ele>306.6</ele>
        <time>1970-01-01T01:19:06.000Z</time>
      </trkpt>
      <trkpt lat="45.60633" lon="4.69562">
        <ele>306.2</ele>
        <time>1970-01-01T01:19:08.000Z</time>
      </trkpt>
      <trkpt lat="45.60626" lon="4.69581">
        <ele>305.4</ele>
        <time>1970-01-01T01:19:10.000Z</time>
      </trkpt>
      <trkpt lat="45.60623" lon="4.6959">
        <ele>305.2</ele>
        <time>1970-01-01T01:19:11.000Z</time>
      </trkpt>
      <trkpt lat="45.6062" lon="4.696">
        <ele>305</ele>
        <time>1970-01-01T01:19:12.000Z</time>
      </trkpt>
      <trkpt lat="45.60613" lon="4.69618">
        <ele>304.4</ele>
        <time>1970-01-01T01:19:14.000Z</time>
      </trkpt>
      <trkpt lat="45.6061" lon="4.69627">
        <ele>303.2</ele>
        <time>1970-01-01T01:19:15.000Z</time>
      </trkpt>
      <trkpt lat="45.60607" lon="4.69636">
        <ele>301.6</ele>
        <time>1970-01-01T01:19:16.000Z</time>
      </trkpt>
      <trkpt lat="45.60605" lon="4.69645">
        <ele>301.4</ele>
        <time>1970-01-01T01:19:17.000Z</time>
      </trkpt>
      <trkpt lat="45.60606" lon="4.69653">
        <ele>300.8</ele>
        <time>1970-01-01T01:19:18.000Z</time>
      </trkpt>
      <trkpt lat="45.60608" lon="4.69661">
        <ele>300.6</ele>
        <time>1970-01-01T01:19:19.000Z</time>
      </trkpt>
      <trkpt lat="45.60611" lon="4.69668">
        <ele>300.4</ele>
        <time>1970-01-01T01:19:20.000Z</time>
      </trkpt>
      <trkpt lat="45.60613" lon="4.69674">
        <ele>300.4</ele>
        <time>1970-01-01T01:19:21.000Z</time>
      </trkpt>
      <trkpt lat="45.60614" lon="4.69681">
        <ele>300.2</ele>
        <time>1970-01-01T01:19:22.000Z</time>
      </trkpt>
      <trkpt lat="45.60614" lon="4.69692">
        <ele>300.2</ele>
        <time>1970-01-01T01:19:24.000Z</time>
      </trkpt>
      <trkpt lat="45.60613" lon="4.69701">
        <ele>300.2</ele>
        <time>1970-01-01T01:19:26.000Z</time>
      </trkpt>
      <trkpt lat="45.60612" lon="4.69707">
        <ele>300.2</ele>
        <time>1970-01-01T01:19:28.000Z</time>
      </trkpt>
      <trkpt lat="45.60612" lon="4.69711">
        <ele>300.4</ele>
        <time>1970-01-01T01:19:29.000Z</time>
      </trkpt>
      <trkpt lat="45.60612" lon="4.69713">
        <ele>300.8</ele>
        <time>1970-01-01T01:19:30.000Z</time>
      </trkpt>
      <trkpt lat="45.60612" lon="4.69716">
        <ele>301.4</ele>
        <time>1970-01-01T01:19:31.000Z</time>
      </trkpt>
      <trkpt lat="45.60611" lon="4.69718">
        <ele>302</ele>
        <time>1970-01-01T01:19:32.000Z</time>
      </trkpt>
      <trkpt lat="45.60611" lon="4.69724">
        <ele>303.2</ele>
        <time>1970-01-01T01:19:34.000Z</time>
      </trkpt>
      <trkpt lat="45.6061" lon="4.69729">
        <ele>303.8</ele>
        <time>1970-01-01T01:19:35.000Z</time>
      </trkpt>
      <trkpt lat="45.60609" lon="4.69733">
        <ele>304</ele>
        <time>1970-01-01T01:19:36.000Z</time>
      </trkpt>
      <trkpt lat="45.60608" lon="4.69738">
        <ele>304.4</ele>
        <time>1970-01-01T01:19:37.000Z</time>
      </trkpt>
      <trkpt lat="45.60607" lon="4.69744">
        <ele>304.6</ele>
        <time>1970-01-01T01:19:38.000Z</time>
      </trkpt>
      <trkpt lat="45.60604" lon="4.69755">
        <ele>304.8</ele>
        <time>1970-01-01T01:19:40.000Z</time>
      </trkpt>
      <trkpt lat="45.60603" lon="4.6976">
        <ele>305</ele>
        <time>1970-01-01T01:19:41.000Z</time>
      </trkpt>
      <trkpt lat="45.60603" lon="4.69764">
        <ele>305</ele>
        <time>1970-01-01T01:19:42.000Z</time>
      </trkpt>
      <trkpt lat="45.60601" lon="4.69775">
        <ele>305</ele>
        <time>1970-01-01T01:19:44.000Z</time>
      </trkpt>
      <trkpt lat="45.60599" lon="4.69785">
        <ele>305</ele>
        <time>1970-01-01T01:19:46.000Z</time>
      </trkpt>
      <trkpt lat="45.60598" lon="4.6979">
        <ele>305</ele>
        <time>1970-01-01T01:19:47.000Z</time>
      </trkpt>
      <trkpt lat="45.60596" lon="4.69796">
        <ele>305</ele>
        <time>1970-01-01T01:19:48.000Z</time>
      </trkpt>
      <trkpt lat="45.60595" lon="4.69803">
        <ele>305</ele>
        <time>1970-01-01T01:19:49.000Z</time>
      </trkpt>
      <trkpt lat="45.60593" lon="4.69809">
        <ele>305</ele>
        <time>1970-01-01T01:19:50.000Z</time>
      </trkpt>
      <trkpt lat="45.60591" lon="4.69824">
        <ele>304.8</ele>
        <time>1970-01-01T01:19:52.000Z</time>
      </trkpt>
      <trkpt lat="45.60594" lon="4.69837">
        <ele>304.6</ele>
        <time>1970-01-01T01:19:54.000Z</time>
      </trkpt>
      <trkpt lat="45.60596" lon="4.69842">
        <ele>304.4</ele>
        <time>1970-01-01T01:19:55.000Z</time>
      </trkpt>
      <trkpt lat="45.60599" lon="4.69846">
        <ele>304</ele>
        <time>1970-01-01T01:19:56.000Z</time>
      </trkpt>
      <trkpt lat="45.60604" lon="4.69855">
        <ele>303.8</ele>
        <time>1970-01-01T01:19:58.000Z</time>
      </trkpt>
      <trkpt lat="45.60609" lon="4.69861">
        <ele>303.8</ele>
        <time>1970-01-01T01:20:00.000Z</time>
      </trkpt>
      <trkpt lat="45.6061" lon="4.69863">
        <ele>303.6</ele>
        <time>1970-01-01T01:20:01.000Z</time>
      </trkpt>
      <trkpt lat="45.60612" lon="4.69866">
        <ele>303.6</ele>
        <time>1970-01-01T01:20:02.000Z</time>
      </trkpt>
      <trkpt lat="45.60615" lon="4.69871">
        <ele>303.6</ele>
        <time>1970-01-01T01:20:04.000Z</time>
      </trkpt>
      <trkpt lat="45.60618" lon="4.69874">
        <ele>303.8</ele>
        <time>1970-01-01T01:20:06.000Z</time>
      </trkpt>
      <trkpt lat="45.60619" lon="4.69876">
        <ele>304.4</ele>
        <time>1970-01-01T01:20:07.000Z</time>
      </trkpt>
      <trkpt lat="45.6062" lon="4.69877">
        <ele>305</ele>
        <time>1970-01-01T01:20:08.000Z</time>
      </trkpt>
      <trkpt lat="45.60625" lon="4.69881">
        <ele>305.8</ele>
        <time>1970-01-01T01:20:10.000Z</time>
      </trkpt>
      <trkpt lat="45.60629" lon="4.69884">
        <ele>306.6</ele>
        <time>1970-01-01T01:20:12.000Z</time>
      </trkpt>
      <trkpt lat="45.60632" lon="4.69885">
        <ele>307</ele>
        <time>1970-01-01T01:20:13.000Z</time>
      </trkpt>
      <trkpt lat="45.60634" lon="4.69887">
        <ele>307.4</ele>
        <time>1970-01-01T01:20:14.000Z</time>
      </trkpt>
      <trkpt lat="45.6064" lon="4.69889">
        <ele>308</ele>
        <time>1970-01-01T01:20:16.000Z</time>
      </trkpt>
      <trkpt lat="45.60643" lon="4.6989">
        <ele>308.4</ele>
        <time>1970-01-01T01:20:17.000Z</time>
      </trkpt>
      <trkpt lat="45.60645" lon="4.69891">
        <ele>308.6</ele>
        <time>1970-01-01T01:20:18.000Z</time>
      </trkpt>
      <trkpt lat="45.60648" lon="4.69892">
        <ele>308.6</ele>
        <time>1970-01-01T01:20:19.000Z</time>
      </trkpt>
      <trkpt lat="45.60652" lon="4.69894">
        <ele>308.8</ele>
        <time>1970-01-01T01:20:20.000Z</time>
      </trkpt>
      <trkpt lat="45.60656" lon="4.69897">
        <ele>308.8</ele>
        <time>1970-01-01T01:20:21.000Z</time>
      </trkpt>
      <trkpt lat="45.6066" lon="4.699">
        <ele>308.8</ele>
        <time>1970-01-01T01:20:22.000Z</time>
      </trkpt>
      <trkpt lat="45.60665" lon="4.69903">
        <ele>308.8</ele>
        <time>1970-01-01T01:20:23.000Z</time>
      </trkpt>
      <trkpt lat="45.60671" lon="4.69906">
        <ele>308.8</ele>
        <time>1970-01-01T01:20:24.000Z</time>
      </trkpt>
      <trkpt lat="45.60675" lon="4.69908">
        <ele>308.8</ele>
        <time>1970-01-01T01:20:25.000Z</time>
      </trkpt>
      <trkpt lat="45.60679" lon="4.6991">
        <ele>308.8</ele>
        <time>1970-01-01T01:20:26.000Z</time>
      </trkpt>
      <trkpt lat="45.60686" lon="4.69914">
        <ele>308.4</ele>
        <time>1970-01-01T01:20:28.000Z</time>
      </trkpt>
      <trkpt lat="45.6069" lon="4.69917">
        <ele>307.4</ele>
        <time>1970-01-01T01:20:30.000Z</time>
      </trkpt>
      <trkpt lat="45.6069" lon="4.69918">
        <ele>307</ele>
        <time>1970-01-01T01:20:31.000Z</time>
      </trkpt>
      <trkpt lat="45.6069" lon="4.69918">
        <ele>306.8</ele>
        <time>1970-01-01T01:20:32.000Z</time>
      </trkpt>
      <trkpt lat="45.60691" lon="4.69918">
        <ele>306.8</ele>
        <time>1970-01-01T01:20:34.000Z</time>
      </trkpt>
      <trkpt lat="45.6069" lon="4.69918">
        <ele>306.6</ele>
        <time>1970-01-01T01:20:35.000Z</time>
      </trkpt>
      <trkpt lat="45.6069" lon="4.69918">
        <ele>306.6</ele>
        <time>1970-01-01T01:20:38.000Z</time>
      </trkpt>
      <trkpt lat="45.6069" lon="4.69918">
        <ele>306.4</ele>
        <time>1970-01-01T01:20:40.000Z</time>
      </trkpt>
      <trkpt lat="45.60691" lon="4.69918">
        <ele>306.4</ele>
        <time>1970-01-01T01:20:42.000Z</time>
      </trkpt>
      <trkpt lat="45.60691" lon="4.69918">
        <ele>306.4</ele>
        <time>1970-01-01T01:20:43.000Z</time>
      </trkpt>
      <trkpt lat="45.60691" lon="4.69919">
        <ele>306.4</ele>
        <time>1970-01-01T01:20:44.000Z</time>
      </trkpt>
      <trkpt lat="45.60691" lon="4.69918">
        <ele>306.4</ele>
        <time>1970-01-01T01:20:46.000Z</time>
      </trkpt>
      <trkpt lat="45.60691" lon="4.69918">
        <ele>306.4</ele>
        <time>1970-01-01T01:20:48.000Z</time>
      </trkpt>
      <trkpt lat="45.60691" lon="4.69918">
        <ele>306.2</ele>
        <time>1970-01-01T01:20:50.000Z</time>
      </trkpt>
      <trkpt lat="45.60691" lon="4.69918">
        <ele>306.2</ele>
        <time>1970-01-01T01:20:52.000Z</time>
      </trkpt>
      <trkpt lat="45.60691" lon="4.69918">
        <ele>306.2</ele>
        <time>1970-01-01T01:20:53.000Z</time>
      </trkpt>
      <trkpt lat="45.60691" lon="4.69918">
        <ele>306.2</ele>
        <time>1970-01-01T01:20:54.000Z</time>
      </trkpt>
      <trkpt lat="45.60692" lon="4.69919">
        <ele>306.2</ele>
        <time>1970-01-01T01:20:55.000Z</time>
      </trkpt>
      <trkpt lat="45.60692" lon="4.69918">
        <ele>306.2</ele>
        <time>1970-01-01T01:20:56.000Z</time>
      </trkpt>
      <trkpt lat="45.60692" lon="4.69918">
        <ele>306.2</ele>
        <time>1970-01-01T01:20:57.000Z</time>
      </trkpt>
      <trkpt lat="45.60692" lon="4.69919">
        <ele>306.2</ele>
        <time>1970-01-01T01:20:58.000Z</time>
      </trkpt>
      <trkpt lat="45.60692" lon="4.69919">
        <ele>306.2</ele>
        <time>1970-01-01T01:21:02.000Z</time>
      </trkpt>
      <trkpt lat="45.60692" lon="4.69919">
        <ele>306.2</ele>
        <time>1970-01-01T01:21:04.000Z</time>
      </trkpt>
      <trkpt lat="45.60692" lon="4.69919">
        <ele>306.2</ele>
        <time>1970-01-01T01:21:06.000Z</time>
      </trkpt>
      <trkpt lat="45.60695" lon="4.6992">
        <ele>306.2</ele>
        <time>1970-01-01T01:21:08.000Z</time>
      </trkpt>
      <trkpt lat="45.60698" lon="4.69923">
        <ele>306.2</ele>
        <time>1970-01-01T01:21:10.000Z</time>
      </trkpt>
      <trkpt lat="45.60703" lon="4.69926">
        <ele>306.2</ele>
        <time>1970-01-01T01:21:12.000Z</time>
      </trkpt>
      <trkpt lat="45.60708" lon="4.69929">
        <ele>306</ele>
        <time>1970-01-01T01:21:14.000Z</time>
      </trkpt>
      <trkpt lat="45.6071" lon="4.69932">
        <ele>306</ele>
        <time>1970-01-01T01:21:15.000Z</time>
      </trkpt>
      <trkpt lat="45.60712" lon="4.69935">
        <ele>306</ele>
        <time>1970-01-01T01:21:16.000Z</time>
      </trkpt>
      <trkpt lat="45.60718" lon="4.6994">
        <ele>305.6</ele>
        <time>1970-01-01T01:21:18.000Z</time>
      </trkpt>
      <trkpt lat="45.60724" lon="4.69944">
        <ele>305.2</ele>
        <time>1970-01-01T01:21:20.000Z</time>
      </trkpt>
      <trkpt lat="45.60727" lon="4.69945">
        <ele>305</ele>
        <time>1970-01-01T01:21:21.000Z</time>
      </trkpt>
      <trkpt lat="45.60729" lon="4.69946">
        <ele>304.8</ele>
        <time>1970-01-01T01:21:22.000Z</time>
      </trkpt>
      <trkpt lat="45.60735" lon="4.69948">
        <ele>304.6</ele>
        <time>1970-01-01T01:21:24.000Z</time>
      </trkpt>
      <trkpt lat="45.6074" lon="4.6995">
        <ele>304.6</ele>
        <time>1970-01-01T01:21:26.000Z</time>
      </trkpt>
      <trkpt lat="45.60742" lon="4.69951">
        <ele>304.6</ele>
        <time>1970-01-01T01:21:27.000Z</time>
      </trkpt>
      <trkpt lat="45.60745" lon="4.69952">
        <ele>304.6</ele>
        <time>1970-01-01T01:21:28.000Z</time>
      </trkpt>
      <trkpt lat="45.60748" lon="4.69957">
        <ele>304.6</ele>
        <time>1970-01-01T01:21:30.000Z</time>
      </trkpt>
      <trkpt lat="45.60749" lon="4.69965">
        <ele>304.6</ele>
        <time>1970-01-01T01:21:32.000Z</time>
      </trkpt>
      <trkpt lat="45.60749" lon="4.69969">
        <ele>304.6</ele>
        <time>1970-01-01T01:21:33.000Z</time>
      </trkpt>
      <trkpt lat="45.60749" lon="4.69974">
        <ele>304.6</ele>
        <time>1970-01-01T01:21:34.000Z</time>
      </trkpt>
      <trkpt lat="45.60748" lon="4.69979">
        <ele>304.6</ele>
        <time>1970-01-01T01:21:35.000Z</time>
      </trkpt>
      <trkpt lat="45.60747" lon="4.69984">
        <ele>304.6</ele>
        <time>1970-01-01T01:21:36.000Z</time>
      </trkpt>
      <trkpt lat="45.60747" lon="4.69991">
        <ele>304.6</ele>
        <time>1970-01-01T01:21:37.000Z</time>
      </trkpt>
      <trkpt lat="45.60747" lon="4.69998">
        <ele>304.6</ele>
        <time>1970-01-01T01:21:38.000Z</time>
      </trkpt>
      <trkpt lat="45.60746" lon="4.70005">
        <ele>304.6</ele>
        <time>1970-01-01T01:21:39.000Z</time>
      </trkpt>
      <trkpt lat="45.60745" lon="4.70014">
        <ele>304.6</ele>
        <time>1970-01-01T01:21:40.000Z</time>
      </trkpt>
      <trkpt lat="45.60743" lon="4.70022">
        <ele>304.6</ele>
        <time>1970-01-01T01:21:41.000Z</time>
      </trkpt>
      <trkpt lat="45.60741" lon="4.7003">
        <ele>304.6</ele>
        <time>1970-01-01T01:21:42.000Z</time>
      </trkpt>
      <trkpt lat="45.60739" lon="4.70039">
        <ele>304.4</ele>
        <time>1970-01-01T01:21:43.000Z</time>
      </trkpt>
      <trkpt lat="45.60736" lon="4.70048">
        <ele>304</ele>
        <time>1970-01-01T01:21:44.000Z</time>
      </trkpt>
      <trkpt lat="45.60734" lon="4.70057">
        <ele>303.4</ele>
        <time>1970-01-01T01:21:45.000Z</time>
      </trkpt>
      <trkpt lat="45.60731" lon="4.70066">
        <ele>302.8</ele>
        <time>1970-01-01T01:21:46.000Z</time>
      </trkpt>
      <trkpt lat="45.60729" lon="4.70075">
        <ele>302.2</ele>
        <time>1970-01-01T01:21:47.000Z</time>
      </trkpt>
      <trkpt lat="45.60726" lon="4.70087">
        <ele>301.2</ele>
        <time>1970-01-01T01:21:48.000Z</time>
      </trkpt>
      <trkpt lat="45.60724" lon="4.70094">
        <ele>300.2</ele>
        <time>1970-01-01T01:21:49.000Z</time>
      </trkpt>
      <trkpt lat="45.60721" lon="4.70103">
        <ele>299.6</ele>
        <time>1970-01-01T01:21:50.000Z</time>
      </trkpt>
      <trkpt lat="45.60716" lon="4.70121">
        <ele>299</ele>
        <time>1970-01-01T01:21:52.000Z</time>
      </trkpt>
      <trkpt lat="45.60711" lon="4.70139">
        <ele>298.6</ele>
        <time>1970-01-01T01:21:54.000Z</time>
      </trkpt>
      <trkpt lat="45.60706" lon="4.70155">
        <ele>298</ele>
        <time>1970-01-01T01:21:56.000Z</time>
      </trkpt>
      <trkpt lat="45.60702" lon="4.70171">
        <ele>297.6</ele>
        <time>1970-01-01T01:21:58.000Z</time>
      </trkpt>
      <trkpt lat="45.60698" lon="4.70187">
        <ele>297.2</ele>
        <time>1970-01-01T01:22:00.000Z</time>
      </trkpt>
      <trkpt lat="45.60694" lon="4.70202">
        <ele>297.2</ele>
        <time>1970-01-01T01:22:02.000Z</time>
      </trkpt>
      <trkpt lat="45.6069" lon="4.70216">
        <ele>297</ele>
        <time>1970-01-01T01:22:04.000Z</time>
      </trkpt>
      <trkpt lat="45.60688" lon="4.70224">
        <ele>296.8</ele>
        <time>1970-01-01T01:22:05.000Z</time>
      </trkpt>
      <trkpt lat="45.60686" lon="4.70231">
        <ele>296.8</ele>
        <time>1970-01-01T01:22:06.000Z</time>
      </trkpt>
      <trkpt lat="45.60681" lon="4.70245">
        <ele>296.6</ele>
        <time>1970-01-01T01:22:08.000Z</time>
      </trkpt>
      <trkpt lat="45.60677" lon="4.7026">
        <ele>295.4</ele>
        <time>1970-01-01T01:22:10.000Z</time>
      </trkpt>
      <trkpt lat="45.60673" lon="4.70276">
        <ele>295.2</ele>
        <time>1970-01-01T01:22:12.000Z</time>
      </trkpt>
      <trkpt lat="45.60669" lon="4.70292">
        <ele>295</ele>
        <time>1970-01-01T01:22:14.000Z</time>
      </trkpt>
      <trkpt lat="45.60665" lon="4.70308">
        <ele>294.6</ele>
        <time>1970-01-01T01:22:16.000Z</time>
      </trkpt>
      <trkpt lat="45.60662" lon="4.70325">
        <ele>294.2</ele>
        <time>1970-01-01T01:22:18.000Z</time>
      </trkpt>
      <trkpt lat="45.60659" lon="4.70342">
        <ele>294</ele>
        <time>1970-01-01T01:22:20.000Z</time>
      </trkpt>
      <trkpt lat="45.60657" lon="4.7036">
        <ele>293.8</ele>
        <time>1970-01-01T01:22:22.000Z</time>
      </trkpt>
      <trkpt lat="45.60654" lon="4.70378">
        <ele>293.8</ele>
        <time>1970-01-01T01:22:24.000Z</time>
      </trkpt>
      <trkpt lat="45.6065" lon="4.70398">
        <ele>293.2</ele>
        <time>1970-01-01T01:22:26.000Z</time>
      </trkpt>
      <trkpt lat="45.60647" lon="4.70417">
        <ele>292.2</ele>
        <time>1970-01-01T01:22:28.000Z</time>
      </trkpt>
      <trkpt lat="45.60646" lon="4.70427">
        <ele>291.8</ele>
        <time>1970-01-01T01:22:29.000Z</time>
      </trkpt>
      <trkpt lat="45.60644" lon="4.70437">
        <ele>291.6</ele>
        <time>1970-01-01T01:22:30.000Z</time>
      </trkpt>
      <trkpt lat="45.60641" lon="4.70456">
        <ele>291.2</ele>
        <time>1970-01-01T01:22:32.000Z</time>
      </trkpt>
      <trkpt lat="45.60638" lon="4.70475">
        <ele>290.8</ele>
        <time>1970-01-01T01:22:34.000Z</time>
      </trkpt>
      <trkpt lat="45.60636" lon="4.70484">
        <ele>290.6</ele>
        <time>1970-01-01T01:22:35.000Z</time>
      </trkpt>
      <trkpt lat="45.60635" lon="4.70493">
        <ele>290</ele>
        <time>1970-01-01T01:22:36.000Z</time>
      </trkpt>
      <trkpt lat="45.60634" lon="4.70502">
        <ele>289.2</ele>
        <time>1970-01-01T01:22:37.000Z</time>
      </trkpt>
      <trkpt lat="45.60633" lon="4.7051">
        <ele>289</ele>
        <time>1970-01-01T01:22:38.000Z</time>
      </trkpt>
      <trkpt lat="45.6063" lon="4.70527">
        <ele>288.8</ele>
        <time>1970-01-01T01:22:40.000Z</time>
      </trkpt>
      <trkpt lat="45.60627" lon="4.70543">
        <ele>288.6</ele>
        <time>1970-01-01T01:22:42.000Z</time>
      </trkpt>
      <trkpt lat="45.60624" lon="4.70558">
        <ele>288.6</ele>
        <time>1970-01-01T01:22:44.000Z</time>
      </trkpt>
      <trkpt lat="45.60622" lon="4.70572">
        <ele>288.6</ele>
        <time>1970-01-01T01:22:46.000Z</time>
      </trkpt>
      <trkpt lat="45.60621" lon="4.70578">
        <ele>288.6</ele>
        <time>1970-01-01T01:22:47.000Z</time>
      </trkpt>
      <trkpt lat="45.6062" lon="4.70585">
        <ele>288.6</ele>
        <time>1970-01-01T01:22:48.000Z</time>
      </trkpt>
      <trkpt lat="45.6062" lon="4.70591">
        <ele>288.6</ele>
        <time>1970-01-01T01:22:49.000Z</time>
      </trkpt>
      <trkpt lat="45.6062" lon="4.70598">
        <ele>288.8</ele>
        <time>1970-01-01T01:22:50.000Z</time>
      </trkpt>
      <trkpt lat="45.6062" lon="4.70611">
        <ele>288.8</ele>
        <time>1970-01-01T01:22:52.000Z</time>
      </trkpt>
      <trkpt lat="45.60619" lon="4.70624">
        <ele>288.8</ele>
        <time>1970-01-01T01:22:54.000Z</time>
      </trkpt>
      <trkpt lat="45.60619" lon="4.70637">
        <ele>288.8</ele>
        <time>1970-01-01T01:22:56.000Z</time>
      </trkpt>
      <trkpt lat="45.60619" lon="4.70644">
        <ele>288.8</ele>
        <time>1970-01-01T01:22:57.000Z</time>
      </trkpt>
      <trkpt lat="45.60618" lon="4.70651">
        <ele>288.8</ele>
        <time>1970-01-01T01:22:58.000Z</time>
      </trkpt>
      <trkpt lat="45.60619" lon="4.70658">
        <ele>288.8</ele>
        <time>1970-01-01T01:22:59.000Z</time>
      </trkpt>
      <trkpt lat="45.6062" lon="4.70665">
        <ele>288.8</ele>
        <time>1970-01-01T01:23:00.000Z</time>
      </trkpt>
      <trkpt lat="45.60624" lon="4.70676">
        <ele>288.8</ele>
        <time>1970-01-01T01:23:02.000Z</time>
      </trkpt>
      <trkpt lat="45.6063" lon="4.70686">
        <ele>288.8</ele>
        <time>1970-01-01T01:23:04.000Z</time>
      </trkpt>
      <trkpt lat="45.60632" lon="4.70691">
        <ele>288.4</ele>
        <time>1970-01-01T01:23:05.000Z</time>
      </trkpt>
      <trkpt lat="45.60636" lon="4.70696">
        <ele>288.4</ele>
        <time>1970-01-01T01:23:06.000Z</time>
      </trkpt>
      <trkpt lat="45.60639" lon="4.70701">
        <ele>288.2</ele>
        <time>1970-01-01T01:23:07.000Z</time>
      </trkpt>
      <trkpt lat="45.60642" lon="4.70706">
        <ele>288.2</ele>
        <time>1970-01-01T01:23:08.000Z</time>
      </trkpt>
      <trkpt lat="45.60645" lon="4.70711">
        <ele>288.2</ele>
        <time>1970-01-01T01:23:09.000Z</time>
      </trkpt>
      <trkpt lat="45.60648" lon="4.70715">
        <ele>288.2</ele>
        <time>1970-01-01T01:23:10.000Z</time>
      </trkpt>
      <trkpt lat="45.60654" lon="4.70724">
        <ele>288.2</ele>
        <time>1970-01-01T01:23:12.000Z</time>
      </trkpt>
      <trkpt lat="45.6066" lon="4.70733">
        <ele>288.2</ele>
        <time>1970-01-01T01:23:14.000Z</time>
      </trkpt>
      <trkpt lat="45.60665" lon="4.70742">
        <ele>288.2</ele>
        <time>1970-01-01T01:23:16.000Z</time>
      </trkpt>
      <trkpt lat="45.6067" lon="4.7075">
        <ele>288.6</ele>
        <time>1970-01-01T01:23:18.000Z</time>
      </trkpt>
      <trkpt lat="45.60676" lon="4.70757">
        <ele>288.8</ele>
        <time>1970-01-01T01:23:20.000Z</time>
      </trkpt>
      <trkpt lat="45.60678" lon="4.70761">
        <ele>289</ele>
        <time>1970-01-01T01:23:21.000Z</time>
      </trkpt>
      <trkpt lat="45.60681" lon="4.70765">
        <ele>289</ele>
        <time>1970-01-01T01:23:22.000Z</time>
      </trkpt>
      <trkpt lat="45.60685" lon="4.70772">
        <ele>289</ele>
        <time>1970-01-01T01:23:24.000Z</time>
      </trkpt>
      <trkpt lat="45.60689" lon="4.70779">
        <ele>289.2</ele>
        <time>1970-01-01T01:23:26.000Z</time>
      </trkpt>
      <trkpt lat="45.60692" lon="4.70786">
        <ele>289.6</ele>
        <time>1970-01-01T01:23:28.000Z</time>
      </trkpt>
      <trkpt lat="45.60693" lon="4.70793">
        <ele>290.4</ele>
        <time>1970-01-01T01:23:30.000Z</time>
      </trkpt>
      <trkpt lat="45.60693" lon="4.70801">
        <ele>291</ele>
        <time>1970-01-01T01:23:32.000Z</time>
      </trkpt>
      <trkpt lat="45.60692" lon="4.70805">
        <ele>291.4</ele>
        <time>1970-01-01T01:23:33.000Z</time>
      </trkpt>
      <trkpt lat="45.6069" lon="4.70809">
        <ele>291.6</ele>
        <time>1970-01-01T01:23:34.000Z</time>
      </trkpt>
      <trkpt lat="45.60688" lon="4.70813">
        <ele>291.6</ele>
        <time>1970-01-01T01:23:35.000Z</time>
      </trkpt>
      <trkpt lat="45.60686" lon="4.70817">
        <ele>291.8</ele>
        <time>1970-01-01T01:23:36.000Z</time>
      </trkpt>
      <trkpt lat="45.6068" lon="4.70824">
        <ele>291.8</ele>
        <time>1970-01-01T01:23:38.000Z</time>
      </trkpt>
      <trkpt lat="45.60675" lon="4.70832">
        <ele>292</ele>
        <time>1970-01-01T01:23:40.000Z</time>
      </trkpt>
      <trkpt lat="45.60672" lon="4.70836">
        <ele>292</ele>
        <time>1970-01-01T01:23:41.000Z</time>
      </trkpt>
      <trkpt lat="45.6067" lon="4.70841">
        <ele>292</ele>
        <time>1970-01-01T01:23:42.000Z</time>
      </trkpt>
      <trkpt lat="45.60665" lon="4.70851">
        <ele>292</ele>
        <time>1970-01-01T01:23:44.000Z</time>
      </trkpt>
      <trkpt lat="45.60664" lon="4.70856">
        <ele>292</ele>
        <time>1970-01-01T01:23:45.000Z</time>
      </trkpt>
      <trkpt lat="45.60662" lon="4.70862">
        <ele>292</ele>
        <time>1970-01-01T01:23:46.000Z</time>
      </trkpt>
      <trkpt lat="45.60659" lon="4.70873">
        <ele>292</ele>
        <time>1970-01-01T01:23:48.000Z</time>
      </trkpt>
      <trkpt lat="45.60658" lon="4.70879">
        <ele>292</ele>
        <time>1970-01-01T01:23:49.000Z</time>
      </trkpt>
      <trkpt lat="45.60657" lon="4.70885">
        <ele>292</ele>
        <time>1970-01-01T01:23:50.000Z</time>
      </trkpt>
      <trkpt lat="45.60655" lon="4.70897">
        <ele>292</ele>
        <time>1970-01-01T01:23:52.000Z</time>
      </trkpt>
      <trkpt lat="45.60654" lon="4.70902">
        <ele>292</ele>
        <time>1970-01-01T01:23:53.000Z</time>
      </trkpt>
      <trkpt lat="45.60653" lon="4.70908">
        <ele>292.2</ele>
        <time>1970-01-01T01:23:54.000Z</time>
      </trkpt>
      <trkpt lat="45.60651" lon="4.70918">
        <ele>292.2</ele>
        <time>1970-01-01T01:23:56.000Z</time>
      </trkpt>
      <trkpt lat="45.6065" lon="4.70928">
        <ele>292.4</ele>
        <time>1970-01-01T01:23:58.000Z</time>
      </trkpt>
      <trkpt lat="45.60648" lon="4.70937">
        <ele>292.6</ele>
        <time>1970-01-01T01:24:00.000Z</time>
      </trkpt>
      <trkpt lat="45.60647" lon="4.70942">
        <ele>292.6</ele>
        <time>1970-01-01T01:24:01.000Z</time>
      </trkpt>
      <trkpt lat="45.60647" lon="4.70947">
        <ele>292.6</ele>
        <time>1970-01-01T01:24:02.000Z</time>
      </trkpt>
      <trkpt lat="45.60646" lon="4.70957">
        <ele>292.8</ele>
        <time>1970-01-01T01:24:04.000Z</time>
      </trkpt>
      <trkpt lat="45.60648" lon="4.70965">
        <ele>292.8</ele>
        <time>1970-01-01T01:24:06.000Z</time>
      </trkpt>
      <trkpt lat="45.60653" lon="4.70968">
        <ele>292.8</ele>
        <time>1970-01-01T01:24:08.000Z</time>
      </trkpt>
      <trkpt lat="45.60659" lon="4.7097">
        <ele>293</ele>
        <time>1970-01-01T01:24:10.000Z</time>
      </trkpt>
      <trkpt lat="45.60663" lon="4.70972">
        <ele>293</ele>
        <time>1970-01-01T01:24:12.000Z</time>
      </trkpt>
      <trkpt lat="45.60667" lon="4.70975">
        <ele>293</ele>
        <time>1970-01-01T01:24:14.000Z</time>
      </trkpt>
      <trkpt lat="45.60669" lon="4.70976">
        <ele>293</ele>
        <time>1970-01-01T01:24:15.000Z</time>
      </trkpt>
      <trkpt lat="45.60671" lon="4.70978">
        <ele>293.2</ele>
        <time>1970-01-01T01:24:16.000Z</time>
      </trkpt>
      <trkpt lat="45.60674" lon="4.70981">
        <ele>293.2</ele>
        <time>1970-01-01T01:24:18.000Z</time>
      </trkpt>
      <trkpt lat="45.60678" lon="4.70984">
        <ele>293.6</ele>
        <time>1970-01-01T01:24:20.000Z</time>
      </trkpt>
      <trkpt lat="45.60682" lon="4.70986">
        <ele>294</ele>
        <time>1970-01-01T01:24:22.000Z</time>
      </trkpt>
      <trkpt lat="45.60687" lon="4.70989">
        <ele>294.4</ele>
        <time>1970-01-01T01:24:24.000Z</time>
      </trkpt>
      <trkpt lat="45.60692" lon="4.70992">
        <ele>294.8</ele>
        <time>1970-01-01T01:24:26.000Z</time>
      </trkpt>
      <trkpt lat="45.60694" lon="4.70995">
        <ele>295</ele>
        <time>1970-01-01T01:24:27.000Z</time>
      </trkpt>
      <trkpt lat="45.60696" lon="4.70997">
        <ele>295.4</ele>
        <time>1970-01-01T01:24:28.000Z</time>
      </trkpt>
      <trkpt lat="45.60701" lon="4.71001">
        <ele>295.6</ele>
        <time>1970-01-01T01:24:30.000Z</time>
      </trkpt>
      <trkpt lat="45.60705" lon="4.71006">
        <ele>295.8</ele>
        <time>1970-01-01T01:24:32.000Z</time>
      </trkpt>
      <trkpt lat="45.60708" lon="4.71012">
        <ele>295.8</ele>
        <time>1970-01-01T01:24:34.000Z</time>
      </trkpt>
      <trkpt lat="45.60712" lon="4.71017">
        <ele>296</ele>
        <time>1970-01-01T01:24:36.000Z</time>
      </trkpt>
      <trkpt lat="45.60715" lon="4.71023">
        <ele>296.2</ele>
        <time>1970-01-01T01:24:38.000Z</time>
      </trkpt>
      <trkpt lat="45.6072" lon="4.71029">
        <ele>296.4</ele>
        <time>1970-01-01T01:24:40.000Z</time>
      </trkpt>
      <trkpt lat="45.60724" lon="4.71035">
        <ele>296.6</ele>
        <time>1970-01-01T01:24:42.000Z</time>
      </trkpt>
      <trkpt lat="45.60726" lon="4.71038">
        <ele>296.8</ele>
        <time>1970-01-01T01:24:43.000Z</time>
      </trkpt>
      <trkpt lat="45.60728" lon="4.71041">
        <ele>296.8</ele>
        <time>1970-01-01T01:24:44.000Z</time>
      </trkpt>
      <trkpt lat="45.60732" lon="4.71047">
        <ele>297</ele>
        <time>1970-01-01T01:24:46.000Z</time>
      </trkpt>
      <trkpt lat="45.60737" lon="4.71053">
        <ele>297.2</ele>
        <time>1970-01-01T01:24:48.000Z</time>
      </trkpt>
      <trkpt lat="45.60741" lon="4.71059">
        <ele>297.2</ele>
        <time>1970-01-01T01:24:50.000Z</time>
      </trkpt>
      <trkpt lat="45.60745" lon="4.71065">
        <ele>297.4</ele>
        <time>1970-01-01T01:24:52.000Z</time>
      </trkpt>
      <trkpt lat="45.60747" lon="4.71067">
        <ele>297.4</ele>
        <time>1970-01-01T01:24:53.000Z</time>
      </trkpt>
      <trkpt lat="45.60749" lon="4.7107">
        <ele>297.4</ele>
        <time>1970-01-01T01:24:54.000Z</time>
      </trkpt>
      <trkpt lat="45.60752" lon="4.71075">
        <ele>297.4</ele>
        <time>1970-01-01T01:24:56.000Z</time>
      </trkpt>
      <trkpt lat="45.60755" lon="4.71079">
        <ele>297.6</ele>
        <time>1970-01-01T01:24:58.000Z</time>
      </trkpt>
      <trkpt lat="45.60757" lon="4.71081">
        <ele>297.8</ele>
        <time>1970-01-01T01:24:59.000Z</time>
      </trkpt>
      <trkpt lat="45.60758" lon="4.71083">
        <ele>298</ele>
        <time>1970-01-01T01:25:00.000Z</time>
      </trkpt>
      <trkpt lat="45.6076" lon="4.71084">
        <ele>298.4</ele>
        <time>1970-01-01T01:25:01.000Z</time>
      </trkpt>
      <trkpt lat="45.60761" lon="4.71086">
        <ele>298.6</ele>
        <time>1970-01-01T01:25:02.000Z</time>
      </trkpt>
      <trkpt lat="45.60764" lon="4.7109">
        <ele>299</ele>
        <time>1970-01-01T01:25:04.000Z</time>
      </trkpt>
      <trkpt lat="45.60767" lon="4.71093">
        <ele>299.6</ele>
        <time>1970-01-01T01:25:06.000Z</time>
      </trkpt>
      <trkpt lat="45.6077" lon="4.71096">
        <ele>300</ele>
        <time>1970-01-01T01:25:08.000Z</time>
      </trkpt>
      <trkpt lat="45.60771" lon="4.71098">
        <ele>300.2</ele>
        <time>1970-01-01T01:25:09.000Z</time>
      </trkpt>
      <trkpt lat="45.60773" lon="4.711">
        <ele>300.4</ele>
        <time>1970-01-01T01:25:10.000Z</time>
      </trkpt>
      <trkpt lat="45.60776" lon="4.71104">
        <ele>300.8</ele>
        <time>1970-01-01T01:25:12.000Z</time>
      </trkpt>
      <trkpt lat="45.6078" lon="4.71108">
        <ele>301.2</ele>
        <time>1970-01-01T01:25:14.000Z</time>
      </trkpt>
      <trkpt lat="45.60782" lon="4.71111">
        <ele>301.4</ele>
        <time>1970-01-01T01:25:15.000Z</time>
      </trkpt>
      <trkpt lat="45.60784" lon="4.71113">
        <ele>301.4</ele>
        <time>1970-01-01T01:25:16.000Z</time>
      </trkpt>
      <trkpt lat="45.60787" lon="4.71118">
        <ele>301.8</ele>
        <time>1970-01-01T01:25:18.000Z</time>
      </trkpt>
      <trkpt lat="45.60791" lon="4.71122">
        <ele>302.2</ele>
        <time>1970-01-01T01:25:20.000Z</time>
      </trkpt>
      <trkpt lat="45.60793" lon="4.71124">
        <ele>302.2</ele>
        <time>1970-01-01T01:25:21.000Z</time>
      </trkpt>
      <trkpt lat="45.60795" lon="4.71127">
        <ele>302.2</ele>
        <time>1970-01-01T01:25:22.000Z</time>
      </trkpt>
      <trkpt lat="45.60799" lon="4.71131">
        <ele>302.4</ele>
        <time>1970-01-01T01:25:24.000Z</time>
      </trkpt>
      <trkpt lat="45.60802" lon="4.71136">
        <ele>302.4</ele>
        <time>1970-01-01T01:25:26.000Z</time>
      </trkpt>
      <trkpt lat="45.60806" lon="4.71141">
        <ele>302.6</ele>
        <time>1970-01-01T01:25:28.000Z</time>
      </trkpt>
      <trkpt lat="45.60807" lon="4.71143">
        <ele>302.8</ele>
        <time>1970-01-01T01:25:29.000Z</time>
      </trkpt>
      <trkpt lat="45.60809" lon="4.71145">
        <ele>302.8</ele>
        <time>1970-01-01T01:25:30.000Z</time>
      </trkpt>
      <trkpt lat="45.60813" lon="4.7115">
        <ele>303.4</ele>
        <time>1970-01-01T01:25:32.000Z</time>
      </trkpt>
      <trkpt lat="45.60816" lon="4.71155">
        <ele>303.6</ele>
        <time>1970-01-01T01:25:34.000Z</time>
      </trkpt>
      <trkpt lat="45.6082" lon="4.71159">
        <ele>303.8</ele>
        <time>1970-01-01T01:25:36.000Z</time>
      </trkpt>
      <trkpt lat="45.60823" lon="4.71163">
        <ele>303.8</ele>
        <time>1970-01-01T01:25:38.000Z</time>
      </trkpt>
      <trkpt lat="45.60827" lon="4.71166">
        <ele>304</ele>
        <time>1970-01-01T01:25:40.000Z</time>
      </trkpt>
      <trkpt lat="45.6083" lon="4.7117">
        <ele>304.2</ele>
        <time>1970-01-01T01:25:42.000Z</time>
      </trkpt>
      <trkpt lat="45.60833" lon="4.71173">
        <ele>304.4</ele>
        <time>1970-01-01T01:25:44.000Z</time>
      </trkpt>
      <trkpt lat="45.60836" lon="4.71177">
        <ele>304.8</ele>
        <time>1970-01-01T01:25:46.000Z</time>
      </trkpt>
      <trkpt lat="45.60839" lon="4.7118">
        <ele>305.2</ele>
        <time>1970-01-01T01:25:48.000Z</time>
      </trkpt>
      <trkpt lat="45.60842" lon="4.71183">
        <ele>305.6</ele>
        <time>1970-01-01T01:25:50.000Z</time>
      </trkpt>
      <trkpt lat="45.60844" lon="4.71184">
        <ele>306</ele>
        <time>1970-01-01T01:25:51.000Z</time>
      </trkpt>
      <trkpt lat="45.60845" lon="4.71186">
        <ele>306.2</ele>
        <time>1970-01-01T01:25:52.000Z</time>
      </trkpt>
      <trkpt lat="45.60848" lon="4.71188">
        <ele>306.4</ele>
        <time>1970-01-01T01:25:54.000Z</time>
      </trkpt>
      <trkpt lat="45.60851" lon="4.7119">
        <ele>306.6</ele>
        <time>1970-01-01T01:25:56.000Z</time>
      </trkpt>
      <trkpt lat="45.60854" lon="4.71193">
        <ele>307</ele>
        <time>1970-01-01T01:25:58.000Z</time>
      </trkpt>
      <trkpt lat="45.60857" lon="4.71195">
        <ele>307.2</ele>
        <time>1970-01-01T01:26:00.000Z</time>
      </trkpt>
      <trkpt lat="45.6086" lon="4.71198">
        <ele>307.4</ele>
        <time>1970-01-01T01:26:02.000Z</time>
      </trkpt>
      <trkpt lat="45.60862" lon="4.712">
        <ele>307.6</ele>
        <time>1970-01-01T01:26:04.000Z</time>
      </trkpt>
      <trkpt lat="45.60864" lon="4.71201">
        <ele>307.8</ele>
        <time>1970-01-01T01:26:05.000Z</time>
      </trkpt>
      <trkpt lat="45.60865" lon="4.71202">
        <ele>308</ele>
        <time>1970-01-01T01:26:06.000Z</time>
      </trkpt>
      <trkpt lat="45.60867" lon="4.71204">
        <ele>308.2</ele>
        <time>1970-01-01T01:26:08.000Z</time>
      </trkpt>
      <trkpt lat="45.60869" lon="4.71205">
        <ele>308.4</ele>
        <time>1970-01-01T01:26:10.000Z</time>
      </trkpt>
      <trkpt lat="45.60872" lon="4.71207">
        <ele>308.6</ele>
        <time>1970-01-01T01:26:12.000Z</time>
      </trkpt>
      <trkpt lat="45.60875" lon="4.71209">
        <ele>308.8</ele>
        <time>1970-01-01T01:26:14.000Z</time>
      </trkpt>
      <trkpt lat="45.60877" lon="4.7121">
        <ele>309.2</ele>
        <time>1970-01-01T01:26:16.000Z</time>
      </trkpt>
      <trkpt lat="45.60879" lon="4.71213">
        <ele>309.8</ele>
        <time>1970-01-01T01:26:18.000Z</time>
      </trkpt>
      <trkpt lat="45.6088" lon="4.71213">
        <ele>310.4</ele>
        <time>1970-01-01T01:26:19.000Z</time>
      </trkpt>
      <trkpt lat="45.60881" lon="4.71214">
        <ele>310.6</ele>
        <time>1970-01-01T01:26:20.000Z</time>
      </trkpt>
      <trkpt lat="45.60882" lon="4.71215">
        <ele>310.8</ele>
        <time>1970-01-01T01:26:21.000Z</time>
      </trkpt>
      <trkpt lat="45.60883" lon="4.71215">
        <ele>311</ele>
        <time>1970-01-01T01:26:22.000Z</time>
      </trkpt>
      <trkpt lat="45.60884" lon="4.71216">
        <ele>311.2</ele>
        <time>1970-01-01T01:26:23.000Z</time>
      </trkpt>
      <trkpt lat="45.60885" lon="4.71217">
        <ele>311.2</ele>
        <time>1970-01-01T01:26:24.000Z</time>
      </trkpt>
      <trkpt lat="45.60886" lon="4.71218">
        <ele>311.4</ele>
        <time>1970-01-01T01:26:25.000Z</time>
      </trkpt>
      <trkpt lat="45.60887" lon="4.71218">
        <ele>311.8</ele>
        <time>1970-01-01T01:26:26.000Z</time>
      </trkpt>
      <trkpt lat="45.60889" lon="4.7122">
        <ele>312</ele>
        <time>1970-01-01T01:26:28.000Z</time>
      </trkpt>
      <trkpt lat="45.60891" lon="4.71221">
        <ele>312.4</ele>
        <time>1970-01-01T01:26:30.000Z</time>
      </trkpt>
      <trkpt lat="45.60892" lon="4.71222">
        <ele>312.6</ele>
        <time>1970-01-01T01:26:31.000Z</time>
      </trkpt>
      <trkpt lat="45.60893" lon="4.71223">
        <ele>312.6</ele>
        <time>1970-01-01T01:26:32.000Z</time>
      </trkpt>
      <trkpt lat="45.60895" lon="4.71224">
        <ele>312.8</ele>
        <time>1970-01-01T01:26:34.000Z</time>
      </trkpt>
      <trkpt lat="45.60897" lon="4.71225">
        <ele>313.2</ele>
        <time>1970-01-01T01:26:36.000Z</time>
      </trkpt>
      <trkpt lat="45.60899" lon="4.71226">
        <ele>313.6</ele>
        <time>1970-01-01T01:26:38.000Z</time>
      </trkpt>
      <trkpt lat="45.609" lon="4.71227">
        <ele>313.6</ele>
        <time>1970-01-01T01:26:39.000Z</time>
      </trkpt>
      <trkpt lat="45.60901" lon="4.71228">
        <ele>313.8</ele>
        <time>1970-01-01T01:26:40.000Z</time>
      </trkpt>
      <trkpt lat="45.60902" lon="4.71228">
        <ele>313.8</ele>
        <time>1970-01-01T01:26:41.000Z</time>
      </trkpt>
      <trkpt lat="45.60903" lon="4.71229">
        <ele>314.2</ele>
        <time>1970-01-01T01:26:42.000Z</time>
      </trkpt>
      <trkpt lat="45.60905" lon="4.7123">
        <ele>314.6</ele>
        <time>1970-01-01T01:26:44.000Z</time>
      </trkpt>
      <trkpt lat="45.60907" lon="4.71232">
        <ele>315</ele>
        <time>1970-01-01T01:26:46.000Z</time>
      </trkpt>
      <trkpt lat="45.60908" lon="4.71232">
        <ele>315.4</ele>
        <time>1970-01-01T01:26:47.000Z</time>
      </trkpt>
      <trkpt lat="45.60909" lon="4.71233">
        <ele>315.6</ele>
        <time>1970-01-01T01:26:48.000Z</time>
      </trkpt>
      <trkpt lat="45.6091" lon="4.71234">
        <ele>315.8</ele>
        <time>1970-01-01T01:26:49.000Z</time>
      </trkpt>
      <trkpt lat="45.6091" lon="4.71235">
        <ele>315.8</ele>
        <time>1970-01-01T01:26:50.000Z</time>
      </trkpt>
      <trkpt lat="45.60912" lon="4.71236">
        <ele>316</ele>
        <time>1970-01-01T01:26:52.000Z</time>
      </trkpt>
      <trkpt lat="45.60914" lon="4.71237">
        <ele>316.2</ele>
        <time>1970-01-01T01:26:54.000Z</time>
      </trkpt>
      <trkpt lat="45.60915" lon="4.71238">
        <ele>316.4</ele>
        <time>1970-01-01T01:26:55.000Z</time>
      </trkpt>
      <trkpt lat="45.60916" lon="4.71239">
        <ele>316.4</ele>
        <time>1970-01-01T01:26:56.000Z</time>
      </trkpt>
      <trkpt lat="45.60918" lon="4.71241">
        <ele>316.8</ele>
        <time>1970-01-01T01:26:58.000Z</time>
      </trkpt>
      <trkpt lat="45.6092" lon="4.71242">
        <ele>317.4</ele>
        <time>1970-01-01T01:27:00.000Z</time>
      </trkpt>
      <trkpt lat="45.60922" lon="4.71243">
        <ele>317.6</ele>
        <time>1970-01-01T01:27:02.000Z</time>
      </trkpt>
      <trkpt lat="45.60924" lon="4.71245">
        <ele>317.8</ele>
        <time>1970-01-01T01:27:04.000Z</time>
      </trkpt>
      <trkpt lat="45.60926" lon="4.71248">
        <ele>317.8</ele>
        <time>1970-01-01T01:27:06.000Z</time>
      </trkpt>
      <trkpt lat="45.60928" lon="4.71251">
        <ele>318.2</ele>
        <time>1970-01-01T01:27:08.000Z</time>
      </trkpt>
      <trkpt lat="45.60929" lon="4.71254">
        <ele>318.6</ele>
        <time>1970-01-01T01:27:10.000Z</time>
      </trkpt>
      <trkpt lat="45.60929" lon="4.71256">
        <ele>318.8</ele>
        <time>1970-01-01T01:27:11.000Z</time>
      </trkpt>
      <trkpt lat="45.60928" lon="4.71258">
        <ele>319</ele>
        <time>1970-01-01T01:27:12.000Z</time>
      </trkpt>
      <trkpt lat="45.60928" lon="4.71262">
        <ele>319.2</ele>
        <time>1970-01-01T01:27:14.000Z</time>
      </trkpt>
      <trkpt lat="45.60927" lon="4.71264">
        <ele>319.8</ele>
        <time>1970-01-01T01:27:15.000Z</time>
      </trkpt>
      <trkpt lat="45.60927" lon="4.71266">
        <ele>320</ele>
        <time>1970-01-01T01:27:16.000Z</time>
      </trkpt>
      <trkpt lat="45.60926" lon="4.71268">
        <ele>320.2</ele>
        <time>1970-01-01T01:27:17.000Z</time>
      </trkpt>
      <trkpt lat="45.60926" lon="4.7127">
        <ele>320.4</ele>
        <time>1970-01-01T01:27:18.000Z</time>
      </trkpt>
      <trkpt lat="45.60925" lon="4.71273">
        <ele>320.6</ele>
        <time>1970-01-01T01:27:20.000Z</time>
      </trkpt>
      <trkpt lat="45.60924" lon="4.71277">
        <ele>320.8</ele>
        <time>1970-01-01T01:27:22.000Z</time>
      </trkpt>
      <trkpt lat="45.60924" lon="4.71278">
        <ele>320.8</ele>
        <time>1970-01-01T01:27:23.000Z</time>
      </trkpt>
      <trkpt lat="45.60924" lon="4.7128">
        <ele>320.8</ele>
        <time>1970-01-01T01:27:24.000Z</time>
      </trkpt>
      <trkpt lat="45.60923" lon="4.71283">
        <ele>321</ele>
        <time>1970-01-01T01:27:26.000Z</time>
      </trkpt>
      <trkpt lat="45.60922" lon="4.71285">
        <ele>321.2</ele>
        <time>1970-01-01T01:27:27.000Z</time>
      </trkpt>
      <trkpt lat="45.60922" lon="4.71286">
        <ele>321.4</ele>
        <time>1970-01-01T01:27:28.000Z</time>
      </trkpt>
      <trkpt lat="45.60921" lon="4.7129">
        <ele>321.6</ele>
        <time>1970-01-01T01:27:30.000Z</time>
      </trkpt>
      <trkpt lat="45.60921" lon="4.71294">
        <ele>321.8</ele>
        <time>1970-01-01T01:27:32.000Z</time>
      </trkpt>
      <trkpt lat="45.6092" lon="4.71297">
        <ele>322</ele>
        <time>1970-01-01T01:27:33.000Z</time>
      </trkpt>
      <trkpt lat="45.6092" lon="4.71299">
        <ele>322</ele>
        <time>1970-01-01T01:27:34.000Z</time>
      </trkpt>
      <trkpt lat="45.60919" lon="4.71304">
        <ele>322.2</ele>
        <time>1970-01-01T01:27:36.000Z</time>
      </trkpt>
      <trkpt lat="45.60918" lon="4.71306">
        <ele>322.2</ele>
        <time>1970-01-01T01:27:37.000Z</time>
      </trkpt>
      <trkpt lat="45.60918" lon="4.71308">
        <ele>322.4</ele>
        <time>1970-01-01T01:27:38.000Z</time>
      </trkpt>
      <trkpt lat="45.60917" lon="4.71313">
        <ele>322.6</ele>
        <time>1970-01-01T01:27:40.000Z</time>
      </trkpt>
      <trkpt lat="45.60917" lon="4.71317">
        <ele>322.8</ele>
        <time>1970-01-01T01:27:42.000Z</time>
      </trkpt>
      <trkpt lat="45.60916" lon="4.7132">
        <ele>323.2</ele>
        <time>1970-01-01T01:27:44.000Z</time>
      </trkpt>
      <trkpt lat="45.60915" lon="4.71322">
        <ele>323.6</ele>
        <time>1970-01-01T01:27:45.000Z</time>
      </trkpt>
      <trkpt lat="45.60915" lon="4.71324">
        <ele>323.8</ele>
        <time>1970-01-01T01:27:46.000Z</time>
      </trkpt>
      <trkpt lat="45.60914" lon="4.71328">
        <ele>324.2</ele>
        <time>1970-01-01T01:27:48.000Z</time>
      </trkpt>
      <trkpt lat="45.60914" lon="4.71333">
        <ele>324.2</ele>
        <time>1970-01-01T01:27:50.000Z</time>
      </trkpt>
      <trkpt lat="45.60913" lon="4.71338">
        <ele>324.4</ele>
        <time>1970-01-01T01:27:52.000Z</time>
      </trkpt>
      <trkpt lat="45.60912" lon="4.71342">
        <ele>324.6</ele>
        <time>1970-01-01T01:27:54.000Z</time>
      </trkpt>
      <trkpt lat="45.60912" lon="4.71344">
        <ele>324.8</ele>
        <time>1970-01-01T01:27:55.000Z</time>
      </trkpt>
      <trkpt lat="45.60911" lon="4.71346">
        <ele>324.8</ele>
        <time>1970-01-01T01:27:56.000Z</time>
      </trkpt>
      <trkpt lat="45.6091" lon="4.7135">
        <ele>325.2</ele>
        <time>1970-01-01T01:27:58.000Z</time>
      </trkpt>
      <trkpt lat="45.6091" lon="4.71353">
        <ele>325.2</ele>
        <time>1970-01-01T01:27:59.000Z</time>
      </trkpt>
      <trkpt lat="45.60909" lon="4.71355">
        <ele>325.4</ele>
        <time>1970-01-01T01:28:00.000Z</time>
      </trkpt>
      <trkpt lat="45.60909" lon="4.7136">
        <ele>325.8</ele>
        <time>1970-01-01T01:28:02.000Z</time>
      </trkpt>
      <trkpt lat="45.60907" lon="4.71364">
        <ele>326</ele>
        <time>1970-01-01T01:28:04.000Z</time>
      </trkpt>
      <trkpt lat="45.60907" lon="4.71366">
        <ele>326.2</ele>
        <time>1970-01-01T01:28:05.000Z</time>
      </trkpt>
      <trkpt lat="45.60906" lon="4.71368">
        <ele>326.4</ele>
        <time>1970-01-01T01:28:06.000Z</time>
      </trkpt>
      <trkpt lat="45.60905" lon="4.71372">
        <ele>326.6</ele>
        <time>1970-01-01T01:28:08.000Z</time>
      </trkpt>
      <trkpt lat="45.60903" lon="4.71376">
        <ele>326.6</ele>
        <time>1970-01-01T01:28:10.000Z</time>
      </trkpt>
      <trkpt lat="45.60902" lon="4.71378">
        <ele>326.8</ele>
        <time>1970-01-01T01:28:12.000Z</time>
      </trkpt>
      <trkpt lat="45.60902" lon="4.71378">
        <ele>326.8</ele>
        <time>1970-01-01T01:28:13.000Z</time>
      </trkpt>
      <trkpt lat="45.60903" lon="4.71378">
        <ele>326.8</ele>
        <time>1970-01-01T01:28:14.000Z</time>
      </trkpt>
      <trkpt lat="45.60903" lon="4.71378">
        <ele>326.8</ele>
        <time>1970-01-01T01:28:16.000Z</time>
      </trkpt>
      <trkpt lat="45.60903" lon="4.71378">
        <ele>327</ele>
        <time>1970-01-01T01:28:22.000Z</time>
      </trkpt>
      <trkpt lat="45.60903" lon="4.71377">
        <ele>327</ele>
        <time>1970-01-01T01:28:26.000Z</time>
      </trkpt>
      <trkpt lat="45.60903" lon="4.71377">
        <ele>327</ele>
        <time>1970-01-01T01:28:32.000Z</time>
      </trkpt>
      <trkpt lat="45.60903" lon="4.71377">
        <ele>327</ele>
        <time>1970-01-01T01:28:39.000Z</time>
      </trkpt>
      <trkpt lat="45.60903" lon="4.71377">
        <ele>326.8</ele>
        <time>1970-01-01T01:28:42.000Z</time>
      </trkpt>
      <trkpt lat="45.60903" lon="4.71377">
        <ele>326.8</ele>
        <time>1970-01-01T01:28:48.000Z</time>
      </trkpt>
      <trkpt lat="45.60903" lon="4.71377">
        <ele>326.6</ele>
        <time>1970-01-01T01:28:56.000Z</time>
      </trkpt>
      <trkpt lat="45.60903" lon="4.71377">
        <ele>326.6</ele>
        <time>1970-01-01T01:29:02.000Z</time>
      </trkpt>
      <trkpt lat="45.60903" lon="4.71377">
        <ele>326.6</ele>
        <time>1970-01-01T01:29:05.000Z</time>
      </trkpt>
      <trkpt lat="45.60903" lon="4.71377">
        <ele>326.4</ele>
        <time>1970-01-01T01:29:12.000Z</time>
      </trkpt>
      <trkpt lat="45.60903" lon="4.71377">
        <ele>326.8</ele>
        <time>1970-01-01T01:29:16.000Z</time>
      </trkpt>
      <trkpt lat="45.60903" lon="4.71377">
        <ele>327</ele>
        <time>1970-01-01T01:29:22.000Z</time>
      </trkpt>
      <trkpt lat="45.60903" lon="4.71377">
        <ele>327</ele>
        <time>1970-01-01T01:29:26.000Z</time>
      </trkpt>
      <trkpt lat="45.60903" lon="4.71377">
        <ele>327</ele>
        <time>1970-01-01T01:29:30.000Z</time>
      </trkpt>
      <trkpt lat="45.60903" lon="4.71377">
        <ele>327</ele>
        <time>1970-01-01T01:29:34.000Z</time>
      </trkpt>
      <trkpt lat="45.60903" lon="4.71377">
        <ele>327</ele>
        <time>1970-01-01T01:29:42.000Z</time>
      </trkpt>
      <trkpt lat="45.60904" lon="4.71378">
        <ele>327</ele>
        <time>1970-01-01T01:29:43.000Z</time>
      </trkpt>
      <trkpt lat="45.60905" lon="4.71378">
        <ele>327</ele>
        <time>1970-01-01T01:29:44.000Z</time>
      </trkpt>
      <trkpt lat="45.60906" lon="4.71379">
        <ele>327</ele>
        <time>1970-01-01T01:29:46.000Z</time>
      </trkpt>
      <trkpt lat="45.60905" lon="4.71384">
        <ele>327</ele>
        <time>1970-01-01T01:29:48.000Z</time>
      </trkpt>
      <trkpt lat="45.60905" lon="4.71386">
        <ele>327</ele>
        <time>1970-01-01T01:29:49.000Z</time>
      </trkpt>
      <trkpt lat="45.60905" lon="4.71389">
        <ele>327</ele>
        <time>1970-01-01T01:29:50.000Z</time>
      </trkpt>
      <trkpt lat="45.60905" lon="4.71394">
        <ele>327</ele>
        <time>1970-01-01T01:29:52.000Z</time>
      </trkpt>
      <trkpt lat="45.60905" lon="4.71397">
        <ele>327.2</ele>
        <time>1970-01-01T01:29:53.000Z</time>
      </trkpt>
      <trkpt lat="45.60905" lon="4.714">
        <ele>327.2</ele>
        <time>1970-01-01T01:29:54.000Z</time>
      </trkpt>
      <trkpt lat="45.60904" lon="4.71406">
        <ele>327.2</ele>
        <time>1970-01-01T01:29:56.000Z</time>
      </trkpt>
      <trkpt lat="45.60904" lon="4.71412">
        <ele>327.4</ele>
        <time>1970-01-01T01:29:58.000Z</time>
      </trkpt>
      <trkpt lat="45.60904" lon="4.71417">
        <ele>327.4</ele>
        <time>1970-01-01T01:30:00.000Z</time>
      </trkpt>
      <trkpt lat="45.60904" lon="4.71419">
        <ele>327.4</ele>
        <time>1970-01-01T01:30:01.000Z</time>
      </trkpt>
      <trkpt lat="45.60904" lon="4.7142">
        <ele>327.4</ele>
        <time>1970-01-01T01:30:02.000Z</time>
      </trkpt>
      <trkpt lat="45.60904" lon="4.71421">
        <ele>327.6</ele>
        <time>1970-01-01T01:30:04.000Z</time>
      </trkpt>
      <trkpt lat="45.60904" lon="4.71421">
        <ele>327.6</ele>
        <time>1970-01-01T01:30:05.000Z</time>
      </trkpt>
      <trkpt lat="45.60904" lon="4.71421">
        <ele>328</ele>
        <time>1970-01-01T01:30:08.000Z</time>
      </trkpt>
      <trkpt lat="45.60904" lon="4.71421">
        <ele>328</ele>
        <time>1970-01-01T01:30:09.000Z</time>
      </trkpt>
      <trkpt lat="45.60904" lon="4.71421">
        <ele>328.4</ele>
        <time>1970-01-01T01:30:11.000Z</time>
      </trkpt>
      <trkpt lat="45.60905" lon="4.71421">
        <ele>328.4</ele>
        <time>1970-01-01T01:30:12.000Z</time>
      </trkpt>
      <trkpt lat="45.60905" lon="4.71421">
        <ele>328.2</ele>
        <time>1970-01-01T01:30:13.000Z</time>
      </trkpt>
      <trkpt lat="45.60905" lon="4.71422">
        <ele>328.2</ele>
        <time>1970-01-01T01:30:14.000Z</time>
      </trkpt>
      <trkpt lat="45.60906" lon="4.71424">
        <ele>328.4</ele>
        <time>1970-01-01T01:30:16.000Z</time>
      </trkpt>
      <trkpt lat="45.60906" lon="4.71424">
        <ele>328.4</ele>
        <time>1970-01-01T01:30:17.000Z</time>
      </trkpt>
      <trkpt lat="45.60906" lon="4.71424">
        <ele>328.4</ele>
        <time>1970-01-01T01:30:18.000Z</time>
      </trkpt>
      <trkpt lat="45.60906" lon="4.71424">
        <ele>328.4</ele>
        <time>1970-01-01T01:30:20.000Z</time>
      </trkpt>
      <trkpt lat="45.60906" lon="4.71424">
        <ele>328.4</ele>
        <time>1970-01-01T01:30:22.000Z</time>
      </trkpt>
      <trkpt lat="45.60906" lon="4.71424">
        <ele>328.4</ele>
        <time>1970-01-01T01:30:24.000Z</time>
      </trkpt>
      <trkpt lat="45.60906" lon="4.71424">
        <ele>328.2</ele>
        <time>1970-01-01T01:30:27.000Z</time>
      </trkpt>
      <trkpt lat="45.60906" lon="4.71424">
        <ele>328.2</ele>
        <time>1970-01-01T01:30:30.000Z</time>
      </trkpt>
      <trkpt lat="45.60906" lon="4.71424">
        <ele>328.2</ele>
        <time>1970-01-01T01:30:33.000Z</time>
      </trkpt>
      <trkpt lat="45.60906" lon="4.71424">
        <ele>328.2</ele>
        <time>1970-01-01T01:30:36.000Z</time>
      </trkpt>
      <trkpt lat="45.60906" lon="4.71424">
        <ele>328.2</ele>
        <time>1970-01-01T01:30:44.000Z</time>
      </trkpt>
      <trkpt lat="45.60906" lon="4.71424">
        <ele>328.2</ele>
        <time>1970-01-01T01:30:52.000Z</time>
      </trkpt>
      <trkpt lat="45.60906" lon="4.71424">
        <ele>328.2</ele>
        <time>1970-01-01T01:30:53.000Z</time>
      </trkpt>
      <trkpt lat="45.60906" lon="4.71424">
        <ele>328.2</ele>
        <time>1970-01-01T01:30:57.000Z</time>
      </trkpt>
      <trkpt lat="45.60906" lon="4.71424">
        <ele>328.4</ele>
        <time>1970-01-01T01:31:04.000Z</time>
      </trkpt>
      <trkpt lat="45.60906" lon="4.71424">
        <ele>328.4</ele>
        <time>1970-01-01T01:31:06.000Z</time>
      </trkpt>
      <trkpt lat="45.60906" lon="4.71423">
        <ele>328.4</ele>
        <time>1970-01-01T01:31:08.000Z</time>
      </trkpt>
      <trkpt lat="45.60906" lon="4.71427">
        <ele>328.4</ele>
        <time>1970-01-01T01:31:10.000Z</time>
      </trkpt>
      <trkpt lat="45.60906" lon="4.71429">
        <ele>328.4</ele>
        <time>1970-01-01T01:31:11.000Z</time>
      </trkpt>
      <trkpt lat="45.60906" lon="4.71432">
        <ele>328.4</ele>
        <time>1970-01-01T01:31:12.000Z</time>
      </trkpt>
      <trkpt lat="45.60906" lon="4.71439">
        <ele>328.4</ele>
        <time>1970-01-01T01:31:14.000Z</time>
      </trkpt>
      <trkpt lat="45.60906" lon="4.71448">
        <ele>328.2</ele>
        <time>1970-01-01T01:31:16.000Z</time>
      </trkpt>
      <trkpt lat="45.60906" lon="4.71453">
        <ele>328</ele>
        <time>1970-01-01T01:31:17.000Z</time>
      </trkpt>
      <trkpt lat="45.60906" lon="4.71459">
        <ele>328</ele>
        <time>1970-01-01T01:31:18.000Z</time>
      </trkpt>
      <trkpt lat="45.60905" lon="4.71472">
        <ele>327.8</ele>
        <time>1970-01-01T01:31:20.000Z</time>
      </trkpt>
      <trkpt lat="45.60905" lon="4.71479">
        <ele>327.8</ele>
        <time>1970-01-01T01:31:21.000Z</time>
      </trkpt>
      <trkpt lat="45.60905" lon="4.71486">
        <ele>327.6</ele>
        <time>1970-01-01T01:31:22.000Z</time>
      </trkpt>
      <trkpt lat="45.60903" lon="4.71503">
        <ele>327.4</ele>
        <time>1970-01-01T01:31:24.000Z</time>
      </trkpt>
      <trkpt lat="45.60902" lon="4.71511">
        <ele>327.6</ele>
        <time>1970-01-01T01:31:25.000Z</time>
      </trkpt>
      <trkpt lat="45.60901" lon="4.71519">
        <ele>327.2</ele>
        <time>1970-01-01T01:31:26.000Z</time>
      </trkpt>
      <trkpt lat="45.60899" lon="4.71536">
        <ele>326.4</ele>
        <time>1970-01-01T01:31:28.000Z</time>
      </trkpt>
      <trkpt lat="45.60896" lon="4.71554">
        <ele>325.8</ele>
        <time>1970-01-01T01:31:30.000Z</time>
      </trkpt>
      <trkpt lat="45.60893" lon="4.71572">
        <ele>325.4</ele>
        <time>1970-01-01T01:31:32.000Z</time>
      </trkpt>
      <trkpt lat="45.60888" lon="4.7159">
        <ele>325.2</ele>
        <time>1970-01-01T01:31:34.000Z</time>
      </trkpt>
      <trkpt lat="45.60886" lon="4.71599">
        <ele>325.2</ele>
        <time>1970-01-01T01:31:35.000Z</time>
      </trkpt>
      <trkpt lat="45.60884" lon="4.71608">
        <ele>325</ele>
        <time>1970-01-01T01:31:36.000Z</time>
      </trkpt>
      <trkpt lat="45.6088" lon="4.71628">
        <ele>325</ele>
        <time>1970-01-01T01:31:38.000Z</time>
      </trkpt>
      <trkpt lat="45.60876" lon="4.71648">
        <ele>324.8</ele>
        <time>1970-01-01T01:31:40.000Z</time>
      </trkpt>
      <trkpt lat="45.60873" lon="4.71669">
        <ele>324.6</ele>
        <time>1970-01-01T01:31:42.000Z</time>
      </trkpt>
      <trkpt lat="45.60871" lon="4.71691">
        <ele>324.4</ele>
        <time>1970-01-01T01:31:44.000Z</time>
      </trkpt>
      <trkpt lat="45.6087" lon="4.71703">
        <ele>324.2</ele>
        <time>1970-01-01T01:31:45.000Z</time>
      </trkpt>
      <trkpt lat="45.6087" lon="4.71716">
        <ele>324.2</ele>
        <time>1970-01-01T01:31:46.000Z</time>
      </trkpt>
      <trkpt lat="45.6087" lon="4.71729">
        <ele>323.6</ele>
        <time>1970-01-01T01:31:47.000Z</time>
      </trkpt>
      <trkpt lat="45.6087" lon="4.71742">
        <ele>323</ele>
        <time>1970-01-01T01:31:48.000Z</time>
      </trkpt>
      <trkpt lat="45.60871" lon="4.71755">
        <ele>322.2</ele>
        <time>1970-01-01T01:31:49.000Z</time>
      </trkpt>
      <trkpt lat="45.60871" lon="4.71769">
        <ele>321.4</ele>
        <time>1970-01-01T01:31:50.000Z</time>
      </trkpt>
      <trkpt lat="45.60869" lon="4.71782">
        <ele>320.4</ele>
        <time>1970-01-01T01:31:51.000Z</time>
      </trkpt>
      <trkpt lat="45.60866" lon="4.71793">
        <ele>319.6</ele>
        <time>1970-01-01T01:31:52.000Z</time>
      </trkpt>
      <trkpt lat="45.60862" lon="4.71802">
        <ele>319</ele>
        <time>1970-01-01T01:31:53.000Z</time>
      </trkpt>
      <trkpt lat="45.60857" lon="4.7181">
        <ele>316.6</ele>
        <time>1970-01-01T01:31:54.000Z</time>
      </trkpt>
      <trkpt lat="45.60851" lon="4.71817">
        <ele>316</ele>
        <time>1970-01-01T01:31:55.000Z</time>
      </trkpt>
      <trkpt lat="45.60847" lon="4.71824">
        <ele>315.6</ele>
        <time>1970-01-01T01:31:56.000Z</time>
      </trkpt>
      <trkpt lat="45.6084" lon="4.71838">
        <ele>315.4</ele>
        <time>1970-01-01T01:31:58.000Z</time>
      </trkpt>
      <trkpt lat="45.60838" lon="4.71845">
        <ele>315.2</ele>
        <time>1970-01-01T01:31:59.000Z</time>
      </trkpt>
      <trkpt lat="45.60836" lon="4.71851">
        <ele>315.2</ele>
        <time>1970-01-01T01:32:00.000Z</time>
      </trkpt>
      <trkpt lat="45.60833" lon="4.7186">
        <ele>315.2</ele>
        <time>1970-01-01T01:32:02.000Z</time>
      </trkpt>
      <trkpt lat="45.60832" lon="4.71863">
        <ele>315.2</ele>
        <time>1970-01-01T01:32:03.000Z</time>
      </trkpt>
      <trkpt lat="45.60831" lon="4.71866">
        <ele>315.6</ele>
        <time>1970-01-01T01:32:04.000Z</time>
      </trkpt>
      <trkpt lat="45.60831" lon="4.71871">
        <ele>316.8</ele>
        <time>1970-01-01T01:32:06.000Z</time>
      </trkpt>
      <trkpt lat="45.60833" lon="4.71875">
        <ele>318</ele>
        <time>1970-01-01T01:32:08.000Z</time>
      </trkpt>
      <trkpt lat="45.60835" lon="4.71878">
        <ele>319.6</ele>
        <time>1970-01-01T01:32:10.000Z</time>
      </trkpt>
      <trkpt lat="45.60836" lon="4.71878">
        <ele>320.4</ele>
        <time>1970-01-01T01:32:11.000Z</time>
      </trkpt>
      <trkpt lat="45.60837" lon="4.71879">
        <ele>321</ele>
        <time>1970-01-01T01:32:12.000Z</time>
      </trkpt>
      <trkpt lat="45.60841" lon="4.7188">
        <ele>322</ele>
        <time>1970-01-01T01:32:14.000Z</time>
      </trkpt>
      <trkpt lat="45.60842" lon="4.71881">
        <ele>322.4</ele>
        <time>1970-01-01T01:32:15.000Z</time>
      </trkpt>
      <trkpt lat="45.60844" lon="4.71882">
        <ele>322.8</ele>
        <time>1970-01-01T01:32:16.000Z</time>
      </trkpt>
      <trkpt lat="45.60846" lon="4.71883">
        <ele>323</ele>
        <time>1970-01-01T01:32:17.000Z</time>
      </trkpt>
      <trkpt lat="45.60848" lon="4.71884">
        <ele>323.2</ele>
        <time>1970-01-01T01:32:18.000Z</time>
      </trkpt>
      <trkpt lat="45.60849" lon="4.71885">
        <ele>323.4</ele>
        <time>1970-01-01T01:32:19.000Z</time>
      </trkpt>
      <trkpt lat="45.60851" lon="4.71886">
        <ele>323.4</ele>
        <time>1970-01-01T01:32:20.000Z</time>
      </trkpt>
      <trkpt lat="45.60853" lon="4.71887">
        <ele>323.6</ele>
        <time>1970-01-01T01:32:21.000Z</time>
      </trkpt>
      <trkpt lat="45.60854" lon="4.71888">
        <ele>323.8</ele>
        <time>1970-01-01T01:32:22.000Z</time>
      </trkpt>
      <trkpt lat="45.60857" lon="4.7189">
        <ele>323.8</ele>
        <time>1970-01-01T01:32:24.000Z</time>
      </trkpt>
      <trkpt lat="45.60859" lon="4.71893">
        <ele>324</ele>
        <time>1970-01-01T01:32:26.000Z</time>
      </trkpt>
      <trkpt lat="45.60862" lon="4.71895">
        <ele>324.4</ele>
        <time>1970-01-01T01:32:28.000Z</time>
      </trkpt>
      <trkpt lat="45.60864" lon="4.71897">
        <ele>324.6</ele>
        <time>1970-01-01T01:32:30.000Z</time>
      </trkpt>
      <trkpt lat="45.60866" lon="4.71899">
        <ele>325.2</ele>
        <time>1970-01-01T01:32:32.000Z</time>
      </trkpt>
      <trkpt lat="45.60867" lon="4.719">
        <ele>325.4</ele>
        <time>1970-01-01T01:32:33.000Z</time>
      </trkpt>
      <trkpt lat="45.60868" lon="4.71901">
        <ele>325.6</ele>
        <time>1970-01-01T01:32:34.000Z</time>
      </trkpt>
      <trkpt lat="45.60869" lon="4.71902">
        <ele>325.6</ele>
        <time>1970-01-01T01:32:35.000Z</time>
      </trkpt>
      <trkpt lat="45.6087" lon="4.71903">
        <ele>325.6</ele>
        <time>1970-01-01T01:32:36.000Z</time>
      </trkpt>
      <trkpt lat="45.60871" lon="4.71904">
        <ele>325.8</ele>
        <time>1970-01-01T01:32:37.000Z</time>
      </trkpt>
      <trkpt lat="45.60872" lon="4.71905">
        <ele>325.8</ele>
        <time>1970-01-01T01:32:38.000Z</time>
      </trkpt>
      <trkpt lat="45.60874" lon="4.71908">
        <ele>326.2</ele>
        <time>1970-01-01T01:32:40.000Z</time>
      </trkpt>
      <trkpt lat="45.60875" lon="4.7191">
        <ele>326.4</ele>
        <time>1970-01-01T01:32:42.000Z</time>
      </trkpt>
      <trkpt lat="45.60877" lon="4.71912">
        <ele>326.8</ele>
        <time>1970-01-01T01:32:44.000Z</time>
      </trkpt>
      <trkpt lat="45.60879" lon="4.71914">
        <ele>327</ele>
        <time>1970-01-01T01:32:46.000Z</time>
      </trkpt>
      <trkpt lat="45.60881" lon="4.71915">
        <ele>327.2</ele>
        <time>1970-01-01T01:32:48.000Z</time>
      </trkpt>
      <trkpt lat="45.60884" lon="4.71918">
        <ele>327.4</ele>
        <time>1970-01-01T01:32:50.000Z</time>
      </trkpt>
      <trkpt lat="45.60885" lon="4.71919">
        <ele>327.6</ele>
        <time>1970-01-01T01:32:51.000Z</time>
      </trkpt>
      <trkpt lat="45.60886" lon="4.7192">
        <ele>327.8</ele>
        <time>1970-01-01T01:32:52.000Z</time>
      </trkpt>
      <trkpt lat="45.60889" lon="4.71922">
        <ele>328.2</ele>
        <time>1970-01-01T01:32:54.000Z</time>
      </trkpt>
      <trkpt lat="45.60891" lon="4.71924">
        <ele>328.6</ele>
        <time>1970-01-01T01:32:56.000Z</time>
      </trkpt>
      <trkpt lat="45.60893" lon="4.71926">
        <ele>329.2</ele>
        <time>1970-01-01T01:32:58.000Z</time>
      </trkpt>
      <trkpt lat="45.60894" lon="4.71927">
        <ele>329.6</ele>
        <time>1970-01-01T01:32:59.000Z</time>
      </trkpt>
      <trkpt lat="45.60895" lon="4.71928">
        <ele>329.8</ele>
        <time>1970-01-01T01:33:00.000Z</time>
      </trkpt>
      <trkpt lat="45.60896" lon="4.71929">
        <ele>330.2</ele>
        <time>1970-01-01T01:33:01.000Z</time>
      </trkpt>
      <trkpt lat="45.60897" lon="4.71931">
        <ele>330.2</ele>
        <time>1970-01-01T01:33:02.000Z</time>
      </trkpt>
      <trkpt lat="45.609" lon="4.71934">
        <ele>330.8</ele>
        <time>1970-01-01T01:33:04.000Z</time>
      </trkpt>
      <trkpt lat="45.60901" lon="4.71935">
        <ele>331</ele>
        <time>1970-01-01T01:33:05.000Z</time>
      </trkpt>
      <trkpt lat="45.60903" lon="4.71937">
        <ele>331.2</ele>
        <time>1970-01-01T01:33:06.000Z</time>
      </trkpt>
      <trkpt lat="45.60904" lon="4.71938">
        <ele>331.6</ele>
        <time>1970-01-01T01:33:07.000Z</time>
      </trkpt>
      <trkpt lat="45.60905" lon="4.71939">
        <ele>331.8</ele>
        <time>1970-01-01T01:33:08.000Z</time>
      </trkpt>
      <trkpt lat="45.60907" lon="4.71942">
        <ele>331.8</ele>
        <time>1970-01-01T01:33:10.000Z</time>
      </trkpt>
      <trkpt lat="45.60908" lon="4.71943">
        <ele>332</ele>
        <time>1970-01-01T01:33:11.000Z</time>
      </trkpt>
      <trkpt lat="45.60909" lon="4.71945">
        <ele>332.2</ele>
        <time>1970-01-01T01:33:12.000Z</time>
      </trkpt>
      <trkpt lat="45.60911" lon="4.71948">
        <ele>332.4</ele>
        <time>1970-01-01T01:33:14.000Z</time>
      </trkpt>
      <trkpt lat="45.60913" lon="4.71949">
        <ele>332.6</ele>
        <time>1970-01-01T01:33:15.000Z</time>
      </trkpt>
      <trkpt lat="45.60914" lon="4.7195">
        <ele>333</ele>
        <time>1970-01-01T01:33:16.000Z</time>
      </trkpt>
      <trkpt lat="45.60915" lon="4.71952">
        <ele>333.2</ele>
        <time>1970-01-01T01:33:17.000Z</time>
      </trkpt>
      <trkpt lat="45.60916" lon="4.71953">
        <ele>333.4</ele>
        <time>1970-01-01T01:33:18.000Z</time>
      </trkpt>
      <trkpt lat="45.60918" lon="4.71955">
        <ele>333.4</ele>
        <time>1970-01-01T01:33:20.000Z</time>
      </trkpt>
      <trkpt lat="45.6092" lon="4.71958">
        <ele>333.8</ele>
        <time>1970-01-01T01:33:22.000Z</time>
      </trkpt>
      <trkpt lat="45.60921" lon="4.71959">
        <ele>333.8</ele>
        <time>1970-01-01T01:33:23.000Z</time>
      </trkpt>
      <trkpt lat="45.60923" lon="4.7196">
        <ele>334</ele>
        <time>1970-01-01T01:33:24.000Z</time>
      </trkpt>
      <trkpt lat="45.60925" lon="4.71963">
        <ele>334</ele>
        <time>1970-01-01T01:33:26.000Z</time>
      </trkpt>
      <trkpt lat="45.60927" lon="4.71966">
        <ele>334.2</ele>
        <time>1970-01-01T01:33:28.000Z</time>
      </trkpt>
      <trkpt lat="45.6093" lon="4.71969">
        <ele>334.2</ele>
        <time>1970-01-01T01:33:30.000Z</time>
      </trkpt>
      <trkpt lat="45.60933" lon="4.71972">
        <ele>334.6</ele>
        <time>1970-01-01T01:33:32.000Z</time>
      </trkpt>
      <trkpt lat="45.60935" lon="4.71976">
        <ele>334.6</ele>
        <time>1970-01-01T01:33:34.000Z</time>
      </trkpt>
      <trkpt lat="45.60938" lon="4.71979">
        <ele>334.8</ele>
        <time>1970-01-01T01:33:36.000Z</time>
      </trkpt>
      <trkpt lat="45.6094" lon="4.71983">
        <ele>335</ele>
        <time>1970-01-01T01:33:38.000Z</time>
      </trkpt>
      <trkpt lat="45.60943" lon="4.71987">
        <ele>335</ele>
        <time>1970-01-01T01:33:40.000Z</time>
      </trkpt>
      <trkpt lat="45.60946" lon="4.71991">
        <ele>335.2</ele>
        <time>1970-01-01T01:33:42.000Z</time>
      </trkpt>
      <trkpt lat="45.60949" lon="4.71996">
        <ele>335.2</ele>
        <time>1970-01-01T01:33:44.000Z</time>
      </trkpt>
      <trkpt lat="45.60953" lon="4.72002">
        <ele>335.4</ele>
        <time>1970-01-01T01:33:46.000Z</time>
      </trkpt>
      <trkpt lat="45.60957" lon="4.72007">
        <ele>335.4</ele>
        <time>1970-01-01T01:33:48.000Z</time>
      </trkpt>
      <trkpt lat="45.6096" lon="4.72013">
        <ele>335.4</ele>
        <time>1970-01-01T01:33:50.000Z</time>
      </trkpt>
      <trkpt lat="45.60964" lon="4.72019">
        <ele>335.6</ele>
        <time>1970-01-01T01:33:52.000Z</time>
      </trkpt>
      <trkpt lat="45.60968" lon="4.72024">
        <ele>335.6</ele>
        <time>1970-01-01T01:33:54.000Z</time>
      </trkpt>
      <trkpt lat="45.6097" lon="4.72027">
        <ele>335.6</ele>
        <time>1970-01-01T01:33:55.000Z</time>
      </trkpt>
      <trkpt lat="45.60972" lon="4.72029">
        <ele>335.8</ele>
        <time>1970-01-01T01:33:56.000Z</time>
      </trkpt>
      <trkpt lat="45.60974" lon="4.72032">
        <ele>335.8</ele>
        <time>1970-01-01T01:33:57.000Z</time>
      </trkpt>
      <trkpt lat="45.60976" lon="4.72036">
        <ele>335.8</ele>
        <time>1970-01-01T01:33:58.000Z</time>
      </trkpt>
      <trkpt lat="45.6098" lon="4.72044">
        <ele>335.8</ele>
        <time>1970-01-01T01:34:00.000Z</time>
      </trkpt>
      <trkpt lat="45.60985" lon="4.72053">
        <ele>335.8</ele>
        <time>1970-01-01T01:34:02.000Z</time>
      </trkpt>
      <trkpt lat="45.60987" lon="4.72058">
        <ele>335.8</ele>
        <time>1970-01-01T01:34:03.000Z</time>
      </trkpt>
      <trkpt lat="45.60989" lon="4.72063">
        <ele>335.8</ele>
        <time>1970-01-01T01:34:04.000Z</time>
      </trkpt>
      <trkpt lat="45.60995" lon="4.72072">
        <ele>335.8</ele>
        <time>1970-01-01T01:34:06.000Z</time>
      </trkpt>
      <trkpt lat="45.61" lon="4.72083">
        <ele>336</ele>
        <time>1970-01-01T01:34:08.000Z</time>
      </trkpt>
      <trkpt lat="45.61005" lon="4.72093">
        <ele>336</ele>
        <time>1970-01-01T01:34:10.000Z</time>
      </trkpt>
      <trkpt lat="45.61007" lon="4.72098">
        <ele>336</ele>
        <time>1970-01-01T01:34:11.000Z</time>
      </trkpt>
      <trkpt lat="45.6101" lon="4.72103">
        <ele>335.8</ele>
        <time>1970-01-01T01:34:12.000Z</time>
      </trkpt>
      <trkpt lat="45.61014" lon="4.72112">
        <ele>335.8</ele>
        <time>1970-01-01T01:34:14.000Z</time>
      </trkpt>
      <trkpt lat="45.61019" lon="4.7212">
        <ele>335.8</ele>
        <time>1970-01-01T01:34:16.000Z</time>
      </trkpt>
      <trkpt lat="45.61024" lon="4.72129">
        <ele>336</ele>
        <time>1970-01-01T01:34:18.000Z</time>
      </trkpt>
      <trkpt lat="45.61028" lon="4.72137">
        <ele>336</ele>
        <time>1970-01-01T01:34:20.000Z</time>
      </trkpt>
      <trkpt lat="45.6103" lon="4.72141">
        <ele>336</ele>
        <time>1970-01-01T01:34:21.000Z</time>
      </trkpt>
      <trkpt lat="45.61032" lon="4.72145">
        <ele>336</ele>
        <time>1970-01-01T01:34:22.000Z</time>
      </trkpt>
      <trkpt lat="45.61037" lon="4.72153">
        <ele>336.2</ele>
        <time>1970-01-01T01:34:24.000Z</time>
      </trkpt>
      <trkpt lat="45.61041" lon="4.72161">
        <ele>336.2</ele>
        <time>1970-01-01T01:34:26.000Z</time>
      </trkpt>
      <trkpt lat="45.61043" lon="4.72166">
        <ele>336.2</ele>
        <time>1970-01-01T01:34:27.000Z</time>
      </trkpt>
      <trkpt lat="45.61045" lon="4.72171">
        <ele>336.2</ele>
        <time>1970-01-01T01:34:28.000Z</time>
      </trkpt>
      <trkpt lat="45.61051" lon="4.72182">
        <ele>336.2</ele>
        <time>1970-01-01T01:34:30.000Z</time>
      </trkpt>
      <trkpt lat="45.61056" lon="4.72192">
        <ele>336.2</ele>
        <time>1970-01-01T01:34:32.000Z</time>
      </trkpt>
      <trkpt lat="45.61062" lon="4.72203">
        <ele>336.2</ele>
        <time>1970-01-01T01:34:34.000Z</time>
      </trkpt>
      <trkpt lat="45.61065" lon="4.72208">
        <ele>336.2</ele>
        <time>1970-01-01T01:34:35.000Z</time>
      </trkpt>
      <trkpt lat="45.61067" lon="4.72214">
        <ele>336</ele>
        <time>1970-01-01T01:34:36.000Z</time>
      </trkpt>
      <trkpt lat="45.61072" lon="4.72223">
        <ele>335.4</ele>
        <time>1970-01-01T01:34:38.000Z</time>
      </trkpt>
      <trkpt lat="45.61075" lon="4.72232">
        <ele>335</ele>
        <time>1970-01-01T01:34:40.000Z</time>
      </trkpt>
      <trkpt lat="45.61076" lon="4.72237">
        <ele>334.6</ele>
        <time>1970-01-01T01:34:41.000Z</time>
      </trkpt>
      <trkpt lat="45.61078" lon="4.72241">
        <ele>334.2</ele>
        <time>1970-01-01T01:34:42.000Z</time>
      </trkpt>
      <trkpt lat="45.61081" lon="4.72247">
        <ele>334.2</ele>
        <time>1970-01-01T01:34:44.000Z</time>
      </trkpt>
      <trkpt lat="45.61082" lon="4.72248">
        <ele>334.2</ele>
        <time>1970-01-01T01:34:45.000Z</time>
      </trkpt>
      <trkpt lat="45.61082" lon="4.72249">
        <ele>334.2</ele>
        <time>1970-01-01T01:34:46.000Z</time>
      </trkpt>
      <trkpt lat="45.61082" lon="4.72249">
        <ele>334.2</ele>
        <time>1970-01-01T01:34:48.000Z</time>
      </trkpt>
      <trkpt lat="45.61082" lon="4.72249">
        <ele>335.4</ele>
        <time>1970-01-01T01:34:52.000Z</time>
      </trkpt>
      <trkpt lat="45.61082" lon="4.72249">
        <ele>336.2</ele>
        <time>1970-01-01T01:34:58.000Z</time>
      </trkpt>
      <trkpt lat="45.61082" lon="4.72249">
        <ele>336.4</ele>
        <time>1970-01-01T01:35:00.000Z</time>
      </trkpt>
      <trkpt lat="45.61082" lon="4.72249">
        <ele>336.6</ele>
        <time>1970-01-01T01:35:06.000Z</time>
      </trkpt>
      <trkpt lat="45.61082" lon="4.72249">
        <ele>336.6</ele>
        <time>1970-01-01T01:35:08.000Z</time>
      </trkpt>
      <trkpt lat="45.61082" lon="4.72249">
        <ele>336.6</ele>
        <time>1970-01-01T01:35:10.000Z</time>
      </trkpt>
      <trkpt lat="45.61082" lon="4.72249">
        <ele>336.6</ele>
        <time>1970-01-01T01:35:12.000Z</time>
      </trkpt>
      <trkpt lat="45.61082" lon="4.72249">
        <ele>336.8</ele>
        <time>1970-01-01T01:35:16.000Z</time>
      </trkpt>
      <trkpt lat="45.61084" lon="4.72251">
        <ele>336.8</ele>
        <time>1970-01-01T01:35:18.000Z</time>
      </trkpt>
      <trkpt lat="45.61087" lon="4.72254">
        <ele>336.8</ele>
        <time>1970-01-01T01:35:20.000Z</time>
      </trkpt>
      <trkpt lat="45.61091" lon="4.72259">
        <ele>336.8</ele>
        <time>1970-01-01T01:35:22.000Z</time>
      </trkpt>
      <trkpt lat="45.61092" lon="4.72262">
        <ele>336.8</ele>
        <time>1970-01-01T01:35:23.000Z</time>
      </trkpt>
      <trkpt lat="45.61094" lon="4.72264">
        <ele>336.8</ele>
        <time>1970-01-01T01:35:24.000Z</time>
      </trkpt>
      <trkpt lat="45.61096" lon="4.72267">
        <ele>336.6</ele>
        <time>1970-01-01T01:35:25.000Z</time>
      </trkpt>
      <trkpt lat="45.61098" lon="4.7227">
        <ele>336.6</ele>
        <time>1970-01-01T01:35:26.000Z</time>
      </trkpt>
      <trkpt lat="45.61102" lon="4.72275">
        <ele>336.4</ele>
        <time>1970-01-01T01:35:28.000Z</time>
      </trkpt>
      <trkpt lat="45.61105" lon="4.72283">
        <ele>336</ele>
        <time>1970-01-01T01:35:30.000Z</time>
      </trkpt>
      <trkpt lat="45.61107" lon="4.72287">
        <ele>335.8</ele>
        <time>1970-01-01T01:35:31.000Z</time>
      </trkpt>
      <trkpt lat="45.61109" lon="4.72291">
        <ele>335.8</ele>
        <time>1970-01-01T01:35:32.000Z</time>
      </trkpt>
      <trkpt lat="45.61113" lon="4.723">
        <ele>335.6</ele>
        <time>1970-01-01T01:35:34.000Z</time>
      </trkpt>
      <trkpt lat="45.61116" lon="4.7231">
        <ele>335.6</ele>
        <time>1970-01-01T01:35:36.000Z</time>
      </trkpt>
      <trkpt lat="45.6112" lon="4.72321">
        <ele>335.4</ele>
        <time>1970-01-01T01:35:38.000Z</time>
      </trkpt>
      <trkpt lat="45.61121" lon="4.72326">
        <ele>335.4</ele>
        <time>1970-01-01T01:35:39.000Z</time>
      </trkpt>
      <trkpt lat="45.61123" lon="4.72331">
        <ele>335.2</ele>
        <time>1970-01-01T01:35:40.000Z</time>
      </trkpt>
      <trkpt lat="45.61126" lon="4.72343">
        <ele>335</ele>
        <time>1970-01-01T01:35:42.000Z</time>
      </trkpt>
      <trkpt lat="45.61129" lon="4.72355">
        <ele>334.6</ele>
        <time>1970-01-01T01:35:44.000Z</time>
      </trkpt>
      <trkpt lat="45.61131" lon="4.72361">
        <ele>334.2</ele>
        <time>1970-01-01T01:35:45.000Z</time>
      </trkpt>
      <trkpt lat="45.61132" lon="4.72368">
        <ele>333.8</ele>
        <time>1970-01-01T01:35:46.000Z</time>
      </trkpt>
      <trkpt lat="45.61135" lon="4.72381">
        <ele>333.4</ele>
        <time>1970-01-01T01:35:48.000Z</time>
      </trkpt>
      <trkpt lat="45.61137" lon="4.72389">
        <ele>333</ele>
        <time>1970-01-01T01:35:49.000Z</time>
      </trkpt>
      <trkpt lat="45.61138" lon="4.72396">
        <ele>332.6</ele>
        <time>1970-01-01T01:35:50.000Z</time>
      </trkpt>
      <trkpt lat="45.61141" lon="4.72412">
        <ele>332.4</ele>
        <time>1970-01-01T01:35:52.000Z</time>
      </trkpt>
      <trkpt lat="45.61143" lon="4.72419">
        <ele>332.2</ele>
        <time>1970-01-01T01:35:53.000Z</time>
      </trkpt>
      <trkpt lat="45.61144" lon="4.72427">
        <ele>332</ele>
        <time>1970-01-01T01:35:54.000Z</time>
      </trkpt>
      <trkpt lat="45.61145" lon="4.72435">
        <ele>331.8</ele>
        <time>1970-01-01T01:35:55.000Z</time>
      </trkpt>
      <trkpt lat="45.61147" lon="4.72443">
        <ele>331.4</ele>
        <time>1970-01-01T01:35:56.000Z</time>
      </trkpt>
      <trkpt lat="45.6115" lon="4.72459">
        <ele>330.2</ele>
        <time>1970-01-01T01:35:58.000Z</time>
      </trkpt>
      <trkpt lat="45.61153" lon="4.72475">
        <ele>329.2</ele>
        <time>1970-01-01T01:36:00.000Z</time>
      </trkpt>
      <trkpt lat="45.61155" lon="4.72483">
        <ele>329</ele>
        <time>1970-01-01T01:36:01.000Z</time>
      </trkpt>
      <trkpt lat="45.61157" lon="4.72491">
        <ele>329</ele>
        <time>1970-01-01T01:36:02.000Z</time>
      </trkpt>
      <trkpt lat="45.61159" lon="4.72499">
        <ele>328.8</ele>
        <time>1970-01-01T01:36:03.000Z</time>
      </trkpt>
      <trkpt lat="45.61161" lon="4.72506">
        <ele>328.4</ele>
        <time>1970-01-01T01:36:04.000Z</time>
      </trkpt>
      <trkpt lat="45.61165" lon="4.72522">
        <ele>328</ele>
        <time>1970-01-01T01:36:06.000Z</time>
      </trkpt>
      <trkpt lat="45.61168" lon="4.72537">
        <ele>327.6</ele>
        <time>1970-01-01T01:36:08.000Z</time>
      </trkpt>
      <trkpt lat="45.6117" lon="4.72545">
        <ele>327.4</ele>
        <time>1970-01-01T01:36:09.000Z</time>
      </trkpt>
      <trkpt lat="45.61173" lon="4.72553">
        <ele>327.4</ele>
        <time>1970-01-01T01:36:10.000Z</time>
      </trkpt>
      <trkpt lat="45.61177" lon="4.7257">
        <ele>327.2</ele>
        <time>1970-01-01T01:36:12.000Z</time>
      </trkpt>
      <trkpt lat="45.6118" lon="4.72588">
        <ele>327</ele>
        <time>1970-01-01T01:36:14.000Z</time>
      </trkpt>
      <trkpt lat="45.61182" lon="4.72597">
        <ele>326.8</ele>
        <time>1970-01-01T01:36:15.000Z</time>
      </trkpt>
      <trkpt lat="45.61184" lon="4.72607">
        <ele>326.6</ele>
        <time>1970-01-01T01:36:16.000Z</time>
      </trkpt>
      <trkpt lat="45.61189" lon="4.72628">
        <ele>326</ele>
        <time>1970-01-01T01:36:18.000Z</time>
      </trkpt>
      <trkpt lat="45.61191" lon="4.72638">
        <ele>325.8</ele>
        <time>1970-01-01T01:36:19.000Z</time>
      </trkpt>
      <trkpt lat="45.61192" lon="4.72645">
        <ele>325</ele>
        <time>1970-01-01T01:36:20.000Z</time>
      </trkpt>
      <trkpt lat="45.61194" lon="4.7265">
        <ele>324.2</ele>
        <time>1970-01-01T01:36:21.000Z</time>
      </trkpt>
      <trkpt lat="45.61194" lon="4.72652">
        <ele>323.6</ele>
        <time>1970-01-01T01:36:22.000Z</time>
      </trkpt>
      <trkpt lat="45.61195" lon="4.72653">
        <ele>322.8</ele>
        <time>1970-01-01T01:36:23.000Z</time>
      </trkpt>
      <trkpt lat="45.61197" lon="4.72653">
        <ele>322.2</ele>
        <time>1970-01-01T01:36:24.000Z</time>
      </trkpt>
      <trkpt lat="45.61198" lon="4.72653">
        <ele>321.8</ele>
        <time>1970-01-01T01:36:25.000Z</time>
      </trkpt>
      <trkpt lat="45.61199" lon="4.72653">
        <ele>321.6</ele>
        <time>1970-01-01T01:36:26.000Z</time>
      </trkpt>
      <trkpt lat="45.612" lon="4.72653">
        <ele>321.4</ele>
        <time>1970-01-01T01:36:28.000Z</time>
      </trkpt>
      <trkpt lat="45.61201" lon="4.72652">
        <ele>321.4</ele>
        <time>1970-01-01T01:36:29.000Z</time>
      </trkpt>
      <trkpt lat="45.61202" lon="4.72651">
        <ele>321.2</ele>
        <time>1970-01-01T01:36:30.000Z</time>
      </trkpt>
      <trkpt lat="45.61206" lon="4.72648">
        <ele>321</ele>
        <time>1970-01-01T01:36:32.000Z</time>
      </trkpt>
      <trkpt lat="45.61208" lon="4.72647">
        <ele>321</ele>
        <time>1970-01-01T01:36:33.000Z</time>
      </trkpt>
      <trkpt lat="45.6121" lon="4.72646">
        <ele>320.8</ele>
        <time>1970-01-01T01:36:34.000Z</time>
      </trkpt>
      <trkpt lat="45.61215" lon="4.72642">
        <ele>320.8</ele>
        <time>1970-01-01T01:36:36.000Z</time>
      </trkpt>
      <trkpt lat="45.6122" lon="4.72639">
        <ele>320.8</ele>
        <time>1970-01-01T01:36:38.000Z</time>
      </trkpt>
      <trkpt lat="45.61225" lon="4.72635">
        <ele>320.6</ele>
        <time>1970-01-01T01:36:40.000Z</time>
      </trkpt>
      <trkpt lat="45.61229" lon="4.72632">
        <ele>320.4</ele>
        <time>1970-01-01T01:36:41.000Z</time>
      </trkpt>
      <trkpt lat="45.61232" lon="4.7263">
        <ele>320.4</ele>
        <time>1970-01-01T01:36:42.000Z</time>
      </trkpt>
      <trkpt lat="45.6124" lon="4.72625">
        <ele>320.2</ele>
        <time>1970-01-01T01:36:44.000Z</time>
      </trkpt>
      <trkpt lat="45.61244" lon="4.72623">
        <ele>320</ele>
        <time>1970-01-01T01:36:45.000Z</time>
      </trkpt>
      <trkpt lat="45.61248" lon="4.7262">
        <ele>320</ele>
        <time>1970-01-01T01:36:46.000Z</time>
      </trkpt>
      <trkpt lat="45.61257" lon="4.72615">
        <ele>319.6</ele>
        <time>1970-01-01T01:36:48.000Z</time>
      </trkpt>
      <trkpt lat="45.61262" lon="4.72613">
        <ele>319.4</ele>
        <time>1970-01-01T01:36:49.000Z</time>
      </trkpt>
      <trkpt lat="45.61266" lon="4.7261">
        <ele>319.6</ele>
        <time>1970-01-01T01:36:50.000Z</time>
      </trkpt>
      <trkpt lat="45.61269" lon="4.72606">
        <ele>319.2</ele>
        <time>1970-01-01T01:36:51.000Z</time>
      </trkpt>
      <trkpt lat="45.61272" lon="4.72602">
        <ele>318.8</ele>
        <time>1970-01-01T01:36:52.000Z</time>
      </trkpt>
      <trkpt lat="45.61274" lon="4.72597">
        <ele>318.4</ele>
        <time>1970-01-01T01:36:53.000Z</time>
      </trkpt>
      <trkpt lat="45.61276" lon="4.72592">
        <ele>318</ele>
        <time>1970-01-01T01:36:54.000Z</time>
      </trkpt>
      <trkpt lat="45.61277" lon="4.72588">
        <ele>317.8</ele>
        <time>1970-01-01T01:36:56.000Z</time>
      </trkpt>
      <trkpt lat="45.61277" lon="4.72587">
        <ele>317.6</ele>
        <time>1970-01-01T01:36:58.000Z</time>
      </trkpt>
      <trkpt lat="45.61276" lon="4.72588">
        <ele>317.6</ele>
        <time>1970-01-01T01:37:00.000Z</time>
      </trkpt>
      <trkpt lat="45.61275" lon="4.72589">
        <ele>317.6</ele>
        <time>1970-01-01T01:37:02.000Z</time>
      </trkpt>
      <trkpt lat="45.61275" lon="4.72591">
        <ele>317.6</ele>
        <time>1970-01-01T01:37:04.000Z</time>
      </trkpt>
      <trkpt lat="45.61273" lon="4.72596">
        <ele>317.6</ele>
        <time>1970-01-01T01:37:06.000Z</time>
      </trkpt>
      <trkpt lat="45.61271" lon="4.72601">
        <ele>317.6</ele>
        <time>1970-01-01T01:37:08.000Z</time>
      </trkpt>
      <trkpt lat="45.61269" lon="4.72604">
        <ele>317.6</ele>
        <time>1970-01-01T01:37:09.000Z</time>
      </trkpt>
      <trkpt lat="45.61268" lon="4.72606">
        <ele>317.6</ele>
        <time>1970-01-01T01:37:10.000Z</time>
      </trkpt>
      <trkpt lat="45.61265" lon="4.72608">
        <ele>317.8</ele>
        <time>1970-01-01T01:37:12.000Z</time>
      </trkpt>
      <trkpt lat="45.61262" lon="4.7261">
        <ele>317.8</ele>
        <time>1970-01-01T01:37:14.000Z</time>
      </trkpt>
      <trkpt lat="45.61259" lon="4.72612">
        <ele>317.8</ele>
        <time>1970-01-01T01:37:16.000Z</time>
      </trkpt>
      <trkpt lat="45.61255" lon="4.72614">
        <ele>317.8</ele>
        <time>1970-01-01T01:37:18.000Z</time>
      </trkpt>
      <trkpt lat="45.61251" lon="4.72617">
        <ele>317.8</ele>
        <time>1970-01-01T01:37:20.000Z</time>
      </trkpt>
      <trkpt lat="45.61247" lon="4.72619">
        <ele>317.8</ele>
        <time>1970-01-01T01:37:22.000Z</time>
      </trkpt>
      <trkpt lat="45.61243" lon="4.72621">
        <ele>317.8</ele>
        <time>1970-01-01T01:37:24.000Z</time>
      </trkpt>
      <trkpt lat="45.61239" lon="4.72623">
        <ele>318</ele>
        <time>1970-01-01T01:37:26.000Z</time>
      </trkpt>
      <trkpt lat="45.61234" lon="4.72626">
        <ele>318.2</ele>
        <time>1970-01-01T01:37:28.000Z</time>
      </trkpt>
      <trkpt lat="45.61229" lon="4.72629">
        <ele>318.4</ele>
        <time>1970-01-01T01:37:30.000Z</time>
      </trkpt>
      <trkpt lat="45.61223" lon="4.72633">
        <ele>318.6</ele>
        <time>1970-01-01T01:37:32.000Z</time>
      </trkpt>
      <trkpt lat="45.61219" lon="4.72636">
        <ele>318.6</ele>
        <time>1970-01-01T01:37:34.000Z</time>
      </trkpt>
      <trkpt lat="45.61216" lon="4.72638">
        <ele>318.8</ele>
        <time>1970-01-01T01:37:36.000Z</time>
      </trkpt>
      <trkpt lat="45.61215" lon="4.72639">
        <ele>319</ele>
        <time>1970-01-01T01:37:37.000Z</time>
      </trkpt>
      <trkpt lat="45.61213" lon="4.72639">
        <ele>319.2</ele>
        <time>1970-01-01T01:37:38.000Z</time>
      </trkpt>
      <trkpt lat="45.61212" lon="4.7264">
        <ele>319.4</ele>
        <time>1970-01-01T01:37:39.000Z</time>
      </trkpt>
      <trkpt lat="45.61211" lon="4.72641">
        <ele>319.6</ele>
        <time>1970-01-01T01:37:40.000Z</time>
      </trkpt>
      <trkpt lat="45.61207" lon="4.72643">
        <ele>320</ele>
        <time>1970-01-01T01:37:42.000Z</time>
      </trkpt>
      <trkpt lat="45.61205" lon="4.72644">
        <ele>320.2</ele>
        <time>1970-01-01T01:37:44.000Z</time>
      </trkpt>
      <trkpt lat="45.61204" lon="4.72645">
        <ele>320.4</ele>
        <time>1970-01-01T01:37:45.000Z</time>
      </trkpt>
      <trkpt lat="45.61203" lon="4.72645">
        <ele>320.4</ele>
        <time>1970-01-01T01:37:46.000Z</time>
      </trkpt>
      <trkpt lat="45.61202" lon="4.72646">
        <ele>320.4</ele>
        <time>1970-01-01T01:37:48.000Z</time>
      </trkpt>
      <trkpt lat="45.61202" lon="4.72646">
        <ele>320.6</ele>
        <time>1970-01-01T01:37:50.000Z</time>
      </trkpt>
      <trkpt lat="45.61202" lon="4.72646">
        <ele>320.6</ele>
        <time>1970-01-01T01:37:51.000Z</time>
      </trkpt>
      <trkpt lat="45.61202" lon="4.72647">
        <ele>320.6</ele>
        <time>1970-01-01T01:37:52.000Z</time>
      </trkpt>
      <trkpt lat="45.61202" lon="4.72647">
        <ele>320.8</ele>
        <time>1970-01-01T01:37:56.000Z</time>
      </trkpt>
      <trkpt lat="45.61202" lon="4.72647">
        <ele>320.8</ele>
        <time>1970-01-01T01:38:02.000Z</time>
      </trkpt>
      <trkpt lat="45.61202" lon="4.72647">
        <ele>321</ele>
        <time>1970-01-01T01:38:04.000Z</time>
      </trkpt>
      <trkpt lat="45.61202" lon="4.72646">
        <ele>321.2</ele>
        <time>1970-01-01T01:38:08.000Z</time>
      </trkpt>
      <trkpt lat="45.61202" lon="4.72647">
        <ele>321.2</ele>
        <time>1970-01-01T01:38:12.000Z</time>
      </trkpt>
      <trkpt lat="45.61201" lon="4.72647">
        <ele>321.2</ele>
        <time>1970-01-01T01:38:13.000Z</time>
      </trkpt>
      <trkpt lat="45.612" lon="4.72648">
        <ele>321.2</ele>
        <time>1970-01-01T01:38:14.000Z</time>
      </trkpt>
      <trkpt lat="45.61199" lon="4.72649">
        <ele>321.2</ele>
        <time>1970-01-01T01:38:15.000Z</time>
      </trkpt>
      <trkpt lat="45.61198" lon="4.72652">
        <ele>321.2</ele>
        <time>1970-01-01T01:38:16.000Z</time>
      </trkpt>
      <trkpt lat="45.61199" lon="4.72656">
        <ele>321.2</ele>
        <time>1970-01-01T01:38:17.000Z</time>
      </trkpt>
      <trkpt lat="45.61201" lon="4.72661">
        <ele>321.2</ele>
        <time>1970-01-01T01:38:18.000Z</time>
      </trkpt>
      <trkpt lat="45.61203" lon="4.72667">
        <ele>321.2</ele>
        <time>1970-01-01T01:38:19.000Z</time>
      </trkpt>
      <trkpt lat="45.61206" lon="4.72673">
        <ele>321.2</ele>
        <time>1970-01-01T01:38:20.000Z</time>
      </trkpt>
      <trkpt lat="45.61209" lon="4.7268">
        <ele>321</ele>
        <time>1970-01-01T01:38:21.000Z</time>
      </trkpt>
      <trkpt lat="45.61212" lon="4.72688">
        <ele>321</ele>
        <time>1970-01-01T01:38:22.000Z</time>
      </trkpt>
      <trkpt lat="45.6122" lon="4.72707">
        <ele>320.8</ele>
        <time>1970-01-01T01:38:24.000Z</time>
      </trkpt>
      <trkpt lat="45.61224" lon="4.72718">
        <ele>320.2</ele>
        <time>1970-01-01T01:38:25.000Z</time>
      </trkpt>
      <trkpt lat="45.61228" lon="4.72729">
        <ele>319.8</ele>
        <time>1970-01-01T01:38:26.000Z</time>
      </trkpt>
      <trkpt lat="45.61233" lon="4.72741">
        <ele>319.6</ele>
        <time>1970-01-01T01:38:27.000Z</time>
      </trkpt>
      <trkpt lat="45.61238" lon="4.72753">
        <ele>318.8</ele>
        <time>1970-01-01T01:38:28.000Z</time>
      </trkpt>
      <trkpt lat="45.61243" lon="4.72764">
        <ele>318</ele>
        <time>1970-01-01T01:38:29.000Z</time>
      </trkpt>
      <trkpt lat="45.6125" lon="4.72775">
        <ele>317.6</ele>
        <time>1970-01-01T01:38:30.000Z</time>
      </trkpt>
      <trkpt lat="45.61265" lon="4.72794">
        <ele>316.2</ele>
        <time>1970-01-01T01:38:32.000Z</time>
      </trkpt>
      <trkpt lat="45.61272" lon="4.72804">
        <ele>315.2</ele>
        <time>1970-01-01T01:38:33.000Z</time>
      </trkpt>
      <trkpt lat="45.6128" lon="4.72813">
        <ele>314.2</ele>
        <time>1970-01-01T01:38:34.000Z</time>
      </trkpt>
      <trkpt lat="45.61288" lon="4.72824">
        <ele>313</ele>
        <time>1970-01-01T01:38:35.000Z</time>
      </trkpt>
      <trkpt lat="45.61295" lon="4.72835">
        <ele>311.6</ele>
        <time>1970-01-01T01:38:36.000Z</time>
      </trkpt>
      <trkpt lat="45.61302" lon="4.72847">
        <ele>310.6</ele>
        <time>1970-01-01T01:38:37.000Z</time>
      </trkpt>
      <trkpt lat="45.61309" lon="4.7286">
        <ele>309.6</ele>
        <time>1970-01-01T01:38:38.000Z</time>
      </trkpt>
      <trkpt lat="45.61315" lon="4.72872">
        <ele>308.4</ele>
        <time>1970-01-01T01:38:39.000Z</time>
      </trkpt>
      <trkpt lat="45.61321" lon="4.72885">
        <ele>307.2</ele>
        <time>1970-01-01T01:38:40.000Z</time>
      </trkpt>
      <trkpt lat="45.61333" lon="4.72911">
        <ele>306.2</ele>
        <time>1970-01-01T01:38:42.000Z</time>
      </trkpt>
      <trkpt lat="45.61346" lon="4.72935">
        <ele>304.4</ele>
        <time>1970-01-01T01:38:44.000Z</time>
      </trkpt>
      <trkpt lat="45.61359" lon="4.72957">
        <ele>302.6</ele>
        <time>1970-01-01T01:38:46.000Z</time>
      </trkpt>
      <trkpt lat="45.61365" lon="4.72968">
        <ele>301.2</ele>
        <time>1970-01-01T01:38:47.000Z</time>
      </trkpt>
      <trkpt lat="45.61372" lon="4.72978">
        <ele>300.4</ele>
        <time>1970-01-01T01:38:48.000Z</time>
      </trkpt>
      <trkpt lat="45.61378" lon="4.72988">
        <ele>299.6</ele>
        <time>1970-01-01T01:38:49.000Z</time>
      </trkpt>
      <trkpt lat="45.61385" lon="4.72998">
        <ele>299</ele>
        <time>1970-01-01T01:38:50.000Z</time>
      </trkpt>
      <trkpt lat="45.61391" lon="4.73008">
        <ele>298.2</ele>
        <time>1970-01-01T01:38:51.000Z</time>
      </trkpt>
      <trkpt lat="45.61397" lon="4.73018">
        <ele>297.4</ele>
        <time>1970-01-01T01:38:52.000Z</time>
      </trkpt>
      <trkpt lat="45.61404" lon="4.73028">
        <ele>296.8</ele>
        <time>1970-01-01T01:38:53.000Z</time>
      </trkpt>
      <trkpt lat="45.6141" lon="4.73038">
        <ele>296.4</ele>
        <time>1970-01-01T01:38:54.000Z</time>
      </trkpt>
      <trkpt lat="45.61421" lon="4.73059">
        <ele>296</ele>
        <time>1970-01-01T01:38:56.000Z</time>
      </trkpt>
      <trkpt lat="45.61425" lon="4.73071">
        <ele>295.8</ele>
        <time>1970-01-01T01:38:57.000Z</time>
      </trkpt>
      <trkpt lat="45.61429" lon="4.73084">
        <ele>295.6</ele>
        <time>1970-01-01T01:38:58.000Z</time>
      </trkpt>
      <trkpt lat="45.61435" lon="4.73109">
        <ele>295</ele>
        <time>1970-01-01T01:39:00.000Z</time>
      </trkpt>
      <trkpt lat="45.61439" lon="4.73122">
        <ele>294.8</ele>
        <time>1970-01-01T01:39:01.000Z</time>
      </trkpt>
      <trkpt lat="45.61441" lon="4.73135">
        <ele>294.6</ele>
        <time>1970-01-01T01:39:02.000Z</time>
      </trkpt>
      <trkpt lat="45.61444" lon="4.73148">
        <ele>294.4</ele>
        <time>1970-01-01T01:39:03.000Z</time>
      </trkpt>
      <trkpt lat="45.61446" lon="4.73161">
        <ele>294.4</ele>
        <time>1970-01-01T01:39:04.000Z</time>
      </trkpt>
      <trkpt lat="45.61451" lon="4.73185">
        <ele>294.4</ele>
        <time>1970-01-01T01:39:06.000Z</time>
      </trkpt>
      <trkpt lat="45.61453" lon="4.73197">
        <ele>294</ele>
        <time>1970-01-01T01:39:07.000Z</time>
      </trkpt>
      <trkpt lat="45.61454" lon="4.73208">
        <ele>294</ele>
        <time>1970-01-01T01:39:08.000Z</time>
      </trkpt>
      <trkpt lat="45.61456" lon="4.7322">
        <ele>293.8</ele>
        <time>1970-01-01T01:39:09.000Z</time>
      </trkpt>
      <trkpt lat="45.61457" lon="4.7323">
        <ele>293.6</ele>
        <time>1970-01-01T01:39:10.000Z</time>
      </trkpt>
      <trkpt lat="45.61459" lon="4.73251">
        <ele>293.2</ele>
        <time>1970-01-01T01:39:12.000Z</time>
      </trkpt>
      <trkpt lat="45.61461" lon="4.73271">
        <ele>293</ele>
        <time>1970-01-01T01:39:14.000Z</time>
      </trkpt>
      <trkpt lat="45.61461" lon="4.73281">
        <ele>292.8</ele>
        <time>1970-01-01T01:39:15.000Z</time>
      </trkpt>
      <trkpt lat="45.61462" lon="4.7329">
        <ele>292.8</ele>
        <time>1970-01-01T01:39:16.000Z</time>
      </trkpt>
      <trkpt lat="45.61463" lon="4.73309">
        <ele>292.8</ele>
        <time>1970-01-01T01:39:18.000Z</time>
      </trkpt>
      <trkpt lat="45.61464" lon="4.73318">
        <ele>292.8</ele>
        <time>1970-01-01T01:39:19.000Z</time>
      </trkpt>
      <trkpt lat="45.61464" lon="4.73327">
        <ele>292.8</ele>
        <time>1970-01-01T01:39:20.000Z</time>
      </trkpt>
      <trkpt lat="45.61465" lon="4.73345">
        <ele>292.8</ele>
        <time>1970-01-01T01:39:22.000Z</time>
      </trkpt>
      <trkpt lat="45.61466" lon="4.73354">
        <ele>292.8</ele>
        <time>1970-01-01T01:39:23.000Z</time>
      </trkpt>
      <trkpt lat="45.61467" lon="4.73364">
        <ele>292.8</ele>
        <time>1970-01-01T01:39:24.000Z</time>
      </trkpt>
      <trkpt lat="45.61469" lon="4.73381">
        <ele>292.8</ele>
        <time>1970-01-01T01:39:26.000Z</time>
      </trkpt>
      <trkpt lat="45.61471" lon="4.7339">
        <ele>292.8</ele>
        <time>1970-01-01T01:39:27.000Z</time>
      </trkpt>
      <trkpt lat="45.61473" lon="4.73399">
        <ele>292.8</ele>
        <time>1970-01-01T01:39:28.000Z</time>
      </trkpt>
      <trkpt lat="45.61476" lon="4.73407">
        <ele>292.8</ele>
        <time>1970-01-01T01:39:29.000Z</time>
      </trkpt>
      <trkpt lat="45.61478" lon="4.73414">
        <ele>292.8</ele>
        <time>1970-01-01T01:39:30.000Z</time>
      </trkpt>
      <trkpt lat="45.61482" lon="4.73425">
        <ele>292.6</ele>
        <time>1970-01-01T01:39:32.000Z</time>
      </trkpt>
      <trkpt lat="45.61484" lon="4.73429">
        <ele>292.6</ele>
        <time>1970-01-01T01:39:33.000Z</time>
      </trkpt>
      <trkpt lat="45.61487" lon="4.73431">
        <ele>292.4</ele>
        <time>1970-01-01T01:39:34.000Z</time>
      </trkpt>
      <trkpt lat="45.61495" lon="4.73433">
        <ele>292</ele>
        <time>1970-01-01T01:39:36.000Z</time>
      </trkpt>
      <trkpt lat="45.61505" lon="4.73431">
        <ele>291.8</ele>
        <time>1970-01-01T01:39:38.000Z</time>
      </trkpt>
      <trkpt lat="45.61515" lon="4.73429">
        <ele>291.6</ele>
        <time>1970-01-01T01:39:40.000Z</time>
      </trkpt>
      <trkpt lat="45.6152" lon="4.73427">
        <ele>291.6</ele>
        <time>1970-01-01T01:39:41.000Z</time>
      </trkpt>
      <trkpt lat="45.61526" lon="4.73426">
        <ele>291.4</ele>
        <time>1970-01-01T01:39:42.000Z</time>
      </trkpt>
      <trkpt lat="45.61535" lon="4.73424">
        <ele>291</ele>
        <time>1970-01-01T01:39:44.000Z</time>
      </trkpt>
      <trkpt lat="45.6154" lon="4.73423">
        <ele>290.8</ele>
        <time>1970-01-01T01:39:45.000Z</time>
      </trkpt>
      <trkpt lat="45.61544" lon="4.73422">
        <ele>291</ele>
        <time>1970-01-01T01:39:46.000Z</time>
      </trkpt>
      <trkpt lat="45.61548" lon="4.73421">
        <ele>291</ele>
        <time>1970-01-01T01:39:47.000Z</time>
      </trkpt>
      <trkpt lat="45.61552" lon="4.73419">
        <ele>291</ele>
        <time>1970-01-01T01:39:48.000Z</time>
      </trkpt>
      <trkpt lat="45.61558" lon="4.73412">
        <ele>291.2</ele>
        <time>1970-01-01T01:39:50.000Z</time>
      </trkpt>
      <trkpt lat="45.6156" lon="4.73408">
        <ele>291.2</ele>
        <time>1970-01-01T01:39:51.000Z</time>
      </trkpt>
      <trkpt lat="45.61562" lon="4.73404">
        <ele>291.2</ele>
        <time>1970-01-01T01:39:52.000Z</time>
      </trkpt>
      <trkpt lat="45.61566" lon="4.73395">
        <ele>291.2</ele>
        <time>1970-01-01T01:39:54.000Z</time>
      </trkpt>
      <trkpt lat="45.6157" lon="4.73389">
        <ele>291.2</ele>
        <time>1970-01-01T01:39:56.000Z</time>
      </trkpt>
      <trkpt lat="45.61571" lon="4.73385">
        <ele>291.4</ele>
        <time>1970-01-01T01:39:57.000Z</time>
      </trkpt>
      <trkpt lat="45.61572" lon="4.73382">
        <ele>292</ele>
        <time>1970-01-01T01:39:58.000Z</time>
      </trkpt>
      <trkpt lat="45.61575" lon="4.73377">
        <ele>292.6</ele>
        <time>1970-01-01T01:40:00.000Z</time>
      </trkpt>
      <trkpt lat="45.61577" lon="4.73373">
        <ele>293</ele>
        <time>1970-01-01T01:40:02.000Z</time>
      </trkpt>
      <trkpt lat="45.6158" lon="4.73369">
        <ele>293.6</ele>
        <time>1970-01-01T01:40:04.000Z</time>
      </trkpt>
      <trkpt lat="45.61581" lon="4.73367">
        <ele>293.8</ele>
        <time>1970-01-01T01:40:05.000Z</time>
      </trkpt>
      <trkpt lat="45.61582" lon="4.73365">
        <ele>294.2</ele>
        <time>1970-01-01T01:40:06.000Z</time>
      </trkpt>
      <trkpt lat="45.61585" lon="4.7336">
        <ele>294.6</ele>
        <time>1970-01-01T01:40:08.000Z</time>
      </trkpt>
      <trkpt lat="45.61589" lon="4.73353">
        <ele>294.8</ele>
        <time>1970-01-01T01:40:10.000Z</time>
      </trkpt>
      <trkpt lat="45.61592" lon="4.73349">
        <ele>295</ele>
        <time>1970-01-01T01:40:11.000Z</time>
      </trkpt>
      <trkpt lat="45.61594" lon="4.73345">
        <ele>295.2</ele>
        <time>1970-01-01T01:40:12.000Z</time>
      </trkpt>
      <trkpt lat="45.61599" lon="4.73338">
        <ele>295.4</ele>
        <time>1970-01-01T01:40:14.000Z</time>
      </trkpt>
      <trkpt lat="45.61602" lon="4.73331">
        <ele>295.8</ele>
        <time>1970-01-01T01:40:16.000Z</time>
      </trkpt>
      <trkpt lat="45.61604" lon="4.73328">
        <ele>296</ele>
        <time>1970-01-01T01:40:17.000Z</time>
      </trkpt>
      <trkpt lat="45.61605" lon="4.73325">
        <ele>296.2</ele>
        <time>1970-01-01T01:40:18.000Z</time>
      </trkpt>
      <trkpt lat="45.61608" lon="4.73319">
        <ele>296.8</ele>
        <time>1970-01-01T01:40:20.000Z</time>
      </trkpt>
      <trkpt lat="45.61611" lon="4.73314">
        <ele>297</ele>
        <time>1970-01-01T01:40:22.000Z</time>
      </trkpt>
      <trkpt lat="45.61613" lon="4.73309">
        <ele>297.4</ele>
        <time>1970-01-01T01:40:24.000Z</time>
      </trkpt>
      <trkpt lat="45.61615" lon="4.73306">
        <ele>297.8</ele>
        <time>1970-01-01T01:40:25.000Z</time>
      </trkpt>
      <trkpt lat="45.61616" lon="4.73302">
        <ele>298</ele>
        <time>1970-01-01T01:40:26.000Z</time>
      </trkpt>
      <trkpt lat="45.61619" lon="4.73296">
        <ele>298.4</ele>
        <time>1970-01-01T01:40:28.000Z</time>
      </trkpt>
      <trkpt lat="45.6162" lon="4.73293">
        <ele>298.6</ele>
        <time>1970-01-01T01:40:29.000Z</time>
      </trkpt>
      <trkpt lat="45.61621" lon="4.7329">
        <ele>298.6</ele>
        <time>1970-01-01T01:40:30.000Z</time>
      </trkpt>
      <trkpt lat="45.61624" lon="4.73283">
        <ele>298.8</ele>
        <time>1970-01-01T01:40:32.000Z</time>
      </trkpt>
      <trkpt lat="45.61627" lon="4.73277">
        <ele>298.8</ele>
        <time>1970-01-01T01:40:34.000Z</time>
      </trkpt>
      <trkpt lat="45.6163" lon="4.7327">
        <ele>299</ele>
        <time>1970-01-01T01:40:36.000Z</time>
      </trkpt>
      <trkpt lat="45.61633" lon="4.73264">
        <ele>299.2</ele>
        <time>1970-01-01T01:40:38.000Z</time>
      </trkpt>
      <trkpt lat="45.61636" lon="4.73258">
        <ele>299.6</ele>
        <time>1970-01-01T01:40:40.000Z</time>
      </trkpt>
      <trkpt lat="45.61637" lon="4.73255">
        <ele>299.8</ele>
        <time>1970-01-01T01:40:41.000Z</time>
      </trkpt>
      <trkpt lat="45.61638" lon="4.73252">
        <ele>300</ele>
        <time>1970-01-01T01:40:42.000Z</time>
      </trkpt>
      <trkpt lat="45.6164" lon="4.73249">
        <ele>300</ele>
        <time>1970-01-01T01:40:43.000Z</time>
      </trkpt>
      <trkpt lat="45.61641" lon="4.73246">
        <ele>300.2</ele>
        <time>1970-01-01T01:40:44.000Z</time>
      </trkpt>
      <trkpt lat="45.61644" lon="4.7324">
        <ele>300.4</ele>
        <time>1970-01-01T01:40:46.000Z</time>
      </trkpt>
      <trkpt lat="45.61647" lon="4.73237">
        <ele>300.8</ele>
        <time>1970-01-01T01:40:48.000Z</time>
      </trkpt>
      <trkpt lat="45.61648" lon="4.73238">
        <ele>300.8</ele>
        <time>1970-01-01T01:40:49.000Z</time>
      </trkpt>
      <trkpt lat="45.61649" lon="4.73241">
        <ele>301.2</ele>
        <time>1970-01-01T01:40:50.000Z</time>
      </trkpt>
      <trkpt lat="45.61651" lon="4.73249">
        <ele>301.4</ele>
        <time>1970-01-01T01:40:52.000Z</time>
      </trkpt>
      <trkpt lat="45.61652" lon="4.73253">
        <ele>301.6</ele>
        <time>1970-01-01T01:40:53.000Z</time>
      </trkpt>
      <trkpt lat="45.61653" lon="4.73257">
        <ele>301.6</ele>
        <time>1970-01-01T01:40:54.000Z</time>
      </trkpt>
      <trkpt lat="45.61654" lon="4.73265">
        <ele>301.6</ele>
        <time>1970-01-01T01:40:56.000Z</time>
      </trkpt>
      <trkpt lat="45.61656" lon="4.73273">
        <ele>301.6</ele>
        <time>1970-01-01T01:40:58.000Z</time>
      </trkpt>
      <trkpt lat="45.61657" lon="4.73281">
        <ele>301.6</ele>
        <time>1970-01-01T01:41:00.000Z</time>
      </trkpt>
      <trkpt lat="45.61658" lon="4.7329">
        <ele>301.6</ele>
        <time>1970-01-01T01:41:02.000Z</time>
      </trkpt>
      <trkpt lat="45.61659" lon="4.73299">
        <ele>301.6</ele>
        <time>1970-01-01T01:41:04.000Z</time>
      </trkpt>
      <trkpt lat="45.61661" lon="4.73308">
        <ele>301.6</ele>
        <time>1970-01-01T01:41:06.000Z</time>
      </trkpt>
      <trkpt lat="45.61662" lon="4.73316">
        <ele>301.6</ele>
        <time>1970-01-01T01:41:08.000Z</time>
      </trkpt>
      <trkpt lat="45.61664" lon="4.73324">
        <ele>301.6</ele>
        <time>1970-01-01T01:41:10.000Z</time>
      </trkpt>
      <trkpt lat="45.61665" lon="4.73331">
        <ele>301.6</ele>
        <time>1970-01-01T01:41:12.000Z</time>
      </trkpt>
      <trkpt lat="45.61666" lon="4.73334">
        <ele>301.6</ele>
        <time>1970-01-01T01:41:13.000Z</time>
      </trkpt>
      <trkpt lat="45.61666" lon="4.73337">
        <ele>301.6</ele>
        <time>1970-01-01T01:41:14.000Z</time>
      </trkpt>
      <trkpt lat="45.61666" lon="4.7334">
        <ele>301.6</ele>
        <time>1970-01-01T01:41:15.000Z</time>
      </trkpt>
      <trkpt lat="45.61667" lon="4.73343">
        <ele>301.8</ele>
        <time>1970-01-01T01:41:16.000Z</time>
      </trkpt>
      <trkpt lat="45.61668" lon="4.7335">
        <ele>301.8</ele>
        <time>1970-01-01T01:41:18.000Z</time>
      </trkpt>
      <trkpt lat="45.61669" lon="4.73357">
        <ele>302</ele>
        <time>1970-01-01T01:41:20.000Z</time>
      </trkpt>
      <trkpt lat="45.61671" lon="4.73367">
        <ele>302</ele>
        <time>1970-01-01T01:41:22.000Z</time>
      </trkpt>
      <trkpt lat="45.61672" lon="4.73378">
        <ele>302</ele>
        <time>1970-01-01T01:41:24.000Z</time>
      </trkpt>
      <trkpt lat="45.61673" lon="4.73389">
        <ele>302</ele>
        <time>1970-01-01T01:41:26.000Z</time>
      </trkpt>
      <trkpt lat="45.61673" lon="4.73394">
        <ele>302</ele>
        <time>1970-01-01T01:41:27.000Z</time>
      </trkpt>
      <trkpt lat="45.61674" lon="4.73399">
        <ele>301.8</ele>
        <time>1970-01-01T01:41:28.000Z</time>
      </trkpt>
      <trkpt lat="45.61676" lon="4.73407">
        <ele>301.6</ele>
        <time>1970-01-01T01:41:30.000Z</time>
      </trkpt>
      <trkpt lat="45.61677" lon="4.73415">
        <ele>301.6</ele>
        <time>1970-01-01T01:41:32.000Z</time>
      </trkpt>
      <trkpt lat="45.61678" lon="4.7342">
        <ele>301.6</ele>
        <time>1970-01-01T01:41:33.000Z</time>
      </trkpt>
      <trkpt lat="45.61678" lon="4.73424">
        <ele>301.6</ele>
        <time>1970-01-01T01:41:34.000Z</time>
      </trkpt>
      <trkpt lat="45.6168" lon="4.73433">
        <ele>301.6</ele>
        <time>1970-01-01T01:41:36.000Z</time>
      </trkpt>
      <trkpt lat="45.61681" lon="4.73442">
        <ele>301.4</ele>
        <time>1970-01-01T01:41:38.000Z</time>
      </trkpt>
      <trkpt lat="45.61682" lon="4.7345">
        <ele>301.6</ele>
        <time>1970-01-01T01:41:40.000Z</time>
      </trkpt>
      <trkpt lat="45.61682" lon="4.73453">
        <ele>301.6</ele>
        <time>1970-01-01T01:41:41.000Z</time>
      </trkpt>
      <trkpt lat="45.61683" lon="4.73457">
        <ele>301.6</ele>
        <time>1970-01-01T01:41:42.000Z</time>
      </trkpt>
      <trkpt lat="45.61684" lon="4.73464">
        <ele>301.6</ele>
        <time>1970-01-01T01:41:44.000Z</time>
      </trkpt>
      <trkpt lat="45.61684" lon="4.73472">
        <ele>301.8</ele>
        <time>1970-01-01T01:41:46.000Z</time>
      </trkpt>
      <trkpt lat="45.61684" lon="4.7348">
        <ele>301.8</ele>
        <time>1970-01-01T01:41:48.000Z</time>
      </trkpt>
      <trkpt lat="45.61684" lon="4.73485">
        <ele>301.8</ele>
        <time>1970-01-01T01:41:49.000Z</time>
      </trkpt>
      <trkpt lat="45.61684" lon="4.73491">
        <ele>301.8</ele>
        <time>1970-01-01T01:41:50.000Z</time>
      </trkpt>
      <trkpt lat="45.61684" lon="4.73502">
        <ele>301.8</ele>
        <time>1970-01-01T01:41:52.000Z</time>
      </trkpt>
      <trkpt lat="45.61685" lon="4.73507">
        <ele>301.8</ele>
        <time>1970-01-01T01:41:53.000Z</time>
      </trkpt>
      <trkpt lat="45.61685" lon="4.73513">
        <ele>301.8</ele>
        <time>1970-01-01T01:41:54.000Z</time>
      </trkpt>
      <trkpt lat="45.61685" lon="4.7352">
        <ele>301.8</ele>
        <time>1970-01-01T01:41:55.000Z</time>
      </trkpt>
      <trkpt lat="45.61684" lon="4.73527">
        <ele>301.8</ele>
        <time>1970-01-01T01:41:56.000Z</time>
      </trkpt>
      <trkpt lat="45.61685" lon="4.73541">
        <ele>301.8</ele>
        <time>1970-01-01T01:41:58.000Z</time>
      </trkpt>
      <trkpt lat="45.61684" lon="4.73556">
        <ele>301.6</ele>
        <time>1970-01-01T01:42:00.000Z</time>
      </trkpt>
      <trkpt lat="45.61684" lon="4.73571">
        <ele>301.4</ele>
        <time>1970-01-01T01:42:02.000Z</time>
      </trkpt>
      <trkpt lat="45.61685" lon="4.73586">
        <ele>300.4</ele>
        <time>1970-01-01T01:42:04.000Z</time>
      </trkpt>
      <trkpt lat="45.61685" lon="4.73601">
        <ele>299.6</ele>
        <time>1970-01-01T01:42:06.000Z</time>
      </trkpt>
      <trkpt lat="45.61685" lon="4.73609">
        <ele>299.2</ele>
        <time>1970-01-01T01:42:07.000Z</time>
      </trkpt>
      <trkpt lat="45.61685" lon="4.73617">
        <ele>299</ele>
        <time>1970-01-01T01:42:08.000Z</time>
      </trkpt>
      <trkpt lat="45.61685" lon="4.73624">
        <ele>298.8</ele>
        <time>1970-01-01T01:42:09.000Z</time>
      </trkpt>
      <trkpt lat="45.61684" lon="4.73632">
        <ele>298.6</ele>
        <time>1970-01-01T01:42:10.000Z</time>
      </trkpt>
      <trkpt lat="45.61684" lon="4.73647">
        <ele>298.4</ele>
        <time>1970-01-01T01:42:12.000Z</time>
      </trkpt>
      <trkpt lat="45.61684" lon="4.73661">
        <ele>298.2</ele>
        <time>1970-01-01T01:42:14.000Z</time>
      </trkpt>
      <trkpt lat="45.61684" lon="4.73668">
        <ele>298.2</ele>
        <time>1970-01-01T01:42:15.000Z</time>
      </trkpt>
      <trkpt lat="45.61684" lon="4.73675">
        <ele>298.2</ele>
        <time>1970-01-01T01:42:16.000Z</time>
      </trkpt>
      <trkpt lat="45.61684" lon="4.73686">
        <ele>298.2</ele>
        <time>1970-01-01T01:42:18.000Z</time>
      </trkpt>
      <trkpt lat="45.61685" lon="4.73696">
        <ele>298.4</ele>
        <time>1970-01-01T01:42:20.000Z</time>
      </trkpt>
      <trkpt lat="45.61687" lon="4.737">
        <ele>298.4</ele>
        <time>1970-01-01T01:42:21.000Z</time>
      </trkpt>
      <trkpt lat="45.61688" lon="4.73703">
        <ele>298.4</ele>
        <time>1970-01-01T01:42:22.000Z</time>
      </trkpt>
      <trkpt lat="45.61693" lon="4.73707">
        <ele>298.4</ele>
        <time>1970-01-01T01:42:24.000Z</time>
      </trkpt>
      <trkpt lat="45.61696" lon="4.73708">
        <ele>298.4</ele>
        <time>1970-01-01T01:42:25.000Z</time>
      </trkpt>
      <trkpt lat="45.61699" lon="4.7371">
        <ele>298.6</ele>
        <time>1970-01-01T01:42:26.000Z</time>
      </trkpt>
      <trkpt lat="45.61703" lon="4.73713">
        <ele>298.8</ele>
        <time>1970-01-01T01:42:28.000Z</time>
      </trkpt>
      <trkpt lat="45.61705" lon="4.73715">
        <ele>299</ele>
        <time>1970-01-01T01:42:29.000Z</time>
      </trkpt>
      <trkpt lat="45.61708" lon="4.73716">
        <ele>299</ele>
        <time>1970-01-01T01:42:30.000Z</time>
      </trkpt>
      <trkpt lat="45.61713" lon="4.7372">
        <ele>299.2</ele>
        <time>1970-01-01T01:42:32.000Z</time>
      </trkpt>
      <trkpt lat="45.61718" lon="4.73723">
        <ele>299.8</ele>
        <time>1970-01-01T01:42:34.000Z</time>
      </trkpt>
      <trkpt lat="45.61724" lon="4.73727">
        <ele>300.2</ele>
        <time>1970-01-01T01:42:36.000Z</time>
      </trkpt>
      <trkpt lat="45.61727" lon="4.73729">
        <ele>300.6</ele>
        <time>1970-01-01T01:42:37.000Z</time>
      </trkpt>
      <trkpt lat="45.6173" lon="4.7373">
        <ele>300.6</ele>
        <time>1970-01-01T01:42:38.000Z</time>
      </trkpt>
      <trkpt lat="45.61736" lon="4.73733">
        <ele>301</ele>
        <time>1970-01-01T01:42:40.000Z</time>
      </trkpt>
      <trkpt lat="45.61743" lon="4.73736">
        <ele>301.2</ele>
        <time>1970-01-01T01:42:42.000Z</time>
      </trkpt>
      <trkpt lat="45.6175" lon="4.73738">
        <ele>301.2</ele>
        <time>1970-01-01T01:42:44.000Z</time>
      </trkpt>
      <trkpt lat="45.61756" lon="4.73741">
        <ele>301.4</ele>
        <time>1970-01-01T01:42:46.000Z</time>
      </trkpt>
      <trkpt lat="45.61762" lon="4.73743">
        <ele>301.6</ele>
        <time>1970-01-01T01:42:48.000Z</time>
      </trkpt>
      <trkpt lat="45.61764" lon="4.73744">
        <ele>301.6</ele>
        <time>1970-01-01T01:42:49.000Z</time>
      </trkpt>
      <trkpt lat="45.61767" lon="4.73745">
        <ele>301.6</ele>
        <time>1970-01-01T01:42:50.000Z</time>
      </trkpt>
      <trkpt lat="45.61771" lon="4.73747">
        <ele>301.8</ele>
        <time>1970-01-01T01:42:52.000Z</time>
      </trkpt>
      <trkpt lat="45.61775" lon="4.73748">
        <ele>301.8</ele>
        <time>1970-01-01T01:42:54.000Z</time>
      </trkpt>
      <trkpt lat="45.61781" lon="4.73751">
        <ele>302.2</ele>
        <time>1970-01-01T01:42:56.000Z</time>
      </trkpt>
      <trkpt lat="45.61788" lon="4.73753">
        <ele>302.6</ele>
        <time>1970-01-01T01:42:58.000Z</time>
      </trkpt>
      <trkpt lat="45.61791" lon="4.73755">
        <ele>302.8</ele>
        <time>1970-01-01T01:42:59.000Z</time>
      </trkpt>
      <trkpt lat="45.61795" lon="4.73757">
        <ele>302.8</ele>
        <time>1970-01-01T01:43:00.000Z</time>
      </trkpt>
      <trkpt lat="45.61802" lon="4.73762">
        <ele>302.8</ele>
        <time>1970-01-01T01:43:02.000Z</time>
      </trkpt>
      <trkpt lat="45.61809" lon="4.73768">
        <ele>302.8</ele>
        <time>1970-01-01T01:43:04.000Z</time>
      </trkpt>
      <trkpt lat="45.61816" lon="4.73773">
        <ele>302.8</ele>
        <time>1970-01-01T01:43:06.000Z</time>
      </trkpt>
      <trkpt lat="45.61822" lon="4.73777">
        <ele>302.8</ele>
        <time>1970-01-01T01:43:08.000Z</time>
      </trkpt>
      <trkpt lat="45.61829" lon="4.7378">
        <ele>302.8</ele>
        <time>1970-01-01T01:43:10.000Z</time>
      </trkpt>
      <trkpt lat="45.61835" lon="4.7378">
        <ele>302.8</ele>
        <time>1970-01-01T01:43:12.000Z</time>
      </trkpt>
      <trkpt lat="45.61842" lon="4.7378">
        <ele>302.8</ele>
        <time>1970-01-01T01:43:14.000Z</time>
      </trkpt>
      <trkpt lat="45.61845" lon="4.7378">
        <ele>302.8</ele>
        <time>1970-01-01T01:43:15.000Z</time>
      </trkpt>
      <trkpt lat="45.61848" lon="4.7378">
        <ele>302.8</ele>
        <time>1970-01-01T01:43:16.000Z</time>
      </trkpt>
      <trkpt lat="45.61855" lon="4.73778">
        <ele>303</ele>
        <time>1970-01-01T01:43:18.000Z</time>
      </trkpt>
      <trkpt lat="45.61864" lon="4.73776">
        <ele>303.2</ele>
        <time>1970-01-01T01:43:20.000Z</time>
      </trkpt>
      <trkpt lat="45.61869" lon="4.73775">
        <ele>303.2</ele>
        <time>1970-01-01T01:43:21.000Z</time>
      </trkpt>
      <trkpt lat="45.61874" lon="4.73774">
        <ele>303.2</ele>
        <time>1970-01-01T01:43:22.000Z</time>
      </trkpt>
      <trkpt lat="45.61885" lon="4.73772">
        <ele>303.2</ele>
        <time>1970-01-01T01:43:24.000Z</time>
      </trkpt>
      <trkpt lat="45.61897" lon="4.73772">
        <ele>303.2</ele>
        <time>1970-01-01T01:43:26.000Z</time>
      </trkpt>
      <trkpt lat="45.61911" lon="4.73772">
        <ele>302.6</ele>
        <time>1970-01-01T01:43:28.000Z</time>
      </trkpt>
      <trkpt lat="45.61918" lon="4.73771">
        <ele>302.2</ele>
        <time>1970-01-01T01:43:29.000Z</time>
      </trkpt>
      <trkpt lat="45.61924" lon="4.73771">
        <ele>301.8</ele>
        <time>1970-01-01T01:43:30.000Z</time>
      </trkpt>
      <trkpt lat="45.61931" lon="4.7377">
        <ele>301.2</ele>
        <time>1970-01-01T01:43:31.000Z</time>
      </trkpt>
      <trkpt lat="45.61938" lon="4.73769">
        <ele>300.6</ele>
        <time>1970-01-01T01:43:32.000Z</time>
      </trkpt>
      <trkpt lat="45.61944" lon="4.73769">
        <ele>300</ele>
        <time>1970-01-01T01:43:33.000Z</time>
      </trkpt>
      <trkpt lat="45.61951" lon="4.73768">
        <ele>299.2</ele>
        <time>1970-01-01T01:43:34.000Z</time>
      </trkpt>
      <trkpt lat="45.61957" lon="4.73769">
        <ele>298.8</ele>
        <time>1970-01-01T01:43:35.000Z</time>
      </trkpt>
      <trkpt lat="45.61964" lon="4.7377">
        <ele>298.6</ele>
        <time>1970-01-01T01:43:36.000Z</time>
      </trkpt>
      <trkpt lat="45.6197" lon="4.73771">
        <ele>298.6</ele>
        <time>1970-01-01T01:43:37.000Z</time>
      </trkpt>
      <trkpt lat="45.61976" lon="4.73774">
        <ele>298.4</ele>
        <time>1970-01-01T01:43:38.000Z</time>
      </trkpt>
      <trkpt lat="45.61988" lon="4.7378">
        <ele>298</ele>
        <time>1970-01-01T01:43:40.000Z</time>
      </trkpt>
      <trkpt lat="45.61993" lon="4.73784">
        <ele>297.8</ele>
        <time>1970-01-01T01:43:41.000Z</time>
      </trkpt>
      <trkpt lat="45.61998" lon="4.73787">
        <ele>297.8</ele>
        <time>1970-01-01T01:43:42.000Z</time>
      </trkpt>
      <trkpt lat="45.62008" lon="4.73795">
        <ele>297.6</ele>
        <time>1970-01-01T01:43:44.000Z</time>
      </trkpt>
      <trkpt lat="45.62017" lon="4.73803">
        <ele>297.6</ele>
        <time>1970-01-01T01:43:46.000Z</time>
      </trkpt>
      <trkpt lat="45.62027" lon="4.73811">
        <ele>297.6</ele>
        <time>1970-01-01T01:43:48.000Z</time>
      </trkpt>
      <trkpt lat="45.62035" lon="4.73821">
        <ele>297.6</ele>
        <time>1970-01-01T01:43:50.000Z</time>
      </trkpt>
      <trkpt lat="45.62044" lon="4.7383">
        <ele>297.4</ele>
        <time>1970-01-01T01:43:52.000Z</time>
      </trkpt>
      <trkpt lat="45.62052" lon="4.7384">
        <ele>297.6</ele>
        <time>1970-01-01T01:43:54.000Z</time>
      </trkpt>
      <trkpt lat="45.62057" lon="4.73844">
        <ele>297.6</ele>
        <time>1970-01-01T01:43:55.000Z</time>
      </trkpt>
      <trkpt lat="45.62061" lon="4.73849">
        <ele>297.6</ele>
        <time>1970-01-01T01:43:56.000Z</time>
      </trkpt>
      <trkpt lat="45.62071" lon="4.73856">
        <ele>297.6</ele>
        <time>1970-01-01T01:43:58.000Z</time>
      </trkpt>
      <trkpt lat="45.62076" lon="4.73858">
        <ele>297.6</ele>
        <time>1970-01-01T01:43:59.000Z</time>
      </trkpt>
      <trkpt lat="45.6208" lon="4.7386">
        <ele>297.6</ele>
        <time>1970-01-01T01:44:00.000Z</time>
      </trkpt>
      <trkpt lat="45.6209" lon="4.73864">
        <ele>297.4</ele>
        <time>1970-01-01T01:44:02.000Z</time>
      </trkpt>
      <trkpt lat="45.62099" lon="4.73866">
        <ele>297.4</ele>
        <time>1970-01-01T01:44:04.000Z</time>
      </trkpt>
      <trkpt lat="45.6211" lon="4.73869">
        <ele>297.2</ele>
        <time>1970-01-01T01:44:06.000Z</time>
      </trkpt>
      <trkpt lat="45.62121" lon="4.73871">
        <ele>297</ele>
        <time>1970-01-01T01:44:08.000Z</time>
      </trkpt>
      <trkpt lat="45.62132" lon="4.73872">
        <ele>296.8</ele>
        <time>1970-01-01T01:44:10.000Z</time>
      </trkpt>
      <trkpt lat="45.62143" lon="4.73873">
        <ele>296.6</ele>
        <time>1970-01-01T01:44:12.000Z</time>
      </trkpt>
      <trkpt lat="45.62154" lon="4.73873">
        <ele>296.4</ele>
        <time>1970-01-01T01:44:14.000Z</time>
      </trkpt>
      <trkpt lat="45.62164" lon="4.73874">
        <ele>296</ele>
        <time>1970-01-01T01:44:16.000Z</time>
      </trkpt>
      <trkpt lat="45.62169" lon="4.73875">
        <ele>295.8</ele>
        <time>1970-01-01T01:44:17.000Z</time>
      </trkpt>
      <trkpt lat="45.62174" lon="4.73877">
        <ele>295.6</ele>
        <time>1970-01-01T01:44:18.000Z</time>
      </trkpt>
      <trkpt lat="45.62185" lon="4.7388">
        <ele>295.4</ele>
        <time>1970-01-01T01:44:20.000Z</time>
      </trkpt>
      <trkpt lat="45.62195" lon="4.73885">
        <ele>295.2</ele>
        <time>1970-01-01T01:44:22.000Z</time>
      </trkpt>
      <trkpt lat="45.622" lon="4.73887">
        <ele>294.6</ele>
        <time>1970-01-01T01:44:23.000Z</time>
      </trkpt>
      <trkpt lat="45.62205" lon="4.73889">
        <ele>294.6</ele>
        <time>1970-01-01T01:44:24.000Z</time>
      </trkpt>
      <trkpt lat="45.6221" lon="4.73891">
        <ele>294.4</ele>
        <time>1970-01-01T01:44:25.000Z</time>
      </trkpt>
      <trkpt lat="45.62215" lon="4.73893">
        <ele>294.2</ele>
        <time>1970-01-01T01:44:26.000Z</time>
      </trkpt>
      <trkpt lat="45.62225" lon="4.73895">
        <ele>294</ele>
        <time>1970-01-01T01:44:28.000Z</time>
      </trkpt>
      <trkpt lat="45.62234" lon="4.73897">
        <ele>293.8</ele>
        <time>1970-01-01T01:44:30.000Z</time>
      </trkpt>
      <trkpt lat="45.62239" lon="4.73898">
        <ele>293.8</ele>
        <time>1970-01-01T01:44:31.000Z</time>
      </trkpt>
      <trkpt lat="45.62245" lon="4.73898">
        <ele>293.8</ele>
        <time>1970-01-01T01:44:32.000Z</time>
      </trkpt>
      <trkpt lat="45.62255" lon="4.73899">
        <ele>293.6</ele>
        <time>1970-01-01T01:44:34.000Z</time>
      </trkpt>
      <trkpt lat="45.62265" lon="4.73898">
        <ele>293.6</ele>
        <time>1970-01-01T01:44:36.000Z</time>
      </trkpt>
      <trkpt lat="45.62276" lon="4.73898">
        <ele>293.6</ele>
        <time>1970-01-01T01:44:38.000Z</time>
      </trkpt>
      <trkpt lat="45.62281" lon="4.73897">
        <ele>293.6</ele>
        <time>1970-01-01T01:44:39.000Z</time>
      </trkpt>
      <trkpt lat="45.62286" lon="4.73897">
        <ele>293.6</ele>
        <time>1970-01-01T01:44:40.000Z</time>
      </trkpt>
      <trkpt lat="45.62291" lon="4.73896">
        <ele>293.6</ele>
        <time>1970-01-01T01:44:41.000Z</time>
      </trkpt>
      <trkpt lat="45.62296" lon="4.73896">
        <ele>293.6</ele>
        <time>1970-01-01T01:44:42.000Z</time>
      </trkpt>
      <trkpt lat="45.62301" lon="4.73896">
        <ele>293.6</ele>
        <time>1970-01-01T01:44:43.000Z</time>
      </trkpt>
      <trkpt lat="45.62306" lon="4.73895">
        <ele>293.6</ele>
        <time>1970-01-01T01:44:44.000Z</time>
      </trkpt>
      <trkpt lat="45.62315" lon="4.73894">
        <ele>293.6</ele>
        <time>1970-01-01T01:44:46.000Z</time>
      </trkpt>
      <trkpt lat="45.62325" lon="4.73893">
        <ele>293.6</ele>
        <time>1970-01-01T01:44:48.000Z</time>
      </trkpt>
      <trkpt lat="45.62334" lon="4.73891">
        <ele>293.6</ele>
        <time>1970-01-01T01:44:50.000Z</time>
      </trkpt>
      <trkpt lat="45.62343" lon="4.7389">
        <ele>293.6</ele>
        <time>1970-01-01T01:44:52.000Z</time>
      </trkpt>
      <trkpt lat="45.62353" lon="4.73889">
        <ele>293.6</ele>
        <time>1970-01-01T01:44:54.000Z</time>
      </trkpt>
      <trkpt lat="45.62362" lon="4.73888">
        <ele>293.6</ele>
        <time>1970-01-01T01:44:56.000Z</time>
      </trkpt>
      <trkpt lat="45.62366" lon="4.73888">
        <ele>293.6</ele>
        <time>1970-01-01T01:44:57.000Z</time>
      </trkpt>
      <trkpt lat="45.62371" lon="4.73887">
        <ele>293.6</ele>
        <time>1970-01-01T01:44:58.000Z</time>
      </trkpt>
      <trkpt lat="45.6238" lon="4.73886">
        <ele>293.6</ele>
        <time>1970-01-01T01:45:00.000Z</time>
      </trkpt>
      <trkpt lat="45.62388" lon="4.73885">
        <ele>293.6</ele>
        <time>1970-01-01T01:45:02.000Z</time>
      </trkpt>
      <trkpt lat="45.62397" lon="4.73885">
        <ele>293.6</ele>
        <time>1970-01-01T01:45:04.000Z</time>
      </trkpt>
      <trkpt lat="45.62402" lon="4.73886">
        <ele>293.6</ele>
        <time>1970-01-01T01:45:05.000Z</time>
      </trkpt>
      <trkpt lat="45.62406" lon="4.73888">
        <ele>293.6</ele>
        <time>1970-01-01T01:45:06.000Z</time>
      </trkpt>
      <trkpt lat="45.62415" lon="4.73894">
        <ele>293.6</ele>
        <time>1970-01-01T01:45:08.000Z</time>
      </trkpt>
      <trkpt lat="45.62419" lon="4.73897">
        <ele>293.6</ele>
        <time>1970-01-01T01:45:09.000Z</time>
      </trkpt>
      <trkpt lat="45.62423" lon="4.73901">
        <ele>293.6</ele>
        <time>1970-01-01T01:45:10.000Z</time>
      </trkpt>
      <trkpt lat="45.62427" lon="4.73905">
        <ele>293.6</ele>
        <time>1970-01-01T01:45:11.000Z</time>
      </trkpt>
      <trkpt lat="45.62431" lon="4.73909">
        <ele>293.6</ele>
        <time>1970-01-01T01:45:12.000Z</time>
      </trkpt>
      <trkpt lat="45.62438" lon="4.73917">
        <ele>293.4</ele>
        <time>1970-01-01T01:45:14.000Z</time>
      </trkpt>
      <trkpt lat="45.62446" lon="4.73925">
        <ele>293.6</ele>
        <time>1970-01-01T01:45:16.000Z</time>
      </trkpt>
      <trkpt lat="45.62453" lon="4.73933">
        <ele>293.4</ele>
        <time>1970-01-01T01:45:18.000Z</time>
      </trkpt>
      <trkpt lat="45.62461" lon="4.73942">
        <ele>293.4</ele>
        <time>1970-01-01T01:45:20.000Z</time>
      </trkpt>
      <trkpt lat="45.62469" lon="4.7395">
        <ele>293.2</ele>
        <time>1970-01-01T01:45:22.000Z</time>
      </trkpt>
      <trkpt lat="45.62476" lon="4.7396">
        <ele>293.2</ele>
        <time>1970-01-01T01:45:24.000Z</time>
      </trkpt>
      <trkpt lat="45.62482" lon="4.73971">
        <ele>293.2</ele>
        <time>1970-01-01T01:45:26.000Z</time>
      </trkpt>
      <trkpt lat="45.62488" lon="4.73981">
        <ele>293.4</ele>
        <time>1970-01-01T01:45:28.000Z</time>
      </trkpt>
      <trkpt lat="45.62493" lon="4.73992">
        <ele>293.4</ele>
        <time>1970-01-01T01:45:30.000Z</time>
      </trkpt>
      <trkpt lat="45.62498" lon="4.74002">
        <ele>293.4</ele>
        <time>1970-01-01T01:45:32.000Z</time>
      </trkpt>
      <trkpt lat="45.62503" lon="4.7401">
        <ele>293.6</ele>
        <time>1970-01-01T01:45:34.000Z</time>
      </trkpt>
      <trkpt lat="45.62507" lon="4.74019">
        <ele>293.8</ele>
        <time>1970-01-01T01:45:36.000Z</time>
      </trkpt>
      <trkpt lat="45.62511" lon="4.74026">
        <ele>294.6</ele>
        <time>1970-01-01T01:45:38.000Z</time>
      </trkpt>
      <trkpt lat="45.62514" lon="4.74029">
        <ele>294.8</ele>
        <time>1970-01-01T01:45:39.000Z</time>
      </trkpt>
      <trkpt lat="45.62515" lon="4.74033">
        <ele>295</ele>
        <time>1970-01-01T01:45:40.000Z</time>
      </trkpt>
      <trkpt lat="45.62519" lon="4.74039">
        <ele>295.6</ele>
        <time>1970-01-01T01:45:42.000Z</time>
      </trkpt>
      <trkpt lat="45.62521" lon="4.74042">
        <ele>296</ele>
        <time>1970-01-01T01:45:43.000Z</time>
      </trkpt>
      <trkpt lat="45.62523" lon="4.74045">
        <ele>296.2</ele>
        <time>1970-01-01T01:45:44.000Z</time>
      </trkpt>
      <trkpt lat="45.62526" lon="4.74052">
        <ele>296.6</ele>
        <time>1970-01-01T01:45:46.000Z</time>
      </trkpt>
      <trkpt lat="45.62528" lon="4.74056">
        <ele>297.2</ele>
        <time>1970-01-01T01:45:47.000Z</time>
      </trkpt>
      <trkpt lat="45.6253" lon="4.74059">
        <ele>297.4</ele>
        <time>1970-01-01T01:45:48.000Z</time>
      </trkpt>
      <trkpt lat="45.62532" lon="4.74061">
        <ele>297.6</ele>
        <time>1970-01-01T01:45:49.000Z</time>
      </trkpt>
      <trkpt lat="45.62533" lon="4.74064">
        <ele>297.6</ele>
        <time>1970-01-01T01:45:50.000Z</time>
      </trkpt>
      <trkpt lat="45.62537" lon="4.7407">
        <ele>298</ele>
        <time>1970-01-01T01:45:52.000Z</time>
      </trkpt>
      <trkpt lat="45.62538" lon="4.74073">
        <ele>298.2</ele>
        <time>1970-01-01T01:45:53.000Z</time>
      </trkpt>
      <trkpt lat="45.6254" lon="4.74076">
        <ele>298.2</ele>
        <time>1970-01-01T01:45:54.000Z</time>
      </trkpt>
      <trkpt lat="45.62541" lon="4.74078">
        <ele>298.4</ele>
        <time>1970-01-01T01:45:55.000Z</time>
      </trkpt>
      <trkpt lat="45.62543" lon="4.74081">
        <ele>298.4</ele>
        <time>1970-01-01T01:45:56.000Z</time>
      </trkpt>
      <trkpt lat="45.62546" lon="4.74087">
        <ele>298.8</ele>
        <time>1970-01-01T01:45:58.000Z</time>
      </trkpt>
      <trkpt lat="45.62548" lon="4.74093">
        <ele>299</ele>
        <time>1970-01-01T01:46:00.000Z</time>
      </trkpt>
      <trkpt lat="45.6255" lon="4.74096">
        <ele>299.2</ele>
        <time>1970-01-01T01:46:01.000Z</time>
      </trkpt>
      <trkpt lat="45.62552" lon="4.74099">
        <ele>299.4</ele>
        <time>1970-01-01T01:46:02.000Z</time>
      </trkpt>
      <trkpt lat="45.62553" lon="4.74103">
        <ele>299.8</ele>
        <time>1970-01-01T01:46:03.000Z</time>
      </trkpt>
      <trkpt lat="45.62555" lon="4.74106">
        <ele>299.8</ele>
        <time>1970-01-01T01:46:04.000Z</time>
      </trkpt>
      <trkpt lat="45.62559" lon="4.74114">
        <ele>300.2</ele>
        <time>1970-01-01T01:46:06.000Z</time>
      </trkpt>
      <trkpt lat="45.62563" lon="4.74122">
        <ele>300.2</ele>
        <time>1970-01-01T01:46:08.000Z</time>
      </trkpt>
      <trkpt lat="45.62565" lon="4.74126">
        <ele>300.2</ele>
        <time>1970-01-01T01:46:09.000Z</time>
      </trkpt>
      <trkpt lat="45.62568" lon="4.74131">
        <ele>300.2</ele>
        <time>1970-01-01T01:46:10.000Z</time>
      </trkpt>
      <trkpt lat="45.6257" lon="4.74136">
        <ele>300.2</ele>
        <time>1970-01-01T01:46:11.000Z</time>
      </trkpt>
      <trkpt lat="45.62572" lon="4.7414">
        <ele>300.2</ele>
        <time>1970-01-01T01:46:12.000Z</time>
      </trkpt>
      <trkpt lat="45.62577" lon="4.7415">
        <ele>300.2</ele>
        <time>1970-01-01T01:46:14.000Z</time>
      </trkpt>
      <trkpt lat="45.62581" lon="4.7416">
        <ele>300.2</ele>
        <time>1970-01-01T01:46:16.000Z</time>
      </trkpt>
      <trkpt lat="45.62586" lon="4.7417">
        <ele>300.2</ele>
        <time>1970-01-01T01:46:18.000Z</time>
      </trkpt>
      <trkpt lat="45.62589" lon="4.7418">
        <ele>300.2</ele>
        <time>1970-01-01T01:46:20.000Z</time>
      </trkpt>
      <trkpt lat="45.62593" lon="4.7419">
        <ele>300.2</ele>
        <time>1970-01-01T01:46:22.000Z</time>
      </trkpt>
      <trkpt lat="45.62597" lon="4.742">
        <ele>300.2</ele>
        <time>1970-01-01T01:46:24.000Z</time>
      </trkpt>
      <trkpt lat="45.62601" lon="4.74209">
        <ele>300.2</ele>
        <time>1970-01-01T01:46:26.000Z</time>
      </trkpt>
      <trkpt lat="45.62604" lon="4.74219">
        <ele>300.2</ele>
        <time>1970-01-01T01:46:28.000Z</time>
      </trkpt>
      <trkpt lat="45.62607" lon="4.74228">
        <ele>300.2</ele>
        <time>1970-01-01T01:46:30.000Z</time>
      </trkpt>
      <trkpt lat="45.62609" lon="4.74238">
        <ele>300.2</ele>
        <time>1970-01-01T01:46:32.000Z</time>
      </trkpt>
      <trkpt lat="45.62611" lon="4.74248">
        <ele>300.2</ele>
        <time>1970-01-01T01:46:34.000Z</time>
      </trkpt>
      <trkpt lat="45.62612" lon="4.74252">
        <ele>300.4</ele>
        <time>1970-01-01T01:46:35.000Z</time>
      </trkpt>
      <trkpt lat="45.62613" lon="4.74257">
        <ele>300.4</ele>
        <time>1970-01-01T01:46:36.000Z</time>
      </trkpt>
      <trkpt lat="45.62616" lon="4.74266">
        <ele>300.6</ele>
        <time>1970-01-01T01:46:38.000Z</time>
      </trkpt>
      <trkpt lat="45.62618" lon="4.74273">
        <ele>300.8</ele>
        <time>1970-01-01T01:46:40.000Z</time>
      </trkpt>
      <trkpt lat="45.62619" lon="4.74277">
        <ele>300.8</ele>
        <time>1970-01-01T01:46:41.000Z</time>
      </trkpt>
      <trkpt lat="45.62621" lon="4.74281">
        <ele>301</ele>
        <time>1970-01-01T01:46:42.000Z</time>
      </trkpt>
      <trkpt lat="45.62623" lon="4.7429">
        <ele>301.2</ele>
        <time>1970-01-01T01:46:44.000Z</time>
      </trkpt>
      <trkpt lat="45.62626" lon="4.74299">
        <ele>301.2</ele>
        <time>1970-01-01T01:46:46.000Z</time>
      </trkpt>
      <trkpt lat="45.62628" lon="4.74304">
        <ele>301.4</ele>
        <time>1970-01-01T01:46:47.000Z</time>
      </trkpt>
      <trkpt lat="45.62629" lon="4.74309">
        <ele>301.4</ele>
        <time>1970-01-01T01:46:48.000Z</time>
      </trkpt>
      <trkpt lat="45.6263" lon="4.74313">
        <ele>301.6</ele>
        <time>1970-01-01T01:46:49.000Z</time>
      </trkpt>
      <trkpt lat="45.62632" lon="4.74316">
        <ele>301.6</ele>
        <time>1970-01-01T01:46:50.000Z</time>
      </trkpt>
      <trkpt lat="45.62634" lon="4.74324">
        <ele>301.8</ele>
        <time>1970-01-01T01:46:52.000Z</time>
      </trkpt>
      <trkpt lat="45.62637" lon="4.74333">
        <ele>302</ele>
        <time>1970-01-01T01:46:54.000Z</time>
      </trkpt>
      <trkpt lat="45.62638" lon="4.74336">
        <ele>302.2</ele>
        <time>1970-01-01T01:46:55.000Z</time>
      </trkpt>
      <trkpt lat="45.62639" lon="4.7434">
        <ele>302.2</ele>
        <time>1970-01-01T01:46:56.000Z</time>
      </trkpt>
      <trkpt lat="45.6264" lon="4.74346">
        <ele>302.4</ele>
        <time>1970-01-01T01:46:58.000Z</time>
      </trkpt>
      <trkpt lat="45.62642" lon="4.74352">
        <ele>302.8</ele>
        <time>1970-01-01T01:47:00.000Z</time>
      </trkpt>
      <trkpt lat="45.62644" lon="4.74357">
        <ele>303</ele>
        <time>1970-01-01T01:47:02.000Z</time>
      </trkpt>
      <trkpt lat="45.62646" lon="4.74362">
        <ele>303</ele>
        <time>1970-01-01T01:47:04.000Z</time>
      </trkpt>
      <trkpt lat="45.62648" lon="4.74368">
        <ele>303.6</ele>
        <time>1970-01-01T01:47:06.000Z</time>
      </trkpt>
      <trkpt lat="45.6265" lon="4.74373">
        <ele>303.8</ele>
        <time>1970-01-01T01:47:08.000Z</time>
      </trkpt>
      <trkpt lat="45.62651" lon="4.74377">
        <ele>304</ele>
        <time>1970-01-01T01:47:10.000Z</time>
      </trkpt>
      <trkpt lat="45.62653" lon="4.74382">
        <ele>304.4</ele>
        <time>1970-01-01T01:47:12.000Z</time>
      </trkpt>
      <trkpt lat="45.62654" lon="4.74386">
        <ele>304.6</ele>
        <time>1970-01-01T01:47:14.000Z</time>
      </trkpt>
      <trkpt lat="45.62656" lon="4.7439">
        <ele>305</ele>
        <time>1970-01-01T01:47:16.000Z</time>
      </trkpt>
      <trkpt lat="45.62657" lon="4.74392">
        <ele>305.2</ele>
        <time>1970-01-01T01:47:17.000Z</time>
      </trkpt>
      <trkpt lat="45.62658" lon="4.74394">
        <ele>305.2</ele>
        <time>1970-01-01T01:47:18.000Z</time>
      </trkpt>
      <trkpt lat="45.6266" lon="4.74398">
        <ele>305.8</ele>
        <time>1970-01-01T01:47:20.000Z</time>
      </trkpt>
      <trkpt lat="45.62661" lon="4.74402">
        <ele>306.2</ele>
        <time>1970-01-01T01:47:22.000Z</time>
      </trkpt>
      <trkpt lat="45.62663" lon="4.74406">
        <ele>306.6</ele>
        <time>1970-01-01T01:47:24.000Z</time>
      </trkpt>
      <trkpt lat="45.62666" lon="4.7441">
        <ele>306.8</ele>
        <time>1970-01-01T01:47:26.000Z</time>
      </trkpt>
      <trkpt lat="45.62668" lon="4.74414">
        <ele>307.2</ele>
        <time>1970-01-01T01:47:28.000Z</time>
      </trkpt>
      <trkpt lat="45.6267" lon="4.74418">
        <ele>307.6</ele>
        <time>1970-01-01T01:47:30.000Z</time>
      </trkpt>
      <trkpt lat="45.6267" lon="4.7442">
        <ele>307.6</ele>
        <time>1970-01-01T01:47:31.000Z</time>
      </trkpt>
      <trkpt lat="45.62671" lon="4.74422">
        <ele>307.8</ele>
        <time>1970-01-01T01:47:32.000Z</time>
      </trkpt>
      <trkpt lat="45.62673" lon="4.74426">
        <ele>308.2</ele>
        <time>1970-01-01T01:47:34.000Z</time>
      </trkpt>
      <trkpt lat="45.62674" lon="4.74429">
        <ele>308.6</ele>
        <time>1970-01-01T01:47:36.000Z</time>
      </trkpt>
      <trkpt lat="45.62676" lon="4.74433">
        <ele>309.2</ele>
        <time>1970-01-01T01:47:38.000Z</time>
      </trkpt>
      <trkpt lat="45.62677" lon="4.74435">
        <ele>310</ele>
        <time>1970-01-01T01:47:39.000Z</time>
      </trkpt>
      <trkpt lat="45.62679" lon="4.74436">
        <ele>310.2</ele>
        <time>1970-01-01T01:47:40.000Z</time>
      </trkpt>
      <trkpt lat="45.6268" lon="4.7444">
        <ele>310.4</ele>
        <time>1970-01-01T01:47:42.000Z</time>
      </trkpt>
      <trkpt lat="45.62682" lon="4.74443">
        <ele>310.8</ele>
        <time>1970-01-01T01:47:44.000Z</time>
      </trkpt>
      <trkpt lat="45.62684" lon="4.74446">
        <ele>311</ele>
        <time>1970-01-01T01:47:46.000Z</time>
      </trkpt>
      <trkpt lat="45.62684" lon="4.74448">
        <ele>311</ele>
        <time>1970-01-01T01:47:47.000Z</time>
      </trkpt>
      <trkpt lat="45.62685" lon="4.74449">
        <ele>311.2</ele>
        <time>1970-01-01T01:47:48.000Z</time>
      </trkpt>
      <trkpt lat="45.62686" lon="4.74452">
        <ele>311.6</ele>
        <time>1970-01-01T01:47:50.000Z</time>
      </trkpt>
      <trkpt lat="45.62688" lon="4.74455">
        <ele>311.8</ele>
        <time>1970-01-01T01:47:52.000Z</time>
      </trkpt>
      <trkpt lat="45.62689" lon="4.74458">
        <ele>312.2</ele>
        <time>1970-01-01T01:47:54.000Z</time>
      </trkpt>
      <trkpt lat="45.62691" lon="4.74462">
        <ele>312.8</ele>
        <time>1970-01-01T01:47:56.000Z</time>
      </trkpt>
      <trkpt lat="45.62692" lon="4.74465">
        <ele>313.2</ele>
        <time>1970-01-01T01:47:58.000Z</time>
      </trkpt>
      <trkpt lat="45.62694" lon="4.74468">
        <ele>313.6</ele>
        <time>1970-01-01T01:48:00.000Z</time>
      </trkpt>
      <trkpt lat="45.62696" lon="4.7447">
        <ele>313.8</ele>
        <time>1970-01-01T01:48:02.000Z</time>
      </trkpt>
      <trkpt lat="45.62698" lon="4.74473">
        <ele>314</ele>
        <time>1970-01-01T01:48:04.000Z</time>
      </trkpt>
      <trkpt lat="45.62698" lon="4.74474">
        <ele>314.4</ele>
        <time>1970-01-01T01:48:05.000Z</time>
      </trkpt>
      <trkpt lat="45.627" lon="4.74475">
        <ele>314.6</ele>
        <time>1970-01-01T01:48:06.000Z</time>
      </trkpt>
      <trkpt lat="45.62701" lon="4.74476">
        <ele>315</ele>
        <time>1970-01-01T01:48:07.000Z</time>
      </trkpt>
      <trkpt lat="45.62702" lon="4.74477">
        <ele>315.2</ele>
        <time>1970-01-01T01:48:08.000Z</time>
      </trkpt>
      <trkpt lat="45.62703" lon="4.74478">
        <ele>315.4</ele>
        <time>1970-01-01T01:48:09.000Z</time>
      </trkpt>
      <trkpt lat="45.62704" lon="4.74479">
        <ele>315.8</ele>
        <time>1970-01-01T01:48:10.000Z</time>
      </trkpt>
      <trkpt lat="45.62705" lon="4.7448">
        <ele>316</ele>
        <time>1970-01-01T01:48:11.000Z</time>
      </trkpt>
      <trkpt lat="45.62707" lon="4.74481">
        <ele>316.2</ele>
        <time>1970-01-01T01:48:12.000Z</time>
      </trkpt>
      <trkpt lat="45.62709" lon="4.74483">
        <ele>316.4</ele>
        <time>1970-01-01T01:48:14.000Z</time>
      </trkpt>
      <trkpt lat="45.6271" lon="4.74483">
        <ele>316.4</ele>
        <time>1970-01-01T01:48:15.000Z</time>
      </trkpt>
      <trkpt lat="45.62712" lon="4.74484">
        <ele>316.4</ele>
        <time>1970-01-01T01:48:16.000Z</time>
      </trkpt>
      <trkpt lat="45.62713" lon="4.74484">
        <ele>316.6</ele>
        <time>1970-01-01T01:48:17.000Z</time>
      </trkpt>
      <trkpt lat="45.62714" lon="4.74485">
        <ele>316.8</ele>
        <time>1970-01-01T01:48:18.000Z</time>
      </trkpt>
      <trkpt lat="45.62717" lon="4.74486">
        <ele>317.2</ele>
        <time>1970-01-01T01:48:20.000Z</time>
      </trkpt>
      <trkpt lat="45.62719" lon="4.74488">
        <ele>317.6</ele>
        <time>1970-01-01T01:48:22.000Z</time>
      </trkpt>
      <trkpt lat="45.62721" lon="4.74491">
        <ele>318.2</ele>
        <time>1970-01-01T01:48:24.000Z</time>
      </trkpt>
      <trkpt lat="45.62723" lon="4.74493">
        <ele>318.6</ele>
        <time>1970-01-01T01:48:26.000Z</time>
      </trkpt>
      <trkpt lat="45.62724" lon="4.74493">
        <ele>318.8</ele>
        <time>1970-01-01T01:48:27.000Z</time>
      </trkpt>
      <trkpt lat="45.62726" lon="4.74494">
        <ele>319.2</ele>
        <time>1970-01-01T01:48:28.000Z</time>
      </trkpt>
      <trkpt lat="45.62729" lon="4.74494">
        <ele>319.8</ele>
        <time>1970-01-01T01:48:30.000Z</time>
      </trkpt>
      <trkpt lat="45.62733" lon="4.74494">
        <ele>320.2</ele>
        <time>1970-01-01T01:48:32.000Z</time>
      </trkpt>
      <trkpt lat="45.62735" lon="4.74493">
        <ele>320.6</ele>
        <time>1970-01-01T01:48:33.000Z</time>
      </trkpt>
      <trkpt lat="45.62736" lon="4.74493">
        <ele>320.8</ele>
        <time>1970-01-01T01:48:34.000Z</time>
      </trkpt>
      <trkpt lat="45.62738" lon="4.74493">
        <ele>321</ele>
        <time>1970-01-01T01:48:35.000Z</time>
      </trkpt>
      <trkpt lat="45.62739" lon="4.74492">
        <ele>321.2</ele>
        <time>1970-01-01T01:48:36.000Z</time>
      </trkpt>
      <trkpt lat="45.62742" lon="4.74491">
        <ele>321.4</ele>
        <time>1970-01-01T01:48:38.000Z</time>
      </trkpt>
      <trkpt lat="45.62745" lon="4.74489">
        <ele>321.6</ele>
        <time>1970-01-01T01:48:40.000Z</time>
      </trkpt>
      <trkpt lat="45.62746" lon="4.74488">
        <ele>321.8</ele>
        <time>1970-01-01T01:48:41.000Z</time>
      </trkpt>
      <trkpt lat="45.62748" lon="4.74487">
        <ele>321.8</ele>
        <time>1970-01-01T01:48:42.000Z</time>
      </trkpt>
      <trkpt lat="45.6275" lon="4.74486">
        <ele>322</ele>
        <time>1970-01-01T01:48:44.000Z</time>
      </trkpt>
      <trkpt lat="45.62751" lon="4.74485">
        <ele>322.2</ele>
        <time>1970-01-01T01:48:45.000Z</time>
      </trkpt>
      <trkpt lat="45.62752" lon="4.74484">
        <ele>322.4</ele>
        <time>1970-01-01T01:48:46.000Z</time>
      </trkpt>
      <trkpt lat="45.62755" lon="4.74482">
        <ele>322.6</ele>
        <time>1970-01-01T01:48:48.000Z</time>
      </trkpt>
      <trkpt lat="45.62756" lon="4.74481">
        <ele>322.6</ele>
        <time>1970-01-01T01:48:49.000Z</time>
      </trkpt>
      <trkpt lat="45.62757" lon="4.7448">
        <ele>322.6</ele>
        <time>1970-01-01T01:48:50.000Z</time>
      </trkpt>
      <trkpt lat="45.6276" lon="4.74478">
        <ele>322.8</ele>
        <time>1970-01-01T01:48:52.000Z</time>
      </trkpt>
      <trkpt lat="45.62761" lon="4.74477">
        <ele>323</ele>
        <time>1970-01-01T01:48:53.000Z</time>
      </trkpt>
      <trkpt lat="45.62762" lon="4.74476">
        <ele>323</ele>
        <time>1970-01-01T01:48:54.000Z</time>
      </trkpt>
      <trkpt lat="45.62765" lon="4.74475">
        <ele>323.4</ele>
        <time>1970-01-01T01:48:56.000Z</time>
      </trkpt>
      <trkpt lat="45.62766" lon="4.74475">
        <ele>323.6</ele>
        <time>1970-01-01T01:48:57.000Z</time>
      </trkpt>
      <trkpt lat="45.62767" lon="4.74474">
        <ele>323.6</ele>
        <time>1970-01-01T01:48:58.000Z</time>
      </trkpt>
      <trkpt lat="45.62768" lon="4.74474">
        <ele>323.8</ele>
        <time>1970-01-01T01:49:00.000Z</time>
      </trkpt>
      <trkpt lat="45.62768" lon="4.74474">
        <ele>324</ele>
        <time>1970-01-01T01:49:02.000Z</time>
      </trkpt>
      <trkpt lat="45.62768" lon="4.74474">
        <ele>324.2</ele>
        <time>1970-01-01T01:49:08.000Z</time>
      </trkpt>
      <trkpt lat="45.62768" lon="4.74474">
        <ele>324.2</ele>
        <time>1970-01-01T01:49:14.000Z</time>
      </trkpt>
      <trkpt lat="45.62768" lon="4.74474">
        <ele>324.2</ele>
        <time>1970-01-01T01:49:20.000Z</time>
      </trkpt>
      <trkpt lat="45.62768" lon="4.74474">
        <ele>324.2</ele>
        <time>1970-01-01T01:49:22.000Z</time>
      </trkpt>
      <trkpt lat="45.62768" lon="4.74474">
        <ele>324.2</ele>
        <time>1970-01-01T01:49:26.000Z</time>
      </trkpt>
      <trkpt lat="45.62768" lon="4.74474">
        <ele>324.2</ele>
        <time>1970-01-01T01:49:28.000Z</time>
      </trkpt>
      <trkpt lat="45.62769" lon="4.74473">
        <ele>324.2</ele>
        <time>1970-01-01T01:49:30.000Z</time>
      </trkpt>
      <trkpt lat="45.62769" lon="4.74473">
        <ele>324.2</ele>
        <time>1970-01-01T01:49:31.000Z</time>
      </trkpt>
      <trkpt lat="45.62769" lon="4.74473">
        <ele>324.2</ele>
        <time>1970-01-01T01:49:32.000Z</time>
      </trkpt>
      <trkpt lat="45.6277" lon="4.74473">
        <ele>324.4</ele>
        <time>1970-01-01T01:49:34.000Z</time>
      </trkpt>
      <trkpt lat="45.6277" lon="4.74473">
        <ele>324.4</ele>
        <time>1970-01-01T01:49:36.000Z</time>
      </trkpt>
      <trkpt lat="45.6277" lon="4.74473">
        <ele>324.4</ele>
        <time>1970-01-01T01:49:38.000Z</time>
      </trkpt>
      <trkpt lat="45.6277" lon="4.74473">
        <ele>324.4</ele>
        <time>1970-01-01T01:49:40.000Z</time>
      </trkpt>
      <trkpt lat="45.6277" lon="4.74473">
        <ele>324.4</ele>
        <time>1970-01-01T01:49:42.000Z</time>
      </trkpt>
      <trkpt lat="45.6277" lon="4.74473">
        <ele>324.4</ele>
        <time>1970-01-01T01:49:44.000Z</time>
      </trkpt>
      <trkpt lat="45.6277" lon="4.74473">
        <ele>324.4</ele>
        <time>1970-01-01T01:49:48.000Z</time>
      </trkpt>
      <trkpt lat="45.6277" lon="4.74473">
        <ele>324.4</ele>
        <time>1970-01-01T01:49:54.000Z</time>
      </trkpt>
      <trkpt lat="45.6277" lon="4.74473">
        <ele>324.4</ele>
        <time>1970-01-01T01:50:00.000Z</time>
      </trkpt>
      <trkpt lat="45.6277" lon="4.74473">
        <ele>324.4</ele>
        <time>1970-01-01T01:50:02.000Z</time>
      </trkpt>
      <trkpt lat="45.6277" lon="4.74473">
        <ele>324.4</ele>
        <time>1970-01-01T01:50:06.000Z</time>
      </trkpt>
      <trkpt lat="45.6277" lon="4.74473">
        <ele>324.6</ele>
        <time>1970-01-01T01:50:12.000Z</time>
      </trkpt>
      <trkpt lat="45.6277" lon="4.74473">
        <ele>324.6</ele>
        <time>1970-01-01T01:50:18.000Z</time>
      </trkpt>
      <trkpt lat="45.6277" lon="4.74473">
        <ele>324.6</ele>
        <time>1970-01-01T01:50:20.000Z</time>
      </trkpt>
      <trkpt lat="45.6277" lon="4.74473">
        <ele>324.6</ele>
        <time>1970-01-01T01:50:28.000Z</time>
      </trkpt>
      <trkpt lat="45.6277" lon="4.74473">
        <ele>324.6</ele>
        <time>1970-01-01T01:50:35.000Z</time>
      </trkpt>
      <trkpt lat="45.6277" lon="4.74473">
        <ele>324.4</ele>
        <time>1970-01-01T01:50:38.000Z</time>
      </trkpt>
      <trkpt lat="45.6277" lon="4.74473">
        <ele>324.4</ele>
        <time>1970-01-01T01:50:40.000Z</time>
      </trkpt>
      <trkpt lat="45.62771" lon="4.74472">
        <ele>324.4</ele>
        <time>1970-01-01T01:50:42.000Z</time>
      </trkpt>
      <trkpt lat="45.62772" lon="4.74471">
        <ele>324.4</ele>
        <time>1970-01-01T01:50:44.000Z</time>
      </trkpt>
      <trkpt lat="45.62774" lon="4.7447">
        <ele>324.4</ele>
        <time>1970-01-01T01:50:46.000Z</time>
      </trkpt>
      <trkpt lat="45.62776" lon="4.74468">
        <ele>324.4</ele>
        <time>1970-01-01T01:50:48.000Z</time>
      </trkpt>
      <trkpt lat="45.62778" lon="4.74467">
        <ele>324.4</ele>
        <time>1970-01-01T01:50:49.000Z</time>
      </trkpt>
      <trkpt lat="45.6278" lon="4.74465">
        <ele>324.4</ele>
        <time>1970-01-01T01:50:50.000Z</time>
      </trkpt>
      <trkpt lat="45.62785" lon="4.74462">
        <ele>324.4</ele>
        <time>1970-01-01T01:50:52.000Z</time>
      </trkpt>
      <trkpt lat="45.62791" lon="4.74459">
        <ele>324.4</ele>
        <time>1970-01-01T01:50:54.000Z</time>
      </trkpt>
      <trkpt lat="45.62798" lon="4.74456">
        <ele>324.4</ele>
        <time>1970-01-01T01:50:56.000Z</time>
      </trkpt>
      <trkpt lat="45.62804" lon="4.74453">
        <ele>324.4</ele>
        <time>1970-01-01T01:50:58.000Z</time>
      </trkpt>
      <trkpt lat="45.62812" lon="4.7445">
        <ele>324.4</ele>
        <time>1970-01-01T01:51:00.000Z</time>
      </trkpt>
      <trkpt lat="45.62815" lon="4.7445">
        <ele>324.2</ele>
        <time>1970-01-01T01:51:01.000Z</time>
      </trkpt>
      <trkpt lat="45.62818" lon="4.74449">
        <ele>324.2</ele>
        <time>1970-01-01T01:51:02.000Z</time>
      </trkpt>
      <trkpt lat="45.62826" lon="4.74452">
        <ele>324</ele>
        <time>1970-01-01T01:51:04.000Z</time>
      </trkpt>
      <trkpt lat="45.6283" lon="4.74454">
        <ele>323.8</ele>
        <time>1970-01-01T01:51:05.000Z</time>
      </trkpt>
      <trkpt lat="45.62833" lon="4.74458">
        <ele>323.6</ele>
        <time>1970-01-01T01:51:06.000Z</time>
      </trkpt>
      <trkpt lat="45.62835" lon="4.74462">
        <ele>323.6</ele>
        <time>1970-01-01T01:51:07.000Z</time>
      </trkpt>
      <trkpt lat="45.62837" lon="4.74465">
        <ele>323.4</ele>
        <time>1970-01-01T01:51:08.000Z</time>
      </trkpt>
      <trkpt lat="45.62839" lon="4.74468">
        <ele>323.4</ele>
        <time>1970-01-01T01:51:09.000Z</time>
      </trkpt>
      <trkpt lat="45.6284" lon="4.74471">
        <ele>323.4</ele>
        <time>1970-01-01T01:51:10.000Z</time>
      </trkpt>
      <trkpt lat="45.62843" lon="4.74475">
        <ele>323.4</ele>
        <time>1970-01-01T01:51:12.000Z</time>
      </trkpt>
      <trkpt lat="45.62846" lon="4.74478">
        <ele>323.4</ele>
        <time>1970-01-01T01:51:14.000Z</time>
      </trkpt>
      <trkpt lat="45.62848" lon="4.74481">
        <ele>323.4</ele>
        <time>1970-01-01T01:51:16.000Z</time>
      </trkpt>
      <trkpt lat="45.6285" lon="4.74483">
        <ele>323.4</ele>
        <time>1970-01-01T01:51:17.000Z</time>
      </trkpt>
      <trkpt lat="45.62851" lon="4.74484">
        <ele>323.6</ele>
        <time>1970-01-01T01:51:18.000Z</time>
      </trkpt>
      <trkpt lat="45.62854" lon="4.74488">
        <ele>324</ele>
        <time>1970-01-01T01:51:20.000Z</time>
      </trkpt>
      <trkpt lat="45.62856" lon="4.74491">
        <ele>324.6</ele>
        <time>1970-01-01T01:51:22.000Z</time>
      </trkpt>
      <trkpt lat="45.62858" lon="4.74493">
        <ele>324.6</ele>
        <time>1970-01-01T01:51:23.000Z</time>
      </trkpt>
      <trkpt lat="45.62859" lon="4.74495">
        <ele>324.8</ele>
        <time>1970-01-01T01:51:24.000Z</time>
      </trkpt>
      <trkpt lat="45.6286" lon="4.74496">
        <ele>325</ele>
        <time>1970-01-01T01:51:25.000Z</time>
      </trkpt>
      <trkpt lat="45.62862" lon="4.74497">
        <ele>325</ele>
        <time>1970-01-01T01:51:26.000Z</time>
      </trkpt>
      <trkpt lat="45.62865" lon="4.74499">
        <ele>325.4</ele>
        <time>1970-01-01T01:51:28.000Z</time>
      </trkpt>
      <trkpt lat="45.62866" lon="4.745">
        <ele>325.6</ele>
        <time>1970-01-01T01:51:29.000Z</time>
      </trkpt>
      <trkpt lat="45.62867" lon="4.74501">
        <ele>325.8</ele>
        <time>1970-01-01T01:51:30.000Z</time>
      </trkpt>
      <trkpt lat="45.62868" lon="4.74503">
        <ele>326</ele>
        <time>1970-01-01T01:51:31.000Z</time>
      </trkpt>
      <trkpt lat="45.6287" lon="4.74504">
        <ele>326.2</ele>
        <time>1970-01-01T01:51:32.000Z</time>
      </trkpt>
      <trkpt lat="45.62871" lon="4.74506">
        <ele>326.4</ele>
        <time>1970-01-01T01:51:33.000Z</time>
      </trkpt>
      <trkpt lat="45.62873" lon="4.74507">
        <ele>326.6</ele>
        <time>1970-01-01T01:51:34.000Z</time>
      </trkpt>
      <trkpt lat="45.62874" lon="4.74509">
        <ele>326.8</ele>
        <time>1970-01-01T01:51:35.000Z</time>
      </trkpt>
      <trkpt lat="45.62876" lon="4.7451">
        <ele>327</ele>
        <time>1970-01-01T01:51:36.000Z</time>
      </trkpt>
      <trkpt lat="45.62878" lon="4.74513">
        <ele>327.4</ele>
        <time>1970-01-01T01:51:38.000Z</time>
      </trkpt>
      <trkpt lat="45.62881" lon="4.74516">
        <ele>327.8</ele>
        <time>1970-01-01T01:51:40.000Z</time>
      </trkpt>
      <trkpt lat="45.62883" lon="4.7452">
        <ele>328.2</ele>
        <time>1970-01-01T01:51:42.000Z</time>
      </trkpt>
      <trkpt lat="45.62885" lon="4.74523">
        <ele>328.8</ele>
        <time>1970-01-01T01:51:44.000Z</time>
      </trkpt>
      <trkpt lat="45.62889" lon="4.74526">
        <ele>329.2</ele>
        <time>1970-01-01T01:51:46.000Z</time>
      </trkpt>
      <trkpt lat="45.6289" lon="4.74528">
        <ele>329.2</ele>
        <time>1970-01-01T01:51:47.000Z</time>
      </trkpt>
      <trkpt lat="45.62892" lon="4.74531">
        <ele>329.4</ele>
        <time>1970-01-01T01:51:48.000Z</time>
      </trkpt>
      <trkpt lat="45.62894" lon="4.74535">
        <ele>329.8</ele>
        <time>1970-01-01T01:51:50.000Z</time>
      </trkpt>
      <trkpt lat="45.62897" lon="4.74541">
        <ele>330.2</ele>
        <time>1970-01-01T01:51:52.000Z</time>
      </trkpt>
      <trkpt lat="45.629" lon="4.74547">
        <ele>330.6</ele>
        <time>1970-01-01T01:51:54.000Z</time>
      </trkpt>
      <trkpt lat="45.62903" lon="4.74552">
        <ele>330.8</ele>
        <time>1970-01-01T01:51:56.000Z</time>
      </trkpt>
      <trkpt lat="45.62905" lon="4.74555">
        <ele>330.8</ele>
        <time>1970-01-01T01:51:57.000Z</time>
      </trkpt>
      <trkpt lat="45.62907" lon="4.74559">
        <ele>331</ele>
        <time>1970-01-01T01:51:58.000Z</time>
      </trkpt>
      <trkpt lat="45.6291" lon="4.74568">
        <ele>331.2</ele>
        <time>1970-01-01T01:52:00.000Z</time>
      </trkpt>
      <trkpt lat="45.62912" lon="4.74578">
        <ele>331.2</ele>
        <time>1970-01-01T01:52:02.000Z</time>
      </trkpt>
      <trkpt lat="45.62915" lon="4.74589">
        <ele>331.4</ele>
        <time>1970-01-01T01:52:04.000Z</time>
      </trkpt>
      <trkpt lat="45.62917" lon="4.74595">
        <ele>331.4</ele>
        <time>1970-01-01T01:52:05.000Z</time>
      </trkpt>
      <trkpt lat="45.62918" lon="4.74601">
        <ele>331.4</ele>
        <time>1970-01-01T01:52:06.000Z</time>
      </trkpt>
      <trkpt lat="45.62919" lon="4.74606">
        <ele>331.4</ele>
        <time>1970-01-01T01:52:07.000Z</time>
      </trkpt>
      <trkpt lat="45.6292" lon="4.74612">
        <ele>331.4</ele>
        <time>1970-01-01T01:52:08.000Z</time>
      </trkpt>
      <trkpt lat="45.62923" lon="4.74623">
        <ele>331.4</ele>
        <time>1970-01-01T01:52:10.000Z</time>
      </trkpt>
      <trkpt lat="45.62925" lon="4.74633">
        <ele>331.4</ele>
        <time>1970-01-01T01:52:12.000Z</time>
      </trkpt>
      <trkpt lat="45.62926" lon="4.74643">
        <ele>331.6</ele>
        <time>1970-01-01T01:52:14.000Z</time>
      </trkpt>
      <trkpt lat="45.62927" lon="4.74648">
        <ele>331.6</ele>
        <time>1970-01-01T01:52:15.000Z</time>
      </trkpt>
      <trkpt lat="45.62928" lon="4.74652">
        <ele>331.6</ele>
        <time>1970-01-01T01:52:16.000Z</time>
      </trkpt>
      <trkpt lat="45.62928" lon="4.74657">
        <ele>331.6</ele>
        <time>1970-01-01T01:52:17.000Z</time>
      </trkpt>
      <trkpt lat="45.62929" lon="4.74661">
        <ele>331.6</ele>
        <time>1970-01-01T01:52:18.000Z</time>
      </trkpt>
      <trkpt lat="45.62931" lon="4.74664">
        <ele>331.6</ele>
        <time>1970-01-01T01:52:19.000Z</time>
      </trkpt>
      <trkpt lat="45.62935" lon="4.74667">
        <ele>331.6</ele>
        <time>1970-01-01T01:52:20.000Z</time>
      </trkpt>
      <trkpt lat="45.62944" lon="4.74666">
        <ele>331.6</ele>
        <time>1970-01-01T01:52:22.000Z</time>
      </trkpt>
      <trkpt lat="45.62949" lon="4.74664">
        <ele>331.6</ele>
        <time>1970-01-01T01:52:23.000Z</time>
      </trkpt>
      <trkpt lat="45.62955" lon="4.74663">
        <ele>331.6</ele>
        <time>1970-01-01T01:52:24.000Z</time>
      </trkpt>
      <trkpt lat="45.62961" lon="4.74661">
        <ele>331.6</ele>
        <time>1970-01-01T01:52:25.000Z</time>
      </trkpt>
      <trkpt lat="45.62967" lon="4.74659">
        <ele>331.6</ele>
        <time>1970-01-01T01:52:26.000Z</time>
      </trkpt>
      <trkpt lat="45.62978" lon="4.74656">
        <ele>331.6</ele>
        <time>1970-01-01T01:52:28.000Z</time>
      </trkpt>
      <trkpt lat="45.62988" lon="4.74655">
        <ele>331</ele>
        <time>1970-01-01T01:52:30.000Z</time>
      </trkpt>
      <trkpt lat="45.62996" lon="4.74654">
        <ele>330.2</ele>
        <time>1970-01-01T01:52:32.000Z</time>
      </trkpt>
      <trkpt lat="45.63002" lon="4.74654">
        <ele>328.6</ele>
        <time>1970-01-01T01:52:34.000Z</time>
      </trkpt>
      <trkpt lat="45.63005" lon="4.74654">
        <ele>328</ele>
        <time>1970-01-01T01:52:35.000Z</time>
      </trkpt>
      <trkpt lat="45.63007" lon="4.74653">
        <ele>327.4</ele>
        <time>1970-01-01T01:52:36.000Z</time>
      </trkpt>
      <trkpt lat="45.63011" lon="4.74652">
        <ele>326.4</ele>
        <time>1970-01-01T01:52:38.000Z</time>
      </trkpt>
      <trkpt lat="45.63012" lon="4.74651">
        <ele>325.8</ele>
        <time>1970-01-01T01:52:39.000Z</time>
      </trkpt>
      <trkpt lat="45.63013" lon="4.7465">
        <ele>325.4</ele>
        <time>1970-01-01T01:52:40.000Z</time>
      </trkpt>
      <trkpt lat="45.63014" lon="4.74649">
        <ele>324.8</ele>
        <time>1970-01-01T01:52:41.000Z</time>
      </trkpt>
      <trkpt lat="45.63014" lon="4.74649">
        <ele>324.6</ele>
        <time>1970-01-01T01:52:42.000Z</time>
      </trkpt>
      <trkpt lat="45.63015" lon="4.74648">
        <ele>324</ele>
        <time>1970-01-01T01:52:44.000Z</time>
      </trkpt>
      <trkpt lat="45.63016" lon="4.74648">
        <ele>323.6</ele>
        <time>1970-01-01T01:52:45.000Z</time>
      </trkpt>
      <trkpt lat="45.63016" lon="4.74648">
        <ele>323</ele>
        <time>1970-01-01T01:52:46.000Z</time>
      </trkpt>
      <trkpt lat="45.63017" lon="4.74648">
        <ele>322.4</ele>
        <time>1970-01-01T01:52:48.000Z</time>
      </trkpt>
      <trkpt lat="45.63017" lon="4.74648">
        <ele>322.2</ele>
        <time>1970-01-01T01:52:49.000Z</time>
      </trkpt>
      <trkpt lat="45.63018" lon="4.74647">
        <ele>322</ele>
        <time>1970-01-01T01:52:50.000Z</time>
      </trkpt>
      <trkpt lat="45.63018" lon="4.74646">
        <ele>321.8</ele>
        <time>1970-01-01T01:52:52.000Z</time>
      </trkpt>
      <trkpt lat="45.63019" lon="4.74646">
        <ele>321.6</ele>
        <time>1970-01-01T01:52:54.000Z</time>
      </trkpt>
      <trkpt lat="45.63019" lon="4.74645">
        <ele>321.6</ele>
        <time>1970-01-01T01:52:56.000Z</time>
      </trkpt>
      <trkpt lat="45.6302" lon="4.74644">
        <ele>321.4</ele>
        <time>1970-01-01T01:52:57.000Z</time>
      </trkpt>
      <trkpt lat="45.63021" lon="4.74642">
        <ele>321.2</ele>
        <time>1970-01-01T01:52:58.000Z</time>
      </trkpt>
      <trkpt lat="45.63024" lon="4.74641">
        <ele>321</ele>
        <time>1970-01-01T01:53:00.000Z</time>
      </trkpt>
      <trkpt lat="45.63025" lon="4.74641">
        <ele>321</ele>
        <time>1970-01-01T01:53:01.000Z</time>
      </trkpt>
      <trkpt lat="45.63026" lon="4.74641">
        <ele>321</ele>
        <time>1970-01-01T01:53:02.000Z</time>
      </trkpt>
      <trkpt lat="45.63026" lon="4.7464">
        <ele>320.8</ele>
        <time>1970-01-01T01:53:04.000Z</time>
      </trkpt>
      <trkpt lat="45.63027" lon="4.7464">
        <ele>320.4</ele>
        <time>1970-01-01T01:53:06.000Z</time>
      </trkpt>
      <trkpt lat="45.63027" lon="4.7464">
        <ele>320</ele>
        <time>1970-01-01T01:53:08.000Z</time>
      </trkpt>
      <trkpt lat="45.63028" lon="4.7464">
        <ele>320</ele>
        <time>1970-01-01T01:53:10.000Z</time>
      </trkpt>
      <trkpt lat="45.63029" lon="4.7464">
        <ele>319.8</ele>
        <time>1970-01-01T01:53:11.000Z</time>
      </trkpt>
      <trkpt lat="45.63033" lon="4.74641">
        <ele>319.8</ele>
        <time>1970-01-01T01:53:12.000Z</time>
      </trkpt>
      <trkpt lat="45.63038" lon="4.74641">
        <ele>319.8</ele>
        <time>1970-01-01T01:53:13.000Z</time>
      </trkpt>
      <trkpt lat="45.63044" lon="4.74641">
        <ele>319.8</ele>
        <time>1970-01-01T01:53:14.000Z</time>
      </trkpt>
      <trkpt lat="45.63058" lon="4.74642">
        <ele>319.8</ele>
        <time>1970-01-01T01:53:16.000Z</time>
      </trkpt>
      <trkpt lat="45.63072" lon="4.74643">
        <ele>319.4</ele>
        <time>1970-01-01T01:53:18.000Z</time>
      </trkpt>
      <trkpt lat="45.63079" lon="4.74643">
        <ele>319.2</ele>
        <time>1970-01-01T01:53:19.000Z</time>
      </trkpt>
      <trkpt lat="45.63086" lon="4.74644">
        <ele>318.2</ele>
        <time>1970-01-01T01:53:20.000Z</time>
      </trkpt>
      <trkpt lat="45.63091" lon="4.74644">
        <ele>316.8</ele>
        <time>1970-01-01T01:53:21.000Z</time>
      </trkpt>
      <trkpt lat="45.63097" lon="4.74644">
        <ele>315.2</ele>
        <time>1970-01-01T01:53:22.000Z</time>
      </trkpt>
      <trkpt lat="45.63102" lon="4.74645">
        <ele>313.8</ele>
        <time>1970-01-01T01:53:23.000Z</time>
      </trkpt>
      <trkpt lat="45.63106" lon="4.74646">
        <ele>312.4</ele>
        <time>1970-01-01T01:53:24.000Z</time>
      </trkpt>
      <trkpt lat="45.6311" lon="4.74649">
        <ele>310.8</ele>
        <time>1970-01-01T01:53:25.000Z</time>
      </trkpt>
      <trkpt lat="45.63113" lon="4.74652">
        <ele>309.4</ele>
        <time>1970-01-01T01:53:26.000Z</time>
      </trkpt>
      <trkpt lat="45.63117" lon="4.74655">
        <ele>307.8</ele>
        <time>1970-01-01T01:53:27.000Z</time>
      </trkpt>
      <trkpt lat="45.63122" lon="4.74657">
        <ele>307.2</ele>
        <time>1970-01-01T01:53:28.000Z</time>
      </trkpt>
      <trkpt lat="45.63127" lon="4.74658">
        <ele>306.4</ele>
        <time>1970-01-01T01:53:29.000Z</time>
      </trkpt>
      <trkpt lat="45.63133" lon="4.74658">
        <ele>305</ele>
        <time>1970-01-01T01:53:30.000Z</time>
      </trkpt>
      <trkpt lat="45.63139" lon="4.74657">
        <ele>303.8</ele>
        <time>1970-01-01T01:53:31.000Z</time>
      </trkpt>
      <trkpt lat="45.63145" lon="4.74657">
        <ele>302.6</ele>
        <time>1970-01-01T01:53:32.000Z</time>
      </trkpt>
      <trkpt lat="45.6315" lon="4.74655">
        <ele>301.6</ele>
        <time>1970-01-01T01:53:33.000Z</time>
      </trkpt>
      <trkpt lat="45.63153" lon="4.74654">
        <ele>300.4</ele>
        <time>1970-01-01T01:53:34.000Z</time>
      </trkpt>
      <trkpt lat="45.63155" lon="4.74654">
        <ele>299</ele>
        <time>1970-01-01T01:53:35.000Z</time>
      </trkpt>
      <trkpt lat="45.63156" lon="4.74654">
        <ele>297.6</ele>
        <time>1970-01-01T01:53:36.000Z</time>
      </trkpt>
      <trkpt lat="45.63157" lon="4.74654">
        <ele>296.4</ele>
        <time>1970-01-01T01:53:37.000Z</time>
      </trkpt>
      <trkpt lat="45.63157" lon="4.74653">
        <ele>295.2</ele>
        <time>1970-01-01T01:53:38.000Z</time>
      </trkpt>
      <trkpt lat="45.63157" lon="4.74653">
        <ele>293.4</ele>
        <time>1970-01-01T01:53:39.000Z</time>
      </trkpt>
      <trkpt lat="45.63157" lon="4.74653">
        <ele>292.2</ele>
        <time>1970-01-01T01:53:40.000Z</time>
      </trkpt>
      <trkpt lat="45.63157" lon="4.74654">
        <ele>290.8</ele>
        <time>1970-01-01T01:53:42.000Z</time>
      </trkpt>
      <trkpt lat="45.63157" lon="4.74653">
        <ele>290.6</ele>
        <time>1970-01-01T01:53:44.000Z</time>
      </trkpt>
      <trkpt lat="45.63157" lon="4.74653">
        <ele>290.6</ele>
        <time>1970-01-01T01:53:46.000Z</time>
      </trkpt>
      <trkpt lat="45.63157" lon="4.74653">
        <ele>290.6</ele>
        <time>1970-01-01T01:53:50.000Z</time>
      </trkpt>
      <trkpt lat="45.63158" lon="4.74653">
        <ele>290.6</ele>
        <time>1970-01-01T01:53:51.000Z</time>
      </trkpt>
      <trkpt lat="45.63158" lon="4.74653">
        <ele>290.6</ele>
        <time>1970-01-01T01:53:52.000Z</time>
      </trkpt>
      <trkpt lat="45.63159" lon="4.74655">
        <ele>290.6</ele>
        <time>1970-01-01T01:53:54.000Z</time>
      </trkpt>
      <trkpt lat="45.63159" lon="4.74655">
        <ele>290.6</ele>
        <time>1970-01-01T01:53:55.000Z</time>
      </trkpt>
      <trkpt lat="45.6316" lon="4.74656">
        <ele>290.6</ele>
        <time>1970-01-01T01:53:56.000Z</time>
      </trkpt>
      <trkpt lat="45.6316" lon="4.74656">
        <ele>290.6</ele>
        <time>1970-01-01T01:53:58.000Z</time>
      </trkpt>
      <trkpt lat="45.63161" lon="4.74656">
        <ele>290.6</ele>
        <time>1970-01-01T01:54:00.000Z</time>
      </trkpt>
      <trkpt lat="45.63162" lon="4.74656">
        <ele>290.6</ele>
        <time>1970-01-01T01:54:02.000Z</time>
      </trkpt>
      <trkpt lat="45.63162" lon="4.74656">
        <ele>290.6</ele>
        <time>1970-01-01T01:54:04.000Z</time>
      </trkpt>
      <trkpt lat="45.63162" lon="4.74656">
        <ele>290.4</ele>
        <time>1970-01-01T01:54:05.000Z</time>
      </trkpt>
      <trkpt lat="45.63162" lon="4.74656">
        <ele>290.4</ele>
        <time>1970-01-01T01:54:06.000Z</time>
      </trkpt>
      <trkpt lat="45.63163" lon="4.74656">
        <ele>290.4</ele>
        <time>1970-01-01T01:54:08.000Z</time>
      </trkpt>
      <trkpt lat="45.63163" lon="4.74656">
        <ele>290.2</ele>
        <time>1970-01-01T01:54:10.000Z</time>
      </trkpt>
      <trkpt lat="45.63163" lon="4.74656">
        <ele>290</ele>
        <time>1970-01-01T01:54:12.000Z</time>
      </trkpt>
      <trkpt lat="45.63163" lon="4.74656">
        <ele>290</ele>
        <time>1970-01-01T01:54:14.000Z</time>
      </trkpt>
      <trkpt lat="45.63163" lon="4.74656">
        <ele>289.8</ele>
        <time>1970-01-01T01:54:15.000Z</time>
      </trkpt>
      <trkpt lat="45.63163" lon="4.74657">
        <ele>289.8</ele>
        <time>1970-01-01T01:54:16.000Z</time>
      </trkpt>
      <trkpt lat="45.63163" lon="4.74657">
        <ele>289.8</ele>
        <time>1970-01-01T01:54:18.000Z</time>
      </trkpt>
      <trkpt lat="45.63163" lon="4.74657">
        <ele>289.8</ele>
        <time>1970-01-01T01:54:20.000Z</time>
      </trkpt>
      <trkpt lat="45.63163" lon="4.74657">
        <ele>289.8</ele>
        <time>1970-01-01T01:54:22.000Z</time>
      </trkpt>
      <trkpt lat="45.63163" lon="4.74657">
        <ele>289.8</ele>
        <time>1970-01-01T01:54:24.000Z</time>
      </trkpt>
      <trkpt lat="45.63163" lon="4.74657">
        <ele>290</ele>
        <time>1970-01-01T01:54:25.000Z</time>
      </trkpt>
      <trkpt lat="45.63164" lon="4.74657">
        <ele>289.8</ele>
        <time>1970-01-01T01:54:26.000Z</time>
      </trkpt>
      <trkpt lat="45.63164" lon="4.74657">
        <ele>289.8</ele>
        <time>1970-01-01T01:54:28.000Z</time>
      </trkpt>
      <trkpt lat="45.63164" lon="4.74657">
        <ele>289.8</ele>
        <time>1970-01-01T01:54:30.000Z</time>
      </trkpt>
      <trkpt lat="45.63164" lon="4.74656">
        <ele>290</ele>
        <time>1970-01-01T01:54:32.000Z</time>
      </trkpt>
      <trkpt lat="45.63165" lon="4.74659">
        <ele>290</ele>
        <time>1970-01-01T01:54:34.000Z</time>
      </trkpt>
      <trkpt lat="45.63166" lon="4.7466">
        <ele>290</ele>
        <time>1970-01-01T01:54:35.000Z</time>
      </trkpt>
      <trkpt lat="45.63168" lon="4.74663">
        <ele>290</ele>
        <time>1970-01-01T01:54:36.000Z</time>
      </trkpt>
      <trkpt lat="45.63172" lon="4.74671">
        <ele>289.8</ele>
        <time>1970-01-01T01:54:38.000Z</time>
      </trkpt>
      <trkpt lat="45.63178" lon="4.7468">
        <ele>289.8</ele>
        <time>1970-01-01T01:54:40.000Z</time>
      </trkpt>
      <trkpt lat="45.63184" lon="4.74692">
        <ele>289.8</ele>
        <time>1970-01-01T01:54:42.000Z</time>
      </trkpt>
      <trkpt lat="45.63187" lon="4.74698">
        <ele>289.6</ele>
        <time>1970-01-01T01:54:43.000Z</time>
      </trkpt>
      <trkpt lat="45.63189" lon="4.74705">
        <ele>289.4</ele>
        <time>1970-01-01T01:54:44.000Z</time>
      </trkpt>
      <trkpt lat="45.63193" lon="4.74718">
        <ele>288.6</ele>
        <time>1970-01-01T01:54:46.000Z</time>
      </trkpt>
      <trkpt lat="45.63195" lon="4.74724">
        <ele>288</ele>
        <time>1970-01-01T01:54:47.000Z</time>
      </trkpt>
      <trkpt lat="45.63197" lon="4.74728">
        <ele>287.6</ele>
        <time>1970-01-01T01:54:48.000Z</time>
      </trkpt>
      <trkpt lat="45.63198" lon="4.74733">
        <ele>287</ele>
        <time>1970-01-01T01:54:49.000Z</time>
      </trkpt>
      <trkpt lat="45.63199" lon="4.74737">
        <ele>286</ele>
        <time>1970-01-01T01:54:50.000Z</time>
      </trkpt>
      <trkpt lat="45.632" lon="4.74741">
        <ele>285</ele>
        <time>1970-01-01T01:54:51.000Z</time>
      </trkpt>
      <trkpt lat="45.63201" lon="4.74744">
        <ele>284</ele>
        <time>1970-01-01T01:54:52.000Z</time>
      </trkpt>
      <trkpt lat="45.63202" lon="4.74747">
        <ele>282.8</ele>
        <time>1970-01-01T01:54:53.000Z</time>
      </trkpt>
      <trkpt lat="45.63203" lon="4.74749">
        <ele>282.2</ele>
        <time>1970-01-01T01:54:54.000Z</time>
      </trkpt>
      <trkpt lat="45.63203" lon="4.74753">
        <ele>281.8</ele>
        <time>1970-01-01T01:54:55.000Z</time>
      </trkpt>
      <trkpt lat="45.63204" lon="4.74758">
        <ele>281.4</ele>
        <time>1970-01-01T01:54:56.000Z</time>
      </trkpt>
      <trkpt lat="45.63204" lon="4.74763">
        <ele>281.4</ele>
        <time>1970-01-01T01:54:57.000Z</time>
      </trkpt>
      <trkpt lat="45.63206" lon="4.74769">
        <ele>281</ele>
        <time>1970-01-01T01:54:58.000Z</time>
      </trkpt>
      <trkpt lat="45.6321" lon="4.74785">
        <ele>280.4</ele>
        <time>1970-01-01T01:55:00.000Z</time>
      </trkpt>
      <trkpt lat="45.63208" lon="4.74806">
        <ele>280.2</ele>
        <time>1970-01-01T01:55:02.000Z</time>
      </trkpt>
      <trkpt lat="45.63207" lon="4.74814">
        <ele>279.8</ele>
        <time>1970-01-01T01:55:03.000Z</time>
      </trkpt>
      <trkpt lat="45.63208" lon="4.74822">
        <ele>279.4</ele>
        <time>1970-01-01T01:55:04.000Z</time>
      </trkpt>
      <trkpt lat="45.63217" lon="4.74833">
        <ele>277.2</ele>
        <time>1970-01-01T01:55:06.000Z</time>
      </trkpt>
      <trkpt lat="45.63222" lon="4.7484">
        <ele>275.4</ele>
        <time>1970-01-01T01:55:07.000Z</time>
      </trkpt>
      <trkpt lat="45.63228" lon="4.74849">
        <ele>273.6</ele>
        <time>1970-01-01T01:55:08.000Z</time>
      </trkpt>
      <trkpt lat="45.63232" lon="4.74859">
        <ele>272.8</ele>
        <time>1970-01-01T01:55:09.000Z</time>
      </trkpt>
      <trkpt lat="45.63233" lon="4.7487">
        <ele>272.2</ele>
        <time>1970-01-01T01:55:10.000Z</time>
      </trkpt>
      <trkpt lat="45.63232" lon="4.74886">
        <ele>271.2</ele>
        <time>1970-01-01T01:55:12.000Z</time>
      </trkpt>
      <trkpt lat="45.63231" lon="4.74892">
        <ele>270.8</ele>
        <time>1970-01-01T01:55:13.000Z</time>
      </trkpt>
      <trkpt lat="45.63229" lon="4.74898">
        <ele>269.6</ele>
        <time>1970-01-01T01:55:14.000Z</time>
      </trkpt>
      <trkpt lat="45.63228" lon="4.74903">
        <ele>267.4</ele>
        <time>1970-01-01T01:55:15.000Z</time>
      </trkpt>
      <trkpt lat="45.63226" lon="4.74908">
        <ele>265</ele>
        <time>1970-01-01T01:55:16.000Z</time>
      </trkpt>
      <trkpt lat="45.63225" lon="4.74913">
        <ele>263.4</ele>
        <time>1970-01-01T01:55:17.000Z</time>
      </trkpt>
      <trkpt lat="45.63226" lon="4.74918">
        <ele>262.6</ele>
        <time>1970-01-01T01:55:18.000Z</time>
      </trkpt>
      <trkpt lat="45.63228" lon="4.74922">
        <ele>262</ele>
        <time>1970-01-01T01:55:19.000Z</time>
      </trkpt>
      <trkpt lat="45.63233" lon="4.74925">
        <ele>261.8</ele>
        <time>1970-01-01T01:55:20.000Z</time>
      </trkpt>
      <trkpt lat="45.63244" lon="4.7493">
        <ele>261.2</ele>
        <time>1970-01-01T01:55:22.000Z</time>
      </trkpt>
      <trkpt lat="45.63259" lon="4.74933">
        <ele>260.4</ele>
        <time>1970-01-01T01:55:24.000Z</time>
      </trkpt>
      <trkpt lat="45.63275" lon="4.74937">
        <ele>259.2</ele>
        <time>1970-01-01T01:55:26.000Z</time>
      </trkpt>
      <trkpt lat="45.63292" lon="4.74946">
        <ele>257.2</ele>
        <time>1970-01-01T01:55:28.000Z</time>
      </trkpt>
      <trkpt lat="45.63301" lon="4.74951">
        <ele>255.6</ele>
        <time>1970-01-01T01:55:29.000Z</time>
      </trkpt>
      <trkpt lat="45.63309" lon="4.74957">
        <ele>254</ele>
        <time>1970-01-01T01:55:30.000Z</time>
      </trkpt>
      <trkpt lat="45.63318" lon="4.74963">
        <ele>252.6</ele>
        <time>1970-01-01T01:55:31.000Z</time>
      </trkpt>
      <trkpt lat="45.63327" lon="4.74969">
        <ele>251.8</ele>
        <time>1970-01-01T01:55:32.000Z</time>
      </trkpt>
      <trkpt lat="45.63335" lon="4.74974">
        <ele>250.8</ele>
        <time>1970-01-01T01:55:33.000Z</time>
      </trkpt>
      <trkpt lat="45.63342" lon="4.74979">
        <ele>248.8</ele>
        <time>1970-01-01T01:55:34.000Z</time>
      </trkpt>
      <trkpt lat="45.63347" lon="4.74982">
        <ele>247.4</ele>
        <time>1970-01-01T01:55:35.000Z</time>
      </trkpt>
      <trkpt lat="45.63352" lon="4.74985">
        <ele>246.2</ele>
        <time>1970-01-01T01:55:36.000Z</time>
      </trkpt>
      <trkpt lat="45.63361" lon="4.74989">
        <ele>244.4</ele>
        <time>1970-01-01T01:55:38.000Z</time>
      </trkpt>
      <trkpt lat="45.63364" lon="4.74991">
        <ele>243.8</ele>
        <time>1970-01-01T01:55:39.000Z</time>
      </trkpt>
      <trkpt lat="45.63368" lon="4.74992">
        <ele>243.4</ele>
        <time>1970-01-01T01:55:40.000Z</time>
      </trkpt>
      <trkpt lat="45.63373" lon="4.74995">
        <ele>242.6</ele>
        <time>1970-01-01T01:55:42.000Z</time>
      </trkpt>
      <trkpt lat="45.63378" lon="4.74998">
        <ele>242.2</ele>
        <time>1970-01-01T01:55:44.000Z</time>
      </trkpt>
      <trkpt lat="45.63384" lon="4.75">
        <ele>242</ele>
        <time>1970-01-01T01:55:46.000Z</time>
      </trkpt>
      <trkpt lat="45.63392" lon="4.75001">
        <ele>241.8</ele>
        <time>1970-01-01T01:55:48.000Z</time>
      </trkpt>
      <trkpt lat="45.63402" lon="4.75005">
        <ele>241.2</ele>
        <time>1970-01-01T01:55:50.000Z</time>
      </trkpt>
      <trkpt lat="45.63407" lon="4.75006">
        <ele>240.6</ele>
        <time>1970-01-01T01:55:51.000Z</time>
      </trkpt>
      <trkpt lat="45.63411" lon="4.75006">
        <ele>240.4</ele>
        <time>1970-01-01T01:55:52.000Z</time>
      </trkpt>
      <trkpt lat="45.63416" lon="4.75006">
        <ele>240</ele>
        <time>1970-01-01T01:55:53.000Z</time>
      </trkpt>
      <trkpt lat="45.6342" lon="4.75006">
        <ele>239.6</ele>
        <time>1970-01-01T01:55:54.000Z</time>
      </trkpt>
      <trkpt lat="45.63425" lon="4.75006">
        <ele>238.8</ele>
        <time>1970-01-01T01:55:55.000Z</time>
      </trkpt>
      <trkpt lat="45.63431" lon="4.75006">
        <ele>238.2</ele>
        <time>1970-01-01T01:55:56.000Z</time>
      </trkpt>
      <trkpt lat="45.63436" lon="4.75006">
        <ele>237.4</ele>
        <time>1970-01-01T01:55:57.000Z</time>
      </trkpt>
      <trkpt lat="45.63442" lon="4.75007">
        <ele>236.4</ele>
        <time>1970-01-01T01:55:58.000Z</time>
      </trkpt>
      <trkpt lat="45.63454" lon="4.75011">
        <ele>234.8</ele>
        <time>1970-01-01T01:56:00.000Z</time>
      </trkpt>
      <trkpt lat="45.63459" lon="4.75014">
        <ele>234.2</ele>
        <time>1970-01-01T01:56:01.000Z</time>
      </trkpt>
      <trkpt lat="45.63464" lon="4.75018">
        <ele>232.8</ele>
        <time>1970-01-01T01:56:02.000Z</time>
      </trkpt>
      <trkpt lat="45.6347" lon="4.7502">
        <ele>232.2</ele>
        <time>1970-01-01T01:56:03.000Z</time>
      </trkpt>
      <trkpt lat="45.63475" lon="4.75023">
        <ele>231.6</ele>
        <time>1970-01-01T01:56:04.000Z</time>
      </trkpt>
      <trkpt lat="45.6348" lon="4.75025">
        <ele>230.4</ele>
        <time>1970-01-01T01:56:05.000Z</time>
      </trkpt>
      <trkpt lat="45.63485" lon="4.75029">
        <ele>229.2</ele>
        <time>1970-01-01T01:56:06.000Z</time>
      </trkpt>
      <trkpt lat="45.63497" lon="4.75032">
        <ele>227</ele>
        <time>1970-01-01T01:56:08.000Z</time>
      </trkpt>
      <trkpt lat="45.63502" lon="4.75033">
        <ele>226</ele>
        <time>1970-01-01T01:56:09.000Z</time>
      </trkpt>
      <trkpt lat="45.63506" lon="4.75034">
        <ele>225</ele>
        <time>1970-01-01T01:56:10.000Z</time>
      </trkpt>
      <trkpt lat="45.63511" lon="4.75035">
        <ele>224.2</ele>
        <time>1970-01-01T01:56:11.000Z</time>
      </trkpt>
      <trkpt lat="45.63516" lon="4.75036">
        <ele>223.6</ele>
        <time>1970-01-01T01:56:12.000Z</time>
      </trkpt>
      <trkpt lat="45.6352" lon="4.75037">
        <ele>223</ele>
        <time>1970-01-01T01:56:13.000Z</time>
      </trkpt>
      <trkpt lat="45.63526" lon="4.75039">
        <ele>222.2</ele>
        <time>1970-01-01T01:56:14.000Z</time>
      </trkpt>
      <trkpt lat="45.63532" lon="4.75043">
        <ele>221.6</ele>
        <time>1970-01-01T01:56:15.000Z</time>
      </trkpt>
      <trkpt lat="45.63538" lon="4.75046">
        <ele>221.4</ele>
        <time>1970-01-01T01:56:16.000Z</time>
      </trkpt>
      <trkpt lat="45.63543" lon="4.7505">
        <ele>221.2</ele>
        <time>1970-01-01T01:56:17.000Z</time>
      </trkpt>
      <trkpt lat="45.63549" lon="4.75054">
        <ele>220.6</ele>
        <time>1970-01-01T01:56:18.000Z</time>
      </trkpt>
      <trkpt lat="45.63555" lon="4.75061">
        <ele>220</ele>
        <time>1970-01-01T01:56:19.000Z</time>
      </trkpt>
      <trkpt lat="45.6356" lon="4.75067">
        <ele>219.8</ele>
        <time>1970-01-01T01:56:20.000Z</time>
      </trkpt>
      <trkpt lat="45.63566" lon="4.75074">
        <ele>219.6</ele>
        <time>1970-01-01T01:56:21.000Z</time>
      </trkpt>
      <trkpt lat="45.63572" lon="4.75081">
        <ele>219</ele>
        <time>1970-01-01T01:56:22.000Z</time>
      </trkpt>
      <trkpt lat="45.63578" lon="4.75087">
        <ele>218.2</ele>
        <time>1970-01-01T01:56:23.000Z</time>
      </trkpt>
      <trkpt lat="45.63585" lon="4.75092">
        <ele>217.8</ele>
        <time>1970-01-01T01:56:24.000Z</time>
      </trkpt>
      <trkpt lat="45.63598" lon="4.75101">
        <ele>217</ele>
        <time>1970-01-01T01:56:26.000Z</time>
      </trkpt>
      <trkpt lat="45.63611" lon="4.75111">
        <ele>215.8</ele>
        <time>1970-01-01T01:56:28.000Z</time>
      </trkpt>
      <trkpt lat="45.63624" lon="4.7512">
        <ele>214.2</ele>
        <time>1970-01-01T01:56:30.000Z</time>
      </trkpt>
      <trkpt lat="45.63637" lon="4.75129">
        <ele>213</ele>
        <time>1970-01-01T01:56:32.000Z</time>
      </trkpt>
      <trkpt lat="45.6365" lon="4.75138">
        <ele>212</ele>
        <time>1970-01-01T01:56:34.000Z</time>
      </trkpt>
      <trkpt lat="45.63662" lon="4.75146">
        <ele>211.4</ele>
        <time>1970-01-01T01:56:36.000Z</time>
      </trkpt>
      <trkpt lat="45.63672" lon="4.75154">
        <ele>211</ele>
        <time>1970-01-01T01:56:38.000Z</time>
      </trkpt>
      <trkpt lat="45.63678" lon="4.75158">
        <ele>211</ele>
        <time>1970-01-01T01:56:40.000Z</time>
      </trkpt>
      <trkpt lat="45.6368" lon="4.75158">
        <ele>211</ele>
        <time>1970-01-01T01:56:41.000Z</time>
      </trkpt>
      <trkpt lat="45.6368" lon="4.75158">
        <ele>211</ele>
        <time>1970-01-01T01:56:42.000Z</time>
      </trkpt>
      <trkpt lat="45.63681" lon="4.75158">
        <ele>211</ele>
        <time>1970-01-01T01:56:44.000Z</time>
      </trkpt>
      <trkpt lat="45.63681" lon="4.75158">
        <ele>211</ele>
        <time>1970-01-01T01:56:46.000Z</time>
      </trkpt>
      <trkpt lat="45.63681" lon="4.75158">
        <ele>211.8</ele>
        <time>1970-01-01T01:56:52.000Z</time>
      </trkpt>
      <trkpt lat="45.63681" lon="4.75158">
        <ele>212</ele>
        <time>1970-01-01T01:56:54.000Z</time>
      </trkpt>
      <trkpt lat="45.63681" lon="4.75158">
        <ele>212</ele>
        <time>1970-01-01T01:56:56.000Z</time>
      </trkpt>
      <trkpt lat="45.63681" lon="4.75158">
        <ele>212</ele>
        <time>1970-01-01T01:56:58.000Z</time>
      </trkpt>
      <trkpt lat="45.63681" lon="4.75158">
        <ele>212</ele>
        <time>1970-01-01T01:57:02.000Z</time>
      </trkpt>
      <trkpt lat="45.63681" lon="4.75158">
        <ele>211.8</ele>
        <time>1970-01-01T01:57:08.000Z</time>
      </trkpt>
      <trkpt lat="45.63681" lon="4.75158">
        <ele>211.6</ele>
        <time>1970-01-01T01:57:14.000Z</time>
      </trkpt>
      <trkpt lat="45.63681" lon="4.75158">
        <ele>211.6</ele>
        <time>1970-01-01T01:57:18.000Z</time>
      </trkpt>
      <trkpt lat="45.63681" lon="4.75158">
        <ele>211.6</ele>
        <time>1970-01-01T01:57:24.000Z</time>
      </trkpt>
      <trkpt lat="45.63681" lon="4.75158">
        <ele>211.6</ele>
        <time>1970-01-01T01:57:32.000Z</time>
      </trkpt>
      <trkpt lat="45.63681" lon="4.75158">
        <ele>211.6</ele>
        <time>1970-01-01T01:57:40.000Z</time>
      </trkpt>
      <trkpt lat="45.63681" lon="4.75158">
        <ele>211.6</ele>
        <time>1970-01-01T01:57:46.000Z</time>
      </trkpt>
      <trkpt lat="45.63681" lon="4.75158">
        <ele>211.6</ele>
        <time>1970-01-01T01:57:50.000Z</time>
      </trkpt>
      <trkpt lat="45.63681" lon="4.75158">
        <ele>211.6</ele>
        <time>1970-01-01T01:57:54.000Z</time>
      </trkpt>
      <trkpt lat="45.63681" lon="4.75158">
        <ele>211.6</ele>
        <time>1970-01-01T01:57:58.000Z</time>
      </trkpt>
      <trkpt lat="45.63681" lon="4.75158">
        <ele>211.6</ele>
        <time>1970-01-01T01:58:00.000Z</time>
      </trkpt>
      <trkpt lat="45.63681" lon="4.75158">
        <ele>211.6</ele>
        <time>1970-01-01T01:58:08.000Z</time>
      </trkpt>
      <trkpt lat="45.63681" lon="4.75158">
        <ele>211.6</ele>
        <time>1970-01-01T01:58:10.000Z</time>
      </trkpt>
      <trkpt lat="45.63681" lon="4.75158">
        <ele>211.6</ele>
        <time>1970-01-01T01:58:12.000Z</time>
      </trkpt>
      <trkpt lat="45.63681" lon="4.75158">
        <ele>211.6</ele>
        <time>1970-01-01T01:58:14.000Z</time>
      </trkpt>
      <trkpt lat="45.63681" lon="4.75159">
        <ele>211.6</ele>
        <time>1970-01-01T01:58:16.000Z</time>
      </trkpt>
      <trkpt lat="45.63681" lon="4.75159">
        <ele>211.6</ele>
        <time>1970-01-01T01:58:18.000Z</time>
      </trkpt>
      <trkpt lat="45.63684" lon="4.75158">
        <ele>211.6</ele>
        <time>1970-01-01T01:58:20.000Z</time>
      </trkpt>
      <trkpt lat="45.63685" lon="4.75158">
        <ele>211.6</ele>
        <time>1970-01-01T01:58:21.000Z</time>
      </trkpt>
      <trkpt lat="45.63688" lon="4.75157">
        <ele>211.6</ele>
        <time>1970-01-01T01:58:22.000Z</time>
      </trkpt>
      <trkpt lat="45.63691" lon="4.75157">
        <ele>211.6</ele>
        <time>1970-01-01T01:58:23.000Z</time>
      </trkpt>
      <trkpt lat="45.63694" lon="4.75156">
        <ele>211.6</ele>
        <time>1970-01-01T01:58:24.000Z</time>
      </trkpt>
      <trkpt lat="45.63702" lon="4.75153">
        <ele>211.6</ele>
        <time>1970-01-01T01:58:26.000Z</time>
      </trkpt>
      <trkpt lat="45.63711" lon="4.7515">
        <ele>211.4</ele>
        <time>1970-01-01T01:58:28.000Z</time>
      </trkpt>
      <trkpt lat="45.63719" lon="4.75149">
        <ele>211.2</ele>
        <time>1970-01-01T01:58:30.000Z</time>
      </trkpt>
      <trkpt lat="45.63724" lon="4.75148">
        <ele>211</ele>
        <time>1970-01-01T01:58:31.000Z</time>
      </trkpt>
      <trkpt lat="45.63728" lon="4.75148">
        <ele>210.8</ele>
        <time>1970-01-01T01:58:32.000Z</time>
      </trkpt>
      <trkpt lat="45.63738" lon="4.75148">
        <ele>210.8</ele>
        <time>1970-01-01T01:58:34.000Z</time>
      </trkpt>
      <trkpt lat="45.63748" lon="4.75147">
        <ele>210.6</ele>
        <time>1970-01-01T01:58:36.000Z</time>
      </trkpt>
      <trkpt lat="45.63758" lon="4.75147">
        <ele>210.6</ele>
        <time>1970-01-01T01:58:38.000Z</time>
      </trkpt>
      <trkpt lat="45.63763" lon="4.75146">
        <ele>210.6</ele>
        <time>1970-01-01T01:58:39.000Z</time>
      </trkpt>
      <trkpt lat="45.63768" lon="4.75146">
        <ele>210.6</ele>
        <time>1970-01-01T01:58:40.000Z</time>
      </trkpt>
      <trkpt lat="45.63779" lon="4.75147">
        <ele>210.2</ele>
        <time>1970-01-01T01:58:42.000Z</time>
      </trkpt>
      <trkpt lat="45.63788" lon="4.75147">
        <ele>209.8</ele>
        <time>1970-01-01T01:58:44.000Z</time>
      </trkpt>
      <trkpt lat="45.63798" lon="4.75147">
        <ele>209.6</ele>
        <time>1970-01-01T01:58:46.000Z</time>
      </trkpt>
      <trkpt lat="45.63803" lon="4.75147">
        <ele>209.6</ele>
        <time>1970-01-01T01:58:47.000Z</time>
      </trkpt>
      <trkpt lat="45.63807" lon="4.75148">
        <ele>209.6</ele>
        <time>1970-01-01T01:58:48.000Z</time>
      </trkpt>
      <trkpt lat="45.63817" lon="4.75148">
        <ele>209.6</ele>
        <time>1970-01-01T01:58:50.000Z</time>
      </trkpt>
      <trkpt lat="45.63822" lon="4.75148">
        <ele>209.6</ele>
        <time>1970-01-01T01:58:51.000Z</time>
      </trkpt>
      <trkpt lat="45.63827" lon="4.75148">
        <ele>209.6</ele>
        <time>1970-01-01T01:58:52.000Z</time>
      </trkpt>
      <trkpt lat="45.63832" lon="4.75148">
        <ele>209.6</ele>
        <time>1970-01-01T01:58:53.000Z</time>
      </trkpt>
      <trkpt lat="45.63837" lon="4.75149">
        <ele>209.6</ele>
        <time>1970-01-01T01:58:54.000Z</time>
      </trkpt>
      <trkpt lat="45.63842" lon="4.75149">
        <ele>209.6</ele>
        <time>1970-01-01T01:58:55.000Z</time>
      </trkpt>
      <trkpt lat="45.63846" lon="4.75149">
        <ele>209.6</ele>
        <time>1970-01-01T01:58:56.000Z</time>
      </trkpt>
      <trkpt lat="45.63851" lon="4.75149">
        <ele>209.4</ele>
        <time>1970-01-01T01:58:57.000Z</time>
      </trkpt>
      <trkpt lat="45.63855" lon="4.75149">
        <ele>209.4</ele>
        <time>1970-01-01T01:58:58.000Z</time>
      </trkpt>
      <trkpt lat="45.63864" lon="4.7515">
        <ele>209.6</ele>
        <time>1970-01-01T01:59:00.000Z</time>
      </trkpt>
      <trkpt lat="45.63873" lon="4.75151">
        <ele>209.6</ele>
        <time>1970-01-01T01:59:02.000Z</time>
      </trkpt>
      <trkpt lat="45.63877" lon="4.75152">
        <ele>209.6</ele>
        <time>1970-01-01T01:59:03.000Z</time>
      </trkpt>
      <trkpt lat="45.63882" lon="4.75152">
        <ele>209.6</ele>
        <time>1970-01-01T01:59:04.000Z</time>
      </trkpt>
      <trkpt lat="45.63891" lon="4.75154">
        <ele>209.6</ele>
        <time>1970-01-01T01:59:06.000Z</time>
      </trkpt>
      <trkpt lat="45.639" lon="4.75154">
        <ele>209.6</ele>
        <time>1970-01-01T01:59:08.000Z</time>
      </trkpt>
      <trkpt lat="45.6391" lon="4.75154">
        <ele>209.4</ele>
        <time>1970-01-01T01:59:10.000Z</time>
      </trkpt>
      <trkpt lat="45.63919" lon="4.75154">
        <ele>209.6</ele>
        <time>1970-01-01T01:59:12.000Z</time>
      </trkpt>
      <trkpt lat="45.63928" lon="4.75155">
        <ele>209.6</ele>
        <time>1970-01-01T01:59:14.000Z</time>
      </trkpt>
      <trkpt lat="45.63937" lon="4.75156">
        <ele>209.6</ele>
        <time>1970-01-01T01:59:16.000Z</time>
      </trkpt>
      <trkpt lat="45.63941" lon="4.75157">
        <ele>209.6</ele>
        <time>1970-01-01T01:59:17.000Z</time>
      </trkpt>
      <trkpt lat="45.63946" lon="4.75157">
        <ele>209.6</ele>
        <time>1970-01-01T01:59:18.000Z</time>
      </trkpt>
      <trkpt lat="45.63955" lon="4.75157">
        <ele>209.4</ele>
        <time>1970-01-01T01:59:20.000Z</time>
      </trkpt>
      <trkpt lat="45.63964" lon="4.75157">
        <ele>209.4</ele>
        <time>1970-01-01T01:59:22.000Z</time>
      </trkpt>
      <trkpt lat="45.6397" lon="4.75157">
        <ele>209.4</ele>
        <time>1970-01-01T01:59:23.000Z</time>
      </trkpt>
      <trkpt lat="45.63975" lon="4.75156">
        <ele>209.4</ele>
        <time>1970-01-01T01:59:24.000Z</time>
      </trkpt>
      <trkpt lat="45.63985" lon="4.75154">
        <ele>209.4</ele>
        <time>1970-01-01T01:59:26.000Z</time>
      </trkpt>
      <trkpt lat="45.63994" lon="4.75155">
        <ele>209.4</ele>
        <time>1970-01-01T01:59:28.000Z</time>
      </trkpt>
      <trkpt lat="45.63997" lon="4.75156">
        <ele>209.4</ele>
        <time>1970-01-01T01:59:29.000Z</time>
      </trkpt>
      <trkpt lat="45.64001" lon="4.75159">
        <ele>209.4</ele>
        <time>1970-01-01T01:59:30.000Z</time>
      </trkpt>
      <trkpt lat="45.64006" lon="4.7517">
        <ele>209.2</ele>
        <time>1970-01-01T01:59:32.000Z</time>
      </trkpt>
      <trkpt lat="45.6401" lon="4.75188">
        <ele>209.2</ele>
        <time>1970-01-01T01:59:34.000Z</time>
      </trkpt>
      <trkpt lat="45.64012" lon="4.75209">
        <ele>209.2</ele>
        <time>1970-01-01T01:59:36.000Z</time>
      </trkpt>
      <trkpt lat="45.64015" lon="4.75232">
        <ele>209</ele>
        <time>1970-01-01T01:59:38.000Z</time>
      </trkpt>
      <trkpt lat="45.64018" lon="4.75254">
        <ele>208.6</ele>
        <time>1970-01-01T01:59:40.000Z</time>
      </trkpt>
      <trkpt lat="45.6402" lon="4.75278">
        <ele>206.6</ele>
        <time>1970-01-01T01:59:42.000Z</time>
      </trkpt>
      <trkpt lat="45.64022" lon="4.75289">
        <ele>205.6</ele>
        <time>1970-01-01T01:59:43.000Z</time>
      </trkpt>
      <trkpt lat="45.64023" lon="4.75301">
        <ele>204.8</ele>
        <time>1970-01-01T01:59:44.000Z</time>
      </trkpt>
      <trkpt lat="45.64024" lon="4.75313">
        <ele>202.4</ele>
        <time>1970-01-01T01:59:45.000Z</time>
      </trkpt>
      <trkpt lat="45.64026" lon="4.75324">
        <ele>201.2</ele>
        <time>1970-01-01T01:59:46.000Z</time>
      </trkpt>
      <trkpt lat="45.64028" lon="4.75335">
        <ele>200.2</ele>
        <time>1970-01-01T01:59:47.000Z</time>
      </trkpt>
      <trkpt lat="45.64033" lon="4.75345">
        <ele>199.4</ele>
        <time>1970-01-01T01:59:48.000Z</time>
      </trkpt>
      <trkpt lat="45.64046" lon="4.75361">
        <ele>198.4</ele>
        <time>1970-01-01T01:59:50.000Z</time>
      </trkpt>
      <trkpt lat="45.64053" lon="4.75368">
        <ele>197.8</ele>
        <time>1970-01-01T01:59:51.000Z</time>
      </trkpt>
      <trkpt lat="45.6406" lon="4.75375">
        <ele>197.4</ele>
        <time>1970-01-01T01:59:52.000Z</time>
      </trkpt>
      <trkpt lat="45.64066" lon="4.75383">
        <ele>197.2</ele>
        <time>1970-01-01T01:59:53.000Z</time>
      </trkpt>
      <trkpt lat="45.64069" lon="4.75392">
        <ele>196.8</ele>
        <time>1970-01-01T01:59:54.000Z</time>
      </trkpt>
      <trkpt lat="45.64071" lon="4.75411">
        <ele>196.4</ele>
        <time>1970-01-01T01:59:56.000Z</time>
      </trkpt>
      <trkpt lat="45.6407" lon="4.75418">
        <ele>196.4</ele>
        <time>1970-01-01T01:59:57.000Z</time>
      </trkpt>
      <trkpt lat="45.6407" lon="4.75425">
        <ele>196.2</ele>
        <time>1970-01-01T01:59:58.000Z</time>
      </trkpt>
      <trkpt lat="45.6407" lon="4.75436">
        <ele>196.2</ele>
        <time>1970-01-01T02:00:00.000Z</time>
      </trkpt>
      <trkpt lat="45.6407" lon="4.7544">
        <ele>196.2</ele>
        <time>1970-01-01T02:00:01.000Z</time>
      </trkpt>
      <trkpt lat="45.6407" lon="4.75444">
        <ele>196.2</ele>
        <time>1970-01-01T02:00:02.000Z</time>
      </trkpt>
      <trkpt lat="45.6407" lon="4.75449">
        <ele>196.2</ele>
        <time>1970-01-01T02:00:04.000Z</time>
      </trkpt>
      <trkpt lat="45.6407" lon="4.75455">
        <ele>196.2</ele>
        <time>1970-01-01T02:00:06.000Z</time>
      </trkpt>
      <trkpt lat="45.6407" lon="4.75459">
        <ele>196.4</ele>
        <time>1970-01-01T02:00:07.000Z</time>
      </trkpt>
      <trkpt lat="45.64068" lon="4.75462">
        <ele>196.8</ele>
        <time>1970-01-01T02:00:08.000Z</time>
      </trkpt>
      <trkpt lat="45.64064" lon="4.75468">
        <ele>197.2</ele>
        <time>1970-01-01T02:00:10.000Z</time>
      </trkpt>
      <trkpt lat="45.64061" lon="4.75471">
        <ele>197.4</ele>
        <time>1970-01-01T02:00:11.000Z</time>
      </trkpt>
      <trkpt lat="45.64059" lon="4.75474">
        <ele>197.6</ele>
        <time>1970-01-01T02:00:12.000Z</time>
      </trkpt>
      <trkpt lat="45.64053" lon="4.75481">
        <ele>197.8</ele>
        <time>1970-01-01T02:00:14.000Z</time>
      </trkpt>
      <trkpt lat="45.64048" lon="4.75489">
        <ele>197.8</ele>
        <time>1970-01-01T02:00:16.000Z</time>
      </trkpt>
      <trkpt lat="45.64045" lon="4.75493">
        <ele>197.8</ele>
        <time>1970-01-01T02:00:17.000Z</time>
      </trkpt>
      <trkpt lat="45.64043" lon="4.75497">
        <ele>197.8</ele>
        <time>1970-01-01T02:00:18.000Z</time>
      </trkpt>
      <trkpt lat="45.64037" lon="4.75505">
        <ele>198</ele>
        <time>1970-01-01T02:00:20.000Z</time>
      </trkpt>
      <trkpt lat="45.64032" lon="4.75513">
        <ele>198</ele>
        <time>1970-01-01T02:00:22.000Z</time>
      </trkpt>
      <trkpt lat="45.64027" lon="4.75521">
        <ele>198.2</ele>
        <time>1970-01-01T02:00:24.000Z</time>
      </trkpt>
      <trkpt lat="45.64024" lon="4.75526">
        <ele>198.2</ele>
        <time>1970-01-01T02:00:25.000Z</time>
      </trkpt>
      <trkpt lat="45.6402" lon="4.75529">
        <ele>198.2</ele>
        <time>1970-01-01T02:00:26.000Z</time>
      </trkpt>
      <trkpt lat="45.64012" lon="4.75536">
        <ele>198.2</ele>
        <time>1970-01-01T02:00:28.000Z</time>
      </trkpt>
      <trkpt lat="45.64008" lon="4.75541">
        <ele>198.4</ele>
        <time>1970-01-01T02:00:29.000Z</time>
      </trkpt>
      <trkpt lat="45.64005" lon="4.75546">
        <ele>198.4</ele>
        <time>1970-01-01T02:00:30.000Z</time>
      </trkpt>
      <trkpt lat="45.64002" lon="4.7556">
        <ele>198.4</ele>
        <time>1970-01-01T02:00:32.000Z</time>
      </trkpt>
      <trkpt lat="45.64003" lon="4.75566">
        <ele>198.4</ele>
        <time>1970-01-01T02:00:33.000Z</time>
      </trkpt>
      <trkpt lat="45.64005" lon="4.75571">
        <ele>198.4</ele>
        <time>1970-01-01T02:00:34.000Z</time>
      </trkpt>
      <trkpt lat="45.64013" lon="4.75578">
        <ele>198.4</ele>
        <time>1970-01-01T02:00:36.000Z</time>
      </trkpt>
      <trkpt lat="45.64021" lon="4.75579">
        <ele>198.4</ele>
        <time>1970-01-01T02:00:38.000Z</time>
      </trkpt>
      <trkpt lat="45.64028" lon="4.75576">
        <ele>198.4</ele>
        <time>1970-01-01T02:00:40.000Z</time>
      </trkpt>
      <trkpt lat="45.64033" lon="4.75572">
        <ele>198.4</ele>
        <time>1970-01-01T02:00:42.000Z</time>
      </trkpt>
      <trkpt lat="45.64034" lon="4.75566">
        <ele>198.4</ele>
        <time>1970-01-01T02:00:44.000Z</time>
      </trkpt>
      <trkpt lat="45.64034" lon="4.75559">
        <ele>198.4</ele>
        <time>1970-01-01T02:00:46.000Z</time>
      </trkpt>
      <trkpt lat="45.64034" lon="4.75549">
        <ele>198.6</ele>
        <time>1970-01-01T02:00:48.000Z</time>
      </trkpt>
      <trkpt lat="45.64035" lon="4.75539">
        <ele>198.6</ele>
        <time>1970-01-01T02:00:50.000Z</time>
      </trkpt>
      <trkpt lat="45.64037" lon="4.75535">
        <ele>198.6</ele>
        <time>1970-01-01T02:00:51.000Z</time>
      </trkpt>
      <trkpt lat="45.64039" lon="4.7553">
        <ele>198.6</ele>
        <time>1970-01-01T02:00:52.000Z</time>
      </trkpt>
      <trkpt lat="45.64045" lon="4.75521">
        <ele>198.6</ele>
        <time>1970-01-01T02:00:54.000Z</time>
      </trkpt>
      <trkpt lat="45.64051" lon="4.75511">
        <ele>198.6</ele>
        <time>1970-01-01T02:00:56.000Z</time>
      </trkpt>
      <trkpt lat="45.64056" lon="4.75502">
        <ele>198.6</ele>
        <time>1970-01-01T02:00:58.000Z</time>
      </trkpt>
      <trkpt lat="45.64061" lon="4.75494">
        <ele>198.6</ele>
        <time>1970-01-01T02:01:00.000Z</time>
      </trkpt>
      <trkpt lat="45.64066" lon="4.75487">
        <ele>198.6</ele>
        <time>1970-01-01T02:01:02.000Z</time>
      </trkpt>
      <trkpt lat="45.64071" lon="4.75481">
        <ele>198.6</ele>
        <time>1970-01-01T02:01:04.000Z</time>
      </trkpt>
      <trkpt lat="45.64076" lon="4.75475">
        <ele>198.6</ele>
        <time>1970-01-01T02:01:06.000Z</time>
      </trkpt>
      <trkpt lat="45.64081" lon="4.75469">
        <ele>198.6</ele>
        <time>1970-01-01T02:01:08.000Z</time>
      </trkpt>
      <trkpt lat="45.64084" lon="4.75463">
        <ele>199</ele>
        <time>1970-01-01T02:01:10.000Z</time>
      </trkpt>
      <trkpt lat="45.64086" lon="4.75461">
        <ele>199</ele>
        <time>1970-01-01T02:01:11.000Z</time>
      </trkpt>
      <trkpt lat="45.64088" lon="4.75459">
        <ele>199</ele>
        <time>1970-01-01T02:01:12.000Z</time>
      </trkpt>
      <trkpt lat="45.64089" lon="4.75458">
        <ele>199</ele>
        <time>1970-01-01T02:01:13.000Z</time>
      </trkpt>
      <trkpt lat="45.6409" lon="4.75458">
        <ele>199.2</ele>
        <time>1970-01-01T02:01:14.000Z</time>
      </trkpt>
      <trkpt lat="45.6409" lon="4.75459">
        <ele>199.2</ele>
        <time>1970-01-01T02:01:15.000Z</time>
      </trkpt>
      <trkpt lat="45.64089" lon="4.75461">
        <ele>199.2</ele>
        <time>1970-01-01T02:01:16.000Z</time>
      </trkpt>
      <trkpt lat="45.64085" lon="4.75466">
        <ele>199.2</ele>
        <time>1970-01-01T02:01:18.000Z</time>
      </trkpt>
      <trkpt lat="45.64081" lon="4.75471">
        <ele>199.2</ele>
        <time>1970-01-01T02:01:20.000Z</time>
      </trkpt>
      <trkpt lat="45.64079" lon="4.75475">
        <ele>199.2</ele>
        <time>1970-01-01T02:01:21.000Z</time>
      </trkpt>
      <trkpt lat="45.64077" lon="4.7548">
        <ele>199.2</ele>
        <time>1970-01-01T02:01:22.000Z</time>
      </trkpt>
      <trkpt lat="45.64077" lon="4.75492">
        <ele>199</ele>
        <time>1970-01-01T02:01:24.000Z</time>
      </trkpt>
      <trkpt lat="45.64077" lon="4.75499">
        <ele>199</ele>
        <time>1970-01-01T02:01:25.000Z</time>
      </trkpt>
      <trkpt lat="45.64078" lon="4.75507">
        <ele>199</ele>
        <time>1970-01-01T02:01:26.000Z</time>
      </trkpt>
      <trkpt lat="45.6408" lon="4.75514">
        <ele>199</ele>
        <time>1970-01-01T02:01:27.000Z</time>
      </trkpt>
      <trkpt lat="45.64081" lon="4.75521">
        <ele>198.8</ele>
        <time>1970-01-01T02:01:28.000Z</time>
      </trkpt>
      <trkpt lat="45.64084" lon="4.75529">
        <ele>198.6</ele>
        <time>1970-01-01T02:01:29.000Z</time>
      </trkpt>
      <trkpt lat="45.64086" lon="4.75536">
        <ele>198.4</ele>
        <time>1970-01-01T02:01:30.000Z</time>
      </trkpt>
      <trkpt lat="45.64089" lon="4.75543">
        <ele>198.2</ele>
        <time>1970-01-01T02:01:31.000Z</time>
      </trkpt>
      <trkpt lat="45.64091" lon="4.75549">
        <ele>197.4</ele>
        <time>1970-01-01T02:01:32.000Z</time>
      </trkpt>
      <trkpt lat="45.64094" lon="4.75555">
        <ele>196.4</ele>
        <time>1970-01-01T02:01:33.000Z</time>
      </trkpt>
      <trkpt lat="45.64097" lon="4.75561">
        <ele>195.4</ele>
        <time>1970-01-01T02:01:34.000Z</time>
      </trkpt>
      <trkpt lat="45.64103" lon="4.75572">
        <ele>194.8</ele>
        <time>1970-01-01T02:01:36.000Z</time>
      </trkpt>
      <trkpt lat="45.64109" lon="4.75581">
        <ele>194.6</ele>
        <time>1970-01-01T02:01:38.000Z</time>
      </trkpt>
      <trkpt lat="45.64113" lon="4.75584">
        <ele>194.6</ele>
        <time>1970-01-01T02:01:39.000Z</time>
      </trkpt>
      <trkpt lat="45.64117" lon="4.75587">
        <ele>194.6</ele>
        <time>1970-01-01T02:01:40.000Z</time>
      </trkpt>
      <trkpt lat="45.64125" lon="4.75594">
        <ele>194.4</ele>
        <time>1970-01-01T02:01:42.000Z</time>
      </trkpt>
      <trkpt lat="45.64132" lon="4.75602">
        <ele>194.4</ele>
        <time>1970-01-01T02:01:44.000Z</time>
      </trkpt>
      <trkpt lat="45.64138" lon="4.7561">
        <ele>194.4</ele>
        <time>1970-01-01T02:01:46.000Z</time>
      </trkpt>
      <trkpt lat="45.64144" lon="4.75615">
        <ele>194.4</ele>
        <time>1970-01-01T02:01:48.000Z</time>
      </trkpt>
      <trkpt lat="45.64147" lon="4.75617">
        <ele>194.4</ele>
        <time>1970-01-01T02:01:49.000Z</time>
      </trkpt>
      <trkpt lat="45.6415" lon="4.75618">
        <ele>194.4</ele>
        <time>1970-01-01T02:01:50.000Z</time>
      </trkpt>
      <trkpt lat="45.64156" lon="4.75619">
        <ele>194.4</ele>
        <time>1970-01-01T02:01:52.000Z</time>
      </trkpt>
      <trkpt lat="45.64162" lon="4.75621">
        <ele>195.2</ele>
        <time>1970-01-01T02:01:54.000Z</time>
      </trkpt>
      <trkpt lat="45.64166" lon="4.75621">
        <ele>195.4</ele>
        <time>1970-01-01T02:01:55.000Z</time>
      </trkpt>
      <trkpt lat="45.64169" lon="4.75622">
        <ele>195.6</ele>
        <time>1970-01-01T02:01:56.000Z</time>
      </trkpt>
      <trkpt lat="45.64176" lon="4.75625">
        <ele>195.8</ele>
        <time>1970-01-01T02:01:58.000Z</time>
      </trkpt>
      <trkpt lat="45.64183" lon="4.75627">
        <ele>196</ele>
        <time>1970-01-01T02:02:00.000Z</time>
      </trkpt>
      <trkpt lat="45.64187" lon="4.75629">
        <ele>196.2</ele>
        <time>1970-01-01T02:02:01.000Z</time>
      </trkpt>
      <trkpt lat="45.6419" lon="4.7563">
        <ele>196.4</ele>
        <time>1970-01-01T02:02:02.000Z</time>
      </trkpt>
      <trkpt lat="45.64194" lon="4.75631">
        <ele>196.4</ele>
        <time>1970-01-01T02:02:03.000Z</time>
      </trkpt>
      <trkpt lat="45.64197" lon="4.75632">
        <ele>196.4</ele>
        <time>1970-01-01T02:02:04.000Z</time>
      </trkpt>
      <trkpt lat="45.64204" lon="4.75634">
        <ele>196.4</ele>
        <time>1970-01-01T02:02:06.000Z</time>
      </trkpt>
      <trkpt lat="45.64207" lon="4.75634">
        <ele>196.4</ele>
        <time>1970-01-01T02:02:07.000Z</time>
      </trkpt>
      <trkpt lat="45.64211" lon="4.75635">
        <ele>196.6</ele>
        <time>1970-01-01T02:02:08.000Z</time>
      </trkpt>
      <trkpt lat="45.64215" lon="4.75636">
        <ele>196.6</ele>
        <time>1970-01-01T02:02:09.000Z</time>
      </trkpt>
      <trkpt lat="45.64218" lon="4.75637">
        <ele>196.6</ele>
        <time>1970-01-01T02:02:10.000Z</time>
      </trkpt>
      <trkpt lat="45.64227" lon="4.75637">
        <ele>196.6</ele>
        <time>1970-01-01T02:02:12.000Z</time>
      </trkpt>
      <trkpt lat="45.64231" lon="4.75637">
        <ele>196.6</ele>
        <time>1970-01-01T02:02:13.000Z</time>
      </trkpt>
      <trkpt lat="45.64236" lon="4.75636">
        <ele>196.6</ele>
        <time>1970-01-01T02:02:14.000Z</time>
      </trkpt>
      <trkpt lat="45.64241" lon="4.75635">
        <ele>196.6</ele>
        <time>1970-01-01T02:02:15.000Z</time>
      </trkpt>
      <trkpt lat="45.64245" lon="4.75633">
        <ele>196.8</ele>
        <time>1970-01-01T02:02:16.000Z</time>
      </trkpt>
      <trkpt lat="45.64249" lon="4.75631">
        <ele>197</ele>
        <time>1970-01-01T02:02:17.000Z</time>
      </trkpt>
      <trkpt lat="45.64252" lon="4.75629">
        <ele>197.2</ele>
        <time>1970-01-01T02:02:18.000Z</time>
      </trkpt>
      <trkpt lat="45.64255" lon="4.75628">
        <ele>197.4</ele>
        <time>1970-01-01T02:02:19.000Z</time>
      </trkpt>
      <trkpt lat="45.64257" lon="4.75627">
        <ele>197.6</ele>
        <time>1970-01-01T02:02:20.000Z</time>
      </trkpt>
      <trkpt lat="45.64262" lon="4.75626">
        <ele>198.2</ele>
        <time>1970-01-01T02:02:22.000Z</time>
      </trkpt>
      <trkpt lat="45.64264" lon="4.75625">
        <ele>198.4</ele>
        <time>1970-01-01T02:02:23.000Z</time>
      </trkpt>
      <trkpt lat="45.64266" lon="4.75624">
        <ele>198.8</ele>
        <time>1970-01-01T02:02:24.000Z</time>
      </trkpt>
      <trkpt lat="45.64272" lon="4.75623">
        <ele>199.8</ele>
        <time>1970-01-01T02:02:26.000Z</time>
      </trkpt>
      <trkpt lat="45.64278" lon="4.75623">
        <ele>200.8</ele>
        <time>1970-01-01T02:02:28.000Z</time>
      </trkpt>
      <trkpt lat="45.64281" lon="4.75623">
        <ele>201.2</ele>
        <time>1970-01-01T02:02:29.000Z</time>
      </trkpt>
      <trkpt lat="45.64284" lon="4.75622">
        <ele>201.8</ele>
        <time>1970-01-01T02:02:30.000Z</time>
      </trkpt>
      <trkpt lat="45.64287" lon="4.75622">
        <ele>202</ele>
        <time>1970-01-01T02:02:31.000Z</time>
      </trkpt>
      <trkpt lat="45.6429" lon="4.75621">
        <ele>202.2</ele>
        <time>1970-01-01T02:02:32.000Z</time>
      </trkpt>
      <trkpt lat="45.64293" lon="4.75621">
        <ele>202.4</ele>
        <time>1970-01-01T02:02:33.000Z</time>
      </trkpt>
      <trkpt lat="45.64295" lon="4.75621">
        <ele>202.6</ele>
        <time>1970-01-01T02:02:34.000Z</time>
      </trkpt>
      <trkpt lat="45.64297" lon="4.7562">
        <ele>203</ele>
        <time>1970-01-01T02:02:35.000Z</time>
      </trkpt>
      <trkpt lat="45.64299" lon="4.7562">
        <ele>203.2</ele>
        <time>1970-01-01T02:02:36.000Z</time>
      </trkpt>
      <trkpt lat="45.64302" lon="4.75619">
        <ele>203.6</ele>
        <time>1970-01-01T02:02:38.000Z</time>
      </trkpt>
      <trkpt lat="45.64306" lon="4.75618">
        <ele>204.2</ele>
        <time>1970-01-01T02:02:40.000Z</time>
      </trkpt>
      <trkpt lat="45.6431" lon="4.75618">
        <ele>204.8</ele>
        <time>1970-01-01T02:02:42.000Z</time>
      </trkpt>
      <trkpt lat="45.64311" lon="4.75617">
        <ele>205.2</ele>
        <time>1970-01-01T02:02:43.000Z</time>
      </trkpt>
      <trkpt lat="45.64313" lon="4.75617">
        <ele>205.6</ele>
        <time>1970-01-01T02:02:44.000Z</time>
      </trkpt>
      <trkpt lat="45.64316" lon="4.75616">
        <ele>206.2</ele>
        <time>1970-01-01T02:02:46.000Z</time>
      </trkpt>
      <trkpt lat="45.64318" lon="4.75615">
        <ele>206.4</ele>
        <time>1970-01-01T02:02:47.000Z</time>
      </trkpt>
      <trkpt lat="45.6432" lon="4.75615">
        <ele>206.8</ele>
        <time>1970-01-01T02:02:48.000Z</time>
      </trkpt>
      <trkpt lat="45.64323" lon="4.75615">
        <ele>207.2</ele>
        <time>1970-01-01T02:02:50.000Z</time>
      </trkpt>
      <trkpt lat="45.64324" lon="4.75615">
        <ele>207.4</ele>
        <time>1970-01-01T02:02:51.000Z</time>
      </trkpt>
      <trkpt lat="45.64326" lon="4.75615">
        <ele>207.8</ele>
        <time>1970-01-01T02:02:52.000Z</time>
      </trkpt>
      <trkpt lat="45.64329" lon="4.75614">
        <ele>208.4</ele>
        <time>1970-01-01T02:02:54.000Z</time>
      </trkpt>
      <trkpt lat="45.6433" lon="4.75613">
        <ele>208.8</ele>
        <time>1970-01-01T02:02:55.000Z</time>
      </trkpt>
      <trkpt lat="45.64332" lon="4.75612">
        <ele>209.2</ele>
        <time>1970-01-01T02:02:56.000Z</time>
      </trkpt>
      <trkpt lat="45.64334" lon="4.75611">
        <ele>209.4</ele>
        <time>1970-01-01T02:02:57.000Z</time>
      </trkpt>
      <trkpt lat="45.64336" lon="4.75611">
        <ele>209.8</ele>
        <time>1970-01-01T02:02:58.000Z</time>
      </trkpt>
      <trkpt lat="45.6434" lon="4.75611">
        <ele>210.2</ele>
        <time>1970-01-01T02:03:00.000Z</time>
      </trkpt>
      <trkpt lat="45.64342" lon="4.75611">
        <ele>210.4</ele>
        <time>1970-01-01T02:03:01.000Z</time>
      </trkpt>
      <trkpt lat="45.64344" lon="4.75611">
        <ele>210.8</ele>
        <time>1970-01-01T02:03:02.000Z</time>
      </trkpt>
      <trkpt lat="45.64346" lon="4.7561">
        <ele>210.8</ele>
        <time>1970-01-01T02:03:03.000Z</time>
      </trkpt>
      <trkpt lat="45.64348" lon="4.75611">
        <ele>211</ele>
        <time>1970-01-01T02:03:04.000Z</time>
      </trkpt>
      <trkpt lat="45.64353" lon="4.75612">
        <ele>211.2</ele>
        <time>1970-01-01T02:03:06.000Z</time>
      </trkpt>
      <trkpt lat="45.64356" lon="4.75613">
        <ele>211.4</ele>
        <time>1970-01-01T02:03:07.000Z</time>
      </trkpt>
      <trkpt lat="45.64359" lon="4.75614">
        <ele>211.4</ele>
        <time>1970-01-01T02:03:08.000Z</time>
      </trkpt>
      <trkpt lat="45.64365" lon="4.75616">
        <ele>211.6</ele>
        <time>1970-01-01T02:03:10.000Z</time>
      </trkpt>
      <trkpt lat="45.64371" lon="4.75618">
        <ele>211.6</ele>
        <time>1970-01-01T02:03:12.000Z</time>
      </trkpt>
      <trkpt lat="45.64375" lon="4.75619">
        <ele>211.6</ele>
        <time>1970-01-01T02:03:13.000Z</time>
      </trkpt>
      <trkpt lat="45.64378" lon="4.7562">
        <ele>211.6</ele>
        <time>1970-01-01T02:03:14.000Z</time>
      </trkpt>
      <trkpt lat="45.64382" lon="4.75621">
        <ele>211.6</ele>
        <time>1970-01-01T02:03:15.000Z</time>
      </trkpt>
      <trkpt lat="45.64386" lon="4.75623">
        <ele>211.6</ele>
        <time>1970-01-01T02:03:16.000Z</time>
      </trkpt>
      <trkpt lat="45.64393" lon="4.75625">
        <ele>211.6</ele>
        <time>1970-01-01T02:03:18.000Z</time>
      </trkpt>
      <trkpt lat="45.64401" lon="4.75628">
        <ele>211.6</ele>
        <time>1970-01-01T02:03:20.000Z</time>
      </trkpt>
      <trkpt lat="45.64408" lon="4.7563">
        <ele>211.6</ele>
        <time>1970-01-01T02:03:22.000Z</time>
      </trkpt>
      <trkpt lat="45.64412" lon="4.75631">
        <ele>211.6</ele>
        <time>1970-01-01T02:03:23.000Z</time>
      </trkpt>
      <trkpt lat="45.64416" lon="4.75632">
        <ele>211.6</ele>
        <time>1970-01-01T02:03:24.000Z</time>
      </trkpt>
      <trkpt lat="45.64423" lon="4.75634">
        <ele>211.8</ele>
        <time>1970-01-01T02:03:26.000Z</time>
      </trkpt>
      <trkpt lat="45.6443" lon="4.75637">
        <ele>212</ele>
        <time>1970-01-01T02:03:28.000Z</time>
      </trkpt>
      <trkpt lat="45.64437" lon="4.75641">
        <ele>212</ele>
        <time>1970-01-01T02:03:30.000Z</time>
      </trkpt>
      <trkpt lat="45.64444" lon="4.75643">
        <ele>212</ele>
        <time>1970-01-01T02:03:32.000Z</time>
      </trkpt>
      <trkpt lat="45.64452" lon="4.75646">
        <ele>212.2</ele>
        <time>1970-01-01T02:03:34.000Z</time>
      </trkpt>
      <trkpt lat="45.64459" lon="4.75649">
        <ele>212.2</ele>
        <time>1970-01-01T02:03:36.000Z</time>
      </trkpt>
      <trkpt lat="45.64467" lon="4.75651">
        <ele>212.2</ele>
        <time>1970-01-01T02:03:38.000Z</time>
      </trkpt>
      <trkpt lat="45.64471" lon="4.75653">
        <ele>212</ele>
        <time>1970-01-01T02:03:39.000Z</time>
      </trkpt>
      <trkpt lat="45.64475" lon="4.75654">
        <ele>212.2</ele>
        <time>1970-01-01T02:03:40.000Z</time>
      </trkpt>
      <trkpt lat="45.64483" lon="4.75657">
        <ele>212.2</ele>
        <time>1970-01-01T02:03:42.000Z</time>
      </trkpt>
      <trkpt lat="45.64491" lon="4.7566">
        <ele>212.2</ele>
        <time>1970-01-01T02:03:44.000Z</time>
      </trkpt>
      <trkpt lat="45.645" lon="4.75663">
        <ele>212</ele>
        <time>1970-01-01T02:03:46.000Z</time>
      </trkpt>
      <trkpt lat="45.64509" lon="4.75666">
        <ele>212</ele>
        <time>1970-01-01T02:03:48.000Z</time>
      </trkpt>
      <trkpt lat="45.64518" lon="4.7567">
        <ele>211.8</ele>
        <time>1970-01-01T02:03:50.000Z</time>
      </trkpt>
      <trkpt lat="45.64528" lon="4.75673">
        <ele>211.6</ele>
        <time>1970-01-01T02:03:52.000Z</time>
      </trkpt>
      <trkpt lat="45.64533" lon="4.75675">
        <ele>211.6</ele>
        <time>1970-01-01T02:03:53.000Z</time>
      </trkpt>
      <trkpt lat="45.64538" lon="4.75677">
        <ele>211.6</ele>
        <time>1970-01-01T02:03:54.000Z</time>
      </trkpt>
      <trkpt lat="45.64547" lon="4.75681">
        <ele>211.4</ele>
        <time>1970-01-01T02:03:56.000Z</time>
      </trkpt>
      <trkpt lat="45.64557" lon="4.75683">
        <ele>211.4</ele>
        <time>1970-01-01T02:03:58.000Z</time>
      </trkpt>
      <trkpt lat="45.64566" lon="4.75684">
        <ele>211.4</ele>
        <time>1970-01-01T02:04:00.000Z</time>
      </trkpt>
      <trkpt lat="45.64576" lon="4.75684">
        <ele>211.4</ele>
        <time>1970-01-01T02:04:02.000Z</time>
      </trkpt>
      <trkpt lat="45.64585" lon="4.75684">
        <ele>211.4</ele>
        <time>1970-01-01T02:04:04.000Z</time>
      </trkpt>
      <trkpt lat="45.64594" lon="4.75684">
        <ele>211.4</ele>
        <time>1970-01-01T02:04:06.000Z</time>
      </trkpt>
      <trkpt lat="45.64603" lon="4.75684">
        <ele>211.4</ele>
        <time>1970-01-01T02:04:08.000Z</time>
      </trkpt>
      <trkpt lat="45.64611" lon="4.75684">
        <ele>211.6</ele>
        <time>1970-01-01T02:04:10.000Z</time>
      </trkpt>
      <trkpt lat="45.64616" lon="4.75684">
        <ele>211.6</ele>
        <time>1970-01-01T02:04:11.000Z</time>
      </trkpt>
      <trkpt lat="45.6462" lon="4.75683">
        <ele>211.6</ele>
        <time>1970-01-01T02:04:12.000Z</time>
      </trkpt>
      <trkpt lat="45.64629" lon="4.75684">
        <ele>211.8</ele>
        <time>1970-01-01T02:04:14.000Z</time>
      </trkpt>
      <trkpt lat="45.64638" lon="4.75684">
        <ele>211.8</ele>
        <time>1970-01-01T02:04:16.000Z</time>
      </trkpt>
      <trkpt lat="45.64647" lon="4.75684">
        <ele>211.8</ele>
        <time>1970-01-01T02:04:18.000Z</time>
      </trkpt>
      <trkpt lat="45.64651" lon="4.75684">
        <ele>211.8</ele>
        <time>1970-01-01T02:04:19.000Z</time>
      </trkpt>
      <trkpt lat="45.64656" lon="4.75682">
        <ele>211.8</ele>
        <time>1970-01-01T02:04:20.000Z</time>
      </trkpt>
      <trkpt lat="45.64659" lon="4.75679">
        <ele>211.8</ele>
        <time>1970-01-01T02:04:21.000Z</time>
      </trkpt>
      <trkpt lat="45.64662" lon="4.75675">
        <ele>211.8</ele>
        <time>1970-01-01T02:04:22.000Z</time>
      </trkpt>
      <trkpt lat="45.64668" lon="4.75665">
        <ele>212</ele>
        <time>1970-01-01T02:04:24.000Z</time>
      </trkpt>
      <trkpt lat="45.64671" lon="4.7566">
        <ele>212</ele>
        <time>1970-01-01T02:04:25.000Z</time>
      </trkpt>
      <trkpt lat="45.64673" lon="4.75655">
        <ele>212</ele>
        <time>1970-01-01T02:04:26.000Z</time>
      </trkpt>
      <trkpt lat="45.64679" lon="4.75646">
        <ele>212</ele>
        <time>1970-01-01T02:04:28.000Z</time>
      </trkpt>
      <trkpt lat="45.64684" lon="4.75637">
        <ele>212.2</ele>
        <time>1970-01-01T02:04:30.000Z</time>
      </trkpt>
      <trkpt lat="45.64691" lon="4.75631">
        <ele>212.2</ele>
        <time>1970-01-01T02:04:32.000Z</time>
      </trkpt>
      <trkpt lat="45.64699" lon="4.7563">
        <ele>212.4</ele>
        <time>1970-01-01T02:04:34.000Z</time>
      </trkpt>
      <trkpt lat="45.64702" lon="4.75634">
        <ele>212.4</ele>
        <time>1970-01-01T02:04:35.000Z</time>
      </trkpt>
      <trkpt lat="45.64706" lon="4.75638">
        <ele>212.4</ele>
        <time>1970-01-01T02:04:36.000Z</time>
      </trkpt>
      <trkpt lat="45.64712" lon="4.75648">
        <ele>212.4</ele>
        <time>1970-01-01T02:04:38.000Z</time>
      </trkpt>
      <trkpt lat="45.6472" lon="4.75657">
        <ele>212.4</ele>
        <time>1970-01-01T02:04:40.000Z</time>
      </trkpt>
      <trkpt lat="45.64726" lon="4.75665">
        <ele>212.4</ele>
        <time>1970-01-01T02:04:42.000Z</time>
      </trkpt>
      <trkpt lat="45.6473" lon="4.75669">
        <ele>212.2</ele>
        <time>1970-01-01T02:04:43.000Z</time>
      </trkpt>
      <trkpt lat="45.64733" lon="4.75673">
        <ele>212</ele>
        <time>1970-01-01T02:04:44.000Z</time>
      </trkpt>
      <trkpt lat="45.64739" lon="4.75681">
        <ele>212</ele>
        <time>1970-01-01T02:04:46.000Z</time>
      </trkpt>
      <trkpt lat="45.64746" lon="4.7569">
        <ele>211.8</ele>
        <time>1970-01-01T02:04:48.000Z</time>
      </trkpt>
      <trkpt lat="45.6475" lon="4.75694">
        <ele>211.8</ele>
        <time>1970-01-01T02:04:49.000Z</time>
      </trkpt>
      <trkpt lat="45.64753" lon="4.75699">
        <ele>211.8</ele>
        <time>1970-01-01T02:04:50.000Z</time>
      </trkpt>
      <trkpt lat="45.6476" lon="4.75709">
        <ele>211.6</ele>
        <time>1970-01-01T02:04:52.000Z</time>
      </trkpt>
      <trkpt lat="45.64769" lon="4.75718">
        <ele>211.2</ele>
        <time>1970-01-01T02:04:54.000Z</time>
      </trkpt>
      <trkpt lat="45.64777" lon="4.75727">
        <ele>211</ele>
        <time>1970-01-01T02:04:56.000Z</time>
      </trkpt>
      <trkpt lat="45.64784" lon="4.75733">
        <ele>210.4</ele>
        <time>1970-01-01T02:04:58.000Z</time>
      </trkpt>
      <trkpt lat="45.64787" lon="4.75735">
        <ele>210.2</ele>
        <time>1970-01-01T02:04:59.000Z</time>
      </trkpt>
      <trkpt lat="45.6479" lon="4.75737">
        <ele>210</ele>
        <time>1970-01-01T02:05:00.000Z</time>
      </trkpt>
      <trkpt lat="45.64794" lon="4.75739">
        <ele>210</ele>
        <time>1970-01-01T02:05:02.000Z</time>
      </trkpt>
      <trkpt lat="45.648" lon="4.75742">
        <ele>210</ele>
        <time>1970-01-01T02:05:04.000Z</time>
      </trkpt>
      <trkpt lat="45.64803" lon="4.75744">
        <ele>210</ele>
        <time>1970-01-01T02:05:05.000Z</time>
      </trkpt>
      <trkpt lat="45.64806" lon="4.75746">
        <ele>210</ele>
        <time>1970-01-01T02:05:06.000Z</time>
      </trkpt>
      <trkpt lat="45.64813" lon="4.7575">
        <ele>210.2</ele>
        <time>1970-01-01T02:05:08.000Z</time>
      </trkpt>
      <trkpt lat="45.64821" lon="4.75754">
        <ele>210.6</ele>
        <time>1970-01-01T02:05:10.000Z</time>
      </trkpt>
      <trkpt lat="45.64825" lon="4.75756">
        <ele>210.8</ele>
        <time>1970-01-01T02:05:11.000Z</time>
      </trkpt>
      <trkpt lat="45.64829" lon="4.75759">
        <ele>211</ele>
        <time>1970-01-01T02:05:12.000Z</time>
      </trkpt>
      <trkpt lat="45.64833" lon="4.75761">
        <ele>211</ele>
        <time>1970-01-01T02:05:13.000Z</time>
      </trkpt>
      <trkpt lat="45.64837" lon="4.75764">
        <ele>211</ele>
        <time>1970-01-01T02:05:14.000Z</time>
      </trkpt>
      <trkpt lat="45.64844" lon="4.75769">
        <ele>211.2</ele>
        <time>1970-01-01T02:05:16.000Z</time>
      </trkpt>
      <trkpt lat="45.6485" lon="4.75773">
        <ele>211.4</ele>
        <time>1970-01-01T02:05:18.000Z</time>
      </trkpt>
      <trkpt lat="45.64857" lon="4.75777">
        <ele>211.6</ele>
        <time>1970-01-01T02:05:20.000Z</time>
      </trkpt>
      <trkpt lat="45.64862" lon="4.75781">
        <ele>212</ele>
        <time>1970-01-01T02:05:22.000Z</time>
      </trkpt>
      <trkpt lat="45.64865" lon="4.75783">
        <ele>212</ele>
        <time>1970-01-01T02:05:23.000Z</time>
      </trkpt>
      <trkpt lat="45.64868" lon="4.75785">
        <ele>212.2</ele>
        <time>1970-01-01T02:05:24.000Z</time>
      </trkpt>
      <trkpt lat="45.64875" lon="4.7579">
        <ele>212.2</ele>
        <time>1970-01-01T02:05:26.000Z</time>
      </trkpt>
      <trkpt lat="45.64882" lon="4.75794">
        <ele>212.4</ele>
        <time>1970-01-01T02:05:28.000Z</time>
      </trkpt>
      <trkpt lat="45.64888" lon="4.758">
        <ele>212.4</ele>
        <time>1970-01-01T02:05:30.000Z</time>
      </trkpt>
      <trkpt lat="45.64896" lon="4.75805">
        <ele>212.8</ele>
        <time>1970-01-01T02:05:32.000Z</time>
      </trkpt>
      <trkpt lat="45.64903" lon="4.75811">
        <ele>213.2</ele>
        <time>1970-01-01T02:05:34.000Z</time>
      </trkpt>
      <trkpt lat="45.64911" lon="4.75817">
        <ele>213</ele>
        <time>1970-01-01T02:05:36.000Z</time>
      </trkpt>
      <trkpt lat="45.64919" lon="4.75823">
        <ele>213</ele>
        <time>1970-01-01T02:05:38.000Z</time>
      </trkpt>
      <trkpt lat="45.64923" lon="4.75826">
        <ele>213</ele>
        <time>1970-01-01T02:05:39.000Z</time>
      </trkpt>
      <trkpt lat="45.64926" lon="4.7583">
        <ele>213</ele>
        <time>1970-01-01T02:05:40.000Z</time>
      </trkpt>
      <trkpt lat="45.6493" lon="4.75833">
        <ele>213</ele>
        <time>1970-01-01T02:05:41.000Z</time>
      </trkpt>
      <trkpt lat="45.64934" lon="4.75836">
        <ele>213</ele>
        <time>1970-01-01T02:05:42.000Z</time>
      </trkpt>
      <trkpt lat="45.64941" lon="4.75843">
        <ele>213.2</ele>
        <time>1970-01-01T02:05:44.000Z</time>
      </trkpt>
      <trkpt lat="45.64944" lon="4.75847">
        <ele>213.2</ele>
        <time>1970-01-01T02:05:45.000Z</time>
      </trkpt>
      <trkpt lat="45.64948" lon="4.75851">
        <ele>213.2</ele>
        <time>1970-01-01T02:05:46.000Z</time>
      </trkpt>
      <trkpt lat="45.64956" lon="4.75858">
        <ele>213.2</ele>
        <time>1970-01-01T02:05:48.000Z</time>
      </trkpt>
      <trkpt lat="45.64964" lon="4.75865">
        <ele>213</ele>
        <time>1970-01-01T02:05:50.000Z</time>
      </trkpt>
      <trkpt lat="45.64968" lon="4.75868">
        <ele>213</ele>
        <time>1970-01-01T02:05:51.000Z</time>
      </trkpt>
      <trkpt lat="45.64972" lon="4.7587">
        <ele>213</ele>
        <time>1970-01-01T02:05:52.000Z</time>
      </trkpt>
      <trkpt lat="45.64976" lon="4.75873">
        <ele>213</ele>
        <time>1970-01-01T02:05:53.000Z</time>
      </trkpt>
      <trkpt lat="45.6498" lon="4.75876">
        <ele>213</ele>
        <time>1970-01-01T02:05:54.000Z</time>
      </trkpt>
      <trkpt lat="45.64988" lon="4.7588">
        <ele>213</ele>
        <time>1970-01-01T02:05:56.000Z</time>
      </trkpt>
      <trkpt lat="45.64996" lon="4.75884">
        <ele>213</ele>
        <time>1970-01-01T02:05:58.000Z</time>
      </trkpt>
      <trkpt lat="45.65003" lon="4.75887">
        <ele>213</ele>
        <time>1970-01-01T02:06:00.000Z</time>
      </trkpt>
      <trkpt lat="45.65007" lon="4.75889">
        <ele>213</ele>
        <time>1970-01-01T02:06:01.000Z</time>
      </trkpt>
      <trkpt lat="45.6501" lon="4.7589">
        <ele>213</ele>
        <time>1970-01-01T02:06:02.000Z</time>
      </trkpt>
      <trkpt lat="45.65017" lon="4.75893">
        <ele>213</ele>
        <time>1970-01-01T02:06:04.000Z</time>
      </trkpt>
      <trkpt lat="45.65023" lon="4.75897">
        <ele>213.2</ele>
        <time>1970-01-01T02:06:06.000Z</time>
      </trkpt>
      <trkpt lat="45.65026" lon="4.75899">
        <ele>213.2</ele>
        <time>1970-01-01T02:06:07.000Z</time>
      </trkpt>
      <trkpt lat="45.65029" lon="4.759">
        <ele>213.2</ele>
        <time>1970-01-01T02:06:08.000Z</time>
      </trkpt>
      <trkpt lat="45.65032" lon="4.75902">
        <ele>213.4</ele>
        <time>1970-01-01T02:06:09.000Z</time>
      </trkpt>
      <trkpt lat="45.65035" lon="4.75904">
        <ele>213.4</ele>
        <time>1970-01-01T02:06:10.000Z</time>
      </trkpt>
      <trkpt lat="45.65042" lon="4.75908">
        <ele>213.8</ele>
        <time>1970-01-01T02:06:12.000Z</time>
      </trkpt>
      <trkpt lat="45.65048" lon="4.75913">
        <ele>214</ele>
        <time>1970-01-01T02:06:14.000Z</time>
      </trkpt>
      <trkpt lat="45.65051" lon="4.75915">
        <ele>214.2</ele>
        <time>1970-01-01T02:06:15.000Z</time>
      </trkpt>
      <trkpt lat="45.65055" lon="4.75917">
        <ele>214.2</ele>
        <time>1970-01-01T02:06:16.000Z</time>
      </trkpt>
      <trkpt lat="45.65058" lon="4.75919">
        <ele>214.4</ele>
        <time>1970-01-01T02:06:17.000Z</time>
      </trkpt>
      <trkpt lat="45.65062" lon="4.75922">
        <ele>214.4</ele>
        <time>1970-01-01T02:06:18.000Z</time>
      </trkpt>
      <trkpt lat="45.65069" lon="4.75927">
        <ele>214.8</ele>
        <time>1970-01-01T02:06:20.000Z</time>
      </trkpt>
      <trkpt lat="45.65077" lon="4.75932">
        <ele>215</ele>
        <time>1970-01-01T02:06:22.000Z</time>
      </trkpt>
      <trkpt lat="45.65085" lon="4.75937">
        <ele>215</ele>
        <time>1970-01-01T02:06:24.000Z</time>
      </trkpt>
      <trkpt lat="45.65092" lon="4.75941">
        <ele>215.2</ele>
        <time>1970-01-01T02:06:26.000Z</time>
      </trkpt>
      <trkpt lat="45.65099" lon="4.75945">
        <ele>215.2</ele>
        <time>1970-01-01T02:06:28.000Z</time>
      </trkpt>
      <trkpt lat="45.65106" lon="4.7595">
        <ele>215.2</ele>
        <time>1970-01-01T02:06:30.000Z</time>
      </trkpt>
      <trkpt lat="45.65112" lon="4.75954">
        <ele>215.2</ele>
        <time>1970-01-01T02:06:32.000Z</time>
      </trkpt>
      <trkpt lat="45.65119" lon="4.75959">
        <ele>215</ele>
        <time>1970-01-01T02:06:34.000Z</time>
      </trkpt>
      <trkpt lat="45.65122" lon="4.75961">
        <ele>215</ele>
        <time>1970-01-01T02:06:35.000Z</time>
      </trkpt>
      <trkpt lat="45.65126" lon="4.75963">
        <ele>215</ele>
        <time>1970-01-01T02:06:36.000Z</time>
      </trkpt>
      <trkpt lat="45.65132" lon="4.75966">
        <ele>215</ele>
        <time>1970-01-01T02:06:38.000Z</time>
      </trkpt>
      <trkpt lat="45.65138" lon="4.7597">
        <ele>215</ele>
        <time>1970-01-01T02:06:40.000Z</time>
      </trkpt>
      <trkpt lat="45.65144" lon="4.75973">
        <ele>215</ele>
        <time>1970-01-01T02:06:42.000Z</time>
      </trkpt>
      <trkpt lat="45.65151" lon="4.75976">
        <ele>215</ele>
        <time>1970-01-01T02:06:44.000Z</time>
      </trkpt>
      <trkpt lat="45.65158" lon="4.75979">
        <ele>215</ele>
        <time>1970-01-01T02:06:46.000Z</time>
      </trkpt>
      <trkpt lat="45.65164" lon="4.75982">
        <ele>215</ele>
        <time>1970-01-01T02:06:48.000Z</time>
      </trkpt>
      <trkpt lat="45.6517" lon="4.75984">
        <ele>215</ele>
        <time>1970-01-01T02:06:50.000Z</time>
      </trkpt>
      <trkpt lat="45.65172" lon="4.75984">
        <ele>215</ele>
        <time>1970-01-01T02:06:51.000Z</time>
      </trkpt>
      <trkpt lat="45.65174" lon="4.75985">
        <ele>215</ele>
        <time>1970-01-01T02:06:52.000Z</time>
      </trkpt>
      <trkpt lat="45.65177" lon="4.75986">
        <ele>214.8</ele>
        <time>1970-01-01T02:06:54.000Z</time>
      </trkpt>
      <trkpt lat="45.65178" lon="4.75986">
        <ele>214.8</ele>
        <time>1970-01-01T02:06:56.000Z</time>
      </trkpt>
      <trkpt lat="45.65177" lon="4.75986">
        <ele>214.8</ele>
        <time>1970-01-01T02:06:58.000Z</time>
      </trkpt>
      <trkpt lat="45.65177" lon="4.75986">
        <ele>214.8</ele>
        <time>1970-01-01T02:07:06.000Z</time>
      </trkpt>
      <trkpt lat="45.65177" lon="4.75986">
        <ele>214.8</ele>
        <time>1970-01-01T02:07:12.000Z</time>
      </trkpt>
      <trkpt lat="45.65177" lon="4.75986">
        <ele>214.8</ele>
        <time>1970-01-01T02:07:16.000Z</time>
      </trkpt>
      <trkpt lat="45.65177" lon="4.75986">
        <ele>214.8</ele>
        <time>1970-01-01T02:07:20.000Z</time>
      </trkpt>
      <trkpt lat="45.65177" lon="4.75986">
        <ele>214.8</ele>
        <time>1970-01-01T02:07:24.000Z</time>
      </trkpt>
      <trkpt lat="45.65177" lon="4.75986">
        <ele>214.8</ele>
        <time>1970-01-01T02:07:28.000Z</time>
      </trkpt>
      <trkpt lat="45.65177" lon="4.75986">
        <ele>214.8</ele>
        <time>1970-01-01T02:07:32.000Z</time>
      </trkpt>
      <trkpt lat="45.65177" lon="4.75986">
        <ele>214.6</ele>
        <time>1970-01-01T02:07:40.000Z</time>
      </trkpt>
      <trkpt lat="45.65177" lon="4.75986">
        <ele>214.6</ele>
        <time>1970-01-01T02:07:42.000Z</time>
      </trkpt>
      <trkpt lat="45.65178" lon="4.75986">
        <ele>214.8</ele>
        <time>1970-01-01T02:07:44.000Z</time>
      </trkpt>
      <trkpt lat="45.65179" lon="4.75985">
        <ele>214.8</ele>
        <time>1970-01-01T02:07:46.000Z</time>
      </trkpt>
      <trkpt lat="45.65179" lon="4.75984">
        <ele>214.8</ele>
        <time>1970-01-01T02:07:47.000Z</time>
      </trkpt>
      <trkpt lat="45.65179" lon="4.75981">
        <ele>214.8</ele>
        <time>1970-01-01T02:07:48.000Z</time>
      </trkpt>
      <trkpt lat="45.65179" lon="4.75977">
        <ele>214.8</ele>
        <time>1970-01-01T02:07:49.000Z</time>
      </trkpt>
      <trkpt lat="45.65179" lon="4.75973">
        <ele>214.8</ele>
        <time>1970-01-01T02:07:50.000Z</time>
      </trkpt>
      <trkpt lat="45.6518" lon="4.75968">
        <ele>214.8</ele>
        <time>1970-01-01T02:07:51.000Z</time>
      </trkpt>
      <trkpt lat="45.6518" lon="4.75963">
        <ele>214.8</ele>
        <time>1970-01-01T02:07:52.000Z</time>
      </trkpt>
      <trkpt lat="45.65181" lon="4.75953">
        <ele>214.8</ele>
        <time>1970-01-01T02:07:54.000Z</time>
      </trkpt>
      <trkpt lat="45.65181" lon="4.75943">
        <ele>214.8</ele>
        <time>1970-01-01T02:07:56.000Z</time>
      </trkpt>
      <trkpt lat="45.65181" lon="4.75933">
        <ele>214.6</ele>
        <time>1970-01-01T02:07:58.000Z</time>
      </trkpt>
      <trkpt lat="45.65182" lon="4.75923">
        <ele>214.4</ele>
        <time>1970-01-01T02:08:00.000Z</time>
      </trkpt>
      <trkpt lat="45.65182" lon="4.75912">
        <ele>214.2</ele>
        <time>1970-01-01T02:08:02.000Z</time>
      </trkpt>
      <trkpt lat="45.65182" lon="4.75902">
        <ele>214.2</ele>
        <time>1970-01-01T02:08:04.000Z</time>
      </trkpt>
      <trkpt lat="45.65182" lon="4.75892">
        <ele>214.2</ele>
        <time>1970-01-01T02:08:06.000Z</time>
      </trkpt>
      <trkpt lat="45.65183" lon="4.75883">
        <ele>214.2</ele>
        <time>1970-01-01T02:08:08.000Z</time>
      </trkpt>
      <trkpt lat="45.65186" lon="4.75878">
        <ele>214.2</ele>
        <time>1970-01-01T02:08:10.000Z</time>
      </trkpt>
      <trkpt lat="45.65188" lon="4.75877">
        <ele>214.2</ele>
        <time>1970-01-01T02:08:11.000Z</time>
      </trkpt>
      <trkpt lat="45.65191" lon="4.75877">
        <ele>214.2</ele>
        <time>1970-01-01T02:08:12.000Z</time>
      </trkpt>
      <trkpt lat="45.65198" lon="4.75878">
        <ele>214</ele>
        <time>1970-01-01T02:08:14.000Z</time>
      </trkpt>
      <trkpt lat="45.65205" lon="4.75879">
        <ele>214</ele>
        <time>1970-01-01T02:08:16.000Z</time>
      </trkpt>
      <trkpt lat="45.65209" lon="4.75879">
        <ele>213.8</ele>
        <time>1970-01-01T02:08:17.000Z</time>
      </trkpt>
      <trkpt lat="45.65213" lon="4.7588">
        <ele>213.6</ele>
        <time>1970-01-01T02:08:18.000Z</time>
      </trkpt>
      <trkpt lat="45.65217" lon="4.75881">
        <ele>213.6</ele>
        <time>1970-01-01T02:08:19.000Z</time>
      </trkpt>
      <trkpt lat="45.6522" lon="4.75882">
        <ele>213.4</ele>
        <time>1970-01-01T02:08:20.000Z</time>
      </trkpt>
      <trkpt lat="45.65228" lon="4.75884">
        <ele>213.2</ele>
        <time>1970-01-01T02:08:22.000Z</time>
      </trkpt>
      <trkpt lat="45.65232" lon="4.75884">
        <ele>213.2</ele>
        <time>1970-01-01T02:08:23.000Z</time>
      </trkpt>
      <trkpt lat="45.65236" lon="4.75885">
        <ele>213.2</ele>
        <time>1970-01-01T02:08:24.000Z</time>
      </trkpt>
      <trkpt lat="45.65244" lon="4.75888">
        <ele>213</ele>
        <time>1970-01-01T02:08:26.000Z</time>
      </trkpt>
      <trkpt lat="45.65252" lon="4.75891">
        <ele>213</ele>
        <time>1970-01-01T02:08:28.000Z</time>
      </trkpt>
      <trkpt lat="45.65256" lon="4.75893">
        <ele>213</ele>
        <time>1970-01-01T02:08:29.000Z</time>
      </trkpt>
      <trkpt lat="45.6526" lon="4.75894">
        <ele>213</ele>
        <time>1970-01-01T02:08:30.000Z</time>
      </trkpt>
      <trkpt lat="45.65268" lon="4.75897">
        <ele>213</ele>
        <time>1970-01-01T02:08:32.000Z</time>
      </trkpt>
      <trkpt lat="45.65277" lon="4.75901">
        <ele>213</ele>
        <time>1970-01-01T02:08:34.000Z</time>
      </trkpt>
      <trkpt lat="45.65284" lon="4.75905">
        <ele>213</ele>
        <time>1970-01-01T02:08:36.000Z</time>
      </trkpt>
      <trkpt lat="45.65292" lon="4.75908">
        <ele>213</ele>
        <time>1970-01-01T02:08:38.000Z</time>
      </trkpt>
      <trkpt lat="45.65299" lon="4.75912">
        <ele>213</ele>
        <time>1970-01-01T02:08:40.000Z</time>
      </trkpt>
      <trkpt lat="45.65307" lon="4.75915">
        <ele>213</ele>
        <time>1970-01-01T02:08:42.000Z</time>
      </trkpt>
      <trkpt lat="45.65314" lon="4.75919">
        <ele>213</ele>
        <time>1970-01-01T02:08:44.000Z</time>
      </trkpt>
      <trkpt lat="45.65322" lon="4.75923">
        <ele>213</ele>
        <time>1970-01-01T02:08:46.000Z</time>
      </trkpt>
      <trkpt lat="45.65329" lon="4.75928">
        <ele>213</ele>
        <time>1970-01-01T02:08:48.000Z</time>
      </trkpt>
      <trkpt lat="45.65336" lon="4.75933">
        <ele>213.2</ele>
        <time>1970-01-01T02:08:50.000Z</time>
      </trkpt>
      <trkpt lat="45.65343" lon="4.75938">
        <ele>213.2</ele>
        <time>1970-01-01T02:08:52.000Z</time>
      </trkpt>
      <trkpt lat="45.65351" lon="4.75944">
        <ele>213.4</ele>
        <time>1970-01-01T02:08:54.000Z</time>
      </trkpt>
      <trkpt lat="45.65355" lon="4.75947">
        <ele>213.6</ele>
        <time>1970-01-01T02:08:55.000Z</time>
      </trkpt>
      <trkpt lat="45.65359" lon="4.7595">
        <ele>213.6</ele>
        <time>1970-01-01T02:08:56.000Z</time>
      </trkpt>
      <trkpt lat="45.65367" lon="4.75955">
        <ele>213.6</ele>
        <time>1970-01-01T02:08:58.000Z</time>
      </trkpt>
      <trkpt lat="45.65375" lon="4.75962">
        <ele>213.6</ele>
        <time>1970-01-01T02:09:00.000Z</time>
      </trkpt>
      <trkpt lat="45.65383" lon="4.75969">
        <ele>213.6</ele>
        <time>1970-01-01T02:09:02.000Z</time>
      </trkpt>
      <trkpt lat="45.65388" lon="4.75972">
        <ele>213.6</ele>
        <time>1970-01-01T02:09:03.000Z</time>
      </trkpt>
      <trkpt lat="45.65392" lon="4.75976">
        <ele>213.6</ele>
        <time>1970-01-01T02:09:04.000Z</time>
      </trkpt>
      <trkpt lat="45.654" lon="4.75985">
        <ele>213.6</ele>
        <time>1970-01-01T02:09:06.000Z</time>
      </trkpt>
      <trkpt lat="45.65408" lon="4.75993">
        <ele>213.4</ele>
        <time>1970-01-01T02:09:08.000Z</time>
      </trkpt>
      <trkpt lat="45.65416" lon="4.76002">
        <ele>213.4</ele>
        <time>1970-01-01T02:09:10.000Z</time>
      </trkpt>
      <trkpt lat="45.65424" lon="4.7601">
        <ele>213.4</ele>
        <time>1970-01-01T02:09:12.000Z</time>
      </trkpt>
      <trkpt lat="45.65429" lon="4.76014">
        <ele>213.4</ele>
        <time>1970-01-01T02:09:13.000Z</time>
      </trkpt>
      <trkpt lat="45.65433" lon="4.76018">
        <ele>213.4</ele>
        <time>1970-01-01T02:09:14.000Z</time>
      </trkpt>
      <trkpt lat="45.65441" lon="4.76026">
        <ele>213.4</ele>
        <time>1970-01-01T02:09:16.000Z</time>
      </trkpt>
      <trkpt lat="45.6545" lon="4.76033">
        <ele>213.2</ele>
        <time>1970-01-01T02:09:18.000Z</time>
      </trkpt>
      <trkpt lat="45.65458" lon="4.76041">
        <ele>213.2</ele>
        <time>1970-01-01T02:09:20.000Z</time>
      </trkpt>
      <trkpt lat="45.65466" lon="4.76048">
        <ele>213.2</ele>
        <time>1970-01-01T02:09:22.000Z</time>
      </trkpt>
      <trkpt lat="45.65474" lon="4.76055">
        <ele>213</ele>
        <time>1970-01-01T02:09:24.000Z</time>
      </trkpt>
      <trkpt lat="45.65482" lon="4.76062">
        <ele>213</ele>
        <time>1970-01-01T02:09:26.000Z</time>
      </trkpt>
      <trkpt lat="45.6549" lon="4.7607">
        <ele>213</ele>
        <time>1970-01-01T02:09:28.000Z</time>
      </trkpt>
      <trkpt lat="45.65494" lon="4.76073">
        <ele>213</ele>
        <time>1970-01-01T02:09:29.000Z</time>
      </trkpt>
      <trkpt lat="45.65498" lon="4.76077">
        <ele>213</ele>
        <time>1970-01-01T02:09:30.000Z</time>
      </trkpt>
      <trkpt lat="45.65505" lon="4.76084">
        <ele>213</ele>
        <time>1970-01-01T02:09:32.000Z</time>
      </trkpt>
      <trkpt lat="45.65513" lon="4.76091">
        <ele>213</ele>
        <time>1970-01-01T02:09:34.000Z</time>
      </trkpt>
      <trkpt lat="45.65519" lon="4.76097">
        <ele>213.2</ele>
        <time>1970-01-01T02:09:36.000Z</time>
      </trkpt>
      <trkpt lat="45.65525" lon="4.76102">
        <ele>213.2</ele>
        <time>1970-01-01T02:09:38.000Z</time>
      </trkpt>
      <trkpt lat="45.65531" lon="4.76107">
        <ele>213.4</ele>
        <time>1970-01-01T02:09:40.000Z</time>
      </trkpt>
      <trkpt lat="45.65534" lon="4.76108">
        <ele>213.4</ele>
        <time>1970-01-01T02:09:41.000Z</time>
      </trkpt>
      <trkpt lat="45.65538" lon="4.76109">
        <ele>213.4</ele>
        <time>1970-01-01T02:09:42.000Z</time>
      </trkpt>
      <trkpt lat="45.65543" lon="4.76109">
        <ele>213.4</ele>
        <time>1970-01-01T02:09:43.000Z</time>
      </trkpt>
      <trkpt lat="45.65547" lon="4.76109">
        <ele>213.4</ele>
        <time>1970-01-01T02:09:44.000Z</time>
      </trkpt>
      <trkpt lat="45.65555" lon="4.76107">
        <ele>213.4</ele>
        <time>1970-01-01T02:09:46.000Z</time>
      </trkpt>
      <trkpt lat="45.65564" lon="4.76105">
        <ele>213.4</ele>
        <time>1970-01-01T02:09:48.000Z</time>
      </trkpt>
      <trkpt lat="45.65569" lon="4.76103">
        <ele>213.2</ele>
        <time>1970-01-01T02:09:49.000Z</time>
      </trkpt>
      <trkpt lat="45.65574" lon="4.76101">
        <ele>213.2</ele>
        <time>1970-01-01T02:09:50.000Z</time>
      </trkpt>
      <trkpt lat="45.65583" lon="4.76096">
        <ele>213.2</ele>
        <time>1970-01-01T02:09:52.000Z</time>
      </trkpt>
      <trkpt lat="45.65592" lon="4.76089">
        <ele>213</ele>
        <time>1970-01-01T02:09:54.000Z</time>
      </trkpt>
      <trkpt lat="45.65596" lon="4.76087">
        <ele>213</ele>
        <time>1970-01-01T02:09:55.000Z</time>
      </trkpt>
      <trkpt lat="45.65601" lon="4.76085">
        <ele>212.8</ele>
        <time>1970-01-01T02:09:56.000Z</time>
      </trkpt>
      <trkpt lat="45.65605" lon="4.76084">
        <ele>212.4</ele>
        <time>1970-01-01T02:09:57.000Z</time>
      </trkpt>
      <trkpt lat="45.6561" lon="4.76082">
        <ele>212.2</ele>
        <time>1970-01-01T02:09:58.000Z</time>
      </trkpt>
      <trkpt lat="45.65618" lon="4.76076">
        <ele>211.8</ele>
        <time>1970-01-01T02:10:00.000Z</time>
      </trkpt>
      <trkpt lat="45.65626" lon="4.76069">
        <ele>211.8</ele>
        <time>1970-01-01T02:10:02.000Z</time>
      </trkpt>
      <trkpt lat="45.65633" lon="4.76062">
        <ele>211.8</ele>
        <time>1970-01-01T02:10:04.000Z</time>
      </trkpt>
      <trkpt lat="45.65638" lon="4.76055">
        <ele>211.8</ele>
        <time>1970-01-01T02:10:06.000Z</time>
      </trkpt>
      <trkpt lat="45.65645" lon="4.7605">
        <ele>211.8</ele>
        <time>1970-01-01T02:10:08.000Z</time>
      </trkpt>
      <trkpt lat="45.65651" lon="4.76049">
        <ele>211.8</ele>
        <time>1970-01-01T02:10:10.000Z</time>
      </trkpt>
      <trkpt lat="45.65657" lon="4.76051">
        <ele>212</ele>
        <time>1970-01-01T02:10:12.000Z</time>
      </trkpt>
      <trkpt lat="45.65659" lon="4.76052">
        <ele>212</ele>
        <time>1970-01-01T02:10:13.000Z</time>
      </trkpt>
      <trkpt lat="45.65661" lon="4.76055">
        <ele>212</ele>
        <time>1970-01-01T02:10:14.000Z</time>
      </trkpt>
      <trkpt lat="45.65667" lon="4.76061">
        <ele>212.2</ele>
        <time>1970-01-01T02:10:16.000Z</time>
      </trkpt>
      <trkpt lat="45.65669" lon="4.76066">
        <ele>212.2</ele>
        <time>1970-01-01T02:10:17.000Z</time>
      </trkpt>
      <trkpt lat="45.65672" lon="4.7607">
        <ele>212.2</ele>
        <time>1970-01-01T02:10:18.000Z</time>
      </trkpt>
      <trkpt lat="45.65679" lon="4.76081">
        <ele>212.2</ele>
        <time>1970-01-01T02:10:20.000Z</time>
      </trkpt>
      <trkpt lat="45.65686" lon="4.76092">
        <ele>212.2</ele>
        <time>1970-01-01T02:10:22.000Z</time>
      </trkpt>
      <trkpt lat="45.65694" lon="4.76106">
        <ele>212.2</ele>
        <time>1970-01-01T02:10:24.000Z</time>
      </trkpt>
      <trkpt lat="45.65702" lon="4.7612">
        <ele>212.2</ele>
        <time>1970-01-01T02:10:26.000Z</time>
      </trkpt>
      <trkpt lat="45.6571" lon="4.76135">
        <ele>211.8</ele>
        <time>1970-01-01T02:10:28.000Z</time>
      </trkpt>
      <trkpt lat="45.65714" lon="4.76143">
        <ele>211.4</ele>
        <time>1970-01-01T02:10:29.000Z</time>
      </trkpt>
      <trkpt lat="45.65717" lon="4.76151">
        <ele>211.2</ele>
        <time>1970-01-01T02:10:30.000Z</time>
      </trkpt>
      <trkpt lat="45.65723" lon="4.76167">
        <ele>210.2</ele>
        <time>1970-01-01T02:10:32.000Z</time>
      </trkpt>
      <trkpt lat="45.65725" lon="4.76175">
        <ele>210</ele>
        <time>1970-01-01T02:10:33.000Z</time>
      </trkpt>
      <trkpt lat="45.65727" lon="4.76183">
        <ele>209.6</ele>
        <time>1970-01-01T02:10:34.000Z</time>
      </trkpt>
      <trkpt lat="45.65731" lon="4.76198">
        <ele>209.2</ele>
        <time>1970-01-01T02:10:36.000Z</time>
      </trkpt>
      <trkpt lat="45.65734" lon="4.76212">
        <ele>209</ele>
        <time>1970-01-01T02:10:38.000Z</time>
      </trkpt>
      <trkpt lat="45.65737" lon="4.76226">
        <ele>209</ele>
        <time>1970-01-01T02:10:40.000Z</time>
      </trkpt>
      <trkpt lat="45.65738" lon="4.76232">
        <ele>209</ele>
        <time>1970-01-01T02:10:41.000Z</time>
      </trkpt>
      <trkpt lat="45.65739" lon="4.76239">
        <ele>208.8</ele>
        <time>1970-01-01T02:10:42.000Z</time>
      </trkpt>
      <trkpt lat="45.65742" lon="4.76252">
        <ele>208.8</ele>
        <time>1970-01-01T02:10:44.000Z</time>
      </trkpt>
      <trkpt lat="45.65744" lon="4.76264">
        <ele>208.8</ele>
        <time>1970-01-01T02:10:46.000Z</time>
      </trkpt>
      <trkpt lat="45.65745" lon="4.7627">
        <ele>208.8</ele>
        <time>1970-01-01T02:10:47.000Z</time>
      </trkpt>
      <trkpt lat="45.65746" lon="4.76277">
        <ele>208.8</ele>
        <time>1970-01-01T02:10:48.000Z</time>
      </trkpt>
      <trkpt lat="45.65748" lon="4.7629">
        <ele>208.6</ele>
        <time>1970-01-01T02:10:50.000Z</time>
      </trkpt>
      <trkpt lat="45.6575" lon="4.76303">
        <ele>208.6</ele>
        <time>1970-01-01T02:10:52.000Z</time>
      </trkpt>
      <trkpt lat="45.65752" lon="4.76317">
        <ele>208.4</ele>
        <time>1970-01-01T02:10:54.000Z</time>
      </trkpt>
      <trkpt lat="45.65753" lon="4.76324">
        <ele>208.4</ele>
        <time>1970-01-01T02:10:55.000Z</time>
      </trkpt>
      <trkpt lat="45.65754" lon="4.76331">
        <ele>208.4</ele>
        <time>1970-01-01T02:10:56.000Z</time>
      </trkpt>
      <trkpt lat="45.65756" lon="4.76345">
        <ele>208.2</ele>
        <time>1970-01-01T02:10:58.000Z</time>
      </trkpt>
      <trkpt lat="45.65758" lon="4.76359">
        <ele>208.2</ele>
        <time>1970-01-01T02:11:00.000Z</time>
      </trkpt>
      <trkpt lat="45.6576" lon="4.76372">
        <ele>208.2</ele>
        <time>1970-01-01T02:11:02.000Z</time>
      </trkpt>
      <trkpt lat="45.65762" lon="4.76386">
        <ele>208</ele>
        <time>1970-01-01T02:11:04.000Z</time>
      </trkpt>
      <trkpt lat="45.65764" lon="4.76399">
        <ele>208</ele>
        <time>1970-01-01T02:11:06.000Z</time>
      </trkpt>
      <trkpt lat="45.65766" lon="4.76411">
        <ele>208</ele>
        <time>1970-01-01T02:11:08.000Z</time>
      </trkpt>
      <trkpt lat="45.65769" lon="4.76422">
        <ele>208</ele>
        <time>1970-01-01T02:11:10.000Z</time>
      </trkpt>
      <trkpt lat="45.65772" lon="4.76432">
        <ele>208</ele>
        <time>1970-01-01T02:11:12.000Z</time>
      </trkpt>
      <trkpt lat="45.65775" lon="4.76441">
        <ele>208</ele>
        <time>1970-01-01T02:11:14.000Z</time>
      </trkpt>
      <trkpt lat="45.65778" lon="4.76449">
        <ele>208.4</ele>
        <time>1970-01-01T02:11:16.000Z</time>
      </trkpt>
      <trkpt lat="45.65779" lon="4.76458">
        <ele>208.8</ele>
        <time>1970-01-01T02:11:18.000Z</time>
      </trkpt>
      <trkpt lat="45.65781" lon="4.76462">
        <ele>209</ele>
        <time>1970-01-01T02:11:19.000Z</time>
      </trkpt>
      <trkpt lat="45.65782" lon="4.76466">
        <ele>209</ele>
        <time>1970-01-01T02:11:20.000Z</time>
      </trkpt>
      <trkpt lat="45.65785" lon="4.76474">
        <ele>209</ele>
        <time>1970-01-01T02:11:22.000Z</time>
      </trkpt>
      <trkpt lat="45.65788" lon="4.76482">
        <ele>209.2</ele>
        <time>1970-01-01T02:11:24.000Z</time>
      </trkpt>
      <trkpt lat="45.6579" lon="4.76486">
        <ele>209.2</ele>
        <time>1970-01-01T02:11:25.000Z</time>
      </trkpt>
      <trkpt lat="45.65791" lon="4.76491">
        <ele>209.2</ele>
        <time>1970-01-01T02:11:26.000Z</time>
      </trkpt>
      <trkpt lat="45.65793" lon="4.76496">
        <ele>209.2</ele>
        <time>1970-01-01T02:11:27.000Z</time>
      </trkpt>
      <trkpt lat="45.65795" lon="4.76501">
        <ele>209.2</ele>
        <time>1970-01-01T02:11:28.000Z</time>
      </trkpt>
      <trkpt lat="45.65799" lon="4.76511">
        <ele>209.4</ele>
        <time>1970-01-01T02:11:30.000Z</time>
      </trkpt>
      <trkpt lat="45.65801" lon="4.76516">
        <ele>209.4</ele>
        <time>1970-01-01T02:11:31.000Z</time>
      </trkpt>
      <trkpt lat="45.65805" lon="4.76519">
        <ele>209.4</ele>
        <time>1970-01-01T02:11:32.000Z</time>
      </trkpt>
      <trkpt lat="45.65812" lon="4.76519">
        <ele>209.4</ele>
        <time>1970-01-01T02:11:34.000Z</time>
      </trkpt>
      <trkpt lat="45.65817" lon="4.76518">
        <ele>209.4</ele>
        <time>1970-01-01T02:11:35.000Z</time>
      </trkpt>
      <trkpt lat="45.65821" lon="4.76516">
        <ele>209.6</ele>
        <time>1970-01-01T02:11:36.000Z</time>
      </trkpt>
      <trkpt lat="45.65831" lon="4.7651">
        <ele>209.8</ele>
        <time>1970-01-01T02:11:38.000Z</time>
      </trkpt>
      <trkpt lat="45.65841" lon="4.76504">
        <ele>209.8</ele>
        <time>1970-01-01T02:11:40.000Z</time>
      </trkpt>
      <trkpt lat="45.65852" lon="4.76498">
        <ele>209.8</ele>
        <time>1970-01-01T02:11:42.000Z</time>
      </trkpt>
      <trkpt lat="45.65861" lon="4.76493">
        <ele>210</ele>
        <time>1970-01-01T02:11:44.000Z</time>
      </trkpt>
      <trkpt lat="45.6587" lon="4.76489">
        <ele>210</ele>
        <time>1970-01-01T02:11:46.000Z</time>
      </trkpt>
      <trkpt lat="45.65879" lon="4.76485">
        <ele>210.2</ele>
        <time>1970-01-01T02:11:48.000Z</time>
      </trkpt>
      <trkpt lat="45.65883" lon="4.76484">
        <ele>210.2</ele>
        <time>1970-01-01T02:11:49.000Z</time>
      </trkpt>
      <trkpt lat="45.65887" lon="4.76483">
        <ele>210.2</ele>
        <time>1970-01-01T02:11:50.000Z</time>
      </trkpt>
      <trkpt lat="45.65897" lon="4.7648">
        <ele>210.2</ele>
        <time>1970-01-01T02:11:52.000Z</time>
      </trkpt>
      <trkpt lat="45.65905" lon="4.76475">
        <ele>210.2</ele>
        <time>1970-01-01T02:11:54.000Z</time>
      </trkpt>
      <trkpt lat="45.65914" lon="4.76469">
        <ele>210.2</ele>
        <time>1970-01-01T02:11:56.000Z</time>
      </trkpt>
      <trkpt lat="45.65923" lon="4.76462">
        <ele>210.2</ele>
        <time>1970-01-01T02:11:58.000Z</time>
      </trkpt>
      <trkpt lat="45.65932" lon="4.76457">
        <ele>210.2</ele>
        <time>1970-01-01T02:12:00.000Z</time>
      </trkpt>
      <trkpt lat="45.65942" lon="4.76452">
        <ele>210.2</ele>
        <time>1970-01-01T02:12:02.000Z</time>
      </trkpt>
      <trkpt lat="45.65947" lon="4.76449">
        <ele>210.4</ele>
        <time>1970-01-01T02:12:03.000Z</time>
      </trkpt>
      <trkpt lat="45.65952" lon="4.76446">
        <ele>210.4</ele>
        <time>1970-01-01T02:12:04.000Z</time>
      </trkpt>
      <trkpt lat="45.65962" lon="4.76441">
        <ele>210.4</ele>
        <time>1970-01-01T02:12:06.000Z</time>
      </trkpt>
      <trkpt lat="45.65967" lon="4.76439">
        <ele>210.4</ele>
        <time>1970-01-01T02:12:07.000Z</time>
      </trkpt>
      <trkpt lat="45.65972" lon="4.76436">
        <ele>210.4</ele>
        <time>1970-01-01T02:12:08.000Z</time>
      </trkpt>
      <trkpt lat="45.65983" lon="4.76432">
        <ele>210.6</ele>
        <time>1970-01-01T02:12:10.000Z</time>
      </trkpt>
      <trkpt lat="45.65993" lon="4.76428">
        <ele>210.4</ele>
        <time>1970-01-01T02:12:12.000Z</time>
      </trkpt>
      <trkpt lat="45.66002" lon="4.76424">
        <ele>210.4</ele>
        <time>1970-01-01T02:12:14.000Z</time>
      </trkpt>
      <trkpt lat="45.66012" lon="4.7642">
        <ele>210.4</ele>
        <time>1970-01-01T02:12:16.000Z</time>
      </trkpt>
      <trkpt lat="45.66017" lon="4.76418">
        <ele>210.4</ele>
        <time>1970-01-01T02:12:17.000Z</time>
      </trkpt>
      <trkpt lat="45.66022" lon="4.76416">
        <ele>210.4</ele>
        <time>1970-01-01T02:12:18.000Z</time>
      </trkpt>
      <trkpt lat="45.66031" lon="4.76412">
        <ele>210.4</ele>
        <time>1970-01-01T02:12:20.000Z</time>
      </trkpt>
      <trkpt lat="45.66041" lon="4.76409">
        <ele>210.4</ele>
        <time>1970-01-01T02:12:22.000Z</time>
      </trkpt>
      <trkpt lat="45.66051" lon="4.76406">
        <ele>210.4</ele>
        <time>1970-01-01T02:12:24.000Z</time>
      </trkpt>
      <trkpt lat="45.6606" lon="4.76405">
        <ele>210.2</ele>
        <time>1970-01-01T02:12:26.000Z</time>
      </trkpt>
      <trkpt lat="45.66065" lon="4.76404">
        <ele>210.2</ele>
        <time>1970-01-01T02:12:27.000Z</time>
      </trkpt>
      <trkpt lat="45.6607" lon="4.76402">
        <ele>210.2</ele>
        <time>1970-01-01T02:12:28.000Z</time>
      </trkpt>
      <trkpt lat="45.66074" lon="4.764">
        <ele>210.2</ele>
        <time>1970-01-01T02:12:29.000Z</time>
      </trkpt>
      <trkpt lat="45.66079" lon="4.76398">
        <ele>210.2</ele>
        <time>1970-01-01T02:12:30.000Z</time>
      </trkpt>
      <trkpt lat="45.6609" lon="4.76394">
        <ele>210.2</ele>
        <time>1970-01-01T02:12:32.000Z</time>
      </trkpt>
      <trkpt lat="45.66101" lon="4.76391">
        <ele>210.2</ele>
        <time>1970-01-01T02:12:34.000Z</time>
      </trkpt>
      <trkpt lat="45.66106" lon="4.7639">
        <ele>210.2</ele>
        <time>1970-01-01T02:12:35.000Z</time>
      </trkpt>
      <trkpt lat="45.66112" lon="4.76388">
        <ele>210.2</ele>
        <time>1970-01-01T02:12:36.000Z</time>
      </trkpt>
      <trkpt lat="45.66123" lon="4.76385">
        <ele>210.4</ele>
        <time>1970-01-01T02:12:38.000Z</time>
      </trkpt>
      <trkpt lat="45.66133" lon="4.76383">
        <ele>210.4</ele>
        <time>1970-01-01T02:12:40.000Z</time>
      </trkpt>
      <trkpt lat="45.66143" lon="4.76381">
        <ele>210.4</ele>
        <time>1970-01-01T02:12:42.000Z</time>
      </trkpt>
      <trkpt lat="45.66148" lon="4.76379">
        <ele>210.4</ele>
        <time>1970-01-01T02:12:43.000Z</time>
      </trkpt>
      <trkpt lat="45.66153" lon="4.76379">
        <ele>210.4</ele>
        <time>1970-01-01T02:12:44.000Z</time>
      </trkpt>
      <trkpt lat="45.66162" lon="4.76376">
        <ele>210.4</ele>
        <time>1970-01-01T02:12:46.000Z</time>
      </trkpt>
      <trkpt lat="45.66171" lon="4.76374">
        <ele>210.6</ele>
        <time>1970-01-01T02:12:48.000Z</time>
      </trkpt>
      <trkpt lat="45.6618" lon="4.76372">
        <ele>210.6</ele>
        <time>1970-01-01T02:12:50.000Z</time>
      </trkpt>
      <trkpt lat="45.66189" lon="4.7637">
        <ele>210.6</ele>
        <time>1970-01-01T02:12:52.000Z</time>
      </trkpt>
      <trkpt lat="45.66198" lon="4.76367">
        <ele>210.8</ele>
        <time>1970-01-01T02:12:54.000Z</time>
      </trkpt>
      <trkpt lat="45.66207" lon="4.76364">
        <ele>211.2</ele>
        <time>1970-01-01T02:12:56.000Z</time>
      </trkpt>
      <trkpt lat="45.66211" lon="4.76363">
        <ele>211.4</ele>
        <time>1970-01-01T02:12:57.000Z</time>
      </trkpt>
      <trkpt lat="45.66216" lon="4.76362">
        <ele>211.4</ele>
        <time>1970-01-01T02:12:58.000Z</time>
      </trkpt>
      <trkpt lat="45.66225" lon="4.7636">
        <ele>211.6</ele>
        <time>1970-01-01T02:13:00.000Z</time>
      </trkpt>
      <trkpt lat="45.66234" lon="4.76358">
        <ele>211.8</ele>
        <time>1970-01-01T02:13:02.000Z</time>
      </trkpt>
      <trkpt lat="45.66243" lon="4.76356">
        <ele>212.4</ele>
        <time>1970-01-01T02:13:04.000Z</time>
      </trkpt>
      <trkpt lat="45.66247" lon="4.76354">
        <ele>212.4</ele>
        <time>1970-01-01T02:13:05.000Z</time>
      </trkpt>
      <trkpt lat="45.66252" lon="4.76353">
        <ele>212.6</ele>
        <time>1970-01-01T02:13:06.000Z</time>
      </trkpt>
      <trkpt lat="45.66261" lon="4.7635">
        <ele>213</ele>
        <time>1970-01-01T02:13:08.000Z</time>
      </trkpt>
      <trkpt lat="45.66271" lon="4.76347">
        <ele>213</ele>
        <time>1970-01-01T02:13:10.000Z</time>
      </trkpt>
      <trkpt lat="45.6628" lon="4.76344">
        <ele>213</ele>
        <time>1970-01-01T02:13:12.000Z</time>
      </trkpt>
      <trkpt lat="45.6629" lon="4.7634">
        <ele>213.2</ele>
        <time>1970-01-01T02:13:14.000Z</time>
      </trkpt>
      <trkpt lat="45.66299" lon="4.76336">
        <ele>213.2</ele>
        <time>1970-01-01T02:13:16.000Z</time>
      </trkpt>
      <trkpt lat="45.66304" lon="4.76334">
        <ele>213.2</ele>
        <time>1970-01-01T02:13:17.000Z</time>
      </trkpt>
      <trkpt lat="45.66308" lon="4.76332">
        <ele>213.2</ele>
        <time>1970-01-01T02:13:18.000Z</time>
      </trkpt>
      <trkpt lat="45.66316" lon="4.76328">
        <ele>213.2</ele>
        <time>1970-01-01T02:13:20.000Z</time>
      </trkpt>
      <trkpt lat="45.66324" lon="4.76324">
        <ele>213.2</ele>
        <time>1970-01-01T02:13:22.000Z</time>
      </trkpt>
      <trkpt lat="45.66329" lon="4.7632">
        <ele>213.2</ele>
        <time>1970-01-01T02:13:24.000Z</time>
      </trkpt>
      <trkpt lat="45.66332" lon="4.76317">
        <ele>213.2</ele>
        <time>1970-01-01T02:13:26.000Z</time>
      </trkpt>
      <trkpt lat="45.66334" lon="4.76316">
        <ele>213.4</ele>
        <time>1970-01-01T02:13:28.000Z</time>
      </trkpt>
      <trkpt lat="45.66335" lon="4.76315">
        <ele>213.4</ele>
        <time>1970-01-01T02:13:30.000Z</time>
      </trkpt>
      <trkpt lat="45.66335" lon="4.76316">
        <ele>213.4</ele>
        <time>1970-01-01T02:13:32.000Z</time>
      </trkpt>
      <trkpt lat="45.66335" lon="4.76316">
        <ele>213.4</ele>
        <time>1970-01-01T02:13:33.000Z</time>
      </trkpt>
      <trkpt lat="45.66336" lon="4.76317">
        <ele>213.8</ele>
        <time>1970-01-01T02:13:34.000Z</time>
      </trkpt>
      <trkpt lat="45.66339" lon="4.76319">
        <ele>214.2</ele>
        <time>1970-01-01T02:13:36.000Z</time>
      </trkpt>
      <trkpt lat="45.66342" lon="4.76323">
        <ele>214.2</ele>
        <time>1970-01-01T02:13:38.000Z</time>
      </trkpt>
      <trkpt lat="45.66347" lon="4.76328">
        <ele>214.2</ele>
        <time>1970-01-01T02:13:40.000Z</time>
      </trkpt>
      <trkpt lat="45.66352" lon="4.76332">
        <ele>214.2</ele>
        <time>1970-01-01T02:13:42.000Z</time>
      </trkpt>
      <trkpt lat="45.66356" lon="4.76333">
        <ele>214.2</ele>
        <time>1970-01-01T02:13:43.000Z</time>
      </trkpt>
      <trkpt lat="45.66359" lon="4.76333">
        <ele>214.2</ele>
        <time>1970-01-01T02:13:44.000Z</time>
      </trkpt>
      <trkpt lat="45.66367" lon="4.76331">
        <ele>214.2</ele>
        <time>1970-01-01T02:13:46.000Z</time>
      </trkpt>
      <trkpt lat="45.66374" lon="4.7633">
        <ele>214.2</ele>
        <time>1970-01-01T02:13:48.000Z</time>
      </trkpt>
      <trkpt lat="45.66377" lon="4.76329">
        <ele>214.2</ele>
        <time>1970-01-01T02:13:49.000Z</time>
      </trkpt>
      <trkpt lat="45.66381" lon="4.76328">
        <ele>214.2</ele>
        <time>1970-01-01T02:13:50.000Z</time>
      </trkpt>
      <trkpt lat="45.66388" lon="4.76326">
        <ele>214.2</ele>
        <time>1970-01-01T02:13:52.000Z</time>
      </trkpt>
      <trkpt lat="45.66396" lon="4.76323">
        <ele>214.2</ele>
        <time>1970-01-01T02:13:54.000Z</time>
      </trkpt>
      <trkpt lat="45.664" lon="4.76322">
        <ele>214.2</ele>
        <time>1970-01-01T02:13:55.000Z</time>
      </trkpt>
      <trkpt lat="45.66404" lon="4.76321">
        <ele>214.2</ele>
        <time>1970-01-01T02:13:56.000Z</time>
      </trkpt>
      <trkpt lat="45.66412" lon="4.76319">
        <ele>214.2</ele>
        <time>1970-01-01T02:13:58.000Z</time>
      </trkpt>
      <trkpt lat="45.6642" lon="4.76317">
        <ele>214.2</ele>
        <time>1970-01-01T02:14:00.000Z</time>
      </trkpt>
      <trkpt lat="45.66428" lon="4.76314">
        <ele>214.2</ele>
        <time>1970-01-01T02:14:02.000Z</time>
      </trkpt>
      <trkpt lat="45.66432" lon="4.76313">
        <ele>214.2</ele>
        <time>1970-01-01T02:14:03.000Z</time>
      </trkpt>
      <trkpt lat="45.66436" lon="4.76312">
        <ele>214.2</ele>
        <time>1970-01-01T02:14:04.000Z</time>
      </trkpt>
      <trkpt lat="45.66444" lon="4.7631">
        <ele>214.4</ele>
        <time>1970-01-01T02:14:06.000Z</time>
      </trkpt>
      <trkpt lat="45.66453" lon="4.76307">
        <ele>214.6</ele>
        <time>1970-01-01T02:14:08.000Z</time>
      </trkpt>
      <trkpt lat="45.66461" lon="4.76303">
        <ele>214.8</ele>
        <time>1970-01-01T02:14:10.000Z</time>
      </trkpt>
      <trkpt lat="45.66469" lon="4.76299">
        <ele>215</ele>
        <time>1970-01-01T02:14:12.000Z</time>
      </trkpt>
      <trkpt lat="45.66474" lon="4.76297">
        <ele>215</ele>
        <time>1970-01-01T02:14:13.000Z</time>
      </trkpt>
      <trkpt lat="45.66478" lon="4.76295">
        <ele>215</ele>
        <time>1970-01-01T02:14:14.000Z</time>
      </trkpt>
      <trkpt lat="45.66487" lon="4.7629">
        <ele>215</ele>
        <time>1970-01-01T02:14:16.000Z</time>
      </trkpt>
      <trkpt lat="45.66497" lon="4.76284">
        <ele>215</ele>
        <time>1970-01-01T02:14:18.000Z</time>
      </trkpt>
      <trkpt lat="45.66506" lon="4.76279">
        <ele>214.8</ele>
        <time>1970-01-01T02:14:20.000Z</time>
      </trkpt>
      <trkpt lat="45.6651" lon="4.76275">
        <ele>214.4</ele>
        <time>1970-01-01T02:14:21.000Z</time>
      </trkpt>
      <trkpt lat="45.66515" lon="4.76271">
        <ele>214</ele>
        <time>1970-01-01T02:14:22.000Z</time>
      </trkpt>
      <trkpt lat="45.66519" lon="4.76268">
        <ele>213.6</ele>
        <time>1970-01-01T02:14:23.000Z</time>
      </trkpt>
      <trkpt lat="45.66523" lon="4.76264">
        <ele>213.6</ele>
        <time>1970-01-01T02:14:24.000Z</time>
      </trkpt>
      <trkpt lat="45.66527" lon="4.7626">
        <ele>213.4</ele>
        <time>1970-01-01T02:14:25.000Z</time>
      </trkpt>
      <trkpt lat="45.66531" lon="4.76256">
        <ele>213.4</ele>
        <time>1970-01-01T02:14:26.000Z</time>
      </trkpt>
      <trkpt lat="45.66535" lon="4.76251">
        <ele>213.4</ele>
        <time>1970-01-01T02:14:27.000Z</time>
      </trkpt>
      <trkpt lat="45.66538" lon="4.76246">
        <ele>213.4</ele>
        <time>1970-01-01T02:14:28.000Z</time>
      </trkpt>
      <trkpt lat="45.66544" lon="4.76235">
        <ele>213.4</ele>
        <time>1970-01-01T02:14:30.000Z</time>
      </trkpt>
      <trkpt lat="45.66547" lon="4.7623">
        <ele>213.4</ele>
        <time>1970-01-01T02:14:31.000Z</time>
      </trkpt>
      <trkpt lat="45.6655" lon="4.76226">
        <ele>213.4</ele>
        <time>1970-01-01T02:14:32.000Z</time>
      </trkpt>
      <trkpt lat="45.66554" lon="4.76223">
        <ele>213.4</ele>
        <time>1970-01-01T02:14:33.000Z</time>
      </trkpt>
      <trkpt lat="45.66558" lon="4.76221">
        <ele>213.4</ele>
        <time>1970-01-01T02:14:34.000Z</time>
      </trkpt>
      <trkpt lat="45.66566" lon="4.76216">
        <ele>213.4</ele>
        <time>1970-01-01T02:14:36.000Z</time>
      </trkpt>
      <trkpt lat="45.66574" lon="4.76214">
        <ele>213.4</ele>
        <time>1970-01-01T02:14:38.000Z</time>
      </trkpt>
      <trkpt lat="45.66577" lon="4.76214">
        <ele>213.4</ele>
        <time>1970-01-01T02:14:39.000Z</time>
      </trkpt>
      <trkpt lat="45.66581" lon="4.76215">
        <ele>213.6</ele>
        <time>1970-01-01T02:14:40.000Z</time>
      </trkpt>
      <trkpt lat="45.66584" lon="4.76215">
        <ele>213.6</ele>
        <time>1970-01-01T02:14:41.000Z</time>
      </trkpt>
      <trkpt lat="45.66587" lon="4.76216">
        <ele>213.6</ele>
        <time>1970-01-01T02:14:42.000Z</time>
      </trkpt>
      <trkpt lat="45.66594" lon="4.76216">
        <ele>213.8</ele>
        <time>1970-01-01T02:14:44.000Z</time>
      </trkpt>
      <trkpt lat="45.66599" lon="4.76214">
        <ele>214</ele>
        <time>1970-01-01T02:14:46.000Z</time>
      </trkpt>
      <trkpt lat="45.66601" lon="4.76212">
        <ele>214.2</ele>
        <time>1970-01-01T02:14:47.000Z</time>
      </trkpt>
      <trkpt lat="45.66603" lon="4.76209">
        <ele>214.4</ele>
        <time>1970-01-01T02:14:48.000Z</time>
      </trkpt>
      <trkpt lat="45.66607" lon="4.762">
        <ele>214.6</ele>
        <time>1970-01-01T02:14:50.000Z</time>
      </trkpt>
      <trkpt lat="45.66609" lon="4.76195">
        <ele>214.8</ele>
        <time>1970-01-01T02:14:52.000Z</time>
      </trkpt>
      <trkpt lat="45.6661" lon="4.76195">
        <ele>214.8</ele>
        <time>1970-01-01T02:14:53.000Z</time>
      </trkpt>
      <trkpt lat="45.6661" lon="4.76195">
        <ele>214.8</ele>
        <time>1970-01-01T02:14:54.000Z</time>
      </trkpt>
      <trkpt lat="45.6661" lon="4.76194">
        <ele>215.2</ele>
        <time>1970-01-01T02:14:56.000Z</time>
      </trkpt>
      <trkpt lat="45.6661" lon="4.76194">
        <ele>215.4</ele>
        <time>1970-01-01T02:14:58.000Z</time>
      </trkpt>
      <trkpt lat="45.6661" lon="4.76194">
        <ele>215.8</ele>
        <time>1970-01-01T02:14:59.000Z</time>
      </trkpt>
      <trkpt lat="45.6661" lon="4.76194">
        <ele>215.8</ele>
        <time>1970-01-01T02:15:00.000Z</time>
      </trkpt>
      <trkpt lat="45.66611" lon="4.76194">
        <ele>216</ele>
        <time>1970-01-01T02:15:02.000Z</time>
      </trkpt>
      <trkpt lat="45.66611" lon="4.76194">
        <ele>216</ele>
        <time>1970-01-01T02:15:04.000Z</time>
      </trkpt>
      <trkpt lat="45.66611" lon="4.76194">
        <ele>216</ele>
        <time>1970-01-01T02:15:05.000Z</time>
      </trkpt>
      <trkpt lat="45.66611" lon="4.76194">
        <ele>216</ele>
        <time>1970-01-01T02:15:06.000Z</time>
      </trkpt>
      <trkpt lat="45.66611" lon="4.76194">
        <ele>216</ele>
        <time>1970-01-01T02:15:08.000Z</time>
      </trkpt>
      <trkpt lat="45.66611" lon="4.76194">
        <ele>216.2</ele>
        <time>1970-01-01T02:15:10.000Z</time>
      </trkpt>
      <trkpt lat="45.66611" lon="4.76194">
        <ele>216.2</ele>
        <time>1970-01-01T02:15:12.000Z</time>
      </trkpt>
      <trkpt lat="45.66611" lon="4.76195">
        <ele>216.2</ele>
        <time>1970-01-01T02:15:14.000Z</time>
      </trkpt>
      <trkpt lat="45.66612" lon="4.76194">
        <ele>216.2</ele>
        <time>1970-01-01T02:15:16.000Z</time>
      </trkpt>
      <trkpt lat="45.66611" lon="4.76193">
        <ele>216.2</ele>
        <time>1970-01-01T02:15:17.000Z</time>
      </trkpt>
      <trkpt lat="45.6661" lon="4.76193">
        <ele>216.2</ele>
        <time>1970-01-01T02:15:18.000Z</time>
      </trkpt>
      <trkpt lat="45.6661" lon="4.76194">
        <ele>216.2</ele>
        <time>1970-01-01T02:15:20.000Z</time>
      </trkpt>
      <trkpt lat="45.66609" lon="4.76194">
        <ele>216.2</ele>
        <time>1970-01-01T02:15:22.000Z</time>
      </trkpt>
      <trkpt lat="45.66608" lon="4.76194">
        <ele>216.2</ele>
        <time>1970-01-01T02:15:23.000Z</time>
      </trkpt>
      <trkpt lat="45.66608" lon="4.76194">
        <ele>216.2</ele>
        <time>1970-01-01T02:15:24.000Z</time>
      </trkpt>
      <trkpt lat="45.66607" lon="4.76194">
        <ele>216.2</ele>
        <time>1970-01-01T02:15:26.000Z</time>
      </trkpt>
      <trkpt lat="45.66606" lon="4.76193">
        <ele>216.2</ele>
        <time>1970-01-01T02:15:28.000Z</time>
      </trkpt>
      <trkpt lat="45.66607" lon="4.7619">
        <ele>216.2</ele>
        <time>1970-01-01T02:15:30.000Z</time>
      </trkpt>
      <trkpt lat="45.66607" lon="4.76188">
        <ele>216.2</ele>
        <time>1970-01-01T02:15:31.000Z</time>
      </trkpt>
      <trkpt lat="45.66607" lon="4.76187">
        <ele>216.2</ele>
        <time>1970-01-01T02:15:32.000Z</time>
      </trkpt>
      <trkpt lat="45.66607" lon="4.76186">
        <ele>216.2</ele>
        <time>1970-01-01T02:15:34.000Z</time>
      </trkpt>
      <trkpt lat="45.66607" lon="4.76185">
        <ele>216</ele>
        <time>1970-01-01T02:15:36.000Z</time>
      </trkpt>
      <trkpt lat="45.66607" lon="4.76185">
        <ele>216</ele>
        <time>1970-01-01T02:15:37.000Z</time>
      </trkpt>
      <trkpt lat="45.66607" lon="4.76184">
        <ele>216</ele>
        <time>1970-01-01T02:15:38.000Z</time>
      </trkpt>
      <trkpt lat="45.66608" lon="4.76182">
        <ele>216.2</ele>
        <time>1970-01-01T02:15:40.000Z</time>
      </trkpt>
      <trkpt lat="45.66609" lon="4.7618">
        <ele>216.2</ele>
        <time>1970-01-01T02:15:42.000Z</time>
      </trkpt>
      <trkpt lat="45.6661" lon="4.76177">
        <ele>216.2</ele>
        <time>1970-01-01T02:15:44.000Z</time>
      </trkpt>
      <trkpt lat="45.66611" lon="4.76176">
        <ele>216.2</ele>
        <time>1970-01-01T02:15:46.000Z</time>
      </trkpt>
      <trkpt lat="45.66611" lon="4.76174">
        <ele>216</ele>
        <time>1970-01-01T02:15:48.000Z</time>
      </trkpt>
      <trkpt lat="45.6661" lon="4.76173">
        <ele>216.2</ele>
        <time>1970-01-01T02:15:50.000Z</time>
      </trkpt>
      <trkpt lat="45.6661" lon="4.76171">
        <ele>216.2</ele>
        <time>1970-01-01T02:15:52.000Z</time>
      </trkpt>
      <trkpt lat="45.66611" lon="4.76169">
        <ele>216.4</ele>
        <time>1970-01-01T02:15:54.000Z</time>
      </trkpt>
      <trkpt lat="45.66611" lon="4.76168">
        <ele>216.4</ele>
        <time>1970-01-01T02:15:55.000Z</time>
      </trkpt>
      <trkpt lat="45.66612" lon="4.76167">
        <ele>216.4</ele>
        <time>1970-01-01T02:15:56.000Z</time>
      </trkpt>
      <trkpt lat="45.66612" lon="4.76165">
        <ele>216.2</ele>
        <time>1970-01-01T02:15:58.000Z</time>
      </trkpt>
      <trkpt lat="45.66612" lon="4.76162">
        <ele>216.2</ele>
        <time>1970-01-01T02:16:00.000Z</time>
      </trkpt>
      <trkpt lat="45.66612" lon="4.7616">
        <ele>216</ele>
        <time>1970-01-01T02:16:01.000Z</time>
      </trkpt>
      <trkpt lat="45.66611" lon="4.76157">
        <ele>216</ele>
        <time>1970-01-01T02:16:02.000Z</time>
      </trkpt>
      <trkpt lat="45.6661" lon="4.7615">
        <ele>215.8</ele>
        <time>1970-01-01T02:16:04.000Z</time>
      </trkpt>
      <trkpt lat="45.6661" lon="4.76146">
        <ele>215.6</ele>
        <time>1970-01-01T02:16:05.000Z</time>
      </trkpt>
      <trkpt lat="45.6661" lon="4.76143">
        <ele>215.6</ele>
        <time>1970-01-01T02:16:06.000Z</time>
      </trkpt>
      <trkpt lat="45.66609" lon="4.76136">
        <ele>215.4</ele>
        <time>1970-01-01T02:16:08.000Z</time>
      </trkpt>
      <trkpt lat="45.66609" lon="4.76133">
        <ele>215.4</ele>
        <time>1970-01-01T02:16:09.000Z</time>
      </trkpt>
      <trkpt lat="45.66608" lon="4.7613">
        <ele>215.4</ele>
        <time>1970-01-01T02:16:10.000Z</time>
      </trkpt>
      <trkpt lat="45.66607" lon="4.76127">
        <ele>215.4</ele>
        <time>1970-01-01T02:16:11.000Z</time>
      </trkpt>
      <trkpt lat="45.66606" lon="4.76126">
        <ele>215.4</ele>
        <time>1970-01-01T02:16:12.000Z</time>
      </trkpt>
      <trkpt lat="45.66606" lon="4.76126">
        <ele>215.4</ele>
        <time>1970-01-01T02:16:14.000Z</time>
      </trkpt>
      <trkpt lat="45.66606" lon="4.76125">
        <ele>215.4</ele>
        <time>1970-01-01T02:16:16.000Z</time>
      </trkpt>
      <trkpt lat="45.66606" lon="4.76125">
        <ele>215.6</ele>
        <time>1970-01-01T02:16:20.000Z</time>
      </trkpt>
      <trkpt lat="45.66606" lon="4.76125">
        <ele>215.6</ele>
        <time>1970-01-01T02:16:22.000Z</time>
      </trkpt>
      <trkpt lat="45.66606" lon="4.76125">
        <ele>215.6</ele>
        <time>1970-01-01T02:16:26.000Z</time>
      </trkpt>
      <trkpt lat="45.66606" lon="4.76125">
        <ele>215.6</ele>
        <time>1970-01-01T02:16:30.000Z</time>
      </trkpt>
      <trkpt lat="45.66606" lon="4.76125">
        <ele>215.6</ele>
        <time>1970-01-01T02:16:32.000Z</time>
      </trkpt>
      <trkpt lat="45.66606" lon="4.76125">
        <ele>215.8</ele>
        <time>1970-01-01T02:16:38.000Z</time>
      </trkpt>
      <trkpt lat="45.66606" lon="4.76125">
        <ele>215.8</ele>
        <time>1970-01-01T02:16:44.000Z</time>
      </trkpt>
      <trkpt lat="45.66606" lon="4.76125">
        <ele>215.8</ele>
        <time>1970-01-01T02:16:46.000Z</time>
      </trkpt>
      <trkpt lat="45.66606" lon="4.76125">
        <ele>215.6</ele>
        <time>1970-01-01T02:16:48.000Z</time>
      </trkpt>
      <trkpt lat="45.66606" lon="4.76125">
        <ele>215.6</ele>
        <time>1970-01-01T02:16:54.000Z</time>
      </trkpt>
      <trkpt lat="45.66606" lon="4.76125">
        <ele>215.6</ele>
        <time>1970-01-01T02:17:02.000Z</time>
      </trkpt>
      <trkpt lat="45.66606" lon="4.76125">
        <ele>215.6</ele>
        <time>1970-01-01T02:17:04.000Z</time>
      </trkpt>
      <trkpt lat="45.66606" lon="4.76125">
        <ele>215.6</ele>
        <time>1970-01-01T02:17:06.000Z</time>
      </trkpt>
      <trkpt lat="45.66606" lon="4.76125">
        <ele>215.6</ele>
        <time>1970-01-01T02:17:08.000Z</time>
      </trkpt>
      <trkpt lat="45.66606" lon="4.76125">
        <ele>215.6</ele>
        <time>1970-01-01T02:17:10.000Z</time>
      </trkpt>
      <trkpt lat="45.66606" lon="4.76125">
        <ele>215.6</ele>
        <time>1970-01-01T02:17:17.000Z</time>
      </trkpt>
      <trkpt lat="45.66606" lon="4.76125">
        <ele>215.6</ele>
        <time>1970-01-01T02:17:24.000Z</time>
      </trkpt>
      <trkpt lat="45.66606" lon="4.76125">
        <ele>215.6</ele>
        <time>1970-01-01T02:17:26.000Z</time>
      </trkpt>
      <trkpt lat="45.66606" lon="4.76125">
        <ele>215.8</ele>
        <time>1970-01-01T02:17:30.000Z</time>
      </trkpt>
      <trkpt lat="45.66604" lon="4.76123">
        <ele>215.8</ele>
        <time>1970-01-01T02:17:32.000Z</time>
      </trkpt>
      <trkpt lat="45.66601" lon="4.76118">
        <ele>215.8</ele>
        <time>1970-01-01T02:17:34.000Z</time>
      </trkpt>
      <trkpt lat="45.66598" lon="4.76111">
        <ele>215.8</ele>
        <time>1970-01-01T02:17:36.000Z</time>
      </trkpt>
      <trkpt lat="45.66596" lon="4.76107">
        <ele>215.8</ele>
        <time>1970-01-01T02:17:37.000Z</time>
      </trkpt>
      <trkpt lat="45.66594" lon="4.76103">
        <ele>215.8</ele>
        <time>1970-01-01T02:17:38.000Z</time>
      </trkpt>
      <trkpt lat="45.6659" lon="4.76096">
        <ele>215.8</ele>
        <time>1970-01-01T02:17:40.000Z</time>
      </trkpt>
      <trkpt lat="45.66586" lon="4.76088">
        <ele>215.8</ele>
        <time>1970-01-01T02:17:42.000Z</time>
      </trkpt>
      <trkpt lat="45.66584" lon="4.76084">
        <ele>215.8</ele>
        <time>1970-01-01T02:17:43.000Z</time>
      </trkpt>
      <trkpt lat="45.66582" lon="4.76079">
        <ele>215.6</ele>
        <time>1970-01-01T02:17:44.000Z</time>
      </trkpt>
      <trkpt lat="45.6658" lon="4.76069">
        <ele>215.6</ele>
        <time>1970-01-01T02:17:46.000Z</time>
      </trkpt>
      <trkpt lat="45.66578" lon="4.76065">
        <ele>215.6</ele>
        <time>1970-01-01T02:17:47.000Z</time>
      </trkpt>
      <trkpt lat="45.66576" lon="4.76061">
        <ele>215.4</ele>
        <time>1970-01-01T02:17:48.000Z</time>
      </trkpt>
      <trkpt lat="45.66571" lon="4.76054">
        <ele>215.4</ele>
        <time>1970-01-01T02:17:50.000Z</time>
      </trkpt>
      <trkpt lat="45.66568" lon="4.76051">
        <ele>215.4</ele>
        <time>1970-01-01T02:17:51.000Z</time>
      </trkpt>
      <trkpt lat="45.66565" lon="4.76049">
        <ele>215.4</ele>
        <time>1970-01-01T02:17:52.000Z</time>
      </trkpt>
      <trkpt lat="45.66558" lon="4.76043">
        <ele>215.4</ele>
        <time>1970-01-01T02:17:54.000Z</time>
      </trkpt>
      <trkpt lat="45.66552" lon="4.76036">
        <ele>215.2</ele>
        <time>1970-01-01T02:17:56.000Z</time>
      </trkpt>
      <trkpt lat="45.66546" lon="4.76029">
        <ele>215.2</ele>
        <time>1970-01-01T02:17:58.000Z</time>
      </trkpt>
      <trkpt lat="45.66543" lon="4.76026">
        <ele>215</ele>
        <time>1970-01-01T02:17:59.000Z</time>
      </trkpt>
      <trkpt lat="45.66539" lon="4.76023">
        <ele>215</ele>
        <time>1970-01-01T02:18:00.000Z</time>
      </trkpt>
      <trkpt lat="45.66531" lon="4.76017">
        <ele>214.8</ele>
        <time>1970-01-01T02:18:02.000Z</time>
      </trkpt>
      <trkpt lat="45.66528" lon="4.76014">
        <ele>214.6</ele>
        <time>1970-01-01T02:18:03.000Z</time>
      </trkpt>
      <trkpt lat="45.66524" lon="4.76011">
        <ele>214.6</ele>
        <time>1970-01-01T02:18:04.000Z</time>
      </trkpt>
      <trkpt lat="45.66519" lon="4.76003">
        <ele>214.6</ele>
        <time>1970-01-01T02:18:06.000Z</time>
      </trkpt>
      <trkpt lat="45.66512" lon="4.75995">
        <ele>214.2</ele>
        <time>1970-01-01T02:18:08.000Z</time>
      </trkpt>
      <trkpt lat="45.66508" lon="4.75992">
        <ele>214</ele>
        <time>1970-01-01T02:18:09.000Z</time>
      </trkpt>
      <trkpt lat="45.66504" lon="4.75989">
        <ele>214</ele>
        <time>1970-01-01T02:18:10.000Z</time>
      </trkpt>
      <trkpt lat="45.66495" lon="4.75985">
        <ele>213.8</ele>
        <time>1970-01-01T02:18:12.000Z</time>
      </trkpt>
      <trkpt lat="45.66491" lon="4.75984">
        <ele>213.8</ele>
        <time>1970-01-01T02:18:13.000Z</time>
      </trkpt>
      <trkpt lat="45.66488" lon="4.75982">
        <ele>213.8</ele>
        <time>1970-01-01T02:18:14.000Z</time>
      </trkpt>
      <trkpt lat="45.66482" lon="4.7598">
        <ele>213.6</ele>
        <time>1970-01-01T02:18:16.000Z</time>
      </trkpt>
      <trkpt lat="45.6648" lon="4.75978">
        <ele>213.6</ele>
        <time>1970-01-01T02:18:17.000Z</time>
      </trkpt>
      <trkpt lat="45.66479" lon="4.75978">
        <ele>213.4</ele>
        <time>1970-01-01T02:18:18.000Z</time>
      </trkpt>
      <trkpt lat="45.66477" lon="4.75977">
        <ele>213.2</ele>
        <time>1970-01-01T02:18:20.000Z</time>
      </trkpt>
      <trkpt lat="45.66476" lon="4.75976">
        <ele>213.2</ele>
        <time>1970-01-01T02:18:21.000Z</time>
      </trkpt>
      <trkpt lat="45.66474" lon="4.75975">
        <ele>213.2</ele>
        <time>1970-01-01T02:18:22.000Z</time>
      </trkpt>
      <trkpt lat="45.66472" lon="4.75973">
        <ele>213</ele>
        <time>1970-01-01T02:18:23.000Z</time>
      </trkpt>
      <trkpt lat="45.6647" lon="4.75971">
        <ele>213</ele>
        <time>1970-01-01T02:18:24.000Z</time>
      </trkpt>
      <trkpt lat="45.66468" lon="4.7597">
        <ele>213</ele>
        <time>1970-01-01T02:18:25.000Z</time>
      </trkpt>
      <trkpt lat="45.66465" lon="4.75967">
        <ele>213</ele>
        <time>1970-01-01T02:18:26.000Z</time>
      </trkpt>
      <trkpt lat="45.6646" lon="4.75959">
        <ele>212.8</ele>
        <time>1970-01-01T02:18:28.000Z</time>
      </trkpt>
      <trkpt lat="45.66456" lon="4.75951">
        <ele>212.8</ele>
        <time>1970-01-01T02:18:30.000Z</time>
      </trkpt>
      <trkpt lat="45.66456" lon="4.75948">
        <ele>212.8</ele>
        <time>1970-01-01T02:18:32.000Z</time>
      </trkpt>
      <trkpt lat="45.66458" lon="4.75945">
        <ele>212.8</ele>
        <time>1970-01-01T02:18:34.000Z</time>
      </trkpt>
      <trkpt lat="45.66459" lon="4.75943">
        <ele>213</ele>
        <time>1970-01-01T02:18:35.000Z</time>
      </trkpt>
      <trkpt lat="45.6646" lon="4.75941">
        <ele>213</ele>
        <time>1970-01-01T02:18:36.000Z</time>
      </trkpt>
      <trkpt lat="45.66462" lon="4.75938">
        <ele>213</ele>
        <time>1970-01-01T02:18:37.000Z</time>
      </trkpt>
      <trkpt lat="45.66463" lon="4.75935">
        <ele>213.8</ele>
        <time>1970-01-01T02:18:38.000Z</time>
      </trkpt>
      <trkpt lat="45.66466" lon="4.7593">
        <ele>214.4</ele>
        <time>1970-01-01T02:18:40.000Z</time>
      </trkpt>
      <trkpt lat="45.66468" lon="4.75927">
        <ele>214.6</ele>
        <time>1970-01-01T02:18:41.000Z</time>
      </trkpt>
      <trkpt lat="45.66469" lon="4.75923">
        <ele>214.6</ele>
        <time>1970-01-01T02:18:42.000Z</time>
      </trkpt>
      <trkpt lat="45.66472" lon="4.75916">
        <ele>214.8</ele>
        <time>1970-01-01T02:18:44.000Z</time>
      </trkpt>
      <trkpt lat="45.66475" lon="4.75909">
        <ele>214.8</ele>
        <time>1970-01-01T02:18:46.000Z</time>
      </trkpt>
      <trkpt lat="45.66477" lon="4.75902">
        <ele>214.8</ele>
        <time>1970-01-01T02:18:48.000Z</time>
      </trkpt>
      <trkpt lat="45.66479" lon="4.75898">
        <ele>214.8</ele>
        <time>1970-01-01T02:18:49.000Z</time>
      </trkpt>
      <trkpt lat="45.66481" lon="4.75894">
        <ele>214.8</ele>
        <time>1970-01-01T02:18:50.000Z</time>
      </trkpt>
      <trkpt lat="45.66482" lon="4.7589">
        <ele>214.8</ele>
        <time>1970-01-01T02:18:51.000Z</time>
      </trkpt>
      <trkpt lat="45.66484" lon="4.75887">
        <ele>214.8</ele>
        <time>1970-01-01T02:18:52.000Z</time>
      </trkpt>
      <trkpt lat="45.66485" lon="4.75883">
        <ele>214.8</ele>
        <time>1970-01-01T02:18:53.000Z</time>
      </trkpt>
      <trkpt lat="45.66485" lon="4.75879">
        <ele>214.8</ele>
        <time>1970-01-01T02:18:54.000Z</time>
      </trkpt>
      <trkpt lat="45.66486" lon="4.75871">
        <ele>214.8</ele>
        <time>1970-01-01T02:18:56.000Z</time>
      </trkpt>
      <trkpt lat="45.66489" lon="4.75866">
        <ele>214.8</ele>
        <time>1970-01-01T02:18:58.000Z</time>
      </trkpt>
      <trkpt lat="45.66491" lon="4.75863">
        <ele>214.8</ele>
        <time>1970-01-01T02:18:59.000Z</time>
      </trkpt>
      <trkpt lat="45.66492" lon="4.75861">
        <ele>214.8</ele>
        <time>1970-01-01T02:19:00.000Z</time>
      </trkpt>
      <trkpt lat="45.66497" lon="4.75856">
        <ele>214.6</ele>
        <time>1970-01-01T02:19:02.000Z</time>
      </trkpt>
      <trkpt lat="45.66499" lon="4.75853">
        <ele>214.4</ele>
        <time>1970-01-01T02:19:03.000Z</time>
      </trkpt>
      <trkpt lat="45.66502" lon="4.7585">
        <ele>214.4</ele>
        <time>1970-01-01T02:19:04.000Z</time>
      </trkpt>
      <trkpt lat="45.66509" lon="4.75844">
        <ele>214.2</ele>
        <time>1970-01-01T02:19:06.000Z</time>
      </trkpt>
      <trkpt lat="45.66515" lon="4.75837">
        <ele>214.2</ele>
        <time>1970-01-01T02:19:08.000Z</time>
      </trkpt>
      <trkpt lat="45.66522" lon="4.7583">
        <ele>214</ele>
        <time>1970-01-01T02:19:10.000Z</time>
      </trkpt>
      <trkpt lat="45.66526" lon="4.75827">
        <ele>214</ele>
        <time>1970-01-01T02:19:11.000Z</time>
      </trkpt>
      <trkpt lat="45.6653" lon="4.75823">
        <ele>213.8</ele>
        <time>1970-01-01T02:19:12.000Z</time>
      </trkpt>
      <trkpt lat="45.66537" lon="4.75817">
        <ele>213.6</ele>
        <time>1970-01-01T02:19:14.000Z</time>
      </trkpt>
      <trkpt lat="45.66543" lon="4.75811">
        <ele>213.4</ele>
        <time>1970-01-01T02:19:16.000Z</time>
      </trkpt>
      <trkpt lat="45.66546" lon="4.75809">
        <ele>213.4</ele>
        <time>1970-01-01T02:19:17.000Z</time>
      </trkpt>
      <trkpt lat="45.66549" lon="4.75806">
        <ele>213.4</ele>
        <time>1970-01-01T02:19:18.000Z</time>
      </trkpt>
      <trkpt lat="45.66552" lon="4.75803">
        <ele>213.4</ele>
        <time>1970-01-01T02:19:19.000Z</time>
      </trkpt>
      <trkpt lat="45.66555" lon="4.75799">
        <ele>213.4</ele>
        <time>1970-01-01T02:19:20.000Z</time>
      </trkpt>
      <trkpt lat="45.66561" lon="4.75791">
        <ele>213.4</ele>
        <time>1970-01-01T02:19:22.000Z</time>
      </trkpt>
      <trkpt lat="45.66564" lon="4.75787">
        <ele>213.4</ele>
        <time>1970-01-01T02:19:23.000Z</time>
      </trkpt>
      <trkpt lat="45.66567" lon="4.75783">
        <ele>213.4</ele>
        <time>1970-01-01T02:19:24.000Z</time>
      </trkpt>
      <trkpt lat="45.66572" lon="4.75774">
        <ele>213.6</ele>
        <time>1970-01-01T02:19:26.000Z</time>
      </trkpt>
      <trkpt lat="45.66577" lon="4.75764">
        <ele>213.6</ele>
        <time>1970-01-01T02:19:28.000Z</time>
      </trkpt>
      <trkpt lat="45.66582" lon="4.75754">
        <ele>213.6</ele>
        <time>1970-01-01T02:19:30.000Z</time>
      </trkpt>
      <trkpt lat="45.66588" lon="4.75747">
        <ele>213.8</ele>
        <time>1970-01-01T02:19:32.000Z</time>
      </trkpt>
      <trkpt lat="45.66595" lon="4.7574">
        <ele>213.8</ele>
        <time>1970-01-01T02:19:34.000Z</time>
      </trkpt>
      <trkpt lat="45.66598" lon="4.75737">
        <ele>213.8</ele>
        <time>1970-01-01T02:19:35.000Z</time>
      </trkpt>
      <trkpt lat="45.66602" lon="4.75733">
        <ele>213.8</ele>
        <time>1970-01-01T02:19:36.000Z</time>
      </trkpt>
      <trkpt lat="45.66605" lon="4.75729">
        <ele>213.8</ele>
        <time>1970-01-01T02:19:37.000Z</time>
      </trkpt>
      <trkpt lat="45.66608" lon="4.75725">
        <ele>213.8</ele>
        <time>1970-01-01T02:19:38.000Z</time>
      </trkpt>
      <trkpt lat="45.66613" lon="4.75716">
        <ele>214</ele>
        <time>1970-01-01T02:19:40.000Z</time>
      </trkpt>
      <trkpt lat="45.66615" lon="4.75712">
        <ele>214</ele>
        <time>1970-01-01T02:19:41.000Z</time>
      </trkpt>
      <trkpt lat="45.66617" lon="4.75707">
        <ele>214</ele>
        <time>1970-01-01T02:19:42.000Z</time>
      </trkpt>
      <trkpt lat="45.66622" lon="4.75698">
        <ele>214</ele>
        <time>1970-01-01T02:19:44.000Z</time>
      </trkpt>
      <trkpt lat="45.66627" lon="4.75689">
        <ele>214.2</ele>
        <time>1970-01-01T02:19:46.000Z</time>
      </trkpt>
      <trkpt lat="45.66631" lon="4.7568">
        <ele>214.4</ele>
        <time>1970-01-01T02:19:48.000Z</time>
      </trkpt>
      <trkpt lat="45.66632" lon="4.75676">
        <ele>214.6</ele>
        <time>1970-01-01T02:19:49.000Z</time>
      </trkpt>
      <trkpt lat="45.66633" lon="4.75674">
        <ele>214.6</ele>
        <time>1970-01-01T02:19:50.000Z</time>
      </trkpt>
      <trkpt lat="45.66633" lon="4.75671">
        <ele>214.8</ele>
        <time>1970-01-01T02:19:52.000Z</time>
      </trkpt>
      <trkpt lat="45.66635" lon="4.75669">
        <ele>215</ele>
        <time>1970-01-01T02:19:54.000Z</time>
      </trkpt>
      <trkpt lat="45.66637" lon="4.75665">
        <ele>215</ele>
        <time>1970-01-01T02:19:56.000Z</time>
      </trkpt>
      <trkpt lat="45.66639" lon="4.75663">
        <ele>215.2</ele>
        <time>1970-01-01T02:19:58.000Z</time>
      </trkpt>
      <trkpt lat="45.6664" lon="4.75663">
        <ele>215.2</ele>
        <time>1970-01-01T02:19:59.000Z</time>
      </trkpt>
      <trkpt lat="45.6664" lon="4.75662">
        <ele>215.2</ele>
        <time>1970-01-01T02:20:00.000Z</time>
      </trkpt>
      <trkpt lat="45.66641" lon="4.75662">
        <ele>215.4</ele>
        <time>1970-01-01T02:20:01.000Z</time>
      </trkpt>
      <trkpt lat="45.66641" lon="4.75662">
        <ele>215.4</ele>
        <time>1970-01-01T02:20:02.000Z</time>
      </trkpt>
      <trkpt lat="45.66642" lon="4.75662">
        <ele>215.4</ele>
        <time>1970-01-01T02:20:04.000Z</time>
      </trkpt>
      <trkpt lat="45.66644" lon="4.75662">
        <ele>215.6</ele>
        <time>1970-01-01T02:20:06.000Z</time>
      </trkpt>
      <trkpt lat="45.66644" lon="4.75662">
        <ele>215.8</ele>
        <time>1970-01-01T02:20:07.000Z</time>
      </trkpt>
      <trkpt lat="45.66645" lon="4.75662">
        <ele>215.8</ele>
        <time>1970-01-01T02:20:08.000Z</time>
      </trkpt>
      <trkpt lat="45.66645" lon="4.75663">
        <ele>216.2</ele>
        <time>1970-01-01T02:20:10.000Z</time>
      </trkpt>
      <trkpt lat="45.66646" lon="4.75663">
        <ele>216.2</ele>
        <time>1970-01-01T02:20:11.000Z</time>
      </trkpt>
      <trkpt lat="45.66646" lon="4.75663">
        <ele>216.2</ele>
        <time>1970-01-01T02:20:12.000Z</time>
      </trkpt>
      <trkpt lat="45.66647" lon="4.75664">
        <ele>216.2</ele>
        <time>1970-01-01T02:20:14.000Z</time>
      </trkpt>
      <trkpt lat="45.66649" lon="4.75665">
        <ele>216.2</ele>
        <time>1970-01-01T02:20:15.000Z</time>
      </trkpt>
      <trkpt lat="45.66652" lon="4.75665">
        <ele>216.2</ele>
        <time>1970-01-01T02:20:16.000Z</time>
      </trkpt>
      <trkpt lat="45.66655" lon="4.75666">
        <ele>216.2</ele>
        <time>1970-01-01T02:20:17.000Z</time>
      </trkpt>
      <trkpt lat="45.66658" lon="4.75666">
        <ele>216.2</ele>
        <time>1970-01-01T02:20:18.000Z</time>
      </trkpt>
      <trkpt lat="45.66664" lon="4.75664">
        <ele>216.2</ele>
        <time>1970-01-01T02:20:20.000Z</time>
      </trkpt>
      <trkpt lat="45.66667" lon="4.75663">
        <ele>216.2</ele>
        <time>1970-01-01T02:20:21.000Z</time>
      </trkpt>
      <trkpt lat="45.6667" lon="4.75661">
        <ele>216.2</ele>
        <time>1970-01-01T02:20:22.000Z</time>
      </trkpt>
      <trkpt lat="45.66674" lon="4.7566">
        <ele>216.2</ele>
        <time>1970-01-01T02:20:23.000Z</time>
      </trkpt>
      <trkpt lat="45.66677" lon="4.75659">
        <ele>216</ele>
        <time>1970-01-01T02:20:24.000Z</time>
      </trkpt>
      <trkpt lat="45.66685" lon="4.75656">
        <ele>216</ele>
        <time>1970-01-01T02:20:26.000Z</time>
      </trkpt>
      <trkpt lat="45.66693" lon="4.75654">
        <ele>215.8</ele>
        <time>1970-01-01T02:20:28.000Z</time>
      </trkpt>
      <trkpt lat="45.66701" lon="4.75653">
        <ele>215.8</ele>
        <time>1970-01-01T02:20:30.000Z</time>
      </trkpt>
      <trkpt lat="45.66704" lon="4.75653">
        <ele>215.8</ele>
        <time>1970-01-01T02:20:31.000Z</time>
      </trkpt>
      <trkpt lat="45.66708" lon="4.75654">
        <ele>215.8</ele>
        <time>1970-01-01T02:20:32.000Z</time>
      </trkpt>
      <trkpt lat="45.66715" lon="4.75655">
        <ele>215.8</ele>
        <time>1970-01-01T02:20:34.000Z</time>
      </trkpt>
      <trkpt lat="45.66723" lon="4.75657">
        <ele>215.8</ele>
        <time>1970-01-01T02:20:36.000Z</time>
      </trkpt>
      <trkpt lat="45.66731" lon="4.75658">
        <ele>215.8</ele>
        <time>1970-01-01T02:20:38.000Z</time>
      </trkpt>
      <trkpt lat="45.66738" lon="4.7566">
        <ele>215.8</ele>
        <time>1970-01-01T02:20:40.000Z</time>
      </trkpt>
      <trkpt lat="45.66745" lon="4.75663">
        <ele>216</ele>
        <time>1970-01-01T02:20:42.000Z</time>
      </trkpt>
      <trkpt lat="45.66748" lon="4.75665">
        <ele>216.2</ele>
        <time>1970-01-01T02:20:43.000Z</time>
      </trkpt>
      <trkpt lat="45.66751" lon="4.75666">
        <ele>216.2</ele>
        <time>1970-01-01T02:20:44.000Z</time>
      </trkpt>
      <trkpt lat="45.66758" lon="4.75669">
        <ele>216.2</ele>
        <time>1970-01-01T02:20:46.000Z</time>
      </trkpt>
      <trkpt lat="45.66767" lon="4.7567">
        <ele>216.2</ele>
        <time>1970-01-01T02:20:48.000Z</time>
      </trkpt>
      <trkpt lat="45.66772" lon="4.7567">
        <ele>216.2</ele>
        <time>1970-01-01T02:20:49.000Z</time>
      </trkpt>
      <trkpt lat="45.66776" lon="4.7567">
        <ele>216.2</ele>
        <time>1970-01-01T02:20:50.000Z</time>
      </trkpt>
      <trkpt lat="45.66785" lon="4.7567">
        <ele>216.2</ele>
        <time>1970-01-01T02:20:52.000Z</time>
      </trkpt>
      <trkpt lat="45.66793" lon="4.7567">
        <ele>216</ele>
        <time>1970-01-01T02:20:54.000Z</time>
      </trkpt>
      <trkpt lat="45.66803" lon="4.75669">
        <ele>216</ele>
        <time>1970-01-01T02:20:56.000Z</time>
      </trkpt>
      <trkpt lat="45.66812" lon="4.75668">
        <ele>215.8</ele>
        <time>1970-01-01T02:20:58.000Z</time>
      </trkpt>
      <trkpt lat="45.66821" lon="4.75666">
        <ele>215.8</ele>
        <time>1970-01-01T02:21:00.000Z</time>
      </trkpt>
      <trkpt lat="45.66831" lon="4.75665">
        <ele>215.8</ele>
        <time>1970-01-01T02:21:02.000Z</time>
      </trkpt>
      <trkpt lat="45.66835" lon="4.75664">
        <ele>215.8</ele>
        <time>1970-01-01T02:21:03.000Z</time>
      </trkpt>
      <trkpt lat="45.66839" lon="4.75664">
        <ele>215.8</ele>
        <time>1970-01-01T02:21:04.000Z</time>
      </trkpt>
      <trkpt lat="45.66847" lon="4.75662">
        <ele>216</ele>
        <time>1970-01-01T02:21:06.000Z</time>
      </trkpt>
      <trkpt lat="45.66855" lon="4.75659">
        <ele>216</ele>
        <time>1970-01-01T02:21:08.000Z</time>
      </trkpt>
      <trkpt lat="45.66859" lon="4.75658">
        <ele>216</ele>
        <time>1970-01-01T02:21:09.000Z</time>
      </trkpt>
      <trkpt lat="45.66863" lon="4.75656">
        <ele>216</ele>
        <time>1970-01-01T02:21:10.000Z</time>
      </trkpt>
      <trkpt lat="45.66871" lon="4.75652">
        <ele>216.2</ele>
        <time>1970-01-01T02:21:12.000Z</time>
      </trkpt>
      <trkpt lat="45.66878" lon="4.75646">
        <ele>216.2</ele>
        <time>1970-01-01T02:21:14.000Z</time>
      </trkpt>
      <trkpt lat="45.66882" lon="4.75643">
        <ele>216.2</ele>
        <time>1970-01-01T02:21:15.000Z</time>
      </trkpt>
      <trkpt lat="45.66885" lon="4.75639">
        <ele>216.2</ele>
        <time>1970-01-01T02:21:16.000Z</time>
      </trkpt>
      <trkpt lat="45.66891" lon="4.75631">
        <ele>216.4</ele>
        <time>1970-01-01T02:21:18.000Z</time>
      </trkpt>
      <trkpt lat="45.66898" lon="4.75624">
        <ele>216.4</ele>
        <time>1970-01-01T02:21:20.000Z</time>
      </trkpt>
      <trkpt lat="45.66905" lon="4.75617">
        <ele>216.6</ele>
        <time>1970-01-01T02:21:22.000Z</time>
      </trkpt>
      <trkpt lat="45.66909" lon="4.75613">
        <ele>216.6</ele>
        <time>1970-01-01T02:21:23.000Z</time>
      </trkpt>
      <trkpt lat="45.66912" lon="4.75609">
        <ele>216.6</ele>
        <time>1970-01-01T02:21:24.000Z</time>
      </trkpt>
      <trkpt lat="45.66919" lon="4.75602">
        <ele>216.6</ele>
        <time>1970-01-01T02:21:26.000Z</time>
      </trkpt>
      <trkpt lat="45.66927" lon="4.75597">
        <ele>216.6</ele>
        <time>1970-01-01T02:21:28.000Z</time>
      </trkpt>
      <trkpt lat="45.66934" lon="4.75593">
        <ele>216.6</ele>
        <time>1970-01-01T02:21:30.000Z</time>
      </trkpt>
      <trkpt lat="45.66941" lon="4.75589">
        <ele>216.6</ele>
        <time>1970-01-01T02:21:32.000Z</time>
      </trkpt>
      <trkpt lat="45.66945" lon="4.75588">
        <ele>216.6</ele>
        <time>1970-01-01T02:21:33.000Z</time>
      </trkpt>
      <trkpt lat="45.66949" lon="4.75586">
        <ele>216.6</ele>
        <time>1970-01-01T02:21:34.000Z</time>
      </trkpt>
      <trkpt lat="45.66959" lon="4.75582">
        <ele>216.6</ele>
        <time>1970-01-01T02:21:36.000Z</time>
      </trkpt>
      <trkpt lat="45.66967" lon="4.75579">
        <ele>216.4</ele>
        <time>1970-01-01T02:21:38.000Z</time>
      </trkpt>
      <trkpt lat="45.66975" lon="4.75576">
        <ele>216.4</ele>
        <time>1970-01-01T02:21:40.000Z</time>
      </trkpt>
      <trkpt lat="45.66979" lon="4.75575">
        <ele>216.6</ele>
        <time>1970-01-01T02:21:41.000Z</time>
      </trkpt>
      <trkpt lat="45.66983" lon="4.75574">
        <ele>216.6</ele>
        <time>1970-01-01T02:21:42.000Z</time>
      </trkpt>
      <trkpt lat="45.66991" lon="4.75572">
        <ele>216.6</ele>
        <time>1970-01-01T02:21:44.000Z</time>
      </trkpt>
      <trkpt lat="45.67" lon="4.75569">
        <ele>216.6</ele>
        <time>1970-01-01T02:21:46.000Z</time>
      </trkpt>
      <trkpt lat="45.67009" lon="4.75567">
        <ele>216.6</ele>
        <time>1970-01-01T02:21:48.000Z</time>
      </trkpt>
      <trkpt lat="45.67018" lon="4.75564">
        <ele>216.6</ele>
        <time>1970-01-01T02:21:50.000Z</time>
      </trkpt>
      <trkpt lat="45.67026" lon="4.75561">
        <ele>216.4</ele>
        <time>1970-01-01T02:21:52.000Z</time>
      </trkpt>
      <trkpt lat="45.67035" lon="4.75558">
        <ele>216.4</ele>
        <time>1970-01-01T02:21:54.000Z</time>
      </trkpt>
      <trkpt lat="45.6704" lon="4.75556">
        <ele>216.4</ele>
        <time>1970-01-01T02:21:55.000Z</time>
      </trkpt>
      <trkpt lat="45.67044" lon="4.75554">
        <ele>216.4</ele>
        <time>1970-01-01T02:21:56.000Z</time>
      </trkpt>
      <trkpt lat="45.67053" lon="4.75551">
        <ele>216.4</ele>
        <time>1970-01-01T02:21:58.000Z</time>
      </trkpt>
      <trkpt lat="45.6706" lon="4.75549">
        <ele>216.4</ele>
        <time>1970-01-01T02:22:00.000Z</time>
      </trkpt>
      <trkpt lat="45.67068" lon="4.75546">
        <ele>216.4</ele>
        <time>1970-01-01T02:22:02.000Z</time>
      </trkpt>
      <trkpt lat="45.67075" lon="4.75543">
        <ele>216.4</ele>
        <time>1970-01-01T02:22:04.000Z</time>
      </trkpt>
      <trkpt lat="45.67084" lon="4.75541">
        <ele>216.6</ele>
        <time>1970-01-01T02:22:06.000Z</time>
      </trkpt>
      <trkpt lat="45.67092" lon="4.7554">
        <ele>216.8</ele>
        <time>1970-01-01T02:22:08.000Z</time>
      </trkpt>
      <trkpt lat="45.671" lon="4.75541">
        <ele>217</ele>
        <time>1970-01-01T02:22:10.000Z</time>
      </trkpt>
      <trkpt lat="45.67103" lon="4.75541">
        <ele>217</ele>
        <time>1970-01-01T02:22:11.000Z</time>
      </trkpt>
      <trkpt lat="45.67107" lon="4.75542">
        <ele>217</ele>
        <time>1970-01-01T02:22:12.000Z</time>
      </trkpt>
      <trkpt lat="45.6711" lon="4.75543">
        <ele>217</ele>
        <time>1970-01-01T02:22:13.000Z</time>
      </trkpt>
      <trkpt lat="45.67114" lon="4.75544">
        <ele>217.2</ele>
        <time>1970-01-01T02:22:14.000Z</time>
      </trkpt>
      <trkpt lat="45.67122" lon="4.75545">
        <ele>217.4</ele>
        <time>1970-01-01T02:22:16.000Z</time>
      </trkpt>
      <trkpt lat="45.67127" lon="4.75548">
        <ele>217.6</ele>
        <time>1970-01-01T02:22:18.000Z</time>
      </trkpt>
      <trkpt lat="45.6713" lon="4.75552">
        <ele>217.8</ele>
        <time>1970-01-01T02:22:20.000Z</time>
      </trkpt>
      <trkpt lat="45.67129" lon="4.75555">
        <ele>217.8</ele>
        <time>1970-01-01T02:22:21.000Z</time>
      </trkpt>
      <trkpt lat="45.67128" lon="4.75559">
        <ele>217.8</ele>
        <time>1970-01-01T02:22:22.000Z</time>
      </trkpt>
      <trkpt lat="45.67127" lon="4.75566">
        <ele>217.8</ele>
        <time>1970-01-01T02:22:24.000Z</time>
      </trkpt>
      <trkpt lat="45.67126" lon="4.75574">
        <ele>217.8</ele>
        <time>1970-01-01T02:22:26.000Z</time>
      </trkpt>
      <trkpt lat="45.67126" lon="4.75578">
        <ele>217.8</ele>
        <time>1970-01-01T02:22:27.000Z</time>
      </trkpt>
      <trkpt lat="45.67127" lon="4.75582">
        <ele>217.8</ele>
        <time>1970-01-01T02:22:28.000Z</time>
      </trkpt>
      <trkpt lat="45.67127" lon="4.7559">
        <ele>217.8</ele>
        <time>1970-01-01T02:22:30.000Z</time>
      </trkpt>
      <trkpt lat="45.67127" lon="4.75599">
        <ele>217.8</ele>
        <time>1970-01-01T02:22:32.000Z</time>
      </trkpt>
      <trkpt lat="45.67127" lon="4.75608">
        <ele>217.8</ele>
        <time>1970-01-01T02:22:34.000Z</time>
      </trkpt>
      <trkpt lat="45.67128" lon="4.75617">
        <ele>217.8</ele>
        <time>1970-01-01T02:22:36.000Z</time>
      </trkpt>
      <trkpt lat="45.67129" lon="4.75627">
        <ele>217.8</ele>
        <time>1970-01-01T02:22:38.000Z</time>
      </trkpt>
      <trkpt lat="45.67133" lon="4.75634">
        <ele>217.8</ele>
        <time>1970-01-01T02:22:40.000Z</time>
      </trkpt>
      <trkpt lat="45.67136" lon="4.75637">
        <ele>217.8</ele>
        <time>1970-01-01T02:22:41.000Z</time>
      </trkpt>
      <trkpt lat="45.67138" lon="4.75639">
        <ele>217.8</ele>
        <time>1970-01-01T02:22:42.000Z</time>
      </trkpt>
      <trkpt lat="45.67144" lon="4.75643">
        <ele>217.8</ele>
        <time>1970-01-01T02:22:44.000Z</time>
      </trkpt>
      <trkpt lat="45.67149" lon="4.75647">
        <ele>218</ele>
        <time>1970-01-01T02:22:46.000Z</time>
      </trkpt>
      <trkpt lat="45.67155" lon="4.75649">
        <ele>218</ele>
        <time>1970-01-01T02:22:48.000Z</time>
      </trkpt>
      <trkpt lat="45.67161" lon="4.75651">
        <ele>218.2</ele>
        <time>1970-01-01T02:22:50.000Z</time>
      </trkpt>
      <trkpt lat="45.67168" lon="4.75653">
        <ele>218.2</ele>
        <time>1970-01-01T02:22:52.000Z</time>
      </trkpt>
      <trkpt lat="45.67176" lon="4.75655">
        <ele>218.4</ele>
        <time>1970-01-01T02:22:54.000Z</time>
      </trkpt>
      <trkpt lat="45.67184" lon="4.75656">
        <ele>218.6</ele>
        <time>1970-01-01T02:22:56.000Z</time>
      </trkpt>
      <trkpt lat="45.67193" lon="4.75657">
        <ele>218.8</ele>
        <time>1970-01-01T02:22:58.000Z</time>
      </trkpt>
      <trkpt lat="45.67202" lon="4.75656">
        <ele>219</ele>
        <time>1970-01-01T02:23:00.000Z</time>
      </trkpt>
      <trkpt lat="45.67211" lon="4.75656">
        <ele>219</ele>
        <time>1970-01-01T02:23:02.000Z</time>
      </trkpt>
      <trkpt lat="45.6722" lon="4.75655">
        <ele>219</ele>
        <time>1970-01-01T02:23:04.000Z</time>
      </trkpt>
      <trkpt lat="45.67224" lon="4.75655">
        <ele>218.8</ele>
        <time>1970-01-01T02:23:05.000Z</time>
      </trkpt>
      <trkpt lat="45.67229" lon="4.75654">
        <ele>218.6</ele>
        <time>1970-01-01T02:23:06.000Z</time>
      </trkpt>
      <trkpt lat="45.67233" lon="4.75654">
        <ele>218.6</ele>
        <time>1970-01-01T02:23:07.000Z</time>
      </trkpt>
      <trkpt lat="45.67238" lon="4.75654">
        <ele>218.6</ele>
        <time>1970-01-01T02:23:08.000Z</time>
      </trkpt>
      <trkpt lat="45.67243" lon="4.75653">
        <ele>218.6</ele>
        <time>1970-01-01T02:23:09.000Z</time>
      </trkpt>
      <trkpt lat="45.67247" lon="4.75652">
        <ele>218.6</ele>
        <time>1970-01-01T02:23:10.000Z</time>
      </trkpt>
      <trkpt lat="45.67251" lon="4.75651">
        <ele>218.6</ele>
        <time>1970-01-01T02:23:11.000Z</time>
      </trkpt>
      <trkpt lat="45.67256" lon="4.7565">
        <ele>218.6</ele>
        <time>1970-01-01T02:23:12.000Z</time>
      </trkpt>
      <trkpt lat="45.67264" lon="4.75648">
        <ele>218.8</ele>
        <time>1970-01-01T02:23:14.000Z</time>
      </trkpt>
      <trkpt lat="45.67271" lon="4.75646">
        <ele>218.8</ele>
        <time>1970-01-01T02:23:16.000Z</time>
      </trkpt>
      <trkpt lat="45.67279" lon="4.75645">
        <ele>218.8</ele>
        <time>1970-01-01T02:23:18.000Z</time>
      </trkpt>
      <trkpt lat="45.67283" lon="4.75644">
        <ele>218.8</ele>
        <time>1970-01-01T02:23:19.000Z</time>
      </trkpt>
      <trkpt lat="45.67287" lon="4.75643">
        <ele>219</ele>
        <time>1970-01-01T02:23:20.000Z</time>
      </trkpt>
      <trkpt lat="45.67295" lon="4.75642">
        <ele>219</ele>
        <time>1970-01-01T02:23:22.000Z</time>
      </trkpt>
      <trkpt lat="45.67303" lon="4.75641">
        <ele>219</ele>
        <time>1970-01-01T02:23:24.000Z</time>
      </trkpt>
      <trkpt lat="45.67309" lon="4.75637">
        <ele>219.2</ele>
        <time>1970-01-01T02:23:26.000Z</time>
      </trkpt>
      <trkpt lat="45.67311" lon="4.75636">
        <ele>219.2</ele>
        <time>1970-01-01T02:23:27.000Z</time>
      </trkpt>
      <trkpt lat="45.67312" lon="4.75635">
        <ele>219.2</ele>
        <time>1970-01-01T02:23:28.000Z</time>
      </trkpt>
      <trkpt lat="45.67313" lon="4.75635">
        <ele>219.4</ele>
        <time>1970-01-01T02:23:29.000Z</time>
      </trkpt>
      <trkpt lat="45.67314" lon="4.75635">
        <ele>219.4</ele>
        <time>1970-01-01T02:23:30.000Z</time>
      </trkpt>
      <trkpt lat="45.67316" lon="4.75635">
        <ele>219.4</ele>
        <time>1970-01-01T02:23:32.000Z</time>
      </trkpt>
      <trkpt lat="45.67317" lon="4.75631">
        <ele>219.2</ele>
        <time>1970-01-01T02:23:34.000Z</time>
      </trkpt>
      <trkpt lat="45.67316" lon="4.75624">
        <ele>219.2</ele>
        <time>1970-01-01T02:23:36.000Z</time>
      </trkpt>
      <trkpt lat="45.67315" lon="4.7562">
        <ele>219.2</ele>
        <time>1970-01-01T02:23:37.000Z</time>
      </trkpt>
      <trkpt lat="45.67314" lon="4.75614">
        <ele>219.2</ele>
        <time>1970-01-01T02:23:38.000Z</time>
      </trkpt>
      <trkpt lat="45.67314" lon="4.75607">
        <ele>219.2</ele>
        <time>1970-01-01T02:23:40.000Z</time>
      </trkpt>
      <trkpt lat="45.67315" lon="4.756">
        <ele>219.2</ele>
        <time>1970-01-01T02:23:42.000Z</time>
      </trkpt>
      <trkpt lat="45.67316" lon="4.75597">
        <ele>219.2</ele>
        <time>1970-01-01T02:23:43.000Z</time>
      </trkpt>
      <trkpt lat="45.67315" lon="4.75594">
        <ele>219.2</ele>
        <time>1970-01-01T02:23:44.000Z</time>
      </trkpt>
      <trkpt lat="45.67311" lon="4.75591">
        <ele>219</ele>
        <time>1970-01-01T02:23:46.000Z</time>
      </trkpt>
      <trkpt lat="45.67306" lon="4.75592">
        <ele>218.8</ele>
        <time>1970-01-01T02:23:48.000Z</time>
      </trkpt>
      <trkpt lat="45.67302" lon="4.75594">
        <ele>218.6</ele>
        <time>1970-01-01T02:23:50.000Z</time>
      </trkpt>
      <trkpt lat="45.673" lon="4.75595">
        <ele>218.6</ele>
        <time>1970-01-01T02:23:51.000Z</time>
      </trkpt>
      <trkpt lat="45.67298" lon="4.75596">
        <ele>218.4</ele>
        <time>1970-01-01T02:23:52.000Z</time>
      </trkpt>
      <trkpt lat="45.67294" lon="4.75598">
        <ele>218.2</ele>
        <time>1970-01-01T02:23:54.000Z</time>
      </trkpt>
      <trkpt lat="45.67293" lon="4.75599">
        <ele>218.2</ele>
        <time>1970-01-01T02:23:55.000Z</time>
      </trkpt>
      <trkpt lat="45.67292" lon="4.756">
        <ele>218.2</ele>
        <time>1970-01-01T02:23:56.000Z</time>
      </trkpt>
      <trkpt lat="45.6729" lon="4.75601">
        <ele>218.2</ele>
        <time>1970-01-01T02:23:57.000Z</time>
      </trkpt>
      <trkpt lat="45.67289" lon="4.75601">
        <ele>218.2</ele>
        <time>1970-01-01T02:23:58.000Z</time>
      </trkpt>
      <trkpt lat="45.67286" lon="4.75602">
        <ele>218.2</ele>
        <time>1970-01-01T02:24:00.000Z</time>
      </trkpt>
      <trkpt lat="45.67284" lon="4.75602">
        <ele>218.2</ele>
        <time>1970-01-01T02:24:01.000Z</time>
      </trkpt>
      <trkpt lat="45.67284" lon="4.75601">
        <ele>218.2</ele>
        <time>1970-01-01T02:24:02.000Z</time>
      </trkpt>
      <trkpt lat="45.67284" lon="4.75599">
        <ele>218.2</ele>
        <time>1970-01-01T02:24:03.000Z</time>
      </trkpt>
      <trkpt lat="45.67285" lon="4.75598">
        <ele>218.2</ele>
        <time>1970-01-01T02:24:04.000Z</time>
      </trkpt>
      <trkpt lat="45.67286" lon="4.75598">
        <ele>218.2</ele>
        <time>1970-01-01T02:24:06.000Z</time>
      </trkpt>
      <trkpt lat="45.67286" lon="4.75598">
        <ele>218.2</ele>
        <time>1970-01-01T02:24:07.000Z</time>
      </trkpt>
      <trkpt lat="45.67287" lon="4.75599">
        <ele>218.2</ele>
        <time>1970-01-01T02:24:08.000Z</time>
      </trkpt>
      <trkpt lat="45.67288" lon="4.75599">
        <ele>218.2</ele>
        <time>1970-01-01T02:24:09.000Z</time>
      </trkpt>
      <trkpt lat="45.6729" lon="4.75599">
        <ele>218.2</ele>
        <time>1970-01-01T02:24:10.000Z</time>
      </trkpt>
      <trkpt lat="45.67292" lon="4.75598">
        <ele>218.2</ele>
        <time>1970-01-01T02:24:12.000Z</time>
      </trkpt>
      <trkpt lat="45.67293" lon="4.75597">
        <ele>218.2</ele>
        <time>1970-01-01T02:24:13.000Z</time>
      </trkpt>
      <trkpt lat="45.67293" lon="4.75597">
        <ele>218.2</ele>
        <time>1970-01-01T02:24:14.000Z</time>
      </trkpt>
      <trkpt lat="45.67294" lon="4.75595">
        <ele>218.2</ele>
        <time>1970-01-01T02:24:16.000Z</time>
      </trkpt>
      <trkpt lat="45.67294" lon="4.75593">
        <ele>218.2</ele>
        <time>1970-01-01T02:24:18.000Z</time>
      </trkpt>
      <trkpt lat="45.67295" lon="4.75591">
        <ele>218.4</ele>
        <time>1970-01-01T02:24:20.000Z</time>
      </trkpt>
      <trkpt lat="45.67297" lon="4.7559">
        <ele>218.4</ele>
        <time>1970-01-01T02:24:22.000Z</time>
      </trkpt>
      <trkpt lat="45.673" lon="4.75589">
        <ele>218.4</ele>
        <time>1970-01-01T02:24:24.000Z</time>
      </trkpt>
      <trkpt lat="45.67304" lon="4.75588">
        <ele>218.4</ele>
        <time>1970-01-01T02:24:26.000Z</time>
      </trkpt>
      <trkpt lat="45.67311" lon="4.75585">
        <ele>218.4</ele>
        <time>1970-01-01T02:24:28.000Z</time>
      </trkpt>
      <trkpt lat="45.67318" lon="4.75583">
        <ele>218.2</ele>
        <time>1970-01-01T02:24:30.000Z</time>
      </trkpt>
      <trkpt lat="45.67325" lon="4.7558">
        <ele>217.8</ele>
        <time>1970-01-01T02:24:32.000Z</time>
      </trkpt>
      <trkpt lat="45.67333" lon="4.75578">
        <ele>217.4</ele>
        <time>1970-01-01T02:24:34.000Z</time>
      </trkpt>
      <trkpt lat="45.6734" lon="4.75576">
        <ele>217.2</ele>
        <time>1970-01-01T02:24:36.000Z</time>
      </trkpt>
      <trkpt lat="45.67347" lon="4.75574">
        <ele>216.8</ele>
        <time>1970-01-01T02:24:38.000Z</time>
      </trkpt>
      <trkpt lat="45.67354" lon="4.75572">
        <ele>216.8</ele>
        <time>1970-01-01T02:24:40.000Z</time>
      </trkpt>
      <trkpt lat="45.67362" lon="4.75572">
        <ele>216.8</ele>
        <time>1970-01-01T02:24:42.000Z</time>
      </trkpt>
      <trkpt lat="45.67369" lon="4.75571">
        <ele>216.8</ele>
        <time>1970-01-01T02:24:44.000Z</time>
      </trkpt>
      <trkpt lat="45.67373" lon="4.7557">
        <ele>217</ele>
        <time>1970-01-01T02:24:45.000Z</time>
      </trkpt>
      <trkpt lat="45.67376" lon="4.75569">
        <ele>217</ele>
        <time>1970-01-01T02:24:46.000Z</time>
      </trkpt>
      <trkpt lat="45.67382" lon="4.75567">
        <ele>217</ele>
        <time>1970-01-01T02:24:48.000Z</time>
      </trkpt>
      <trkpt lat="45.67389" lon="4.75566">
        <ele>217.2</ele>
        <time>1970-01-01T02:24:50.000Z</time>
      </trkpt>
      <trkpt lat="45.67396" lon="4.75564">
        <ele>217.2</ele>
        <time>1970-01-01T02:24:52.000Z</time>
      </trkpt>
      <trkpt lat="45.67403" lon="4.75562">
        <ele>217.2</ele>
        <time>1970-01-01T02:24:54.000Z</time>
      </trkpt>
      <trkpt lat="45.67406" lon="4.7556">
        <ele>217.4</ele>
        <time>1970-01-01T02:24:55.000Z</time>
      </trkpt>
      <trkpt lat="45.67409" lon="4.75558">
        <ele>217.4</ele>
        <time>1970-01-01T02:24:56.000Z</time>
      </trkpt>
      <trkpt lat="45.67416" lon="4.75553">
        <ele>217.6</ele>
        <time>1970-01-01T02:24:58.000Z</time>
      </trkpt>
      <trkpt lat="45.67422" lon="4.75549">
        <ele>217.8</ele>
        <time>1970-01-01T02:25:00.000Z</time>
      </trkpt>
      <trkpt lat="45.67425" lon="4.75547">
        <ele>217.8</ele>
        <time>1970-01-01T02:25:01.000Z</time>
      </trkpt>
      <trkpt lat="45.67429" lon="4.75544">
        <ele>217.8</ele>
        <time>1970-01-01T02:25:02.000Z</time>
      </trkpt>
      <trkpt lat="45.67436" lon="4.7554">
        <ele>217.8</ele>
        <time>1970-01-01T02:25:04.000Z</time>
      </trkpt>
      <trkpt lat="45.67443" lon="4.75535">
        <ele>217.8</ele>
        <time>1970-01-01T02:25:06.000Z</time>
      </trkpt>
      <trkpt lat="45.67449" lon="4.75529">
        <ele>217.6</ele>
        <time>1970-01-01T02:25:08.000Z</time>
      </trkpt>
      <trkpt lat="45.67454" lon="4.75523">
        <ele>217.8</ele>
        <time>1970-01-01T02:25:10.000Z</time>
      </trkpt>
      <trkpt lat="45.67458" lon="4.75518">
        <ele>217.8</ele>
        <time>1970-01-01T02:25:12.000Z</time>
      </trkpt>
      <trkpt lat="45.67462" lon="4.75514">
        <ele>217.8</ele>
        <time>1970-01-01T02:25:14.000Z</time>
      </trkpt>
      <trkpt lat="45.67464" lon="4.75507">
        <ele>217.8</ele>
        <time>1970-01-01T02:25:16.000Z</time>
      </trkpt>
      <trkpt lat="45.67466" lon="4.75504">
        <ele>217.8</ele>
        <time>1970-01-01T02:25:18.000Z</time>
      </trkpt>
      <trkpt lat="45.67466" lon="4.75503">
        <ele>217.8</ele>
        <time>1970-01-01T02:25:19.000Z</time>
      </trkpt>
      <trkpt lat="45.67465" lon="4.75502">
        <ele>217.8</ele>
        <time>1970-01-01T02:25:20.000Z</time>
      </trkpt>
      <trkpt lat="45.67465" lon="4.75501">
        <ele>218</ele>
        <time>1970-01-01T02:25:22.000Z</time>
      </trkpt>
      <trkpt lat="45.67465" lon="4.75501">
        <ele>218.2</ele>
        <time>1970-01-01T02:25:23.000Z</time>
      </trkpt>
      <trkpt lat="45.67466" lon="4.755">
        <ele>218.2</ele>
        <time>1970-01-01T02:25:24.000Z</time>
      </trkpt>
      <trkpt lat="45.67467" lon="4.75499">
        <ele>218.2</ele>
        <time>1970-01-01T02:25:26.000Z</time>
      </trkpt>
      <trkpt lat="45.67467" lon="4.75498">
        <ele>218.2</ele>
        <time>1970-01-01T02:25:28.000Z</time>
      </trkpt>
      <trkpt lat="45.67468" lon="4.75496">
        <ele>218.4</ele>
        <time>1970-01-01T02:25:30.000Z</time>
      </trkpt>
      <trkpt lat="45.67468" lon="4.75492">
        <ele>218.4</ele>
        <time>1970-01-01T02:25:32.000Z</time>
      </trkpt>
      <trkpt lat="45.6747" lon="4.75489">
        <ele>218.4</ele>
        <time>1970-01-01T02:25:34.000Z</time>
      </trkpt>
      <trkpt lat="45.6747" lon="4.75489">
        <ele>218.4</ele>
        <time>1970-01-01T02:25:36.000Z</time>
      </trkpt>
      <trkpt lat="45.6747" lon="4.7549">
        <ele>218.4</ele>
        <time>1970-01-01T02:25:38.000Z</time>
      </trkpt>
      <trkpt lat="45.6747" lon="4.75492">
        <ele>218.4</ele>
        <time>1970-01-01T02:25:40.000Z</time>
      </trkpt>
      <trkpt lat="45.6747" lon="4.75495">
        <ele>218.4</ele>
        <time>1970-01-01T02:25:42.000Z</time>
      </trkpt>
      <trkpt lat="45.67471" lon="4.75497">
        <ele>218.4</ele>
        <time>1970-01-01T02:25:44.000Z</time>
      </trkpt>
      <trkpt lat="45.67471" lon="4.75497">
        <ele>218.6</ele>
        <time>1970-01-01T02:25:46.000Z</time>
      </trkpt>
      <trkpt lat="45.67471" lon="4.75497">
        <ele>218.8</ele>
        <time>1970-01-01T02:25:48.000Z</time>
      </trkpt>
      <trkpt lat="45.67473" lon="4.75493">
        <ele>218.8</ele>
        <time>1970-01-01T02:25:50.000Z</time>
      </trkpt>
      <trkpt lat="45.67473" lon="4.75491">
        <ele>218.8</ele>
        <time>1970-01-01T02:25:51.000Z</time>
      </trkpt>
      <trkpt lat="45.67474" lon="4.75488">
        <ele>218.8</ele>
        <time>1970-01-01T02:25:52.000Z</time>
      </trkpt>
      <trkpt lat="45.67476" lon="4.75484">
        <ele>218.8</ele>
        <time>1970-01-01T02:25:54.000Z</time>
      </trkpt>
      <trkpt lat="45.67477" lon="4.75484">
        <ele>218.8</ele>
        <time>1970-01-01T02:25:55.000Z</time>
      </trkpt>
      <trkpt lat="45.67478" lon="4.75484">
        <ele>218.8</ele>
        <time>1970-01-01T02:25:56.000Z</time>
      </trkpt>
      <trkpt lat="45.67479" lon="4.75485">
        <ele>218.8</ele>
        <time>1970-01-01T02:25:58.000Z</time>
      </trkpt>
      <trkpt lat="45.67479" lon="4.75484">
        <ele>218.8</ele>
        <time>1970-01-01T02:26:00.000Z</time>
      </trkpt>
      <trkpt lat="45.6748" lon="4.75484">
        <ele>218.8</ele>
        <time>1970-01-01T02:26:02.000Z</time>
      </trkpt>
      <trkpt lat="45.67481" lon="4.75484">
        <ele>218.8</ele>
        <time>1970-01-01T02:26:04.000Z</time>
      </trkpt>
      <trkpt lat="45.67481" lon="4.75484">
        <ele>218.8</ele>
        <time>1970-01-01T02:26:05.000Z</time>
      </trkpt>
      <trkpt lat="45.67483" lon="4.75485">
        <ele>218.8</ele>
        <time>1970-01-01T02:26:06.000Z</time>
      </trkpt>
      <trkpt lat="45.67484" lon="4.75484">
        <ele>218.8</ele>
        <time>1970-01-01T02:26:08.000Z</time>
      </trkpt>
      <trkpt lat="45.67484" lon="4.75483">
        <ele>218.8</ele>
        <time>1970-01-01T02:26:10.000Z</time>
      </trkpt>
      <trkpt lat="45.67482" lon="4.75485">
        <ele>218.8</ele>
        <time>1970-01-01T02:26:12.000Z</time>
      </trkpt>
      <trkpt lat="45.6748" lon="4.75487">
        <ele>218.8</ele>
        <time>1970-01-01T02:26:14.000Z</time>
      </trkpt>
      <trkpt lat="45.67479" lon="4.75489">
        <ele>218.8</ele>
        <time>1970-01-01T02:26:15.000Z</time>
      </trkpt>
      <trkpt lat="45.67479" lon="4.75491">
        <ele>218.8</ele>
        <time>1970-01-01T02:26:16.000Z</time>
      </trkpt>
      <trkpt lat="45.67479" lon="4.75492">
        <ele>218.8</ele>
        <time>1970-01-01T02:26:18.000Z</time>
      </trkpt>
      <trkpt lat="45.67479" lon="4.75494">
        <ele>218.8</ele>
        <time>1970-01-01T02:26:20.000Z</time>
      </trkpt>
      <trkpt lat="45.67479" lon="4.75496">
        <ele>218.8</ele>
        <time>1970-01-01T02:26:21.000Z</time>
      </trkpt>
      <trkpt lat="45.67479" lon="4.75497">
        <ele>218.8</ele>
        <time>1970-01-01T02:26:22.000Z</time>
      </trkpt>
      <trkpt lat="45.67478" lon="4.75499">
        <ele>218.8</ele>
        <time>1970-01-01T02:26:24.000Z</time>
      </trkpt>
      <trkpt lat="45.67478" lon="4.75501">
        <ele>218.8</ele>
        <time>1970-01-01T02:26:26.000Z</time>
      </trkpt>
      <trkpt lat="45.67477" lon="4.755">
        <ele>218.8</ele>
        <time>1970-01-01T02:26:28.000Z</time>
      </trkpt>
      <trkpt lat="45.67477" lon="4.755">
        <ele>218.8</ele>
        <time>1970-01-01T02:26:30.000Z</time>
      </trkpt>
      <trkpt lat="45.67478" lon="4.755">
        <ele>218.8</ele>
        <time>1970-01-01T02:26:32.000Z</time>
      </trkpt>
      <trkpt lat="45.67478" lon="4.75497">
        <ele>218.8</ele>
        <time>1970-01-01T02:26:34.000Z</time>
      </trkpt>
      <trkpt lat="45.67477" lon="4.75495">
        <ele>218.8</ele>
        <time>1970-01-01T02:26:36.000Z</time>
      </trkpt>
      <trkpt lat="45.67477" lon="4.75494">
        <ele>219</ele>
        <time>1970-01-01T02:26:37.000Z</time>
      </trkpt>
      <trkpt lat="45.67477" lon="4.75493">
        <ele>219.2</ele>
        <time>1970-01-01T02:26:38.000Z</time>
      </trkpt>
      <trkpt lat="45.67478" lon="4.75491">
        <ele>219.4</ele>
        <time>1970-01-01T02:26:40.000Z</time>
      </trkpt>
      <trkpt lat="45.67478" lon="4.75488">
        <ele>219.4</ele>
        <time>1970-01-01T02:26:42.000Z</time>
      </trkpt>
      <trkpt lat="45.67479" lon="4.75483">
        <ele>219.6</ele>
        <time>1970-01-01T02:26:44.000Z</time>
      </trkpt>
      <trkpt lat="45.67479" lon="4.75479">
        <ele>219.6</ele>
        <time>1970-01-01T02:26:45.000Z</time>
      </trkpt>
      <trkpt lat="45.67479" lon="4.75475">
        <ele>219.6</ele>
        <time>1970-01-01T02:26:46.000Z</time>
      </trkpt>
      <trkpt lat="45.6748" lon="4.75472">
        <ele>219.8</ele>
        <time>1970-01-01T02:26:47.000Z</time>
      </trkpt>
      <trkpt lat="45.67481" lon="4.75467">
        <ele>219.8</ele>
        <time>1970-01-01T02:26:48.000Z</time>
      </trkpt>
      <trkpt lat="45.67482" lon="4.75463">
        <ele>219.8</ele>
        <time>1970-01-01T02:26:49.000Z</time>
      </trkpt>
      <trkpt lat="45.67485" lon="4.75459">
        <ele>219.8</ele>
        <time>1970-01-01T02:26:50.000Z</time>
      </trkpt>
      <trkpt lat="45.67491" lon="4.75451">
        <ele>219.8</ele>
        <time>1970-01-01T02:26:52.000Z</time>
      </trkpt>
      <trkpt lat="45.67498" lon="4.75442">
        <ele>219.8</ele>
        <time>1970-01-01T02:26:54.000Z</time>
      </trkpt>
      <trkpt lat="45.67505" lon="4.75434">
        <ele>219.6</ele>
        <time>1970-01-01T02:26:56.000Z</time>
      </trkpt>
      <trkpt lat="45.67511" lon="4.75426">
        <ele>219</ele>
        <time>1970-01-01T02:26:58.000Z</time>
      </trkpt>
      <trkpt lat="45.67518" lon="4.75418">
        <ele>218.6</ele>
        <time>1970-01-01T02:27:00.000Z</time>
      </trkpt>
      <trkpt lat="45.67521" lon="4.75414">
        <ele>218.4</ele>
        <time>1970-01-01T02:27:01.000Z</time>
      </trkpt>
      <trkpt lat="45.67524" lon="4.7541">
        <ele>218.4</ele>
        <time>1970-01-01T02:27:02.000Z</time>
      </trkpt>
      <trkpt lat="45.67526" lon="4.75405">
        <ele>218.4</ele>
        <time>1970-01-01T02:27:03.000Z</time>
      </trkpt>
      <trkpt lat="45.67529" lon="4.75401">
        <ele>218.4</ele>
        <time>1970-01-01T02:27:04.000Z</time>
      </trkpt>
      <trkpt lat="45.67536" lon="4.75395">
        <ele>218.2</ele>
        <time>1970-01-01T02:27:06.000Z</time>
      </trkpt>
      <trkpt lat="45.67543" lon="4.75391">
        <ele>218.2</ele>
        <time>1970-01-01T02:27:08.000Z</time>
      </trkpt>
      <trkpt lat="45.67549" lon="4.75388">
        <ele>218.2</ele>
        <time>1970-01-01T02:27:10.000Z</time>
      </trkpt>
      <trkpt lat="45.67554" lon="4.75387">
        <ele>218.2</ele>
        <time>1970-01-01T02:27:12.000Z</time>
      </trkpt>
      <trkpt lat="45.67559" lon="4.75384">
        <ele>218.4</ele>
        <time>1970-01-01T02:27:14.000Z</time>
      </trkpt>
      <trkpt lat="45.67565" lon="4.75381">
        <ele>218.4</ele>
        <time>1970-01-01T02:27:16.000Z</time>
      </trkpt>
      <trkpt lat="45.67568" lon="4.75379">
        <ele>218.6</ele>
        <time>1970-01-01T02:27:17.000Z</time>
      </trkpt>
      <trkpt lat="45.67571" lon="4.75376">
        <ele>218.6</ele>
        <time>1970-01-01T02:27:18.000Z</time>
      </trkpt>
      <trkpt lat="45.67576" lon="4.75366">
        <ele>218.6</ele>
        <time>1970-01-01T02:27:20.000Z</time>
      </trkpt>
      <trkpt lat="45.67578" lon="4.75361">
        <ele>218.6</ele>
        <time>1970-01-01T02:27:21.000Z</time>
      </trkpt>
      <trkpt lat="45.6758" lon="4.75354">
        <ele>218.6</ele>
        <time>1970-01-01T02:27:22.000Z</time>
      </trkpt>
      <trkpt lat="45.67584" lon="4.75342">
        <ele>218.6</ele>
        <time>1970-01-01T02:27:24.000Z</time>
      </trkpt>
      <trkpt lat="45.67586" lon="4.75336">
        <ele>218.6</ele>
        <time>1970-01-01T02:27:25.000Z</time>
      </trkpt>
      <trkpt lat="45.67588" lon="4.75329">
        <ele>218.4</ele>
        <time>1970-01-01T02:27:26.000Z</time>
      </trkpt>
      <trkpt lat="45.67592" lon="4.75315">
        <ele>218.4</ele>
        <time>1970-01-01T02:27:28.000Z</time>
      </trkpt>
      <trkpt lat="45.67593" lon="4.75309">
        <ele>218.2</ele>
        <time>1970-01-01T02:27:29.000Z</time>
      </trkpt>
      <trkpt lat="45.67595" lon="4.75303">
        <ele>218.2</ele>
        <time>1970-01-01T02:27:30.000Z</time>
      </trkpt>
      <trkpt lat="45.676" lon="4.75293">
        <ele>218.2</ele>
        <time>1970-01-01T02:27:32.000Z</time>
      </trkpt>
      <trkpt lat="45.67605" lon="4.75286">
        <ele>218.2</ele>
        <time>1970-01-01T02:27:34.000Z</time>
      </trkpt>
      <trkpt lat="45.67613" lon="4.75278">
        <ele>218.2</ele>
        <time>1970-01-01T02:27:36.000Z</time>
      </trkpt>
      <trkpt lat="45.67618" lon="4.75275">
        <ele>218.4</ele>
        <time>1970-01-01T02:27:37.000Z</time>
      </trkpt>
      <trkpt lat="45.67622" lon="4.75273">
        <ele>218.4</ele>
        <time>1970-01-01T02:27:38.000Z</time>
      </trkpt>
      <trkpt lat="45.67632" lon="4.75269">
        <ele>218.4</ele>
        <time>1970-01-01T02:27:40.000Z</time>
      </trkpt>
      <trkpt lat="45.67642" lon="4.75266">
        <ele>218.8</ele>
        <time>1970-01-01T02:27:42.000Z</time>
      </trkpt>
      <trkpt lat="45.67653" lon="4.75262">
        <ele>218.6</ele>
        <time>1970-01-01T02:27:44.000Z</time>
      </trkpt>
      <trkpt lat="45.67663" lon="4.75258">
        <ele>218.8</ele>
        <time>1970-01-01T02:27:46.000Z</time>
      </trkpt>
      <trkpt lat="45.67672" lon="4.75256">
        <ele>218.8</ele>
        <time>1970-01-01T02:27:48.000Z</time>
      </trkpt>
      <trkpt lat="45.67675" lon="4.75255">
        <ele>219</ele>
        <time>1970-01-01T02:27:49.000Z</time>
      </trkpt>
      <trkpt lat="45.67679" lon="4.75255">
        <ele>219</ele>
        <time>1970-01-01T02:27:50.000Z</time>
      </trkpt>
      <trkpt lat="45.67686" lon="4.75254">
        <ele>219</ele>
        <time>1970-01-01T02:27:52.000Z</time>
      </trkpt>
      <trkpt lat="45.67695" lon="4.75254">
        <ele>219.2</ele>
        <time>1970-01-01T02:27:54.000Z</time>
      </trkpt>
      <trkpt lat="45.67699" lon="4.75253">
        <ele>219.4</ele>
        <time>1970-01-01T02:27:55.000Z</time>
      </trkpt>
      <trkpt lat="45.67703" lon="4.75252">
        <ele>219.6</ele>
        <time>1970-01-01T02:27:56.000Z</time>
      </trkpt>
      <trkpt lat="45.67712" lon="4.7525">
        <ele>219.8</ele>
        <time>1970-01-01T02:27:58.000Z</time>
      </trkpt>
      <trkpt lat="45.67721" lon="4.75246">
        <ele>220</ele>
        <time>1970-01-01T02:28:00.000Z</time>
      </trkpt>
      <trkpt lat="45.67731" lon="4.75242">
        <ele>220</ele>
        <time>1970-01-01T02:28:02.000Z</time>
      </trkpt>
      <trkpt lat="45.6774" lon="4.75238">
        <ele>220</ele>
        <time>1970-01-01T02:28:04.000Z</time>
      </trkpt>
      <trkpt lat="45.6775" lon="4.75233">
        <ele>220</ele>
        <time>1970-01-01T02:28:06.000Z</time>
      </trkpt>
      <trkpt lat="45.67759" lon="4.75227">
        <ele>220</ele>
        <time>1970-01-01T02:28:08.000Z</time>
      </trkpt>
      <trkpt lat="45.67762" lon="4.75224">
        <ele>220</ele>
        <time>1970-01-01T02:28:09.000Z</time>
      </trkpt>
      <trkpt lat="45.67765" lon="4.75222">
        <ele>220</ele>
        <time>1970-01-01T02:28:10.000Z</time>
      </trkpt>
      <trkpt lat="45.67771" lon="4.75218">
        <ele>220</ele>
        <time>1970-01-01T02:28:12.000Z</time>
      </trkpt>
      <trkpt lat="45.67777" lon="4.75214">
        <ele>220</ele>
        <time>1970-01-01T02:28:14.000Z</time>
      </trkpt>
      <trkpt lat="45.67779" lon="4.75212">
        <ele>220</ele>
        <time>1970-01-01T02:28:15.000Z</time>
      </trkpt>
      <trkpt lat="45.67781" lon="4.75211">
        <ele>220.2</ele>
        <time>1970-01-01T02:28:16.000Z</time>
      </trkpt>
      <trkpt lat="45.67786" lon="4.75208">
        <ele>220.2</ele>
        <time>1970-01-01T02:28:18.000Z</time>
      </trkpt>
      <trkpt lat="45.67791" lon="4.75204">
        <ele>220.6</ele>
        <time>1970-01-01T02:28:20.000Z</time>
      </trkpt>
      <trkpt lat="45.67794" lon="4.75202">
        <ele>221</ele>
        <time>1970-01-01T02:28:21.000Z</time>
      </trkpt>
      <trkpt lat="45.67797" lon="4.75199">
        <ele>221</ele>
        <time>1970-01-01T02:28:22.000Z</time>
      </trkpt>
      <trkpt lat="45.67803" lon="4.75195">
        <ele>221</ele>
        <time>1970-01-01T02:28:24.000Z</time>
      </trkpt>
      <trkpt lat="45.67808" lon="4.75191">
        <ele>221</ele>
        <time>1970-01-01T02:28:26.000Z</time>
      </trkpt>
      <trkpt lat="45.6781" lon="4.75189">
        <ele>221.2</ele>
        <time>1970-01-01T02:28:27.000Z</time>
      </trkpt>
      <trkpt lat="45.67811" lon="4.75185">
        <ele>221.2</ele>
        <time>1970-01-01T02:28:28.000Z</time>
      </trkpt>
      <trkpt lat="45.67811" lon="4.75177">
        <ele>221.2</ele>
        <time>1970-01-01T02:28:30.000Z</time>
      </trkpt>
      <trkpt lat="45.67811" lon="4.75174">
        <ele>221.2</ele>
        <time>1970-01-01T02:28:31.000Z</time>
      </trkpt>
      <trkpt lat="45.67811" lon="4.75171">
        <ele>221.2</ele>
        <time>1970-01-01T02:28:32.000Z</time>
      </trkpt>
      <trkpt lat="45.6781" lon="4.75168">
        <ele>221.2</ele>
        <time>1970-01-01T02:28:33.000Z</time>
      </trkpt>
      <trkpt lat="45.6781" lon="4.75165">
        <ele>221.2</ele>
        <time>1970-01-01T02:28:34.000Z</time>
      </trkpt>
      <trkpt lat="45.67809" lon="4.7516">
        <ele>221.2</ele>
        <time>1970-01-01T02:28:36.000Z</time>
      </trkpt>
      <trkpt lat="45.67809" lon="4.75158">
        <ele>221.2</ele>
        <time>1970-01-01T02:28:37.000Z</time>
      </trkpt>
      <trkpt lat="45.67809" lon="4.75156">
        <ele>221.2</ele>
        <time>1970-01-01T02:28:38.000Z</time>
      </trkpt>
      <trkpt lat="45.67809" lon="4.75154">
        <ele>221.4</ele>
        <time>1970-01-01T02:28:39.000Z</time>
      </trkpt>
      <trkpt lat="45.67809" lon="4.75153">
        <ele>221.4</ele>
        <time>1970-01-01T02:28:40.000Z</time>
      </trkpt>
    </trkseg>
  </trk>
</gpx>